<?xml version='1.0' encoding='UTF-8'?><gpx version="1.1" creator="JPX - https://github.com/jenetics/jpx" xmlns="http://www.topografix.com/GPX/1/1"><trk><trkseg><trkpt lat="37.76861558036219" lon="12.871136986832125"><ele>390.0</ele><time>2026-04-28T07:57:10Z</time></trkpt><trkpt lat="37.7686637245684" lon="12.87126720448376"><ele>390.0</ele><time>2026-04-28T07:57:12Z</time></trkpt><trkpt lat="37.768712581234276" lon="12.871332826560778"><ele>390.0</ele><time>2026-04-28T07:57:13Z</time></trkpt><trkpt lat="37.76878082481895" lon="12.871391102756773"><ele>390.0</ele><time>2026-04-28T07:57:14Z</time></trkpt><trkpt lat="37.76885471957853" lon="12.871456227766105"><ele>390.0</ele><time>2026-04-28T07:57:15Z</time></trkpt><trkpt lat="37.76894257319762" lon="12.871542548974537"><ele>390.0</ele><time>2026-04-28T07:57:16Z</time></trkpt><trkpt lat="37.76902262584592" lon="12.871625318922566"><ele>390.0</ele><time>2026-04-28T07:57:17Z</time></trkpt><trkpt lat="37.769104480549586" lon="12.871712428350238"><ele>390.0</ele><time>2026-04-28T07:57:18Z</time></trkpt><trkpt lat="37.76919434582711" lon="12.871812625040619"><ele>390.0</ele><time>2026-04-28T07:57:19Z</time></trkpt><trkpt lat="37.76928575273716" lon="12.871912610469575"><ele>391.4</ele><time>2026-04-28T07:57:20Z</time></trkpt><trkpt lat="37.769380896753844" lon="12.8720137615925"><ele>392.8</ele><time>2026-04-28T07:57:21Z</time></trkpt><trkpt lat="37.76946703321488" lon="12.872108523905966"><ele>394.20000000000005</ele><time>2026-04-28T07:57:22Z</time></trkpt><trkpt lat="37.769544284290276" lon="12.87219948099757"><ele>395.6</ele><time>2026-04-28T07:57:23Z</time></trkpt><trkpt lat="37.769622991585194" lon="12.872288079475899"><ele>397.0</ele><time>2026-04-28T07:57:24Z</time></trkpt><trkpt lat="37.769698946324844" lon="12.872374593837625"><ele>397.0</ele><time>2026-04-28T07:57:25Z</time></trkpt><trkpt lat="37.76977544575477" lon="12.872463116879343"><ele>397.0</ele><time>2026-04-28T07:57:26Z</time></trkpt><trkpt lat="37.769853578335315" lon="12.872553580678117"><ele>397.0</ele><time>2026-04-28T07:57:27Z</time></trkpt><trkpt lat="37.76993494657325" lon="12.872647429063308"><ele>397.0</ele><time>2026-04-28T07:57:28Z</time></trkpt><trkpt lat="37.770027024988394" lon="12.872756617374083"><ele>397.0</ele><time>2026-04-28T07:57:29Z</time></trkpt><trkpt lat="37.770126203605635" lon="12.872877150702717"><ele>400.33333333333337</ele><time>2026-04-28T07:57:30Z</time></trkpt><trkpt lat="37.77022749298807" lon="12.87300574399478"><ele>403.66666666666663</ele><time>2026-04-28T07:57:30.999Z</time></trkpt><trkpt lat="37.770322008549236" lon="12.873155589462854"><ele>407.0</ele><time>2026-04-28T07:57:31.999Z</time></trkpt><trkpt lat="37.77040676944681" lon="12.873328741934687"><ele>405.66666666666663</ele><time>2026-04-28T07:57:32.999Z</time></trkpt><trkpt lat="37.77048484732965" lon="12.873508801427548"><ele>404.33333333333337</ele><time>2026-04-28T07:57:33.999Z</time></trkpt><trkpt lat="37.77056596420639" lon="12.8736639989269"><ele>403.0</ele><time>2026-04-28T07:57:34.999Z</time></trkpt><trkpt lat="37.770691870194874" lon="12.873786621309536"><ele>403.0</ele><time>2026-04-28T07:57:35.999Z</time></trkpt><trkpt lat="37.770824077532104" lon="12.873878767505339"><ele>403.0</ele><time>2026-04-28T07:57:36.999Z</time></trkpt><trkpt lat="37.77095303656359" lon="12.873969289801071"><ele>403.0</ele><time>2026-04-28T07:57:37.999Z</time></trkpt><trkpt lat="37.77107297277589" lon="12.874055935882557"><ele>403.0</ele><time>2026-04-28T07:57:38.999Z</time></trkpt><trkpt lat="37.77119070290583" lon="12.874131626771039"><ele>404.5</ele><time>2026-04-28T07:57:39.999Z</time></trkpt><trkpt lat="37.771303354620336" lon="12.874205299591965"><ele>406.0</ele><time>2026-04-28T07:57:40.999Z</time></trkpt><trkpt lat="37.771413541494056" lon="12.874272770855749"><ele>407.5</ele><time>2026-04-28T07:57:41.999Z</time></trkpt><trkpt lat="37.77152550267043" lon="12.874335968264068"><ele>409.0</ele><time>2026-04-28T07:57:42.999Z</time></trkpt><trkpt lat="37.771640500495266" lon="12.874400884457765"><ele>409.5</ele><time>2026-04-28T07:57:43.999Z</time></trkpt><trkpt lat="37.77175963797508" lon="12.874461940274317"><ele>410.0</ele><time>2026-04-28T07:57:44.999Z</time></trkpt><trkpt lat="37.77188240592509" lon="12.874518491393452"><ele>410.5</ele><time>2026-04-28T07:57:45.999Z</time></trkpt><trkpt lat="37.77200123387294" lon="12.874576958562256"><ele>411.0</ele><time>2026-04-28T07:57:46.999Z</time></trkpt><trkpt lat="37.772112559675065" lon="12.874645746871726"><ele>412.0</ele><time>2026-04-28T07:57:47.999Z</time></trkpt><trkpt lat="37.77222307851266" lon="12.874708988449347"><ele>413.0</ele><time>2026-04-28T07:57:48.999Z</time></trkpt><trkpt lat="37.77232831325606" lon="12.8748007852204"><ele>414.0</ele><time>2026-04-28T07:57:49.999Z</time></trkpt><trkpt lat="37.772419368285355" lon="12.874913921105247"><ele>415.0</ele><time>2026-04-28T07:57:50.999Z</time></trkpt><trkpt lat="37.77251324819701" lon="12.875050084685194"><ele>416.0</ele><time>2026-04-28T07:57:51.999Z</time></trkpt><trkpt lat="37.7726064256978" lon="12.87516923073091"><ele>417.0</ele><time>2026-04-28T07:57:52.999Z</time></trkpt><trkpt lat="37.77271544156006" lon="12.875253923998152"><ele>418.0</ele><time>2026-04-28T07:57:53.999Z</time></trkpt><trkpt lat="37.77280571535898" lon="12.87533790458349"><ele>419.0</ele><time>2026-04-28T07:57:54.999Z</time></trkpt><trkpt lat="37.772898172277806" lon="12.875424839859614"><ele>419.2</ele><time>2026-04-28T07:57:55.999Z</time></trkpt><trkpt lat="37.772974609096465" lon="12.875515881115895"><ele>419.4</ele><time>2026-04-28T07:57:56.999Z</time></trkpt><trkpt lat="37.77305162756668" lon="12.875603851534226"><ele>419.6</ele><time>2026-04-28T07:57:57.999Z</time></trkpt><trkpt lat="37.77314779754554" lon="12.875676560815394"><ele>419.8</ele><time>2026-04-28T07:57:58.999Z</time></trkpt><trkpt lat="37.77325390458016" lon="12.875737069561625"><ele>420.0</ele><time>2026-04-28T07:57:59.999Z</time></trkpt><trkpt lat="37.773382716358" lon="12.875775680013287"><ele>420.0</ele><time>2026-04-28T07:58:00.999Z</time></trkpt><trkpt lat="37.77351048562406" lon="12.875833091694261"><ele>420.0</ele><time>2026-04-28T07:58:01.999Z</time></trkpt><trkpt lat="37.773636769163865" lon="12.875901909397564"><ele>420.0</ele><time>2026-04-28T07:58:02.999Z</time></trkpt><trkpt lat="37.773761214914025" lon="12.87595784167711"><ele>420.0</ele><time>2026-04-28T07:58:03.999Z</time></trkpt><trkpt lat="37.77386874588633" lon="12.876029303983056"><ele>421.4</ele><time>2026-04-28T07:58:04.999Z</time></trkpt><trkpt lat="37.77398470175487" lon="12.876077929302976"><ele>422.8</ele><time>2026-04-28T07:58:05.999Z</time></trkpt><trkpt lat="37.77409028269662" lon="12.876126689868078"><ele>424.20000000000005</ele><time>2026-04-28T07:58:06.999Z</time></trkpt><trkpt lat="37.774190044000235" lon="12.876161423816615"><ele>425.6</ele><time>2026-04-28T07:58:07.999Z</time></trkpt><trkpt lat="37.77429155975007" lon="12.87620971164639"><ele>427.0</ele><time>2026-04-28T07:58:08.999Z</time></trkpt><trkpt lat="37.7743871027363" lon="12.876250607030618"><ele>427.40000000000003</ele><time>2026-04-28T07:58:09.999Z</time></trkpt><trkpt lat="37.774482115639266" lon="12.876306110659566"><ele>427.80000000000007</ele><time>2026-04-28T07:58:11Z</time></trkpt><trkpt lat="37.774577678269175" lon="12.876356574603383"><ele>428.2</ele><time>2026-04-28T07:58:12Z</time></trkpt><trkpt lat="37.77467035850303" lon="12.876407035506514"><ele>428.6</ele><time>2026-04-28T07:58:13Z</time></trkpt><trkpt lat="37.774747400206195" lon="12.87645394949599"><ele>429.0</ele><time>2026-04-28T07:58:14Z</time></trkpt><trkpt lat="37.7748207582638" lon="12.876479756317558"><ele>429.0</ele><time>2026-04-28T07:58:15Z</time></trkpt><trkpt lat="37.77489949159913" lon="12.876524536040503"><ele>429.0</ele><time>2026-04-28T07:58:16Z</time></trkpt><trkpt lat="37.77500197309709" lon="12.876580461239852"><ele>429.0</ele><time>2026-04-28T07:58:17Z</time></trkpt><trkpt lat="37.77512155273734" lon="12.876629831962603"><ele>429.0</ele><time>2026-04-28T07:58:18Z</time></trkpt><trkpt lat="37.77523557200906" lon="12.876682583897455"><ele>429.0</ele><time>2026-04-28T07:58:19Z</time></trkpt><trkpt lat="37.77536632260297" lon="12.876752117916897"><ele>430.5</ele><time>2026-04-28T07:58:20Z</time></trkpt><trkpt lat="37.77552123097565" lon="12.876825343137249"><ele>432.0</ele><time>2026-04-28T07:58:21Z</time></trkpt><trkpt lat="37.77565505658717" lon="12.876883188298642"><ele>433.5</ele><time>2026-04-28T07:58:22Z</time></trkpt><trkpt lat="37.775772004114806" lon="12.876936807594594"><ele>435.0</ele><time>2026-04-28T07:58:23Z</time></trkpt><trkpt lat="37.775879246949536" lon="12.876967325685092"><ele>435.0</ele><time>2026-04-28T07:58:24Z</time></trkpt><trkpt lat="37.775968099266485" lon="12.876977749088113"><ele>435.0</ele><time>2026-04-28T07:58:25Z</time></trkpt><trkpt lat="37.77605734104671" lon="12.87697202110091"><ele>435.0</ele><time>2026-04-28T07:58:26Z</time></trkpt><trkpt lat="37.77612845786976" lon="12.876970292118282"><ele>435.0</ele><time>2026-04-28T07:58:27Z</time></trkpt><trkpt lat="37.77619817851002" lon="12.876904777261036"><ele>435.0</ele><time>2026-04-28T07:58:28Z</time></trkpt><trkpt lat="37.77626660307146" lon="12.876726397109616"><ele>436.0</ele><time>2026-04-28T07:58:30Z</time></trkpt><trkpt lat="37.77627554559591" lon="12.876606205523636"><ele>437.0</ele><time>2026-04-28T07:58:31Z</time></trkpt><trkpt lat="37.77626707887728" lon="12.87647730881541"><ele>438.0</ele><time>2026-04-28T07:58:32Z</time></trkpt><trkpt lat="37.776212442008685" lon="12.876337826098855"><ele>439.0</ele><time>2026-04-28T07:58:33Z</time></trkpt><trkpt lat="37.77609317174973" lon="12.876205630930029"><ele>437.75</ele><time>2026-04-28T07:58:34Z</time></trkpt><trkpt lat="37.77601034720982" lon="12.876063182606819"><ele>436.5</ele><time>2026-04-28T07:58:35Z</time></trkpt><trkpt lat="37.77594405377689" lon="12.87590675724471"><ele>435.25</ele><time>2026-04-28T07:58:36Z</time></trkpt><trkpt lat="37.775850234559414" lon="12.875767348676153"><ele>434.0</ele><time>2026-04-28T07:58:37Z</time></trkpt><trkpt lat="37.77576857706256" lon="12.87559051209162"><ele>433.66666666666663</ele><time>2026-04-28T07:58:38Z</time></trkpt><trkpt lat="37.775736769070065" lon="12.87538222341901"><ele>433.33333333333337</ele><time>2026-04-28T07:58:39Z</time></trkpt><trkpt lat="37.77569650844326" lon="12.875155563472452"><ele>433.0</ele><time>2026-04-28T07:58:40Z</time></trkpt><trkpt lat="37.77566006099491" lon="12.874932384514056"><ele>435.0</ele><time>2026-04-28T07:58:41Z</time></trkpt><trkpt lat="37.77561488757795" lon="12.874711729724114"><ele>437.0</ele><time>2026-04-28T07:58:42Z</time></trkpt><trkpt lat="37.775601752821835" lon="12.874492225017926"><ele>439.0</ele><time>2026-04-28T07:58:43Z</time></trkpt><trkpt lat="37.775573372896375" lon="12.874303210781957"><ele>441.0</ele><time>2026-04-28T07:58:44Z</time></trkpt><trkpt lat="37.77554917546185" lon="12.87410919455817"><ele>443.0</ele><time>2026-04-28T07:58:45Z</time></trkpt><trkpt lat="37.775543490662784" lon="12.873929039935588"><ele>445.0</ele><time>2026-04-28T07:58:46Z</time></trkpt><trkpt lat="37.77556391191051" lon="12.873742954797503"><ele>447.0</ele><time>2026-04-28T07:58:47Z</time></trkpt><trkpt lat="37.77557625620395" lon="12.873553150515306"><ele>446.0</ele><time>2026-04-28T07:58:48Z</time></trkpt><trkpt lat="37.77561772289234" lon="12.873394311892836"><ele>445.0</ele><time>2026-04-28T07:58:49Z</time></trkpt><trkpt lat="37.77576107341061" lon="12.873262015266754"><ele>444.0</ele><time>2026-04-28T07:58:50Z</time></trkpt><trkpt lat="37.775832403890234" lon="12.873139871241538"><ele>443.0</ele><time>2026-04-28T07:58:51Z</time></trkpt><trkpt lat="37.77590207003487" lon="12.873030141365362"><ele>443.0</ele><time>2026-04-28T07:58:52Z</time></trkpt><trkpt lat="37.775998141983116" lon="12.872944059851367"><ele>443.0</ele><time>2026-04-28T07:58:53Z</time></trkpt><trkpt lat="37.776113253669656" lon="12.87291115282814"><ele>443.0</ele><time>2026-04-28T07:58:54Z</time></trkpt><trkpt lat="37.77619368561517" lon="12.872879731245385"><ele>443.0</ele><time>2026-04-28T07:58:55Z</time></trkpt><trkpt lat="37.77631893535268" lon="12.872936779211265"><ele>443.3333333333333</ele><time>2026-04-28T07:58:56Z</time></trkpt><trkpt lat="37.77647353870841" lon="12.87300244169491"><ele>443.66666666666663</ele><time>2026-04-28T07:58:57Z</time></trkpt><trkpt lat="37.77665011259216" lon="12.873079090018543"><ele>444.0</ele><time>2026-04-28T07:58:58Z</time></trkpt><trkpt lat="37.77679933776009" lon="12.87314456117441"><ele>439.33333333333337</ele><time>2026-04-28T07:58:59Z</time></trkpt><trkpt lat="37.776945050185866" lon="12.873196136390893"><ele>434.6666666666667</ele><time>2026-04-28T07:59:00Z</time></trkpt><trkpt lat="37.77709738340136" lon="12.873253661569086"><ele>430.0</ele><time>2026-04-28T07:59:01Z</time></trkpt><trkpt lat="37.77726682784781" lon="12.873330839138445"><ele>430.0</ele><time>2026-04-28T07:59:02Z</time></trkpt><trkpt lat="37.77745482531678" lon="12.873437086629043"><ele>430.0</ele><time>2026-04-28T07:59:03Z</time></trkpt><trkpt lat="37.77764465117015" lon="12.873541820711772"><ele>430.0</ele><time>2026-04-28T07:59:04Z</time></trkpt><trkpt lat="37.77780730082829" lon="12.873652316080943"><ele>433.6666666666667</ele><time>2026-04-28T07:59:05Z</time></trkpt><trkpt lat="37.777964056917064" lon="12.873751057711068"><ele>437.33333333333337</ele><time>2026-04-28T07:59:06Z</time></trkpt><trkpt lat="37.77810106796495" lon="12.87385428505722"><ele>441.0</ele><time>2026-04-28T07:59:07Z</time></trkpt><trkpt lat="37.77821478692455" lon="12.873940090288663"><ele>441.0</ele><time>2026-04-28T07:59:08Z</time></trkpt><trkpt lat="37.77830177237991" lon="12.87399333637304"><ele>441.0</ele><time>2026-04-28T07:59:09Z</time></trkpt><trkpt lat="37.778431599387325" lon="12.874008990034577"><ele>441.0</ele><time>2026-04-28T07:59:10Z</time></trkpt><trkpt lat="37.7785814471446" lon="12.873952876879809"><ele>441.0</ele><time>2026-04-28T07:59:11Z</time></trkpt><trkpt lat="37.77872741450184" lon="12.873859097270907"><ele>439.33333333333337</ele><time>2026-04-28T07:59:12Z</time></trkpt><trkpt lat="37.77887194121118" lon="12.87377231855889"><ele>437.6666666666667</ele><time>2026-04-28T07:59:13Z</time></trkpt><trkpt lat="37.77903227130962" lon="12.87372086386892"><ele>436.0</ele><time>2026-04-28T07:59:14Z</time></trkpt><trkpt lat="37.77919242595484" lon="12.873716788499708"><ele>436.0</ele><time>2026-04-28T07:59:15Z</time></trkpt><trkpt lat="37.779348248839966" lon="12.873764511628487"><ele>436.0</ele><time>2026-04-28T07:59:16Z</time></trkpt><trkpt lat="37.77948690397798" lon="12.873867420445007"><ele>436.0</ele><time>2026-04-28T07:59:17Z</time></trkpt><trkpt lat="37.77965733844503" lon="12.873985639437878"><ele>431.6666666666667</ele><time>2026-04-28T07:59:18Z</time></trkpt><trkpt lat="37.77982555262912" lon="12.874107118817752"><ele>427.33333333333337</ele><time>2026-04-28T07:59:19Z</time></trkpt><trkpt lat="37.77995909843017" lon="12.87416630404324"><ele>423.0</ele><time>2026-04-28T07:59:20Z</time></trkpt><trkpt lat="37.78009004793553" lon="12.87419771862076"><ele>420.0</ele><time>2026-04-28T07:59:21Z</time></trkpt><trkpt lat="37.78025943733149" lon="12.874138102956705"><ele>417.0</ele><time>2026-04-28T07:59:22Z</time></trkpt><trkpt lat="37.78042771458316" lon="12.874108574056716"><ele>414.0</ele><time>2026-04-28T07:59:23Z</time></trkpt><trkpt lat="37.78060115245533" lon="12.874126909426852"><ele>414.0</ele><time>2026-04-28T07:59:24Z</time></trkpt><trkpt lat="37.78081239695951" lon="12.874203430558794"><ele>414.0</ele><time>2026-04-28T07:59:25Z</time></trkpt><trkpt lat="37.78099378623606" lon="12.874269487402403"><ele>414.0</ele><time>2026-04-28T07:59:26Z</time></trkpt><trkpt lat="37.78114882626448" lon="12.874339490653309"><ele>416.66666666666663</ele><time>2026-04-28T07:59:27Z</time></trkpt><trkpt lat="37.78131171762552" lon="12.874358541953018"><ele>419.3333333333333</ele><time>2026-04-28T07:59:28Z</time></trkpt><trkpt lat="37.78147904882372" lon="12.874347289757363"><ele>422.0</ele><time>2026-04-28T07:59:29Z</time></trkpt><trkpt lat="37.78164796728306" lon="12.874308372526654"><ele>418.66666666666663</ele><time>2026-04-28T07:59:30Z</time></trkpt><trkpt lat="37.78182775796663" lon="12.874225763505223"><ele>415.33333333333337</ele><time>2026-04-28T07:59:31Z</time></trkpt><trkpt lat="37.782013808453776" lon="12.874101779245429"><ele>412.0</ele><time>2026-04-28T07:59:32Z</time></trkpt><trkpt lat="37.78217978331342" lon="12.873981623857308"><ele>412.0</ele><time>2026-04-28T07:59:33Z</time></trkpt><trkpt lat="37.78233740677419" lon="12.873862584066627"><ele>412.0</ele><time>2026-04-28T07:59:33.999Z</time></trkpt><trkpt lat="37.782492118030554" lon="12.873816026606761"><ele>412.0</ele><time>2026-04-28T07:59:34.999Z</time></trkpt><trkpt lat="37.78263617566983" lon="12.873812608836083"><ele>409.75</ele><time>2026-04-28T07:59:35.999Z</time></trkpt><trkpt lat="37.78275536647982" lon="12.873863732901931"><ele>407.5</ele><time>2026-04-28T07:59:36.999Z</time></trkpt><trkpt lat="37.782877035842795" lon="12.873944115019873"><ele>405.25</ele><time>2026-04-28T07:59:37.999Z</time></trkpt><trkpt lat="37.78297287940517" lon="12.8740732870701"><ele>403.0</ele><time>2026-04-28T07:59:38.999Z</time></trkpt><trkpt lat="37.78306987648449" lon="12.874199842360417"><ele>405.79999999999995</ele><time>2026-04-28T07:59:39.999Z</time></trkpt><trkpt lat="37.783139176207236" lon="12.874308088935113"><ele>408.6</ele><time>2026-04-28T07:59:40.999Z</time></trkpt><trkpt lat="37.7832075128045" lon="12.87438541242287"><ele>411.4</ele><time>2026-04-28T07:59:41.999Z</time></trkpt><trkpt lat="37.783298440336" lon="12.874416774058012"><ele>414.20000000000005</ele><time>2026-04-28T07:59:42.999Z</time></trkpt><trkpt lat="37.78339751254878" lon="12.87438558559959"><ele>417.0</ele><time>2026-04-28T07:59:43.999Z</time></trkpt><trkpt lat="37.783521314285" lon="12.874306972906192"><ele>412.33333333333337</ele><time>2026-04-28T07:59:44.999Z</time></trkpt><trkpt lat="37.78363828189088" lon="12.874201898460031"><ele>407.6666666666667</ele><time>2026-04-28T07:59:45.999Z</time></trkpt><trkpt lat="37.78377798107952" lon="12.874094924698806"><ele>403.0</ele><time>2026-04-28T07:59:46.999Z</time></trkpt><trkpt lat="37.78393694318772" lon="12.873979846037901"><ele>403.0</ele><time>2026-04-28T07:59:47.999Z</time></trkpt><trkpt lat="37.784116192769204" lon="12.873849887476075"><ele>403.0</ele><time>2026-04-28T07:59:48.999Z</time></trkpt><trkpt lat="37.78432048653807" lon="12.873670431800248"><ele>401.0</ele><time>2026-04-28T07:59:49.999Z</time></trkpt><trkpt lat="37.7845186044966" lon="12.873523668786957"><ele>399.0</ele><time>2026-04-28T07:59:50.999Z</time></trkpt><trkpt lat="37.78472620775788" lon="12.873362446478446"><ele>399.0</ele><time>2026-04-28T07:59:51.999Z</time></trkpt><trkpt lat="37.78492635496801" lon="12.873197642833182"><ele>399.0</ele><time>2026-04-28T07:59:52.999Z</time></trkpt><trkpt lat="37.785109602348236" lon="12.873050860107858"><ele>400.33333333333337</ele><time>2026-04-28T07:59:53.999Z</time></trkpt><trkpt lat="37.78526873147601" lon="12.872893257302954"><ele>401.6666666666667</ele><time>2026-04-28T07:59:54.999Z</time></trkpt><trkpt lat="37.78542650164642" lon="12.872787408469286"><ele>403.0</ele><time>2026-04-28T07:59:55.999Z</time></trkpt><trkpt lat="37.78561521501287" lon="12.872748049142691"><ele>403.0</ele><time>2026-04-28T07:59:56.999Z</time></trkpt><trkpt lat="37.785812839136966" lon="12.872717162435862"><ele>403.0</ele><time>2026-04-28T07:59:57.999Z</time></trkpt><trkpt lat="37.78599313333571" lon="12.872690067309815"><ele>403.0</ele><time>2026-04-28T07:59:58.999Z</time></trkpt><trkpt lat="37.786153221505955" lon="12.872720231211812"><ele>401.33333333333337</ele><time>2026-04-28T07:59:59.999Z</time></trkpt><trkpt lat="37.786299170355505" lon="12.872744471397686"><ele>399.66666666666663</ele><time>2026-04-28T08:00:00.999Z</time></trkpt><trkpt lat="37.78644308183652" lon="12.87280149814391"><ele>398.0</ele><time>2026-04-28T08:00:01.999Z</time></trkpt><trkpt lat="37.78656327810881" lon="12.872950289731902"><ele>398.0</ele><time>2026-04-28T08:00:02.999Z</time></trkpt><trkpt lat="37.78672192568797" lon="12.873031091667357"><ele>398.0</ele><time>2026-04-28T08:00:03.999Z</time></trkpt><trkpt lat="37.78690973717505" lon="12.873094873568173"><ele>398.0</ele><time>2026-04-28T08:00:04.999Z</time></trkpt><trkpt lat="37.78711725947816" lon="12.873152460284695"><ele>391.66666666666663</ele><time>2026-04-28T08:00:05.999Z</time></trkpt><trkpt lat="37.78732864961237" lon="12.87322572738035"><ele>385.3333333333333</ele><time>2026-04-28T08:00:06.999Z</time></trkpt><trkpt lat="37.78751034963065" lon="12.873274975279248"><ele>379.0</ele><time>2026-04-28T08:00:07.999Z</time></trkpt><trkpt lat="37.78768114784729" lon="12.873302201612841"><ele>378.66666666666663</ele><time>2026-04-28T08:00:08.999Z</time></trkpt><trkpt lat="37.787838842204955" lon="12.87334196192484"><ele>378.3333333333333</ele><time>2026-04-28T08:00:09.999Z</time></trkpt><trkpt lat="37.788007906166555" lon="12.873431483879926"><ele>378.0</ele><time>2026-04-28T08:00:10.999Z</time></trkpt><trkpt lat="37.788131061050436" lon="12.873594546731107"><ele>378.0</ele><time>2026-04-28T08:00:11.999Z</time></trkpt><trkpt lat="37.78826889513837" lon="12.87378228465569"><ele>378.0</ele><time>2026-04-28T08:00:12.999Z</time></trkpt><trkpt lat="37.78841825925856" lon="12.873898774856471"><ele>378.0</ele><time>2026-04-28T08:00:13.999Z</time></trkpt><trkpt lat="37.78857317201508" lon="12.873988005102744"><ele>372.0</ele><time>2026-04-28T08:00:14.999Z</time></trkpt><trkpt lat="37.788672312781735" lon="12.87414109825383"><ele>366.0</ele><time>2026-04-28T08:00:15.999Z</time></trkpt><trkpt lat="37.78871309097742" lon="12.874345774877806"><ele>360.0</ele><time>2026-04-28T08:00:17Z</time></trkpt><trkpt lat="37.788779270847186" lon="12.87458211375109"><ele>360.0</ele><time>2026-04-28T08:00:18Z</time></trkpt><trkpt lat="37.788845152036444" lon="12.874831284556786"><ele>360.0</ele><time>2026-04-28T08:00:19Z</time></trkpt><trkpt lat="37.78891426100435" lon="12.875070827083812"><ele>360.0</ele><time>2026-04-28T08:00:20Z</time></trkpt><trkpt lat="37.78901181908923" lon="12.875285236709267"><ele>363.0</ele><time>2026-04-28T08:00:21Z</time></trkpt><trkpt lat="37.78910423106209" lon="12.87548635471265"><ele>366.0</ele><time>2026-04-28T08:00:22Z</time></trkpt><trkpt lat="37.789235664787974" lon="12.875675954761729"><ele>369.0</ele><time>2026-04-28T08:00:23Z</time></trkpt><trkpt lat="37.7893491402475" lon="12.875863101911317"><ele>365.3333333333333</ele><time>2026-04-28T08:00:24Z</time></trkpt><trkpt lat="37.78946113165274" lon="12.876054917196194"><ele>361.66666666666663</ele><time>2026-04-28T08:00:25Z</time></trkpt><trkpt lat="37.789578121227315" lon="12.87624998831264"><ele>358.0</ele><time>2026-04-28T08:00:26Z</time></trkpt><trkpt lat="37.78968454464516" lon="12.876436327621354"><ele>358.0</ele><time>2026-04-28T08:00:27Z</time></trkpt><trkpt lat="37.78978256899814" lon="12.87661564479623"><ele>358.0</ele><time>2026-04-28T08:00:28Z</time></trkpt><trkpt lat="37.78987244715877" lon="12.876788183726902"><ele>358.0</ele><time>2026-04-28T08:00:29Z</time></trkpt><trkpt lat="37.78995969235152" lon="12.876947635587209"><ele>357.3333333333333</ele><time>2026-04-28T08:00:30Z</time></trkpt><trkpt lat="37.79007340222191" lon="12.877083300731908"><ele>356.6666666666667</ele><time>2026-04-28T08:00:31Z</time></trkpt><trkpt lat="37.79019044629152" lon="12.877198409074426"><ele>356.0</ele><time>2026-04-28T08:00:32Z</time></trkpt><trkpt lat="37.79034351023933" lon="12.877273399557405"><ele>356.0</ele><time>2026-04-28T08:00:33Z</time></trkpt><trkpt lat="37.7904957540976" lon="12.87733224273416"><ele>356.0</ele><time>2026-04-28T08:00:34Z</time></trkpt><trkpt lat="37.79064891432049" lon="12.877397628597796"><ele>356.0</ele><time>2026-04-28T08:00:35Z</time></trkpt><trkpt lat="37.7908029218311" lon="12.87745114679012"><ele>356.0</ele><time>2026-04-28T08:00:36Z</time></trkpt><trkpt lat="37.790934138372364" lon="12.877505033704868"><ele>356.0</ele><time>2026-04-28T08:00:37Z</time></trkpt><trkpt lat="37.791063069004515" lon="12.877564804646388"><ele>356.0</ele><time>2026-04-28T08:00:38Z</time></trkpt><trkpt lat="37.791197738791766" lon="12.877618119359814"><ele>356.0</ele><time>2026-04-28T08:00:39Z</time></trkpt><trkpt lat="37.79133799886799" lon="12.877635412087873"><ele>357.6666666666667</ele><time>2026-04-28T08:00:40Z</time></trkpt><trkpt lat="37.7914925704507" lon="12.877616643609334"><ele>359.3333333333333</ele><time>2026-04-28T08:00:41Z</time></trkpt><trkpt lat="37.79164682949523" lon="12.87755831375274"><ele>361.0</ele><time>2026-04-28T08:00:42Z</time></trkpt><trkpt lat="37.791803468980106" lon="12.87743005775271"><ele>356.66666666666663</ele><time>2026-04-28T08:00:43Z</time></trkpt><trkpt lat="37.79196002707958" lon="12.877333403084231"><ele>352.3333333333333</ele><time>2026-04-28T08:00:44Z</time></trkpt><trkpt lat="37.792128219307386" lon="12.877280360310701"><ele>348.0</ele><time>2026-04-28T08:00:45Z</time></trkpt><trkpt lat="37.792307273504825" lon="12.877247281388884"><ele>348.0</ele><time>2026-04-28T08:00:46Z</time></trkpt><trkpt lat="37.79248719322597" lon="12.877245773985585"><ele>348.0</ele><time>2026-04-28T08:00:47Z</time></trkpt><trkpt lat="37.79266183442585" lon="12.877265993300925"><ele>348.0</ele><time>2026-04-28T08:00:48Z</time></trkpt><trkpt lat="37.792821931718336" lon="12.87731808487625"><ele>345.0</ele><time>2026-04-28T08:00:49Z</time></trkpt><trkpt lat="37.7929653738041" lon="12.877418598699823"><ele>342.0</ele><time>2026-04-28T08:00:50Z</time></trkpt><trkpt lat="37.793106593914324" lon="12.877520244967315"><ele>339.0</ele><time>2026-04-28T08:00:51Z</time></trkpt><trkpt lat="37.79326951860341" lon="12.87756092884243"><ele>339.0</ele><time>2026-04-28T08:00:52Z</time></trkpt><trkpt lat="37.793452755320125" lon="12.877569967213805"><ele>339.0</ele><time>2026-04-28T08:00:53Z</time></trkpt><trkpt lat="37.79362253338203" lon="12.877527933141137"><ele>339.0</ele><time>2026-04-28T08:00:54Z</time></trkpt><trkpt lat="37.79377256277417" lon="12.87748738926952"><ele>339.0</ele><time>2026-04-28T08:00:55Z</time></trkpt><trkpt lat="37.79392168933106" lon="12.877519275695045"><ele>339.0</ele><time>2026-04-28T08:00:56Z</time></trkpt><trkpt lat="37.794068730060175" lon="12.877618867027227"><ele>339.0</ele><time>2026-04-28T08:00:57Z</time></trkpt><trkpt lat="37.79419560694303" lon="12.87776612390377"><ele>339.0</ele><time>2026-04-28T08:00:58Z</time></trkpt><trkpt lat="37.79432432711407" lon="12.877951811337518"><ele>339.0</ele><time>2026-04-28T08:00:59Z</time></trkpt><trkpt lat="37.79445869413963" lon="12.878147021358014"><ele>339.0</ele><time>2026-04-28T08:01:00Z</time></trkpt><trkpt lat="37.794583665444605" lon="12.878372819781061"><ele>335.3333333333333</ele><time>2026-04-28T08:01:01Z</time></trkpt><trkpt lat="37.79470210700666" lon="12.878617022881679"><ele>331.66666666666663</ele><time>2026-04-28T08:01:02Z</time></trkpt><trkpt lat="37.794802491849524" lon="12.878835745988855"><ele>328.0</ele><time>2026-04-28T08:01:03Z</time></trkpt><trkpt lat="37.79490654189631" lon="12.87903129599297"><ele>328.0</ele><time>2026-04-28T08:01:04Z</time></trkpt><trkpt lat="37.79498593177537" lon="12.879198613803366"><ele>328.0</ele><time>2026-04-28T08:01:05Z</time></trkpt><trkpt lat="37.79505197436596" lon="12.879339835364146"><ele>328.0</ele><time>2026-04-28T08:01:06Z</time></trkpt><trkpt lat="37.79511630901139" lon="12.879458776494511"><ele>328.0</ele><time>2026-04-28T08:01:07Z</time></trkpt><trkpt lat="37.79519507350697" lon="12.879547273448065"><ele>326.75</ele><time>2026-04-28T08:01:08Z</time></trkpt><trkpt lat="37.79532126554104" lon="12.87957977814892"><ele>325.5</ele><time>2026-04-28T08:01:09Z</time></trkpt><trkpt lat="37.79545347321415" lon="12.879562542471229"><ele>324.25</ele><time>2026-04-28T08:01:10Z</time></trkpt><trkpt lat="37.79557875086712" lon="12.87952395081916"><ele>323.0</ele><time>2026-04-28T08:01:11Z</time></trkpt><trkpt lat="37.79570492205341" lon="12.879561888800838"><ele>323.0</ele><time>2026-04-28T08:01:12Z</time></trkpt><trkpt lat="37.79584308852178" lon="12.87966625458238"><ele>323.0</ele><time>2026-04-28T08:01:13Z</time></trkpt><trkpt lat="37.795986584864735" lon="12.879839956546643"><ele>323.0</ele><time>2026-04-28T08:01:14Z</time></trkpt><trkpt lat="37.79614783307499" lon="12.8800332361185"><ele>321.0</ele><time>2026-04-28T08:01:15Z</time></trkpt><trkpt lat="37.796260619141364" lon="12.880205660254605"><ele>319.0</ele><time>2026-04-28T08:01:16Z</time></trkpt><trkpt lat="37.796333729656396" lon="12.880382968794873"><ele>317.0</ele><time>2026-04-28T08:01:17Z</time></trkpt><trkpt lat="37.796353076699994" lon="12.88057525377151"><ele>317.0</ele><time>2026-04-28T08:01:18Z</time></trkpt><trkpt lat="37.79633655922926" lon="12.880752216300264"><ele>317.0</ele><time>2026-04-28T08:01:19Z</time></trkpt><trkpt lat="37.796316768724076" lon="12.880911628914916"><ele>317.0</ele><time>2026-04-28T08:01:20Z</time></trkpt><trkpt lat="37.796322354086676" lon="12.881046070531088"><ele>317.0</ele><time>2026-04-28T08:01:21Z</time></trkpt><trkpt lat="37.79636749047271" lon="12.881155089713548"><ele>317.8</ele><time>2026-04-28T08:01:22Z</time></trkpt><trkpt lat="37.79643400058926" lon="12.881236384028437"><ele>318.6</ele><time>2026-04-28T08:01:23Z</time></trkpt><trkpt lat="37.79652619080553" lon="12.881300008626658"><ele>319.40000000000003</ele><time>2026-04-28T08:01:24Z</time></trkpt><trkpt lat="37.796628376376894" lon="12.881334016286077"><ele>320.2</ele><time>2026-04-28T08:01:25Z</time></trkpt><trkpt lat="37.79674187152225" lon="12.881306036617692"><ele>321.0</ele><time>2026-04-28T08:01:26Z</time></trkpt><trkpt lat="37.79683226208043" lon="12.881210624287032"><ele>320.5</ele><time>2026-04-28T08:01:27Z</time></trkpt><trkpt lat="37.796893195041946" lon="12.881060594290407"><ele>320.0</ele><time>2026-04-28T08:01:28Z</time></trkpt><trkpt lat="37.7969242728989" lon="12.880879037453486"><ele>319.5</ele><time>2026-04-28T08:01:29Z</time></trkpt><trkpt lat="37.79694888759692" lon="12.880668407216788"><ele>319.0</ele><time>2026-04-28T08:01:30Z</time></trkpt><trkpt lat="37.79698481867803" lon="12.880440116198299"><ele>316.0</ele><time>2026-04-28T08:01:31Z</time></trkpt><trkpt lat="37.797012849434985" lon="12.880171599067925"><ele>313.0</ele><time>2026-04-28T08:01:32Z</time></trkpt><trkpt lat="37.79704447730222" lon="12.879850095443738"><ele>311.5</ele><time>2026-04-28T08:01:33Z</time></trkpt><trkpt lat="37.797066426759834" lon="12.879558569023315"><ele>310.0</ele><time>2026-04-28T08:01:34Z</time></trkpt><trkpt lat="37.79705957535625" lon="12.879259560428146"><ele>310.0</ele><time>2026-04-28T08:01:35Z</time></trkpt><trkpt lat="37.797049791453944" lon="12.878934377174781"><ele>310.0</ele><time>2026-04-28T08:01:36Z</time></trkpt><trkpt lat="37.79699233807067" lon="12.87857750986716"><ele>309.0</ele><time>2026-04-28T08:01:37Z</time></trkpt><trkpt lat="37.79691308510756" lon="12.878215189822884"><ele>308.0</ele><time>2026-04-28T08:01:38Z</time></trkpt><trkpt lat="37.7968101028673" lon="12.87784707791324"><ele>304.0</ele><time>2026-04-28T08:01:39Z</time></trkpt><trkpt lat="37.7967420454352" lon="12.877506263347662"><ele>300.0</ele><time>2026-04-28T08:01:39.999Z</time></trkpt><trkpt lat="37.79670029129703" lon="12.877191052408591"><ele>300.0</ele><time>2026-04-28T08:01:40.999Z</time></trkpt><trkpt lat="37.79670441282253" lon="12.87690132221585"><ele>300.0</ele><time>2026-04-28T08:01:41.999Z</time></trkpt><trkpt lat="37.796746214954844" lon="12.87662899783206"><ele>300.0</ele><time>2026-04-28T08:01:42.999Z</time></trkpt><trkpt lat="37.79681646293442" lon="12.876373954913324"><ele>300.0</ele><time>2026-04-28T08:01:43.999Z</time></trkpt><trkpt lat="37.796925495111644" lon="12.876073095351174"><ele>300.0</ele><time>2026-04-28T08:01:44.999Z</time></trkpt><trkpt lat="37.79699639933867" lon="12.875746147661543"><ele>298.0</ele><time>2026-04-28T08:01:45.999Z</time></trkpt><trkpt lat="37.79712562245835" lon="12.875510598126588"><ele>296.0</ele><time>2026-04-28T08:01:46.999Z</time></trkpt><trkpt lat="37.79722284453716" lon="12.875278326187292"><ele>294.0</ele><time>2026-04-28T08:01:47.999Z</time></trkpt><trkpt lat="37.797307052061704" lon="12.875075159477408"><ele>292.75</ele><time>2026-04-28T08:01:48.999Z</time></trkpt><trkpt lat="37.797377888919605" lon="12.874894920941978"><ele>291.5</ele><time>2026-04-28T08:01:49.999Z</time></trkpt><trkpt lat="37.797435536367466" lon="12.87472997842226"><ele>290.25</ele><time>2026-04-28T08:01:50.999Z</time></trkpt><trkpt lat="37.79748132624356" lon="12.874586424007921"><ele>289.0</ele><time>2026-04-28T08:01:51.999Z</time></trkpt><trkpt lat="37.797538371329765" lon="12.874486338717057"><ele>289.0</ele><time>2026-04-28T08:01:52.999Z</time></trkpt><trkpt lat="37.79763686259804" lon="12.874442442999623"><ele>289.0</ele><time>2026-04-28T08:01:53.999Z</time></trkpt><trkpt lat="37.79773571860012" lon="12.874425696057969"><ele>289.0</ele><time>2026-04-28T08:01:54.999Z</time></trkpt><trkpt lat="37.797868679799095" lon="12.874552938820019"><ele>289.0</ele><time>2026-04-28T08:01:55.999Z</time></trkpt><trkpt lat="37.79795492435621" lon="12.874525311498417"><ele>290.0</ele><time>2026-04-28T08:01:56.999Z</time></trkpt><trkpt lat="37.79810207580713" lon="12.874513510915138"><ele>291.0</ele><time>2026-04-28T08:01:57.999Z</time></trkpt><trkpt lat="37.7982725498759" lon="12.874440948468528"><ele>292.0</ele><time>2026-04-28T08:01:58.999Z</time></trkpt><trkpt lat="37.7984506714681" lon="12.874352930559477"><ele>284.5</ele><time>2026-04-28T08:01:59.999Z</time></trkpt><trkpt lat="37.79865717180574" lon="12.874258124939438"><ele>277.0</ele><time>2026-04-28T08:02:00.999Z</time></trkpt><trkpt lat="37.79886638782068" lon="12.874132973589447"><ele>277.0</ele><time>2026-04-28T08:02:01.999Z</time></trkpt><trkpt lat="37.79905831941045" lon="12.874023603616484"><ele>277.0</ele><time>2026-04-28T08:02:02.999Z</time></trkpt><trkpt lat="37.79922476350478" lon="12.87391091873289"><ele>277.0</ele><time>2026-04-28T08:02:03.999Z</time></trkpt><trkpt lat="37.79937784845118" lon="12.873819303725366"><ele>276.0</ele><time>2026-04-28T08:02:04.999Z</time></trkpt><trkpt lat="37.79952164001819" lon="12.873747744758669"><ele>275.0</ele><time>2026-04-28T08:02:05.999Z</time></trkpt><trkpt lat="37.79966546585862" lon="12.87372547131962"><ele>274.0</ele><time>2026-04-28T08:02:06.999Z</time></trkpt><trkpt lat="37.79980320423163" lon="12.873786472608026"><ele>273.0</ele><time>2026-04-28T08:02:07.999Z</time></trkpt><trkpt lat="37.79992231036317" lon="12.873861235788208"><ele>273.0</ele><time>2026-04-28T08:02:08.999Z</time></trkpt><trkpt lat="37.800075731854925" lon="12.873951490726533"><ele>273.0</ele><time>2026-04-28T08:02:09.999Z</time></trkpt><trkpt lat="37.80023126072828" lon="12.874095898044692"><ele>273.0</ele><time>2026-04-28T08:02:10.999Z</time></trkpt><trkpt lat="37.80039946895084" lon="12.874244982538412"><ele>272.0</ele><time>2026-04-28T08:02:11.999Z</time></trkpt><trkpt lat="37.800564580953974" lon="12.874365919050389"><ele>271.0</ele><time>2026-04-28T08:02:12.999Z</time></trkpt><trkpt lat="37.8007153356023" lon="12.87447802170649"><ele>270.0</ele><time>2026-04-28T08:02:13.999Z</time></trkpt><trkpt lat="37.80084982368432" lon="12.874578887592932"><ele>270.0</ele><time>2026-04-28T08:02:14.999Z</time></trkpt><trkpt lat="37.80097938570816" lon="12.87468287412137"><ele>270.0</ele><time>2026-04-28T08:02:15.999Z</time></trkpt><trkpt lat="37.8011100204134" lon="12.874780659808785"><ele>270.0</ele><time>2026-04-28T08:02:16.999Z</time></trkpt><trkpt lat="37.80124112399968" lon="12.87484061539919"><ele>270.0</ele><time>2026-04-28T08:02:17.999Z</time></trkpt><trkpt lat="37.80138248625963" lon="12.874872659358951"><ele>268.3333333333333</ele><time>2026-04-28T08:02:18.999Z</time></trkpt><trkpt lat="37.80153860523621" lon="12.874860078543653"><ele>266.66666666666663</ele><time>2026-04-28T08:02:19.999Z</time></trkpt><trkpt lat="37.80168973111099" lon="12.874809777466167"><ele>265.0</ele><time>2026-04-28T08:02:20.999Z</time></trkpt><trkpt lat="37.801837497927195" lon="12.87474221195226"><ele>264.0</ele><time>2026-04-28T08:02:21.999Z</time></trkpt><trkpt lat="37.80198135346509" lon="12.87457604473198"><ele>263.0</ele><time>2026-04-28T08:02:23Z</time></trkpt><trkpt lat="37.80213778024283" lon="12.874383868983763"><ele>262.0</ele><time>2026-04-28T08:02:24Z</time></trkpt><trkpt lat="37.80228446611237" lon="12.87416239505424"><ele>260.5</ele><time>2026-04-28T08:02:25Z</time></trkpt><trkpt lat="37.80242694452595" lon="12.873892065385817"><ele>259.0</ele><time>2026-04-28T08:02:26Z</time></trkpt><trkpt lat="37.802576236209305" lon="12.873592865342369"><ele>257.5</ele><time>2026-04-28T08:02:27Z</time></trkpt><trkpt lat="37.80273484270623" lon="12.873284126896179"><ele>256.0</ele><time>2026-04-28T08:02:28Z</time></trkpt><trkpt lat="37.80288413903876" lon="12.872930551851315"><ele>254.0</ele><time>2026-04-28T08:02:29Z</time></trkpt><trkpt lat="37.80305044965293" lon="12.872604720064741"><ele>252.0</ele><time>2026-04-28T08:02:30Z</time></trkpt><trkpt lat="37.80321131598095" lon="12.872268585291524"><ele>252.0</ele><time>2026-04-28T08:02:31Z</time></trkpt><trkpt lat="37.80336832333505" lon="12.871932684294249"><ele>252.0</ele><time>2026-04-28T08:02:32Z</time></trkpt><trkpt lat="37.80350363314764" lon="12.871613051875403"><ele>248.5</ele><time>2026-04-28T08:02:33Z</time></trkpt><trkpt lat="37.80362773473972" lon="12.871286759886292"><ele>245.0</ele><time>2026-04-28T08:02:34Z</time></trkpt><trkpt lat="37.80373103920835" lon="12.87096123802379"><ele>244.0</ele><time>2026-04-28T08:02:35Z</time></trkpt><trkpt lat="37.80382837093945" lon="12.870652316590249"><ele>243.0</ele><time>2026-04-28T08:02:36Z</time></trkpt><trkpt lat="37.80391755163408" lon="12.870322440033306"><ele>240.5</ele><time>2026-04-28T08:02:37Z</time></trkpt><trkpt lat="37.803987514976974" lon="12.869984868348338"><ele>238.0</ele><time>2026-04-28T08:02:38Z</time></trkpt><trkpt lat="37.80406524113617" lon="12.869625764233875"><ele>236.5</ele><time>2026-04-28T08:02:39Z</time></trkpt><trkpt lat="37.80415186893347" lon="12.869243957525043"><ele>235.0</ele><time>2026-04-28T08:02:40Z</time></trkpt><trkpt lat="37.80424049031956" lon="12.868855500587275"><ele>235.0</ele><time>2026-04-28T08:02:41Z</time></trkpt><trkpt lat="37.80433993858704" lon="12.868461321435792"><ele>235.0</ele><time>2026-04-28T08:02:42Z</time></trkpt><trkpt lat="37.80443558410386" lon="12.868079139690538"><ele>233.5</ele><time>2026-04-28T08:02:43Z</time></trkpt><trkpt lat="37.804508253444894" lon="12.867732356911686"><ele>232.0</ele><time>2026-04-28T08:02:44Z</time></trkpt><trkpt lat="37.80457905892115" lon="12.867411567935742"><ele>231.0</ele><time>2026-04-28T08:02:45Z</time></trkpt><trkpt lat="37.8046461856683" lon="12.86710997057664"><ele>230.0</ele><time>2026-04-28T08:02:46Z</time></trkpt><trkpt lat="37.80471518360274" lon="12.866821575607217"><ele>230.0</ele><time>2026-04-28T08:02:47Z</time></trkpt><trkpt lat="37.80477339778169" lon="12.86654997313552"><ele>230.0</ele><time>2026-04-28T08:02:48Z</time></trkpt><trkpt lat="37.80483245525303" lon="12.86628826412181"><ele>230.0</ele><time>2026-04-28T08:02:49Z</time></trkpt><trkpt lat="37.80494487754708" lon="12.865779829755903"><ele>229.66666666666669</ele><time>2026-04-28T08:02:51Z</time></trkpt><trkpt lat="37.80500062226921" lon="12.865543113492595"><ele>229.33333333333331</ele><time>2026-04-28T08:02:52Z</time></trkpt><trkpt lat="37.80504972226343" lon="12.865314884251172"><ele>229.0</ele><time>2026-04-28T08:02:53Z</time></trkpt><trkpt lat="37.80509749596975" lon="12.865102725376934"><ele>228.25</ele><time>2026-04-28T08:02:54Z</time></trkpt><trkpt lat="37.80513843636016" lon="12.864908556531088"><ele>227.5</ele><time>2026-04-28T08:02:55Z</time></trkpt><trkpt lat="37.80517593335004" lon="12.864736913389716"><ele>226.75</ele><time>2026-04-28T08:02:56Z</time></trkpt><trkpt lat="37.80520831435643" lon="12.864578368130825"><ele>226.0</ele><time>2026-04-28T08:02:57Z</time></trkpt><trkpt lat="37.8052419716955" lon="12.864436678046573"><ele>225.8</ele><time>2026-04-28T08:02:58Z</time></trkpt><trkpt lat="37.80526862807785" lon="12.864312399786511"><ele>225.60000000000002</ele><time>2026-04-28T08:02:59Z</time></trkpt><trkpt lat="37.805294187372844" lon="12.864208867530234"><ele>225.4</ele><time>2026-04-28T08:03:00Z</time></trkpt><trkpt lat="37.80532316044883" lon="12.864115932388751"><ele>225.2</ele><time>2026-04-28T08:03:01Z</time></trkpt><trkpt lat="37.80537030278361" lon="12.863992676985763"><ele>225.0</ele><time>2026-04-28T08:03:03Z</time></trkpt><trkpt lat="37.80543196893389" lon="12.863921515610116"><ele>224.83333333333334</ele><time>2026-04-28T08:03:05Z</time></trkpt><trkpt lat="37.80545247298024" lon="12.863826484196531"><ele>224.66666666666669</ele><time>2026-04-28T08:03:07Z</time></trkpt><trkpt lat="37.80551023031851" lon="12.863860852382347"><ele>224.5</ele><time>2026-04-28T08:03:13Z</time></trkpt><trkpt lat="37.80554782354646" lon="12.863859735759018"><ele>224.33333333333334</ele><time>2026-04-28T08:06:58Z</time></trkpt><trkpt lat="37.80546445164422" lon="12.86382926020491"><ele>224.16666666666669</ele><time>2026-04-28T08:07:04Z</time></trkpt><trkpt lat="37.80559714450406" lon="12.86367679393389"><ele>224.0</ele><time>2026-04-28T08:07:24Z</time></trkpt><trkpt lat="37.80559742028664" lon="12.863573706321423"><ele>224.0</ele><time>2026-04-28T08:07:25Z</time></trkpt><trkpt lat="37.805533922021354" lon="12.863439380256871"><ele>224.0</ele><time>2026-04-28T08:07:27Z</time></trkpt><trkpt lat="37.8055110838816" lon="12.863316419179496"><ele>224.0</ele><time>2026-04-28T08:07:29Z</time></trkpt><trkpt lat="37.80555023241148" lon="12.863130410917288"><ele>224.0</ele><time>2026-04-28T08:07:31Z</time></trkpt><trkpt lat="37.80557084361224" lon="12.863018898852268"><ele>224.0</ele><time>2026-04-28T08:07:32Z</time></trkpt><trkpt lat="37.80563081548675" lon="12.862880617912142"><ele>224.0</ele><time>2026-04-28T08:07:33Z</time></trkpt><trkpt lat="37.80567896439088" lon="12.862703354994519"><ele>224.0</ele><time>2026-04-28T08:07:34Z</time></trkpt><trkpt lat="37.80574407256582" lon="12.862464443504246"><ele>223.33333333333334</ele><time>2026-04-28T08:07:35Z</time></trkpt><trkpt lat="37.8058070774529" lon="12.862234497188448"><ele>222.66666666666669</ele><time>2026-04-28T08:07:36Z</time></trkpt><trkpt lat="37.80587021034146" lon="12.862005768350418"><ele>222.0</ele><time>2026-04-28T08:07:37Z</time></trkpt><trkpt lat="37.80594062600726" lon="12.86174835228718"><ele>219.5</ele><time>2026-04-28T08:07:38Z</time></trkpt><trkpt lat="37.80600824315846" lon="12.861460687596239"><ele>217.0</ele><time>2026-04-28T08:07:39Z</time></trkpt><trkpt lat="37.80610235414125" lon="12.861158268882933"><ele>216.5</ele><time>2026-04-28T08:07:40Z</time></trkpt><trkpt lat="37.80619147800044" lon="12.860863094540726"><ele>216.0</ele><time>2026-04-28T08:07:41Z</time></trkpt><trkpt lat="37.806270061056836" lon="12.860565183521532"><ele>216.0</ele><time>2026-04-28T08:07:42Z</time></trkpt><trkpt lat="37.806344793951254" lon="12.860271046400193"><ele>216.0</ele><time>2026-04-28T08:07:43Z</time></trkpt><trkpt lat="37.80641935591935" lon="12.86000347450408"><ele>215.33333333333331</ele><time>2026-04-28T08:07:44Z</time></trkpt><trkpt lat="37.80648150586722" lon="12.859745818773002"><ele>214.66666666666666</ele><time>2026-04-28T08:07:45Z</time></trkpt><trkpt lat="37.80654116306831" lon="12.859500358334262"><ele>214.0</ele><time>2026-04-28T08:07:46Z</time></trkpt><trkpt lat="37.806619681226145" lon="12.859258467366972"><ele>213.0</ele><time>2026-04-28T08:07:47Z</time></trkpt><trkpt lat="37.80668406119103" lon="12.85903367444075"><ele>212.0</ele><time>2026-04-28T08:07:48Z</time></trkpt><trkpt lat="37.80673302622868" lon="12.858805619949598"><ele>211.0</ele><time>2026-04-28T08:07:49Z</time></trkpt><trkpt lat="37.806806783016064" lon="12.858541818151496"><ele>210.0</ele><time>2026-04-28T08:07:50Z</time></trkpt><trkpt lat="37.80686491045785" lon="12.858284881997587"><ele>209.0</ele><time>2026-04-28T08:07:51Z</time></trkpt><trkpt lat="37.806926763629995" lon="12.858065093170604"><ele>208.0</ele><time>2026-04-28T08:07:52Z</time></trkpt><trkpt lat="37.80696937938485" lon="12.857856814190875"><ele>208.0</ele><time>2026-04-28T08:07:53Z</time></trkpt><trkpt lat="37.80697031201413" lon="12.857637966788136"><ele>208.0</ele><time>2026-04-28T08:07:54Z</time></trkpt><trkpt lat="37.806922520393094" lon="12.85741331992045"><ele>208.0</ele><time>2026-04-28T08:07:55Z</time></trkpt><trkpt lat="37.806861040977125" lon="12.85719619208439"><ele>207.33333333333331</ele><time>2026-04-28T08:07:56Z</time></trkpt><trkpt lat="37.80675127467173" lon="12.85698781552515"><ele>206.66666666666669</ele><time>2026-04-28T08:07:57Z</time></trkpt><trkpt lat="37.806605913422786" lon="12.856792111112462"><ele>206.0</ele><time>2026-04-28T08:07:58Z</time></trkpt><trkpt lat="37.80643366833357" lon="12.85660948661423"><ele>210.0</ele><time>2026-04-28T08:07:58.999Z</time></trkpt><trkpt lat="37.806259144077565" lon="12.856392358246532"><ele>214.0</ele><time>2026-04-28T08:07:59.999Z</time></trkpt><trkpt lat="37.80608323949939" lon="12.856173016235038"><ele>214.5</ele><time>2026-04-28T08:08:00.999Z</time></trkpt><trkpt lat="37.80590580936747" lon="12.855937308712143"><ele>215.0</ele><time>2026-04-28T08:08:01.999Z</time></trkpt><trkpt lat="37.80573732587413" lon="12.85573110898099"><ele>215.0</ele><time>2026-04-28T08:08:02.999Z</time></trkpt><trkpt lat="37.80559540504392" lon="12.855558892322312"><ele>215.0</ele><time>2026-04-28T08:08:03.999Z</time></trkpt><trkpt lat="37.80549059203024" lon="12.85537171857346"><ele>215.0</ele><time>2026-04-28T08:08:04.999Z</time></trkpt><trkpt lat="37.80543916118301" lon="12.855209079022869"><ele>216.0</ele><time>2026-04-28T08:08:05.999Z</time></trkpt><trkpt lat="37.805416622828304" lon="12.855055151226669"><ele>217.0</ele><time>2026-04-28T08:08:06.999Z</time></trkpt><trkpt lat="37.8054203671778" lon="12.854887754019304"><ele>218.0</ele><time>2026-04-28T08:08:07.999Z</time></trkpt><trkpt lat="37.805457990782294" lon="12.854662426562816"><ele>219.0</ele><time>2026-04-28T08:08:08.999Z</time></trkpt><trkpt lat="37.80551965216486" lon="12.854419356303302"><ele>219.33333333333331</ele><time>2026-04-28T08:08:09.999Z</time></trkpt><trkpt lat="37.8055946791154" lon="12.854155088079365"><ele>219.66666666666666</ele><time>2026-04-28T08:08:10.999Z</time></trkpt><trkpt lat="37.805671572321444" lon="12.853885984781456"><ele>220.0</ele><time>2026-04-28T08:08:11.999Z</time></trkpt><trkpt lat="37.80574739449452" lon="12.85359984922507"><ele>220.0</ele><time>2026-04-28T08:08:12.999Z</time></trkpt><trkpt lat="37.805829437283904" lon="12.853331251853827"><ele>220.0</ele><time>2026-04-28T08:08:13.999Z</time></trkpt><trkpt lat="37.805898761580075" lon="12.853078076367071"><ele>220.0</ele><time>2026-04-28T08:08:14.999Z</time></trkpt><trkpt lat="37.805970804242584" lon="12.85284549292267"><ele>220.66666666666666</ele><time>2026-04-28T08:08:15.999Z</time></trkpt><trkpt lat="37.80604365658107" lon="12.852609426347945"><ele>221.33333333333331</ele><time>2026-04-28T08:08:16.999Z</time></trkpt><trkpt lat="37.80611776963313" lon="12.852379307723293"><ele>222.0</ele><time>2026-04-28T08:08:17.999Z</time></trkpt><trkpt lat="37.806176864774216" lon="12.852135761548249"><ele>222.0</ele><time>2026-04-28T08:08:18.999Z</time></trkpt><trkpt lat="37.80623807240271" lon="12.851900307131434"><ele>222.0</ele><time>2026-04-28T08:08:19.999Z</time></trkpt><trkpt lat="37.806286819888776" lon="12.851689260752735"><ele>222.0</ele><time>2026-04-28T08:08:20.999Z</time></trkpt><trkpt lat="37.806336749983444" lon="12.851484782703311"><ele>222.33333333333331</ele><time>2026-04-28T08:08:21.999Z</time></trkpt><trkpt lat="37.80638965722411" lon="12.851257573751896"><ele>222.66666666666666</ele><time>2026-04-28T08:08:22.999Z</time></trkpt><trkpt lat="37.80641727231295" lon="12.851038754582653"><ele>223.0</ele><time>2026-04-28T08:08:23.999Z</time></trkpt><trkpt lat="37.80645044721972" lon="12.850820298036677"><ele>221.66666666666666</ele><time>2026-04-28T08:08:24.999Z</time></trkpt><trkpt lat="37.80647377659977" lon="12.85058123127324"><ele>220.33333333333331</ele><time>2026-04-28T08:08:25.999Z</time></trkpt><trkpt lat="37.80649205848339" lon="12.850291661669738"><ele>219.0</ele><time>2026-04-28T08:08:26.999Z</time></trkpt><trkpt lat="37.806512461105484" lon="12.849975929881564"><ele>217.0</ele><time>2026-04-28T08:08:27.999Z</time></trkpt><trkpt lat="37.80656065452113" lon="12.849629796235806"><ele>215.0</ele><time>2026-04-28T08:08:28.999Z</time></trkpt><trkpt lat="37.806606796015544" lon="12.849247339604526"><ele>213.5</ele><time>2026-04-28T08:08:29.999Z</time></trkpt><trkpt lat="37.80664776788926" lon="12.848869977527812"><ele>212.0</ele><time>2026-04-28T08:08:30.999Z</time></trkpt><trkpt lat="37.806685042026196" lon="12.84848632855339"><ele>208.0</ele><time>2026-04-28T08:08:31.999Z</time></trkpt><trkpt lat="37.80671438072096" lon="12.84809805521591"><ele>204.0</ele><time>2026-04-28T08:08:32.999Z</time></trkpt><trkpt lat="37.80674870859308" lon="12.847717569978547"><ele>202.5</ele><time>2026-04-28T08:08:33.999Z</time></trkpt><trkpt lat="37.806780704123" lon="12.8473402830886"><ele>201.0</ele><time>2026-04-28T08:08:34.999Z</time></trkpt><trkpt lat="37.8068066052423" lon="12.846970287931116"><ele>201.5</ele><time>2026-04-28T08:08:35.999Z</time></trkpt><trkpt lat="37.80683973958509" lon="12.846616221212205"><ele>202.0</ele><time>2026-04-28T08:08:36.999Z</time></trkpt><trkpt lat="37.80686225443712" lon="12.846258412970423"><ele>204.0</ele><time>2026-04-28T08:08:37.999Z</time></trkpt><trkpt lat="37.806890061509165" lon="12.845916102071618"><ele>206.0</ele><time>2026-04-28T08:08:38.999Z</time></trkpt><trkpt lat="37.80692010820905" lon="12.845574386528677"><ele>206.0</ele><time>2026-04-28T08:08:39.999Z</time></trkpt><trkpt lat="37.806982564918876" lon="12.845248637085255"><ele>206.0</ele><time>2026-04-28T08:08:40.999Z</time></trkpt><trkpt lat="37.80705115989965" lon="12.844928726975514"><ele>207.0</ele><time>2026-04-28T08:08:41.999Z</time></trkpt><trkpt lat="37.80712426804502" lon="12.844599944970486"><ele>208.0</ele><time>2026-04-28T08:08:42.999Z</time></trkpt><trkpt lat="37.8072004194187" lon="12.844256469458735"><ele>208.0</ele><time>2026-04-28T08:08:44Z</time></trkpt><trkpt lat="37.80727884923017" lon="12.843902717371583"><ele>208.0</ele><time>2026-04-28T08:08:45Z</time></trkpt><trkpt lat="37.80735751659763" lon="12.84354789813228"><ele>209.0</ele><time>2026-04-28T08:08:46Z</time></trkpt><trkpt lat="37.807427595569074" lon="12.843184780781494"><ele>210.0</ele><time>2026-04-28T08:08:47Z</time></trkpt><trkpt lat="37.80750762971272" lon="12.84282093441102"><ele>210.5</ele><time>2026-04-28T08:08:48Z</time></trkpt><trkpt lat="37.807598020541" lon="12.842462360073238"><ele>211.0</ele><time>2026-04-28T08:08:49Z</time></trkpt><trkpt lat="37.80768423651293" lon="12.842117781766424"><ele>213.5</ele><time>2026-04-28T08:08:50Z</time></trkpt><trkpt lat="37.8077582495527" lon="12.841768990376195"><ele>216.0</ele><time>2026-04-28T08:08:51Z</time></trkpt><trkpt lat="37.80782713166757" lon="12.841428803151"><ele>216.0</ele><time>2026-04-28T08:08:52Z</time></trkpt><trkpt lat="37.80789743722303" lon="12.841103392282534"><ele>216.0</ele><time>2026-04-28T08:08:53Z</time></trkpt><trkpt lat="37.80796714617583" lon="12.840783626709404"><ele>215.0</ele><time>2026-04-28T08:08:54Z</time></trkpt><trkpt lat="37.808032766106244" lon="12.840472140327451"><ele>214.0</ele><time>2026-04-28T08:08:55Z</time></trkpt><trkpt lat="37.80809591075316" lon="12.840155541063838"><ele>215.0</ele><time>2026-04-28T08:08:56Z</time></trkpt><trkpt lat="37.80815814394678" lon="12.83984767013947"><ele>216.0</ele><time>2026-04-28T08:08:57Z</time></trkpt><trkpt lat="37.80821963266986" lon="12.839538292018853"><ele>216.0</ele><time>2026-04-28T08:08:58Z</time></trkpt><trkpt lat="37.808286579186394" lon="12.839236456231745"><ele>216.0</ele><time>2026-04-28T08:08:59Z</time></trkpt><trkpt lat="37.80834937794178" lon="12.838938617978837"><ele>216.0</ele><time>2026-04-28T08:09:00Z</time></trkpt><trkpt lat="37.80841136724791" lon="12.838651312840955"><ele>216.0</ele><time>2026-04-28T08:09:01Z</time></trkpt><trkpt lat="37.80847239635527" lon="12.83836611125998"><ele>216.66666666666669</ele><time>2026-04-28T08:09:02Z</time></trkpt><trkpt lat="37.80853189377418" lon="12.838087548008515"><ele>217.33333333333334</ele><time>2026-04-28T08:09:03Z</time></trkpt><trkpt lat="37.808589811677614" lon="12.837817635723235"><ele>218.0</ele><time>2026-04-28T08:09:04Z</time></trkpt><trkpt lat="37.808648845580414" lon="12.837546864289601"><ele>219.0</ele><time>2026-04-28T08:09:05Z</time></trkpt><trkpt lat="37.80870471347525" lon="12.837266783327543"><ele>220.0</ele><time>2026-04-28T08:09:06Z</time></trkpt><trkpt lat="37.80876812515941" lon="12.837000161343692"><ele>221.0</ele><time>2026-04-28T08:09:07Z</time></trkpt><trkpt lat="37.80882726320777" lon="12.83672418870768"><ele>222.0</ele><time>2026-04-28T08:09:08Z</time></trkpt><trkpt lat="37.80888448294845" lon="12.836402882946556"><ele>223.0</ele><time>2026-04-28T08:09:09Z</time></trkpt><trkpt lat="37.808962200520895" lon="12.836049625170917"><ele>223.0</ele><time>2026-04-28T08:09:10Z</time></trkpt><trkpt lat="37.809053805970926" lon="12.835670952283792"><ele>223.0</ele><time>2026-04-28T08:09:11Z</time></trkpt><trkpt lat="37.80912733201231" lon="12.835315841902993"><ele>224.0</ele><time>2026-04-28T08:09:12Z</time></trkpt><trkpt lat="37.809208868412846" lon="12.835002366824286"><ele>225.0</ele><time>2026-04-28T08:09:13Z</time></trkpt><trkpt lat="37.80926986042284" lon="12.834712440553698"><ele>225.0</ele><time>2026-04-28T08:09:14Z</time></trkpt><trkpt lat="37.80928995890877" lon="12.834417122751095"><ele>225.0</ele><time>2026-04-28T08:09:15Z</time></trkpt><trkpt lat="37.80930365123175" lon="12.83411347747799"><ele>225.5</ele><time>2026-04-28T08:09:16Z</time></trkpt><trkpt lat="37.809314396434026" lon="12.833782334758439"><ele>226.0</ele><time>2026-04-28T08:09:17Z</time></trkpt><trkpt lat="37.80930867214969" lon="12.833440648105281"><ele>225.0</ele><time>2026-04-28T08:09:18Z</time></trkpt><trkpt lat="37.809299067936294" lon="12.833107651066161"><ele>224.0</ele><time>2026-04-28T08:09:19Z</time></trkpt><trkpt lat="37.80929665131353" lon="12.832782681375251"><ele>225.5</ele><time>2026-04-28T08:09:20Z</time></trkpt><trkpt lat="37.80933037902118" lon="12.832460408592373"><ele>227.0</ele><time>2026-04-28T08:09:21Z</time></trkpt><trkpt lat="37.809405230808416" lon="12.832131798242255"><ele>224.0</ele><time>2026-04-28T08:09:22Z</time></trkpt><trkpt lat="37.80944876537818" lon="12.831794641793438"><ele>221.0</ele><time>2026-04-28T08:09:23Z</time></trkpt><trkpt lat="37.80949047775364" lon="12.831445192420196"><ele>221.0</ele><time>2026-04-28T08:09:24Z</time></trkpt><trkpt lat="37.809503901610164" lon="12.831092448238358"><ele>221.0</ele><time>2026-04-28T08:09:25Z</time></trkpt><trkpt lat="37.809525514683735" lon="12.83074934008188"><ele>221.0</ele><time>2026-04-28T08:09:26Z</time></trkpt><trkpt lat="37.80953557987463" lon="12.830424095255076"><ele>221.0</ele><time>2026-04-28T08:09:27Z</time></trkpt><trkpt lat="37.80955903691531" lon="12.830105907829585"><ele>221.0</ele><time>2026-04-28T08:09:28Z</time></trkpt><trkpt lat="37.80957409583974" lon="12.829791228116793"><ele>221.0</ele><time>2026-04-28T08:09:29Z</time></trkpt><trkpt lat="37.809597753717846" lon="12.829474528215462"><ele>223.0</ele><time>2026-04-28T08:09:30Z</time></trkpt><trkpt lat="37.80964387495828" lon="12.829166664374407"><ele>225.0</ele><time>2026-04-28T08:09:31Z</time></trkpt><trkpt lat="37.809707027906505" lon="12.82888043111921"><ele>225.0</ele><time>2026-04-28T08:09:32Z</time></trkpt><trkpt lat="37.80977717520955" lon="12.828616007764545"><ele>225.0</ele><time>2026-04-28T08:09:33Z</time></trkpt><trkpt lat="37.80986412961406" lon="12.828390210182834"><ele>225.0</ele><time>2026-04-28T08:09:34Z</time></trkpt><trkpt lat="37.80996821925054" lon="12.828197039517084"><ele>225.25</ele><time>2026-04-28T08:09:35Z</time></trkpt><trkpt lat="37.81005752609428" lon="12.82804145860096"><ele>225.5</ele><time>2026-04-28T08:09:36Z</time></trkpt><trkpt lat="37.810129384713605" lon="12.827908714327359"><ele>225.75</ele><time>2026-04-28T08:09:37Z</time></trkpt><trkpt lat="37.81019639248323" lon="12.82779038854419"><ele>226.0</ele><time>2026-04-28T08:09:38Z</time></trkpt><trkpt lat="37.810251497382296" lon="12.827694353824345"><ele>228.25</ele><time>2026-04-28T08:09:39Z</time></trkpt><trkpt lat="37.81030898485135" lon="12.827596874620475"><ele>230.5</ele><time>2026-04-28T08:09:40Z</time></trkpt><trkpt lat="37.810372248511754" lon="12.827489241528092"><ele>232.75</ele><time>2026-04-28T08:09:41Z</time></trkpt><trkpt lat="37.81043849301362" lon="12.827362983360889"><ele>235.0</ele><time>2026-04-28T08:09:42Z</time></trkpt><trkpt lat="37.81051409174225" lon="12.827230395338297"><ele>235.0</ele><time>2026-04-28T08:09:43Z</time></trkpt><trkpt lat="37.81059663370051" lon="12.82708556913754"><ele>235.0</ele><time>2026-04-28T08:09:44Z</time></trkpt><trkpt lat="37.810685621490244" lon="12.826908655607406"><ele>235.0</ele><time>2026-04-28T08:09:45Z</time></trkpt><trkpt lat="37.81080583028194" lon="12.826736770954403"><ele>234.0</ele><time>2026-04-28T08:09:46Z</time></trkpt><trkpt lat="37.8109155232017" lon="12.8265500247201"><ele>233.0</ele><time>2026-04-28T08:09:47Z</time></trkpt><trkpt lat="37.8110474098254" lon="12.826331168772446"><ele>232.0</ele><time>2026-04-28T08:09:48Z</time></trkpt><trkpt lat="37.81116976884157" lon="12.826133499842028"><ele>237.5</ele><time>2026-04-28T08:09:49Z</time></trkpt><trkpt lat="37.81131555276008" lon="12.825914388123024"><ele>243.0</ele><time>2026-04-28T08:09:50Z</time></trkpt><trkpt lat="37.811509231687715" lon="12.82567013199439"><ele>243.0</ele><time>2026-04-28T08:09:51Z</time></trkpt><trkpt lat="37.81170326203626" lon="12.825391755119487"><ele>243.0</ele><time>2026-04-28T08:09:52Z</time></trkpt><trkpt lat="37.81190108826247" lon="12.825073510829922"><ele>246.5</ele><time>2026-04-28T08:09:53Z</time></trkpt><trkpt lat="37.81207606267687" lon="12.824756518325819"><ele>250.0</ele><time>2026-04-28T08:09:54Z</time></trkpt><trkpt lat="37.81225710151118" lon="12.824400467780697"><ele>249.0</ele><time>2026-04-28T08:09:55Z</time></trkpt><trkpt lat="37.812403830814866" lon="12.824055880827828"><ele>248.0</ele><time>2026-04-28T08:09:56Z</time></trkpt><trkpt lat="37.81250991016588" lon="12.823758046738627"><ele>251.5</ele><time>2026-04-28T08:09:57Z</time></trkpt><trkpt lat="37.812661827435285" lon="12.82347128345926"><ele>255.0</ele><time>2026-04-28T08:09:58Z</time></trkpt><trkpt lat="37.81283046065866" lon="12.823193742845556"><ele>255.0</ele><time>2026-04-28T08:09:59Z</time></trkpt><trkpt lat="37.81304377912503" lon="12.822917178554954"><ele>255.0</ele><time>2026-04-28T08:10:00Z</time></trkpt><trkpt lat="37.81326886784056" lon="12.822632757202104"><ele>255.5</ele><time>2026-04-28T08:10:01Z</time></trkpt><trkpt lat="37.813511266701106" lon="12.82234691996682"><ele>256.0</ele><time>2026-04-28T08:10:02Z</time></trkpt><trkpt lat="37.81373462639539" lon="12.822067778816107"><ele>256.5</ele><time>2026-04-28T08:10:03Z</time></trkpt><trkpt lat="37.8139352378221" lon="12.821787554942993"><ele>257.0</ele><time>2026-04-28T08:10:04Z</time></trkpt><trkpt lat="37.814109891954494" lon="12.821477086902814"><ele>257.0</ele><time>2026-04-28T08:10:05Z</time></trkpt><trkpt lat="37.81427238218075" lon="12.821131620232425"><ele>257.0</ele><time>2026-04-28T08:10:06Z</time></trkpt><trkpt lat="37.8143973611982" lon="12.820761766680384"><ele>256.0</ele><time>2026-04-28T08:10:07Z</time></trkpt><trkpt lat="37.81450697773413" lon="12.82044671754691"><ele>255.0</ele><time>2026-04-28T08:10:08Z</time></trkpt><trkpt lat="37.81461352074918" lon="12.82015711454212"><ele>259.5</ele><time>2026-04-28T08:10:08.999Z</time></trkpt><trkpt lat="37.8147035712486" lon="12.81988656434649"><ele>264.0</ele><time>2026-04-28T08:10:09.999Z</time></trkpt><trkpt lat="37.814805591084045" lon="12.81964042364553"><ele>264.0</ele><time>2026-04-28T08:10:10.999Z</time></trkpt><trkpt lat="37.814893553592185" lon="12.819404078192068"><ele>264.0</ele><time>2026-04-28T08:10:11.999Z</time></trkpt><trkpt lat="37.81497974436194" lon="12.819170625413424"><ele>264.0</ele><time>2026-04-28T08:10:12.999Z</time></trkpt><trkpt lat="37.81505700111596" lon="12.818957846446475"><ele>264.5</ele><time>2026-04-28T08:10:13.999Z</time></trkpt><trkpt lat="37.81512647967046" lon="12.81876906727721"><ele>265.0</ele><time>2026-04-28T08:10:14.999Z</time></trkpt><trkpt lat="37.8151896143056" lon="12.818602136251076"><ele>265.5</ele><time>2026-04-28T08:10:15.999Z</time></trkpt><trkpt lat="37.81522238480682" lon="12.818449545599472"><ele>266.0</ele><time>2026-04-28T08:10:16.999Z</time></trkpt><trkpt lat="37.81520215984448" lon="12.818321787358075"><ele>268.0</ele><time>2026-04-28T08:10:17.999Z</time></trkpt><trkpt lat="37.81515531125269" lon="12.818209726018416"><ele>270.0</ele><time>2026-04-28T08:10:18.999Z</time></trkpt><trkpt lat="37.8150639660454" lon="12.818113124723881"><ele>272.0</ele><time>2026-04-28T08:10:19.999Z</time></trkpt><trkpt lat="37.814935870401904" lon="12.818043097274888"><ele>274.0</ele><time>2026-04-28T08:10:20.999Z</time></trkpt><trkpt lat="37.814774155900295" lon="12.817983729483988"><ele>274.0</ele><time>2026-04-28T08:10:21.999Z</time></trkpt><trkpt lat="37.81457886326477" lon="12.817926847517237"><ele>274.0</ele><time>2026-04-28T08:10:22.999Z</time></trkpt><trkpt lat="37.81439667410864" lon="12.817871833681382"><ele>274.0</ele><time>2026-04-28T08:10:23.999Z</time></trkpt><trkpt lat="37.814246454999044" lon="12.8177674331518"><ele>273.66666666666663</ele><time>2026-04-28T08:10:24.999Z</time></trkpt><trkpt lat="37.81412350221802" lon="12.817617687014144"><ele>273.3333333333333</ele><time>2026-04-28T08:10:25.999Z</time></trkpt><trkpt lat="37.81402096259935" lon="12.8174388987613"><ele>273.0</ele><time>2026-04-28T08:10:26.999Z</time></trkpt><trkpt lat="37.81393277498561" lon="12.817231914912972"><ele>273.0</ele><time>2026-04-28T08:10:27.999Z</time></trkpt><trkpt lat="37.813854840652695" lon="12.816968842893893"><ele>273.0</ele><time>2026-04-28T08:10:28.999Z</time></trkpt><trkpt lat="37.81378332672373" lon="12.816669358612852"><ele>277.0</ele><time>2026-04-28T08:10:29.999Z</time></trkpt><trkpt lat="37.813746542609806" lon="12.816414058734658"><ele>281.0</ele><time>2026-04-28T08:10:30.999Z</time></trkpt><trkpt lat="37.81374323066896" lon="12.816189541472815"><ele>285.0</ele><time>2026-04-28T08:10:31.999Z</time></trkpt><trkpt lat="37.81378306005761" lon="12.816017924542052"><ele>284.0</ele><time>2026-04-28T08:10:32.999Z</time></trkpt><trkpt lat="37.81385937130146" lon="12.81589656410977"><ele>283.0</ele><time>2026-04-28T08:10:33.999Z</time></trkpt><trkpt lat="37.81396661934647" lon="12.81574620215462"><ele>282.0</ele><time>2026-04-28T08:10:34.999Z</time></trkpt><trkpt lat="37.81414356089503" lon="12.815508248137244"><ele>282.0</ele><time>2026-04-28T08:10:35.999Z</time></trkpt><trkpt lat="37.81429530960025" lon="12.815310317994006"><ele>282.0</ele><time>2026-04-28T08:10:36.999Z</time></trkpt><trkpt lat="37.81445330444824" lon="12.815078666007935"><ele>285.0</ele><time>2026-04-28T08:10:37.999Z</time></trkpt><trkpt lat="37.814619269745776" lon="12.814864228473423"><ele>288.0</ele><time>2026-04-28T08:10:38.999Z</time></trkpt><trkpt lat="37.814782593277044" lon="12.814648457099551"><ele>288.0</ele><time>2026-04-28T08:10:39.999Z</time></trkpt><trkpt lat="37.814955048804215" lon="12.81443548780342"><ele>288.0</ele><time>2026-04-28T08:10:40.999Z</time></trkpt><trkpt lat="37.81510256462747" lon="12.814260963920452"><ele>288.0</ele><time>2026-04-28T08:10:41.999Z</time></trkpt><trkpt lat="37.81524903021471" lon="12.814090903966713"><ele>288.6666666666667</ele><time>2026-04-28T08:10:42.999Z</time></trkpt><trkpt lat="37.815365554385515" lon="12.813906250581477"><ele>289.33333333333337</ele><time>2026-04-28T08:10:43.999Z</time></trkpt><trkpt lat="37.8154799926119" lon="12.81369224807464"><ele>290.0</ele><time>2026-04-28T08:10:44.999Z</time></trkpt><trkpt lat="37.8155666467975" lon="12.813409988996144"><ele>290.0</ele><time>2026-04-28T08:10:45.999Z</time></trkpt><trkpt lat="37.815668201655704" lon="12.813129384217094"><ele>290.0</ele><time>2026-04-28T08:10:46.999Z</time></trkpt><trkpt lat="37.81578331483046" lon="12.812869447528879"><ele>287.6666666666667</ele><time>2026-04-28T08:10:47.999Z</time></trkpt><trkpt lat="37.815892167651214" lon="12.812624929502185"><ele>285.3333333333333</ele><time>2026-04-28T08:10:48.999Z</time></trkpt><trkpt lat="37.81600839593592" lon="12.812391086785599"><ele>283.0</ele><time>2026-04-28T08:10:50Z</time></trkpt><trkpt lat="37.816138062548696" lon="12.812178589631081"><ele>285.3333333333333</ele><time>2026-04-28T08:10:51Z</time></trkpt><trkpt lat="37.81626389814924" lon="12.811984545656884"><ele>287.6666666666667</ele><time>2026-04-28T08:10:52Z</time></trkpt><trkpt lat="37.816415571534144" lon="12.811820388335054"><ele>290.0</ele><time>2026-04-28T08:10:53Z</time></trkpt><trkpt lat="37.816557415589585" lon="12.811670756563137"><ele>290.0</ele><time>2026-04-28T08:10:54Z</time></trkpt><trkpt lat="37.816697285425285" lon="12.811549403315524"><ele>290.0</ele><time>2026-04-28T08:10:55Z</time></trkpt><trkpt lat="37.81682639849548" lon="12.811431397369208"><ele>290.0</ele><time>2026-04-28T08:10:56Z</time></trkpt><trkpt lat="37.81695384122436" lon="12.811332582982073"><ele>292.0</ele><time>2026-04-28T08:10:57Z</time></trkpt><trkpt lat="37.817070028535326" lon="12.811254167777097"><ele>294.0</ele><time>2026-04-28T08:10:58Z</time></trkpt><trkpt lat="37.81715753660405" lon="12.811167513954265"><ele>296.0</ele><time>2026-04-28T08:10:59Z</time></trkpt><trkpt lat="37.817192619853984" lon="12.811024614083582"><ele>298.0</ele><time>2026-04-28T08:11:00Z</time></trkpt><trkpt lat="37.81717074716787" lon="12.810831357189697"><ele>298.0</ele><time>2026-04-28T08:11:01Z</time></trkpt><trkpt lat="37.81712637628979" lon="12.810668655417695"><ele>298.0</ele><time>2026-04-28T08:11:02Z</time></trkpt><trkpt lat="37.81704875132106" lon="12.810499177506868"><ele>298.0</ele><time>2026-04-28T08:11:03Z</time></trkpt><trkpt lat="37.816948892112144" lon="12.810348720751008"><ele>298.0</ele><time>2026-04-28T08:11:04Z</time></trkpt><trkpt lat="37.8168126118016" lon="12.810231955687664"><ele>296.0</ele><time>2026-04-28T08:11:05Z</time></trkpt><trkpt lat="37.81665119865108" lon="12.81013062881764"><ele>294.0</ele><time>2026-04-28T08:11:06Z</time></trkpt><trkpt lat="37.81650928947166" lon="12.810029225352466"><ele>292.0</ele><time>2026-04-28T08:11:07Z</time></trkpt><trkpt lat="37.81639625345396" lon="12.809935123893561"><ele>292.0</ele><time>2026-04-28T08:11:08Z</time></trkpt><trkpt lat="37.81629968323358" lon="12.80984616212801"><ele>292.0</ele><time>2026-04-28T08:11:09Z</time></trkpt><trkpt lat="37.81622813831668" lon="12.809726892599075"><ele>292.0</ele><time>2026-04-28T08:11:10Z</time></trkpt><trkpt lat="37.816185445805964" lon="12.809593528865376"><ele>292.0</ele><time>2026-04-28T08:11:11Z</time></trkpt><trkpt lat="37.81618735533162" lon="12.80944392950849"><ele>293.0</ele><time>2026-04-28T08:11:12Z</time></trkpt><trkpt lat="37.81622348509819" lon="12.809299430372713"><ele>294.0</ele><time>2026-04-28T08:11:13Z</time></trkpt><trkpt lat="37.81631664100934" lon="12.8091607381299"><ele>295.0</ele><time>2026-04-28T08:11:14Z</time></trkpt><trkpt lat="37.816439137235676" lon="12.80905151129176"><ele>296.0</ele><time>2026-04-28T08:11:15Z</time></trkpt><trkpt lat="37.81660079052413" lon="12.808921323413516"><ele>296.0</ele><time>2026-04-28T08:11:16Z</time></trkpt><trkpt lat="37.81677639054332" lon="12.808809096647785"><ele>296.0</ele><time>2026-04-28T08:11:17Z</time></trkpt><trkpt lat="37.817009356059884" lon="12.808710105724758"><ele>296.0</ele><time>2026-04-28T08:11:18Z</time></trkpt><trkpt lat="37.81722084869725" lon="12.808662850355304"><ele>297.0</ele><time>2026-04-28T08:11:19Z</time></trkpt><trkpt lat="37.817410018950746" lon="12.808622714297897"><ele>298.0</ele><time>2026-04-28T08:11:20Z</time></trkpt><trkpt lat="37.81757946545664" lon="12.808590754096777"><ele>299.0</ele><time>2026-04-28T08:11:21Z</time></trkpt><trkpt lat="37.81772908558905" lon="12.80856766260259"><ele>299.75</ele><time>2026-04-28T08:11:22Z</time></trkpt><trkpt lat="37.81786745386584" lon="12.808557500248899"><ele>300.5</ele><time>2026-04-28T08:11:23Z</time></trkpt><trkpt lat="37.81798954260276" lon="12.808542613115199"><ele>301.25</ele><time>2026-04-28T08:11:24Z</time></trkpt><trkpt lat="37.818095377715885" lon="12.808523831664898"><ele>302.0</ele><time>2026-04-28T08:11:25Z</time></trkpt><trkpt lat="37.81818823825892" lon="12.808508615814388"><ele>302.8</ele><time>2026-04-28T08:11:26Z</time></trkpt><trkpt lat="37.81828258982119" lon="12.808486167847121"><ele>303.6</ele><time>2026-04-28T08:11:27Z</time></trkpt><trkpt lat="37.81838897932751" lon="12.808451542566388"><ele>304.40000000000003</ele><time>2026-04-28T08:11:28Z</time></trkpt><trkpt lat="37.81849494647479" lon="12.808412452766861"><ele>305.2</ele><time>2026-04-28T08:11:29Z</time></trkpt><trkpt lat="37.81860446175042" lon="12.808331574757963"><ele>306.0</ele><time>2026-04-28T08:11:30Z</time></trkpt><trkpt lat="37.81873688183581" lon="12.808222164496115"><ele>306.6666666666667</ele><time>2026-04-28T08:11:31Z</time></trkpt><trkpt lat="37.818865794053735" lon="12.808065615824548"><ele>307.33333333333337</ele><time>2026-04-28T08:11:32Z</time></trkpt><trkpt lat="37.819010591243774" lon="12.807871971304056"><ele>308.0</ele><time>2026-04-28T08:11:33Z</time></trkpt><trkpt lat="37.819116675381274" lon="12.80769662663141"><ele>309.33333333333337</ele><time>2026-04-28T08:11:34Z</time></trkpt><trkpt lat="37.81924789859843" lon="12.807575055665046"><ele>310.6666666666667</ele><time>2026-04-28T08:11:35Z</time></trkpt><trkpt lat="37.81938373871502" lon="12.807487665609514"><ele>312.0</ele><time>2026-04-28T08:11:36Z</time></trkpt><trkpt lat="37.81952627136618" lon="12.807427235479823"><ele>312.4</ele><time>2026-04-28T08:11:37Z</time></trkpt><trkpt lat="37.819648824932564" lon="12.807372335057714"><ele>312.79999999999995</ele><time>2026-04-28T08:11:38Z</time></trkpt><trkpt lat="37.819749460622084" lon="12.807309054952649"><ele>313.2</ele><time>2026-04-28T08:11:39Z</time></trkpt><trkpt lat="37.81982044647401" lon="12.807254854844201"><ele>313.59999999999997</ele><time>2026-04-28T08:11:40Z</time></trkpt><trkpt lat="37.81993487901867" lon="12.807200946703974"><ele>314.0</ele><time>2026-04-28T08:11:42Z</time></trkpt><trkpt lat="37.82001514860555" lon="12.807115000268146"><ele>314.0</ele><time>2026-04-28T08:11:44Z</time></trkpt><trkpt lat="37.820105457465324" lon="12.807020501699713"><ele>314.0</ele><time>2026-04-28T08:11:46Z</time></trkpt><trkpt lat="37.82016421054385" lon="12.806963588110516"><ele>314.0</ele><time>2026-04-28T08:11:48Z</time></trkpt><trkpt lat="37.82025698056386" lon="12.806927243140136"><ele>314.0</ele><time>2026-04-28T08:11:55Z</time></trkpt><trkpt lat="37.8203040009745" lon="12.806813151011905"><ele>314.0</ele><time>2026-04-28T08:11:57Z</time></trkpt><trkpt lat="37.820360695592974" lon="12.806760794472059"><ele>314.6666666666667</ele><time>2026-04-28T08:11:59Z</time></trkpt><trkpt lat="37.82045261125557" lon="12.806683724443637"><ele>315.33333333333337</ele><time>2026-04-28T08:12:01Z</time></trkpt><trkpt lat="37.82050242206499" lon="12.80660840602763"><ele>316.0</ele><time>2026-04-28T08:12:02Z</time></trkpt><trkpt lat="37.820550861216326" lon="12.80651415342776"><ele>316.6666666666667</ele><time>2026-04-28T08:12:03Z</time></trkpt><trkpt lat="37.820604270666834" lon="12.806425420320048"><ele>317.3333333333333</ele><time>2026-04-28T08:12:04Z</time></trkpt><trkpt lat="37.8206347138063" lon="12.806340722454728"><ele>318.0</ele><time>2026-04-28T08:12:05Z</time></trkpt><trkpt lat="37.820668096964766" lon="12.806257945373595"><ele>318.0</ele><time>2026-04-28T08:12:06Z</time></trkpt><trkpt lat="37.82071568172128" lon="12.806171270926711"><ele>318.0</ele><time>2026-04-28T08:12:07Z</time></trkpt><trkpt lat="37.82076306521316" lon="12.806079159773033"><ele>318.0</ele><time>2026-04-28T08:12:08Z</time></trkpt><trkpt lat="37.820815232120715" lon="12.805975247898962"><ele>318.0</ele><time>2026-04-28T08:12:09Z</time></trkpt><trkpt lat="37.820864805283854" lon="12.805869987911946"><ele>318.0</ele><time>2026-04-28T08:12:10Z</time></trkpt><trkpt lat="37.82089133566362" lon="12.80576057735389"><ele>319.0</ele><time>2026-04-28T08:12:11Z</time></trkpt><trkpt lat="37.82093606832607" lon="12.805648823625484"><ele>320.0</ele><time>2026-04-28T08:12:12Z</time></trkpt><trkpt lat="37.82101057557114" lon="12.805527407868512"><ele>321.0</ele><time>2026-04-28T08:12:13Z</time></trkpt><trkpt lat="37.82108742252485" lon="12.805385656474106"><ele>322.0</ele><time>2026-04-28T08:12:13.999Z</time></trkpt><trkpt lat="37.821151040352994" lon="12.805239784292214"><ele>323.20000000000005</ele><time>2026-04-28T08:12:14.999Z</time></trkpt><trkpt lat="37.821194478653865" lon="12.80513144292484"><ele>324.4</ele><time>2026-04-28T08:12:15.999Z</time></trkpt><trkpt lat="37.82124129959438" lon="12.805013000113478"><ele>325.6</ele><time>2026-04-28T08:12:16.999Z</time></trkpt><trkpt lat="37.82129047321628" lon="12.804884511909274"><ele>326.79999999999995</ele><time>2026-04-28T08:12:17.999Z</time></trkpt><trkpt lat="37.82136733715908" lon="12.804777027921785"><ele>328.0</ele><time>2026-04-28T08:12:18.999Z</time></trkpt><trkpt lat="37.82144537183607" lon="12.804690190573444"><ele>328.0</ele><time>2026-04-28T08:12:19.999Z</time></trkpt><trkpt lat="37.82153709081495" lon="12.804598824043453"><ele>328.0</ele><time>2026-04-28T08:12:20.999Z</time></trkpt><trkpt lat="37.8216381144728" lon="12.804521231620184"><ele>328.0</ele><time>2026-04-28T08:12:21.999Z</time></trkpt><trkpt lat="37.821737206640755" lon="12.804466781930952"><ele>328.0</ele><time>2026-04-28T08:12:22.999Z</time></trkpt><trkpt lat="37.8218357116134" lon="12.804419875799764"><ele>328.0</ele><time>2026-04-28T08:12:23.999Z</time></trkpt><trkpt lat="37.8219277897207" lon="12.804379634712905"><ele>327.79999999999995</ele><time>2026-04-28T08:12:24.999Z</time></trkpt><trkpt lat="37.82201929620533" lon="12.80434354522505"><ele>327.6</ele><time>2026-04-28T08:12:25.999Z</time></trkpt><trkpt lat="37.82211039303353" lon="12.80430260326074"><ele>327.4</ele><time>2026-04-28T08:12:26.999Z</time></trkpt><trkpt lat="37.82220151180029" lon="12.804264910446829"><ele>327.20000000000005</ele><time>2026-04-28T08:12:27.999Z</time></trkpt><trkpt lat="37.82230282828313" lon="12.804219592521735"><ele>327.0</ele><time>2026-04-28T08:12:28.999Z</time></trkpt><trkpt lat="37.8224062293381" lon="12.804197081871255"><ele>328.8</ele><time>2026-04-28T08:12:29.999Z</time></trkpt><trkpt lat="37.82249797675935" lon="12.804172677631097"><ele>330.6</ele><time>2026-04-28T08:12:30.999Z</time></trkpt><trkpt lat="37.8225850094047" lon="12.804168563742014"><ele>332.40000000000003</ele><time>2026-04-28T08:12:31.999Z</time></trkpt><trkpt lat="37.822665975565066" lon="12.804144967812473"><ele>334.20000000000005</ele><time>2026-04-28T08:12:32.999Z</time></trkpt><trkpt lat="37.82275266811636" lon="12.804070421605285"><ele>336.0</ele><time>2026-04-28T08:12:33.999Z</time></trkpt><trkpt lat="37.82283557154732" lon="12.803991901958364"><ele>336.0</ele><time>2026-04-28T08:12:34.999Z</time></trkpt><trkpt lat="37.822897681615245" lon="12.803958986978571"><ele>336.0</ele><time>2026-04-28T08:12:35.999Z</time></trkpt><trkpt lat="37.822976479334784" lon="12.803866084927225"><ele>336.0</ele><time>2026-04-28T08:12:37.999Z</time></trkpt><trkpt lat="37.82308001930137" lon="12.8038096060305"><ele>336.0</ele><time>2026-04-28T08:12:39.999Z</time></trkpt><trkpt lat="37.823191730620955" lon="12.803754226571803"><ele>336.0</ele><time>2026-04-28T08:12:41.999Z</time></trkpt><trkpt lat="37.82328426688301" lon="12.803784129068083"><ele>336.0</ele><time>2026-04-28T08:12:42.999Z</time></trkpt><trkpt lat="37.8233642844759" lon="12.803792761538107"><ele>336.0</ele><time>2026-04-28T08:12:43.999Z</time></trkpt><trkpt lat="37.82344590250649" lon="12.8038025490057"><ele>336.0</ele><time>2026-04-28T08:12:44.999Z</time></trkpt><trkpt lat="37.82351476381796" lon="12.803797611012012"><ele>336.0</ele><time>2026-04-28T08:12:45.999Z</time></trkpt><trkpt lat="37.823577494744804" lon="12.803810943673408"><ele>336.0</ele><time>2026-04-28T08:12:46.999Z</time></trkpt><trkpt lat="37.8236552172473" lon="12.80383130755522"><ele>336.0</ele><time>2026-04-28T08:12:47.999Z</time></trkpt><trkpt lat="37.82374834041485" lon="12.803848277106141"><ele>335.4</ele><time>2026-04-28T08:12:48.999Z</time></trkpt><trkpt lat="37.82387028497605" lon="12.80387603178749"><ele>334.8</ele><time>2026-04-28T08:12:49.999Z</time></trkpt><trkpt lat="37.8239823734614" lon="12.803915748630923"><ele>334.2</ele><time>2026-04-28T08:12:50.999Z</time></trkpt><trkpt lat="37.8240697553884" lon="12.8039508542151"><ele>333.59999999999997</ele><time>2026-04-28T08:12:51.999Z</time></trkpt><trkpt lat="37.82414279895681" lon="12.803979042114753"><ele>333.0</ele><time>2026-04-28T08:12:52.999Z</time></trkpt><trkpt lat="37.82424024987215" lon="12.804010038987345"><ele>333.0</ele><time>2026-04-28T08:12:54.999Z</time></trkpt><trkpt lat="37.82430733281336" lon="12.80404813713054"><ele>333.0</ele><time>2026-04-28T08:12:57Z</time></trkpt><trkpt lat="37.824438965115455" lon="12.804102619506722"><ele>333.0</ele><time>2026-04-28T08:12:59Z</time></trkpt><trkpt lat="37.824533760271734" lon="12.804138559722844"><ele>333.0</ele><time>2026-04-28T08:13:00Z</time></trkpt><trkpt lat="37.8246404588639" lon="12.804191250726443"><ele>333.0</ele><time>2026-04-28T08:13:01Z</time></trkpt><trkpt lat="37.82476982317122" lon="12.804250418130128"><ele>333.0</ele><time>2026-04-28T08:13:02Z</time></trkpt><trkpt lat="37.8248681961164" lon="12.804290802823788"><ele>333.0</ele><time>2026-04-28T08:13:03Z</time></trkpt><trkpt lat="37.82495533527217" lon="12.804339561340521"><ele>333.0</ele><time>2026-04-28T08:13:04Z</time></trkpt><trkpt lat="37.82504162438244" lon="12.804395567032476"><ele>333.0</ele><time>2026-04-28T08:13:05Z</time></trkpt><trkpt lat="37.82512007395151" lon="12.804450874093435"><ele>333.0</ele><time>2026-04-28T08:13:06Z</time></trkpt><trkpt lat="37.82519356769659" lon="12.804509165945419"><ele>333.59999999999997</ele><time>2026-04-28T08:13:07Z</time></trkpt><trkpt lat="37.825264985961" lon="12.804566805833025"><ele>334.2</ele><time>2026-04-28T08:13:08Z</time></trkpt><trkpt lat="37.82532727065148" lon="12.804646113597842"><ele>334.8</ele><time>2026-04-28T08:13:09Z</time></trkpt><trkpt lat="37.8254001846048" lon="12.804709140702242"><ele>335.4</ele><time>2026-04-28T08:13:10Z</time></trkpt><trkpt lat="37.82546962123663" lon="12.804755473194094"><ele>336.0</ele><time>2026-04-28T08:13:11Z</time></trkpt><trkpt lat="37.82556276430514" lon="12.804836174383912"><ele>336.0</ele><time>2026-04-28T08:13:13Z</time></trkpt><trkpt lat="37.82565309933269" lon="12.804885313046338"><ele>336.0</ele><time>2026-04-28T08:13:15Z</time></trkpt><trkpt lat="37.82571539141209" lon="12.804931988870477"><ele>336.0</ele><time>2026-04-28T08:13:16Z</time></trkpt><trkpt lat="37.82580831898044" lon="12.804954504011382"><ele>336.0</ele><time>2026-04-28T08:13:17Z</time></trkpt><trkpt lat="37.82593948287561" lon="12.804978468826455"><ele>336.0</ele><time>2026-04-28T08:13:18Z</time></trkpt><trkpt lat="37.82608527267489" lon="12.804953846307932"><ele>335.3333333333333</ele><time>2026-04-28T08:13:19Z</time></trkpt><trkpt lat="37.82624461040735" lon="12.804928549270418"><ele>334.66666666666663</ele><time>2026-04-28T08:13:20Z</time></trkpt><trkpt lat="37.82643104323757" lon="12.80488325436209"><ele>334.0</ele><time>2026-04-28T08:13:21Z</time></trkpt><trkpt lat="37.82664387730344" lon="12.804821641245656"><ele>333.0</ele><time>2026-04-28T08:13:22Z</time></trkpt><trkpt lat="37.82689697225247" lon="12.804741832366842"><ele>332.0</ele><time>2026-04-28T08:13:23Z</time></trkpt><trkpt lat="37.827173639921625" lon="12.804678530405322"><ele>332.0</ele><time>2026-04-28T08:13:24Z</time></trkpt><trkpt lat="37.82745528716769" lon="12.804617968898135"><ele>332.0</ele><time>2026-04-28T08:13:25Z</time></trkpt><trkpt lat="37.82776836313403" lon="12.804536249663489"><ele>333.0</ele><time>2026-04-28T08:13:26Z</time></trkpt><trkpt lat="37.82804350860468" lon="12.804455567491708"><ele>334.0</ele><time>2026-04-28T08:13:27Z</time></trkpt><trkpt lat="37.82829951140137" lon="12.804397573620733"><ele>335.0</ele><time>2026-04-28T08:13:28Z</time></trkpt><trkpt lat="37.828548319087005" lon="12.804360768955917"><ele>336.0</ele><time>2026-04-28T08:13:29Z</time></trkpt><trkpt lat="37.82882950237813" lon="12.804372432879266"><ele>336.0</ele><time>2026-04-28T08:13:30Z</time></trkpt><trkpt lat="37.829108625098506" lon="12.80434263695524"><ele>336.0</ele><time>2026-04-28T08:13:31Z</time></trkpt><trkpt lat="37.82935333698487" lon="12.804370303277928"><ele>334.3333333333333</ele><time>2026-04-28T08:13:32Z</time></trkpt><trkpt lat="37.829582438884195" lon="12.804385830641953"><ele>332.66666666666663</ele><time>2026-04-28T08:13:33Z</time></trkpt><trkpt lat="37.82979509154924" lon="12.804402046133001"><ele>331.0</ele><time>2026-04-28T08:13:34Z</time></trkpt><trkpt lat="37.82997513073917" lon="12.804510278160718"><ele>329.0</ele><time>2026-04-28T08:13:35Z</time></trkpt><trkpt lat="37.83015950628271" lon="12.804586730405644"><ele>327.0</ele><time>2026-04-28T08:13:36Z</time></trkpt><trkpt lat="37.83031835560655" lon="12.804675617906229"><ele>325.0</ele><time>2026-04-28T08:13:37Z</time></trkpt><trkpt lat="37.83046376188585" lon="12.804763634847047"><ele>325.0</ele><time>2026-04-28T08:13:38Z</time></trkpt><trkpt lat="37.83060023015319" lon="12.804839989901572"><ele>325.0</ele><time>2026-04-28T08:13:39Z</time></trkpt><trkpt lat="37.83072983275851" lon="12.804909715152652"><ele>325.0</ele><time>2026-04-28T08:13:40Z</time></trkpt><trkpt lat="37.830860432006716" lon="12.804958222252383"><ele>325.0</ele><time>2026-04-28T08:13:41Z</time></trkpt><trkpt lat="37.83100085938812" lon="12.805020545431198"><ele>323.3333333333333</ele><time>2026-04-28T08:13:42Z</time></trkpt><trkpt lat="37.83113453104724" lon="12.80508618980845"><ele>321.6666666666667</ele><time>2026-04-28T08:13:43Z</time></trkpt><trkpt lat="37.831288761042025" lon="12.805123907924628"><ele>320.0</ele><time>2026-04-28T08:13:44Z</time></trkpt><trkpt lat="37.8314759533837" lon="12.805117106430481"><ele>320.0</ele><time>2026-04-28T08:13:45Z</time></trkpt><trkpt lat="37.83163434013265" lon="12.805103932833267"><ele>320.0</ele><time>2026-04-28T08:13:46Z</time></trkpt><trkpt lat="37.83181367775016" lon="12.805109113178883"><ele>320.0</ele><time>2026-04-28T08:13:47Z</time></trkpt><trkpt lat="37.83203386852434" lon="12.80508850726216"><ele>319.5</ele><time>2026-04-28T08:13:48Z</time></trkpt><trkpt lat="37.832330643189295" lon="12.805070856271584"><ele>319.0</ele><time>2026-04-28T08:13:49Z</time></trkpt><trkpt lat="37.83259990781748" lon="12.80507881509645"><ele>319.5</ele><time>2026-04-28T08:13:50Z</time></trkpt><trkpt lat="37.83286882583305" lon="12.805058668826463"><ele>320.0</ele><time>2026-04-28T08:13:51Z</time></trkpt><trkpt lat="37.833168489988026" lon="12.805067392738279"><ele>320.0</ele><time>2026-04-28T08:13:52Z</time></trkpt><trkpt lat="37.833453327024294" lon="12.805062759534412"><ele>320.0</ele><time>2026-04-28T08:13:53Z</time></trkpt><trkpt lat="37.83373927162379" lon="12.805052462743038"><ele>321.0</ele><time>2026-04-28T08:13:54Z</time></trkpt><trkpt lat="37.834002147462954" lon="12.80500388301208"><ele>322.0</ele><time>2026-04-28T08:13:55Z</time></trkpt><trkpt lat="37.834261810567305" lon="12.804964767105952"><ele>321.0</ele><time>2026-04-28T08:13:56Z</time></trkpt><trkpt lat="37.834511626541115" lon="12.804932786840917"><ele>320.0</ele><time>2026-04-28T08:13:57Z</time></trkpt><trkpt lat="37.83475168856622" lon="12.804892812352335"><ele>320.0</ele><time>2026-04-28T08:13:58Z</time></trkpt><trkpt lat="37.83499457288966" lon="12.804857286090032"><ele>320.0</ele><time>2026-04-28T08:13:59Z</time></trkpt><trkpt lat="37.83524277226212" lon="12.80479380288554"><ele>321.0</ele><time>2026-04-28T08:14:00Z</time></trkpt><trkpt lat="37.83551256218805" lon="12.804697126870916"><ele>322.0</ele><time>2026-04-28T08:14:01Z</time></trkpt><trkpt lat="37.835782889137235" lon="12.804609035897887"><ele>324.5</ele><time>2026-04-28T08:14:02Z</time></trkpt><trkpt lat="37.83610100308112" lon="12.804480295505735"><ele>327.0</ele><time>2026-04-28T08:14:03Z</time></trkpt><trkpt lat="37.83634315739582" lon="12.804360129401958"><ele>333.0</ele><time>2026-04-28T08:14:04Z</time></trkpt><trkpt lat="37.83658810672643" lon="12.804292872434567"><ele>339.0</ele><time>2026-04-28T08:14:05Z</time></trkpt><trkpt lat="37.83680909151915" lon="12.804224286255742"><ele>341.3333333333333</ele><time>2026-04-28T08:14:06Z</time></trkpt><trkpt lat="37.837026142634485" lon="12.804185871033155"><ele>343.66666666666663</ele><time>2026-04-28T08:14:07Z</time></trkpt><trkpt lat="37.83724483926255" lon="12.804192665606042"><ele>346.0</ele><time>2026-04-28T08:14:08Z</time></trkpt><trkpt lat="37.83746842484225" lon="12.804231110269045"><ele>345.66666666666663</ele><time>2026-04-28T08:14:09Z</time></trkpt><trkpt lat="37.837665539306855" lon="12.804286591984638"><ele>345.3333333333333</ele><time>2026-04-28T08:14:10Z</time></trkpt><trkpt lat="37.83783687300438" lon="12.804320267552063"><ele>345.0</ele><time>2026-04-28T08:14:11Z</time></trkpt><trkpt lat="37.83799632067109" lon="12.804278310648096"><ele>345.0</ele><time>2026-04-28T08:14:12Z</time></trkpt><trkpt lat="37.838137484007426" lon="12.804229932082643"><ele>345.0</ele><time>2026-04-28T08:14:13Z</time></trkpt><trkpt lat="37.838279409240755" lon="12.804155116550916"><ele>345.0</ele><time>2026-04-28T08:14:14Z</time></trkpt><trkpt lat="37.8384187900364" lon="12.804006774759241"><ele>345.6666666666667</ele><time>2026-04-28T08:14:15Z</time></trkpt><trkpt lat="37.838558248735445" lon="12.803809916054178"><ele>346.33333333333337</ele><time>2026-04-28T08:14:16Z</time></trkpt><trkpt lat="37.83868656180718" lon="12.803624938303152"><ele>347.0</ele><time>2026-04-28T08:14:17Z</time></trkpt><trkpt lat="37.8387933757914" lon="12.803448303833276"><ele>347.0</ele><time>2026-04-28T08:14:18Z</time></trkpt><trkpt lat="37.83892338898355" lon="12.803350427375022"><ele>347.0</ele><time>2026-04-28T08:14:18.999Z</time></trkpt><trkpt lat="37.83906569072277" lon="12.803307371901065"><ele>347.0</ele><time>2026-04-28T08:14:19.999Z</time></trkpt><trkpt lat="37.83925496314084" lon="12.803289853080019"><ele>347.6666666666667</ele><time>2026-04-28T08:14:20.999Z</time></trkpt><trkpt lat="37.839455683860024" lon="12.803302077402707"><ele>348.3333333333333</ele><time>2026-04-28T08:14:21.999Z</time></trkpt><trkpt lat="37.83967449492354" lon="12.803302745729757"><ele>349.0</ele><time>2026-04-28T08:14:22.999Z</time></trkpt><trkpt lat="37.839909043764145" lon="12.803248699610394"><ele>350.0</ele><time>2026-04-28T08:14:23.999Z</time></trkpt><trkpt lat="37.84015472771244" lon="12.80317459470976"><ele>351.0</ele><time>2026-04-28T08:14:24.999Z</time></trkpt><trkpt lat="37.84040660969873" lon="12.803145374731452"><ele>351.0</ele><time>2026-04-28T08:14:25.999Z</time></trkpt><trkpt lat="37.84063454549505" lon="12.803134849313086"><ele>351.0</ele><time>2026-04-28T08:14:26.999Z</time></trkpt><trkpt lat="37.840841396811015" lon="12.80316603993522"><ele>351.0</ele><time>2026-04-28T08:14:27.999Z</time></trkpt><trkpt lat="37.8410276376924" lon="12.803226160655624"><ele>352.0</ele><time>2026-04-28T08:14:28.999Z</time></trkpt><trkpt lat="37.841195968692595" lon="12.803304579004173"><ele>353.0</ele><time>2026-04-28T08:14:29.999Z</time></trkpt><trkpt lat="37.841361584507936" lon="12.8033508153776"><ele>354.0</ele><time>2026-04-28T08:14:30.999Z</time></trkpt><trkpt lat="37.8415505246063" lon="12.803349413659117"><ele>354.0</ele><time>2026-04-28T08:14:31.999Z</time></trkpt><trkpt lat="37.84177166487861" lon="12.80329609509388"><ele>354.0</ele><time>2026-04-28T08:14:32.999Z</time></trkpt><trkpt lat="37.84201731738997" lon="12.80330003599846"><ele>354.0</ele><time>2026-04-28T08:14:33.999Z</time></trkpt><trkpt lat="37.84229038824279" lon="12.803334549995416"><ele>354.0</ele><time>2026-04-28T08:14:34.999Z</time></trkpt><trkpt lat="37.84255702998196" lon="12.803362433999922"><ele>355.6666666666667</ele><time>2026-04-28T08:14:35.999Z</time></trkpt><trkpt lat="37.84279181572536" lon="12.803381952069412"><ele>357.33333333333337</ele><time>2026-04-28T08:14:36.999Z</time></trkpt><trkpt lat="37.84300047893866" lon="12.803384469731284"><ele>359.0</ele><time>2026-04-28T08:14:37.999Z</time></trkpt><trkpt lat="37.843183017174574" lon="12.803378603547145"><ele>359.0</ele><time>2026-04-28T08:14:38.999Z</time></trkpt><trkpt lat="37.843356304693515" lon="12.803415174645743"><ele>359.0</ele><time>2026-04-28T08:14:39.999Z</time></trkpt><trkpt lat="37.8435121767423" lon="12.803515803094486"><ele>359.0</ele><time>2026-04-28T08:14:40.999Z</time></trkpt><trkpt lat="37.843665496219224" lon="12.803680378161882"><ele>356.33333333333337</ele><time>2026-04-28T08:14:41.999Z</time></trkpt><trkpt lat="37.843811224904705" lon="12.803804712752292"><ele>353.6666666666667</ele><time>2026-04-28T08:14:42.999Z</time></trkpt><trkpt lat="37.843964601156664" lon="12.803904864934726"><ele>351.0</ele><time>2026-04-28T08:14:43.999Z</time></trkpt><trkpt lat="37.844136057739505" lon="12.803942060759882"><ele>351.6666666666667</ele><time>2026-04-28T08:14:44.999Z</time></trkpt><trkpt lat="37.844331468939956" lon="12.803948485694995"><ele>352.33333333333337</ele><time>2026-04-28T08:14:45.999Z</time></trkpt><trkpt lat="37.84454086533531" lon="12.803915338036289"><ele>353.0</ele><time>2026-04-28T08:14:46.999Z</time></trkpt><trkpt lat="37.84471716101498" lon="12.803890493825826"><ele>353.0</ele><time>2026-04-28T08:14:47.999Z</time></trkpt><trkpt lat="37.84487116767245" lon="12.803870747426387"><ele>353.0</ele><time>2026-04-28T08:14:48.999Z</time></trkpt><trkpt lat="37.84504153483226" lon="12.803855221739273"><ele>353.0</ele><time>2026-04-28T08:14:49.999Z</time></trkpt><trkpt lat="37.84523747940229" lon="12.803897584176688"><ele>355.5</ele><time>2026-04-28T08:14:50.999Z</time></trkpt><trkpt lat="37.84545990139943" lon="12.803994314559182"><ele>358.0</ele><time>2026-04-28T08:14:51.999Z</time></trkpt><trkpt lat="37.84570099409007" lon="12.804155848872597"><ele>358.5</ele><time>2026-04-28T08:14:52.999Z</time></trkpt><trkpt lat="37.845994538571595" lon="12.80424724650174"><ele>359.0</ele><time>2026-04-28T08:14:53.999Z</time></trkpt><trkpt lat="37.846269798824906" lon="12.804365669927634"><ele>359.0</ele><time>2026-04-28T08:14:54.999Z</time></trkpt><trkpt lat="37.84652270433514" lon="12.804499071414195"><ele>359.0</ele><time>2026-04-28T08:14:55.999Z</time></trkpt><trkpt lat="37.84678408200473" lon="12.804666164957744"><ele>360.0</ele><time>2026-04-28T08:14:56.999Z</time></trkpt><trkpt lat="37.847040723400895" lon="12.804852699743773"><ele>361.0</ele><time>2026-04-28T08:14:57.999Z</time></trkpt><trkpt lat="37.84724536500187" lon="12.80502701229095"><ele>361.0</ele><time>2026-04-28T08:14:58.999Z</time></trkpt><trkpt lat="37.84743473622458" lon="12.805161268681047"><ele>361.0</ele><time>2026-04-28T08:14:59.999Z</time></trkpt><trkpt lat="37.84758751023351" lon="12.805293759062572"><ele>361.0</ele><time>2026-04-28T08:15:00.999Z</time></trkpt><trkpt lat="37.847692475313856" lon="12.805377341750425"><ele>364.66666666666663</ele><time>2026-04-28T08:15:02Z</time></trkpt><trkpt lat="37.8478479299138" lon="12.805426449132048"><ele>368.3333333333333</ele><time>2026-04-28T08:15:03Z</time></trkpt><trkpt lat="37.848049924597305" lon="12.805460116308147"><ele>372.0</ele><time>2026-04-28T08:15:04Z</time></trkpt><trkpt lat="37.84824415789696" lon="12.80550940527759"><ele>372.0</ele><time>2026-04-28T08:15:05Z</time></trkpt><trkpt lat="37.84845510923375" lon="12.80550901670079"><ele>372.0</ele><time>2026-04-28T08:15:06Z</time></trkpt><trkpt lat="37.84870603951352" lon="12.805488809242942"><ele>374.3333333333333</ele><time>2026-04-28T08:15:07Z</time></trkpt><trkpt lat="37.84891788787431" lon="12.805494077282196"><ele>376.66666666666663</ele><time>2026-04-28T08:15:08Z</time></trkpt><trkpt lat="37.84912507766895" lon="12.805485392758346"><ele>379.0</ele><time>2026-04-28T08:15:09Z</time></trkpt><trkpt lat="37.849328821319375" lon="12.805489869508953"><ele>381.66666666666663</ele><time>2026-04-28T08:15:10Z</time></trkpt><trkpt lat="37.84951626495039" lon="12.805484036494619"><ele>384.3333333333333</ele><time>2026-04-28T08:15:11Z</time></trkpt><trkpt lat="37.84969854828097" lon="12.80548425496385"><ele>387.0</ele><time>2026-04-28T08:15:12Z</time></trkpt><trkpt lat="37.8498628063381" lon="12.80546993079171"><ele>387.0</ele><time>2026-04-28T08:15:13Z</time></trkpt><trkpt lat="37.85004062439157" lon="12.805407594617316"><ele>387.0</ele><time>2026-04-28T08:15:14Z</time></trkpt><trkpt lat="37.8502331501021" lon="12.805362814810932"><ele>387.0</ele><time>2026-04-28T08:15:15Z</time></trkpt><trkpt lat="37.850413285150964" lon="12.805282825559049"><ele>384.6666666666667</ele><time>2026-04-28T08:15:16Z</time></trkpt><trkpt lat="37.85061531280817" lon="12.805218873212636"><ele>382.33333333333337</ele><time>2026-04-28T08:15:17Z</time></trkpt><trkpt lat="37.85083805975601" lon="12.805175508775742"><ele>380.0</ele><time>2026-04-28T08:15:18Z</time></trkpt><trkpt lat="37.85105113379045" lon="12.805142082000025"><ele>380.0</ele><time>2026-04-28T08:15:19Z</time></trkpt><trkpt lat="37.85123527365922" lon="12.805131277335489"><ele>380.0</ele><time>2026-04-28T08:15:20Z</time></trkpt><trkpt lat="37.85141350187341" lon="12.80513497650558"><ele>380.0</ele><time>2026-04-28T08:15:21Z</time></trkpt><trkpt lat="37.851559932267875" lon="12.805213835540933"><ele>382.6666666666667</ele><time>2026-04-28T08:15:22Z</time></trkpt><trkpt lat="37.85173207631674" lon="12.805227510371232"><ele>385.33333333333337</ele><time>2026-04-28T08:15:23Z</time></trkpt><trkpt lat="37.851875166894544" lon="12.805255118398074"><ele>388.0</ele><time>2026-04-28T08:15:24Z</time></trkpt><trkpt lat="37.85201548285635" lon="12.805337361279324"><ele>388.0</ele><time>2026-04-28T08:15:25Z</time></trkpt><trkpt lat="37.8521492640131" lon="12.805464989192817"><ele>388.0</ele><time>2026-04-28T08:15:26Z</time></trkpt><trkpt lat="37.85223614339507" lon="12.805742630040303"><ele>388.0</ele><time>2026-04-28T08:15:27Z</time></trkpt><trkpt lat="37.85236726208816" lon="12.805949776480247"><ele>389.33333333333337</ele><time>2026-04-28T08:15:28Z</time></trkpt><trkpt lat="37.85249738759549" lon="12.80613019532348"><ele>390.66666666666663</ele><time>2026-04-28T08:15:29Z</time></trkpt><trkpt lat="37.85261426467254" lon="12.806299956802162"><ele>392.0</ele><time>2026-04-28T08:15:30Z</time></trkpt><trkpt lat="37.85275689118488" lon="12.80649426812403"><ele>392.0</ele><time>2026-04-28T08:15:31Z</time></trkpt><trkpt lat="37.85292718189092" lon="12.806624737967342"><ele>392.0</ele><time>2026-04-28T08:15:32Z</time></trkpt><trkpt lat="37.853131030578105" lon="12.80676660524374"><ele>392.0</ele><time>2026-04-28T08:15:33Z</time></trkpt><trkpt lat="37.85335709740865" lon="12.806909885027835"><ele>396.5</ele><time>2026-04-28T08:15:34Z</time></trkpt><trkpt lat="37.8535942690411" lon="12.807040389544014"><ele>401.0</ele><time>2026-04-28T08:15:35Z</time></trkpt><trkpt lat="37.85387253861739" lon="12.807120717667907"><ele>401.0</ele><time>2026-04-28T08:15:36Z</time></trkpt><trkpt lat="37.85413439741391" lon="12.807170760683608"><ele>401.0</ele><time>2026-04-28T08:15:37Z</time></trkpt><trkpt lat="37.85436618149625" lon="12.807248828050021"><ele>400.66666666666663</ele><time>2026-04-28T08:15:38Z</time></trkpt><trkpt lat="37.85457947922042" lon="12.80732908366714"><ele>400.33333333333337</ele><time>2026-04-28T08:15:39Z</time></trkpt><trkpt lat="37.85477700828662" lon="12.807405559289617"><ele>400.0</ele><time>2026-04-28T08:15:40Z</time></trkpt><trkpt lat="37.854942478702306" lon="12.807407121570007"><ele>400.0</ele><time>2026-04-28T08:15:41Z</time></trkpt><trkpt lat="37.85511316801676" lon="12.807425418856191"><ele>400.0</ele><time>2026-04-28T08:15:42Z</time></trkpt><trkpt lat="37.85525445670094" lon="12.807459003427383"><ele>400.0</ele><time>2026-04-28T08:15:43Z</time></trkpt><trkpt lat="37.85539139801248" lon="12.807567842363728"><ele>403.33333333333337</ele><time>2026-04-28T08:15:44Z</time></trkpt><trkpt lat="37.85556032219843" lon="12.807699920037537"><ele>406.66666666666663</ele><time>2026-04-28T08:15:45Z</time></trkpt><trkpt lat="37.85572299339816" lon="12.807820326473323"><ele>410.0</ele><time>2026-04-28T08:15:46Z</time></trkpt><trkpt lat="37.85588201270371" lon="12.807926059541472"><ele>408.75</ele><time>2026-04-28T08:15:47Z</time></trkpt><trkpt lat="37.856023194281214" lon="12.80800254546673"><ele>407.5</ele><time>2026-04-28T08:15:48Z</time></trkpt><trkpt lat="37.856139226853244" lon="12.808097263604354"><ele>406.25</ele><time>2026-04-28T08:15:49Z</time></trkpt><trkpt lat="37.85629134104663" lon="12.808107730147317"><ele>405.0</ele><time>2026-04-28T08:15:50Z</time></trkpt><trkpt lat="37.85645504212309" lon="12.808080403851056"><ele>405.0</ele><time>2026-04-28T08:15:51Z</time></trkpt><trkpt lat="37.85659939474653" lon="12.80808483405193"><ele>405.0</ele><time>2026-04-28T08:15:52Z</time></trkpt><trkpt lat="37.856747273324714" lon="12.808131704590586"><ele>405.0</ele><time>2026-04-28T08:15:53Z</time></trkpt><trkpt lat="37.856901408343944" lon="12.808229617068315"><ele>404.33333333333337</ele><time>2026-04-28T08:15:54Z</time></trkpt><trkpt lat="37.857066363224305" lon="12.80835337568955"><ele>403.6666666666667</ele><time>2026-04-28T08:15:55Z</time></trkpt><trkpt lat="37.857229094640765" lon="12.808475157576204"><ele>403.0</ele><time>2026-04-28T08:15:56Z</time></trkpt><trkpt lat="37.85741173468461" lon="12.808535850649587"><ele>406.33333333333337</ele><time>2026-04-28T08:15:57Z</time></trkpt><trkpt lat="37.85760368348508" lon="12.80862302970695"><ele>409.66666666666663</ele><time>2026-04-28T08:15:58Z</time></trkpt><trkpt lat="37.8578250913023" lon="12.808697811556579"><ele>413.0</ele><time>2026-04-28T08:15:59Z</time></trkpt><trkpt lat="37.85803073124576" lon="12.808819756403201"><ele>413.0</ele><time>2026-04-28T08:16:00Z</time></trkpt><trkpt lat="37.858231301511736" lon="12.808964845301618"><ele>413.0</ele><time>2026-04-28T08:16:01Z</time></trkpt><trkpt lat="37.85841365687476" lon="12.809140285565359"><ele>414.5</ele><time>2026-04-28T08:16:02Z</time></trkpt><trkpt lat="37.85857438684983" lon="12.80934412728586"><ele>416.0</ele><time>2026-04-28T08:16:03Z</time></trkpt><trkpt lat="37.85872583786417" lon="12.809584641124522"><ele>416.0</ele><time>2026-04-28T08:16:04Z</time></trkpt><trkpt lat="37.8588508945054" lon="12.809850757777413"><ele>416.0</ele><time>2026-04-28T08:16:05Z</time></trkpt><trkpt lat="37.85894264375053" lon="12.810134883391235"><ele>417.5</ele><time>2026-04-28T08:16:06Z</time></trkpt><trkpt lat="37.85900999241467" lon="12.810447476496082"><ele>419.0</ele><time>2026-04-28T08:16:07Z</time></trkpt><trkpt lat="37.8590427818189" lon="12.810751400712439"><ele>419.66666666666663</ele><time>2026-04-28T08:16:08Z</time></trkpt><trkpt lat="37.85904807572976" lon="12.811026743592931"><ele>420.33333333333337</ele><time>2026-04-28T08:16:09Z</time></trkpt><trkpt lat="37.85902200875223" lon="12.811307260532276"><ele>421.0</ele><time>2026-04-28T08:16:10Z</time></trkpt><trkpt lat="37.85897631757591" lon="12.811616161165688"><ele>422.0</ele><time>2026-04-28T08:16:11Z</time></trkpt><trkpt lat="37.85890504417074" lon="12.811947870739475"><ele>423.0</ele><time>2026-04-28T08:16:12Z</time></trkpt><trkpt lat="37.85883291100871" lon="12.812308336014722"><ele>423.0</ele><time>2026-04-28T08:16:13Z</time></trkpt><trkpt lat="37.85876226049043" lon="12.812645018757712"><ele>423.0</ele><time>2026-04-28T08:16:14Z</time></trkpt><trkpt lat="37.85870138723766" lon="12.812945731443984"><ele>426.5</ele><time>2026-04-28T08:16:15Z</time></trkpt><trkpt lat="37.85864332448659" lon="12.813239253813805"><ele>430.0</ele><time>2026-04-28T08:16:16Z</time></trkpt><trkpt lat="37.85858442886807" lon="12.813508903891092"><ele>431.33333333333337</ele><time>2026-04-28T08:16:17Z</time></trkpt><trkpt lat="37.85852989888511" lon="12.813768761494956"><ele>432.66666666666663</ele><time>2026-04-28T08:16:18Z</time></trkpt><trkpt lat="37.85849181859821" lon="12.814026394161463"><ele>434.0</ele><time>2026-04-28T08:16:19Z</time></trkpt><trkpt lat="37.858481847659" lon="12.81428143850831"><ele>431.66666666666663</ele><time>2026-04-28T08:16:20Z</time></trkpt><trkpt lat="37.858506688961974" lon="12.81453337127883"><ele>429.33333333333337</ele><time>2026-04-28T08:16:21Z</time></trkpt><trkpt lat="37.858579008880575" lon="12.814795244053101"><ele>427.0</ele><time>2026-04-28T08:16:22Z</time></trkpt><trkpt lat="37.85868009927516" lon="12.815039279978919"><ele>425.0</ele><time>2026-04-28T08:16:23Z</time></trkpt><trkpt lat="37.85882607505861" lon="12.815247776666116"><ele>423.0</ele><time>2026-04-28T08:16:24Z</time></trkpt><trkpt lat="37.85899429794137" lon="12.81541607265118"><ele>421.0</ele><time>2026-04-28T08:16:25Z</time></trkpt><trkpt lat="37.85918273532809" lon="12.815545487207869"><ele>420.33333333333337</ele><time>2026-04-28T08:16:26Z</time></trkpt><trkpt lat="37.85939236239981" lon="12.815623139830718"><ele>419.66666666666663</ele><time>2026-04-28T08:16:26.999Z</time></trkpt><trkpt lat="37.85961512135313" lon="12.815646495445547"><ele>419.0</ele><time>2026-04-28T08:16:27.999Z</time></trkpt><trkpt lat="37.859848568843574" lon="12.81560783879275"><ele>419.0</ele><time>2026-04-28T08:16:28.999Z</time></trkpt><trkpt lat="37.860091894174694" lon="12.815512450067633"><ele>419.0</ele><time>2026-04-28T08:16:29.999Z</time></trkpt><trkpt lat="37.86034278035683" lon="12.815394737821878"><ele>416.5</ele><time>2026-04-28T08:16:30.999Z</time></trkpt><trkpt lat="37.86057062185037" lon="12.815296600316879"><ele>414.0</ele><time>2026-04-28T08:16:31.999Z</time></trkpt><trkpt lat="37.86078384481013" lon="12.815212712875635"><ele>415.66666666666663</ele><time>2026-04-28T08:16:32.999Z</time></trkpt><trkpt lat="37.860984021956305" lon="12.815166281007752"><ele>417.3333333333333</ele><time>2026-04-28T08:16:33.999Z</time></trkpt><trkpt lat="37.861192484924054" lon="12.815166853699978"><ele>419.0</ele><time>2026-04-28T08:16:34.999Z</time></trkpt><trkpt lat="37.86140700549455" lon="12.81524164754559"><ele>419.0</ele><time>2026-04-28T08:16:35.999Z</time></trkpt><trkpt lat="37.86162492832058" lon="12.815372652861706"><ele>419.0</ele><time>2026-04-28T08:16:36.999Z</time></trkpt><trkpt lat="37.86183711479293" lon="12.81556418931126"><ele>419.5</ele><time>2026-04-28T08:16:37.999Z</time></trkpt><trkpt lat="37.86205586003238" lon="12.815810848810498"><ele>420.0</ele><time>2026-04-28T08:16:38.999Z</time></trkpt><trkpt lat="37.862301208595945" lon="12.816066423596366"><ele>420.0</ele><time>2026-04-28T08:16:39.999Z</time></trkpt><trkpt lat="37.862564219723374" lon="12.816328249067292"><ele>420.0</ele><time>2026-04-28T08:16:40.999Z</time></trkpt><trkpt lat="37.862827764438514" lon="12.816594717839024"><ele>417.0</ele><time>2026-04-28T08:16:41.999Z</time></trkpt><trkpt lat="37.863076568380365" lon="12.816857244703339"><ele>414.0</ele><time>2026-04-28T08:16:42.999Z</time></trkpt><trkpt lat="37.86328847761408" lon="12.817084618651503"><ele>419.0</ele><time>2026-04-28T08:16:43.999Z</time></trkpt><trkpt lat="37.86350409144393" lon="12.817285027633073"><ele>424.0</ele><time>2026-04-28T08:16:44.999Z</time></trkpt><trkpt lat="37.86370899908235" lon="12.817472613406725"><ele>419.0</ele><time>2026-04-28T08:16:45.999Z</time></trkpt><trkpt lat="37.863897180445" lon="12.81765361406131"><ele>414.0</ele><time>2026-04-28T08:16:46.999Z</time></trkpt><trkpt lat="37.86407166941262" lon="12.817826605607587"><ele>414.0</ele><time>2026-04-28T08:16:47.999Z</time></trkpt><trkpt lat="37.86424854880223" lon="12.817962809617393"><ele>414.0</ele><time>2026-04-28T08:16:48.999Z</time></trkpt><trkpt lat="37.864447623575195" lon="12.818087565991728"><ele>414.0</ele><time>2026-04-28T08:16:49.999Z</time></trkpt><trkpt lat="37.864686161429674" lon="12.818172305463056"><ele>417.5</ele><time>2026-04-28T08:16:50.999Z</time></trkpt><trkpt lat="37.864946681360784" lon="12.818215556759291"><ele>421.0</ele><time>2026-04-28T08:16:51.999Z</time></trkpt><trkpt lat="37.865237486758154" lon="12.818220104201396"><ele>421.5</ele><time>2026-04-28T08:16:52.999Z</time></trkpt><trkpt lat="37.865520599254744" lon="12.818232099271855"><ele>422.0</ele><time>2026-04-28T08:16:53.999Z</time></trkpt><trkpt lat="37.865774522250554" lon="12.81824305119063"><ele>421.66666666666663</ele><time>2026-04-28T08:16:54.999Z</time></trkpt><trkpt lat="37.86600507202729" lon="12.818267396829686"><ele>421.33333333333337</ele><time>2026-04-28T08:16:55.999Z</time></trkpt><trkpt lat="37.86622078309616" lon="12.818280885042999"><ele>421.0</ele><time>2026-04-28T08:16:56.999Z</time></trkpt><trkpt lat="37.866419945563266" lon="12.818299884125741"><ele>421.0</ele><time>2026-04-28T08:16:57.999Z</time></trkpt><trkpt lat="37.866607739077054" lon="12.818307423262993"><ele>421.0</ele><time>2026-04-28T08:16:58.999Z</time></trkpt><trkpt lat="37.866785288805865" lon="12.818325635593679"><ele>421.0</ele><time>2026-04-28T08:16:59.999Z</time></trkpt><trkpt lat="37.86696476810463" lon="12.818133491023428"><ele>416.0</ele><time>2026-04-28T08:17:00.999Z</time></trkpt><trkpt lat="37.86714543809922" lon="12.817950731490786"><ele>411.0</ele><time>2026-04-28T08:17:01.999Z</time></trkpt><trkpt lat="37.867325420042654" lon="12.817767476384335"><ele>413.0</ele><time>2026-04-28T08:17:02.999Z</time></trkpt><trkpt lat="37.86747158884569" lon="12.817612605758113"><ele>415.0</ele><time>2026-04-28T08:17:03.999Z</time></trkpt><trkpt lat="37.86762194818813" lon="12.817460821098267"><ele>417.0</ele><time>2026-04-28T08:17:04.999Z</time></trkpt><trkpt lat="37.867786754791" lon="12.817321856266686"><ele>417.0</ele><time>2026-04-28T08:17:05.999Z</time></trkpt><trkpt lat="37.86795845075762" lon="12.817231554520074"><ele>417.0</ele><time>2026-04-28T08:17:06.999Z</time></trkpt><trkpt lat="37.86813752794198" lon="12.81718228408699"><ele>417.0</ele><time>2026-04-28T08:17:08Z</time></trkpt><trkpt lat="37.86833174000405" lon="12.81717016329562"><ele>421.66666666666663</ele><time>2026-04-28T08:17:09Z</time></trkpt><trkpt lat="37.868526748630835" lon="12.817204505043891"><ele>426.3333333333333</ele><time>2026-04-28T08:17:10Z</time></trkpt><trkpt lat="37.86871473207771" lon="12.817260626935077"><ele>431.0</ele><time>2026-04-28T08:17:11Z</time></trkpt><trkpt lat="37.86890333307688" lon="12.817364428675486"><ele>431.0</ele><time>2026-04-28T08:17:12Z</time></trkpt><trkpt lat="37.86907685720653" lon="12.817504175822405"><ele>431.0</ele><time>2026-04-28T08:17:13Z</time></trkpt><trkpt lat="37.869245004715076" lon="12.817682874708497"><ele>431.0</ele><time>2026-04-28T08:17:14Z</time></trkpt><trkpt lat="37.86941273015097" lon="12.817910242568345"><ele>435.5</ele><time>2026-04-28T08:17:15Z</time></trkpt><trkpt lat="37.86960034656771" lon="12.818151278356174"><ele>440.0</ele><time>2026-04-28T08:17:16Z</time></trkpt><trkpt lat="37.869809980812256" lon="12.8184084768106"><ele>440.5</ele><time>2026-04-28T08:17:17Z</time></trkpt><trkpt lat="37.870024342061804" lon="12.818678553895065"><ele>441.0</ele><time>2026-04-28T08:17:18Z</time></trkpt><trkpt lat="37.870239884259554" lon="12.818942453660824"><ele>441.0</ele><time>2026-04-28T08:17:19Z</time></trkpt><trkpt lat="37.870428838540356" lon="12.81921226161712"><ele>441.0</ele><time>2026-04-28T08:17:20Z</time></trkpt><trkpt lat="37.87057121907157" lon="12.81949030414924"><ele>435.0</ele><time>2026-04-28T08:17:21Z</time></trkpt><trkpt lat="37.870709507670966" lon="12.819788672535855"><ele>429.0</ele><time>2026-04-28T08:17:22Z</time></trkpt><trkpt lat="37.8708247012413" lon="12.820116443914362"><ele>428.5</ele><time>2026-04-28T08:17:23Z</time></trkpt><trkpt lat="37.870929700192974" lon="12.820474508010308"><ele>428.0</ele><time>2026-04-28T08:17:24Z</time></trkpt><trkpt lat="37.8710825518467" lon="12.820803073189388"><ele>432.0</ele><time>2026-04-28T08:17:25Z</time></trkpt><trkpt lat="37.871248263621695" lon="12.821135183245444"><ele>436.0</ele><time>2026-04-28T08:17:26Z</time></trkpt><trkpt lat="37.87139866535296" lon="12.821467076282996"><ele>436.0</ele><time>2026-04-28T08:17:27Z</time></trkpt><trkpt lat="37.871560035018234" lon="12.821803342690885"><ele>436.0</ele><time>2026-04-28T08:17:28Z</time></trkpt><trkpt lat="37.87175103757951" lon="12.8221372305227"><ele>439.0</ele><time>2026-04-28T08:17:29Z</time></trkpt><trkpt lat="37.87193539975793" lon="12.822441345189137"><ele>442.0</ele><time>2026-04-28T08:17:30Z</time></trkpt><trkpt lat="37.87207583274729" lon="12.822759063230844"><ele>442.0</ele><time>2026-04-28T08:17:31Z</time></trkpt><trkpt lat="37.872188757198096" lon="12.823049009519371"><ele>442.0</ele><time>2026-04-28T08:17:32Z</time></trkpt><trkpt lat="37.87230316286049" lon="12.823304661814229"><ele>441.33333333333337</ele><time>2026-04-28T08:17:33Z</time></trkpt><trkpt lat="37.87241845407458" lon="12.823532285893478"><ele>440.66666666666663</ele><time>2026-04-28T08:17:34Z</time></trkpt><trkpt lat="37.872555457290815" lon="12.823756181386953"><ele>440.0</ele><time>2026-04-28T08:17:35Z</time></trkpt><trkpt lat="37.87271692947368" lon="12.823913977521634"><ele>439.3333333333333</ele><time>2026-04-28T08:17:36Z</time></trkpt><trkpt lat="37.87292892905991" lon="12.824042443899785"><ele>438.66666666666663</ele><time>2026-04-28T08:17:37Z</time></trkpt><trkpt lat="37.873085581689566" lon="12.824170237218507"><ele>438.0</ele><time>2026-04-28T08:17:38Z</time></trkpt><trkpt lat="37.873264873047" lon="12.82428279865118"><ele>433.5</ele><time>2026-04-28T08:17:39Z</time></trkpt><trkpt lat="37.873475404304045" lon="12.824363874110928"><ele>429.0</ele><time>2026-04-28T08:17:40Z</time></trkpt><trkpt lat="37.873707934577155" lon="12.82441521979821"><ele>429.0</ele><time>2026-04-28T08:17:41Z</time></trkpt><trkpt lat="37.873957008099396" lon="12.824454450979553"><ele>429.0</ele><time>2026-04-28T08:17:42Z</time></trkpt><trkpt lat="37.874227794186396" lon="12.82446229361518"><ele>428.0</ele><time>2026-04-28T08:17:43Z</time></trkpt><trkpt lat="37.87451824027368" lon="12.824434819465845"><ele>427.0</ele><time>2026-04-28T08:17:44Z</time></trkpt><trkpt lat="37.874807047566456" lon="12.82443319653602"><ele>427.0</ele><time>2026-04-28T08:17:45Z</time></trkpt><trkpt lat="37.87509141547528" lon="12.824453592834951"><ele>427.0</ele><time>2026-04-28T08:17:46Z</time></trkpt><trkpt lat="37.87535997642826" lon="12.824501334280141"><ele>426.0</ele><time>2026-04-28T08:17:47Z</time></trkpt><trkpt lat="37.875588628258576" lon="12.824568038733947"><ele>425.0</ele><time>2026-04-28T08:17:48Z</time></trkpt><trkpt lat="37.875813369335084" lon="12.824615283744995"><ele>430.0</ele><time>2026-04-28T08:17:49Z</time></trkpt><trkpt lat="37.87603260751134" lon="12.824693275673154"><ele>435.0</ele><time>2026-04-28T08:17:50Z</time></trkpt><trkpt lat="37.87624229088226" lon="12.824838752776275"><ele>435.0</ele><time>2026-04-28T08:17:51Z</time></trkpt><trkpt lat="37.876445330483634" lon="12.825087720544966"><ele>435.0</ele><time>2026-04-28T08:17:52Z</time></trkpt><trkpt lat="37.87664305890398" lon="12.825255485929942"><ele>434.33333333333337</ele><time>2026-04-28T08:17:53Z</time></trkpt><trkpt lat="37.87682722029552" lon="12.825412239588472"><ele>433.6666666666667</ele><time>2026-04-28T08:17:54Z</time></trkpt><trkpt lat="37.877006830943024" lon="12.825554801830652"><ele>433.0</ele><time>2026-04-28T08:17:55Z</time></trkpt><trkpt lat="37.877172968509136" lon="12.825699181416574"><ele>433.0</ele><time>2026-04-28T08:17:56Z</time></trkpt><trkpt lat="37.87730362528143" lon="12.825863617554056"><ele>433.0</ele><time>2026-04-28T08:17:57Z</time></trkpt><trkpt lat="37.87739197658198" lon="12.826057021966356"><ele>433.0</ele><time>2026-04-28T08:17:58Z</time></trkpt><trkpt lat="37.87748930065652" lon="12.826227337774561"><ele>430.33333333333337</ele><time>2026-04-28T08:17:59Z</time></trkpt><trkpt lat="37.87760613449797" lon="12.826371491402147"><ele>427.66666666666663</ele><time>2026-04-28T08:18:00Z</time></trkpt><trkpt lat="37.87773583599247" lon="12.826512806077911"><ele>425.0</ele><time>2026-04-28T08:18:01Z</time></trkpt><trkpt lat="37.877890254811405" lon="12.826632470057035"><ele>425.0</ele><time>2026-04-28T08:18:02Z</time></trkpt><trkpt lat="37.878033257988506" lon="12.826737455492992"><ele>425.0</ele><time>2026-04-28T08:18:03Z</time></trkpt><trkpt lat="37.87815554680886" lon="12.826829023911136"><ele>425.0</ele><time>2026-04-28T08:18:04Z</time></trkpt><trkpt lat="37.87828156556159" lon="12.826921395337388"><ele>429.3333333333333</ele><time>2026-04-28T08:18:05Z</time></trkpt><trkpt lat="37.87841687593839" lon="12.827000138345033"><ele>433.66666666666663</ele><time>2026-04-28T08:18:06Z</time></trkpt><trkpt lat="37.87855958526777" lon="12.827066055112404"><ele>438.0</ele><time>2026-04-28T08:18:07Z</time></trkpt><trkpt lat="37.87871642170466" lon="12.82710669887899"><ele>438.33333333333337</ele><time>2026-04-28T08:18:08Z</time></trkpt><trkpt lat="37.87888983736667" lon="12.827096434999667"><ele>438.6666666666667</ele><time>2026-04-28T08:18:09Z</time></trkpt><trkpt lat="37.87905787024971" lon="12.827057953911494"><ele>439.0</ele><time>2026-04-28T08:18:10Z</time></trkpt><trkpt lat="37.87922094716147" lon="12.827010097490433"><ele>436.0</ele><time>2026-04-28T08:18:11Z</time></trkpt><trkpt lat="37.87936465569602" lon="12.826981625193726"><ele>433.0</ele><time>2026-04-28T08:18:12Z</time></trkpt><trkpt lat="37.879499412836864" lon="12.82702822981218"><ele>430.0</ele><time>2026-04-28T08:18:13Z</time></trkpt><trkpt lat="37.879625301194295" lon="12.827076487662383"><ele>427.0</ele><time>2026-04-28T08:18:14Z</time></trkpt><trkpt lat="37.87973651159079" lon="12.827145956517766"><ele>427.0</ele><time>2026-04-28T08:18:15Z</time></trkpt><trkpt lat="37.87983150056085" lon="12.827252188424751"><ele>427.0</ele><time>2026-04-28T08:18:16Z</time></trkpt><trkpt lat="37.87991372707667" lon="12.827402785999373"><ele>427.0</ele><time>2026-04-28T08:18:17Z</time></trkpt><trkpt lat="37.880008786965426" lon="12.827564096190324"><ele>427.0</ele><time>2026-04-28T08:18:18Z</time></trkpt><trkpt lat="37.88008796948948" lon="12.827661369913159"><ele>429.5</ele><time>2026-04-28T08:18:19Z</time></trkpt><trkpt lat="37.88019264677492" lon="12.827743833794399"><ele>432.0</ele><time>2026-04-28T08:18:20Z</time></trkpt><trkpt lat="37.8803323653529" lon="12.827777369428313"><ele>434.5</ele><time>2026-04-28T08:18:21Z</time></trkpt><trkpt lat="37.880479882160586" lon="12.827794237854164"><ele>437.0</ele><time>2026-04-28T08:18:22Z</time></trkpt><trkpt lat="37.8806146595936" lon="12.827788702152349"><ele>437.0</ele><time>2026-04-28T08:18:23Z</time></trkpt><trkpt lat="37.88075991355321" lon="12.827762051192165"><ele>437.0</ele><time>2026-04-28T08:18:24Z</time></trkpt><trkpt lat="37.880881907022214" lon="12.827726313485295"><ele>437.0</ele><time>2026-04-28T08:18:25Z</time></trkpt><trkpt lat="37.880997841691915" lon="12.827666288247128"><ele>437.0</ele><time>2026-04-28T08:18:26Z</time></trkpt><trkpt lat="37.88110258132245" lon="12.827548804228538"><ele>428.75</ele><time>2026-04-28T08:18:27Z</time></trkpt><trkpt lat="37.881187263661865" lon="12.827435098720246"><ele>420.5</ele><time>2026-04-28T08:18:28Z</time></trkpt><trkpt lat="37.88127848077538" lon="12.827374540518525"><ele>412.25</ele><time>2026-04-28T08:18:29Z</time></trkpt><trkpt lat="37.88138735822974" lon="12.827353647484303"><ele>404.0</ele><time>2026-04-28T08:18:30Z</time></trkpt><trkpt lat="37.88150414350452" lon="12.827360526682668"><ele>404.0</ele><time>2026-04-28T08:18:31Z</time></trkpt><trkpt lat="37.88161504996222" lon="12.82745941653922"><ele>404.0</ele><time>2026-04-28T08:18:31.999Z</time></trkpt><trkpt lat="37.88170997456682" lon="12.827584056951247"><ele>404.0</ele><time>2026-04-28T08:18:32.999Z</time></trkpt><trkpt lat="37.88182649054031" lon="12.827781808177514"><ele>404.75</ele><time>2026-04-28T08:18:33.999Z</time></trkpt><trkpt lat="37.88194983473851" lon="12.827919275209196"><ele>405.5</ele><time>2026-04-28T08:18:34.999Z</time></trkpt><trkpt lat="37.882052075872956" lon="12.828042819375876"><ele>406.25</ele><time>2026-04-28T08:18:35.999Z</time></trkpt><trkpt lat="37.882146112141264" lon="12.828161131609923"><ele>407.0</ele><time>2026-04-28T08:18:36.999Z</time></trkpt><trkpt lat="37.88224424372757" lon="12.828265935243786"><ele>407.0</ele><time>2026-04-28T08:18:37.999Z</time></trkpt><trkpt lat="37.88236612959912" lon="12.828352082290097"><ele>407.0</ele><time>2026-04-28T08:18:38.999Z</time></trkpt><trkpt lat="37.882532334803315" lon="12.828401005690596"><ele>407.0</ele><time>2026-04-28T08:18:39.999Z</time></trkpt><trkpt lat="37.88270811246571" lon="12.828418240214464"><ele>405.0</ele><time>2026-04-28T08:18:40.999Z</time></trkpt><trkpt lat="37.88286597895627" lon="12.82845451794457"><ele>403.0</ele><time>2026-04-28T08:18:41.999Z</time></trkpt><trkpt lat="37.88301459856129" lon="12.82848216502142"><ele>401.0</ele><time>2026-04-28T08:18:42.999Z</time></trkpt><trkpt lat="37.88316255782193" lon="12.828499395924108"><ele>399.0</ele><time>2026-04-28T08:18:43.999Z</time></trkpt><trkpt lat="37.88331714262987" lon="12.82850944355856"><ele>397.0</ele><time>2026-04-28T08:18:44.999Z</time></trkpt><trkpt lat="37.88347982828918" lon="12.828474089122484"><ele>395.0</ele><time>2026-04-28T08:18:45.999Z</time></trkpt><trkpt lat="37.8836434740804" lon="12.828433339299556"><ele>395.0</ele><time>2026-04-28T08:18:46.999Z</time></trkpt><trkpt lat="37.883774094728565" lon="12.82835395059485"><ele>395.0</ele><time>2026-04-28T08:18:47.999Z</time></trkpt><trkpt lat="37.883926861623145" lon="12.828280722769023"><ele>395.0</ele><time>2026-04-28T08:18:48.999Z</time></trkpt><trkpt lat="37.88408193836546" lon="12.82820959810468"><ele>395.0</ele><time>2026-04-28T08:18:49.999Z</time></trkpt><trkpt lat="37.884233068598554" lon="12.828146252555007"><ele>395.0</ele><time>2026-04-28T08:18:50.999Z</time></trkpt><trkpt lat="37.88438336808168" lon="12.828111359012873"><ele>395.0</ele><time>2026-04-28T08:18:51.999Z</time></trkpt><trkpt lat="37.88453047858841" lon="12.828121543683869"><ele>393.5</ele><time>2026-04-28T08:18:52.999Z</time></trkpt><trkpt lat="37.88465834415736" lon="12.828112200613392"><ele>392.0</ele><time>2026-04-28T08:18:53.999Z</time></trkpt><trkpt lat="37.88478046427332" lon="12.828107553504148"><ele>390.5</ele><time>2026-04-28T08:18:54.999Z</time></trkpt><trkpt lat="37.88488547885046" lon="12.828101144152601"><ele>389.0</ele><time>2026-04-28T08:18:55.999Z</time></trkpt><trkpt lat="37.88498624351933" lon="12.828084324146985"><ele>389.0</ele><time>2026-04-28T08:18:56.999Z</time></trkpt><trkpt lat="37.8850750474286" lon="12.82806761101561"><ele>389.0</ele><time>2026-04-28T08:18:57.999Z</time></trkpt><trkpt lat="37.88519265220089" lon="12.828022536385022"><ele>389.0</ele><time>2026-04-28T08:18:59.999Z</time></trkpt><trkpt lat="37.88527298980884" lon="12.827990265207582"><ele>389.0</ele><time>2026-04-28T08:19:00.999Z</time></trkpt><trkpt lat="37.885387860292276" lon="12.827959011290448"><ele>389.0</ele><time>2026-04-28T08:19:01.999Z</time></trkpt><trkpt lat="37.8855268914696" lon="12.827906247264517"><ele>385.0</ele><time>2026-04-28T08:19:02.999Z</time></trkpt><trkpt lat="37.885692232685585" lon="12.82783220811271"><ele>381.0</ele><time>2026-04-28T08:19:03.999Z</time></trkpt><trkpt lat="37.88588298164829" lon="12.827769540629726"><ele>377.0</ele><time>2026-04-28T08:19:04.999Z</time></trkpt><trkpt lat="37.88609910579077" lon="12.82767265932826"><ele>378.6666666666667</ele><time>2026-04-28T08:19:05.999Z</time></trkpt><trkpt lat="37.88629460913449" lon="12.827599264874307"><ele>380.3333333333333</ele><time>2026-04-28T08:19:06.999Z</time></trkpt><trkpt lat="37.88648619550513" lon="12.827566751266362"><ele>382.0</ele><time>2026-04-28T08:19:07.999Z</time></trkpt><trkpt lat="37.88670224430909" lon="12.827622838299982"><ele>373.5</ele><time>2026-04-28T08:19:08.999Z</time></trkpt><trkpt lat="37.886936006603825" lon="12.827710383422842"><ele>365.0</ele><time>2026-04-28T08:19:09.999Z</time></trkpt><trkpt lat="37.887202397057585" lon="12.82785120140568"><ele>365.0</ele><time>2026-04-28T08:19:10.999Z</time></trkpt><trkpt lat="37.88742407383448" lon="12.827937357298504"><ele>365.0</ele><time>2026-04-28T08:19:11.999Z</time></trkpt><trkpt lat="37.88762596362254" lon="12.828001563044895"><ele>365.0</ele><time>2026-04-28T08:19:12.999Z</time></trkpt><trkpt lat="37.88782455869974" lon="12.828071912134615"><ele>365.6666666666667</ele><time>2026-04-28T08:19:14Z</time></trkpt><trkpt lat="37.888036990676376" lon="12.82811613471771"><ele>366.3333333333333</ele><time>2026-04-28T08:19:15Z</time></trkpt><trkpt lat="37.88824732600327" lon="12.82814010236027"><ele>367.0</ele><time>2026-04-28T08:19:16Z</time></trkpt><trkpt lat="37.88843020077986" lon="12.828185512187025"><ele>367.3333333333333</ele><time>2026-04-28T08:19:17Z</time></trkpt><trkpt lat="37.88860373764321" lon="12.82827096803764"><ele>367.6666666666667</ele><time>2026-04-28T08:19:18Z</time></trkpt><trkpt lat="37.888810540926244" lon="12.828381786626286"><ele>368.0</ele><time>2026-04-28T08:19:19Z</time></trkpt><trkpt lat="37.889027536023214" lon="12.828490950589305"><ele>364.6666666666667</ele><time>2026-04-28T08:19:20Z</time></trkpt><trkpt lat="37.88922607595122" lon="12.828599419131319"><ele>361.3333333333333</ele><time>2026-04-28T08:19:21Z</time></trkpt><trkpt lat="37.88939003952369" lon="12.828694543471851"><ele>358.0</ele><time>2026-04-28T08:19:22Z</time></trkpt><trkpt lat="37.88953827871223" lon="12.828781030856304"><ele>356.66666666666663</ele><time>2026-04-28T08:19:23Z</time></trkpt><trkpt lat="37.88969148998036" lon="12.828843513091869"><ele>355.3333333333333</ele><time>2026-04-28T08:19:24Z</time></trkpt><trkpt lat="37.88984043483067" lon="12.828888277409167"><ele>354.0</ele><time>2026-04-28T08:19:25Z</time></trkpt><trkpt lat="37.89000124846608" lon="12.828893804998446"><ele>351.6666666666667</ele><time>2026-04-28T08:19:26Z</time></trkpt><trkpt lat="37.89018185349316" lon="12.828834121901929"><ele>349.33333333333337</ele><time>2026-04-28T08:19:27Z</time></trkpt><trkpt lat="37.890339088139164" lon="12.828783659036759"><ele>347.0</ele><time>2026-04-28T08:19:28Z</time></trkpt><trkpt lat="37.89046202524189" lon="12.828724461274897"><ele>347.0</ele><time>2026-04-28T08:19:29Z</time></trkpt><trkpt lat="37.890547941378365" lon="12.828719460984177"><ele>347.0</ele><time>2026-04-28T08:19:30Z</time></trkpt><trkpt lat="37.890620660534374" lon="12.828713971482797"><ele>347.0</ele><time>2026-04-28T08:19:31Z</time></trkpt><trkpt lat="37.89069083053538" lon="12.828749058490601"><ele>347.0</ele><time>2026-04-28T08:19:32Z</time></trkpt><trkpt lat="37.89074005905512" lon="12.82883717495382"><ele>347.0</ele><time>2026-04-28T08:19:33Z</time></trkpt><trkpt lat="37.89074670412206" lon="12.82895288050484"><ele>347.0</ele><time>2026-04-28T08:19:34Z</time></trkpt><trkpt lat="37.890700116958364" lon="12.82909433176423"><ele>347.0</ele><time>2026-04-28T08:19:35Z</time></trkpt><trkpt lat="37.89064643149414" lon="12.829217923816126"><ele>347.0</ele><time>2026-04-28T08:19:36Z</time></trkpt><trkpt lat="37.89063485456781" lon="12.829336805638365"><ele>347.0</ele><time>2026-04-28T08:19:37Z</time></trkpt><trkpt lat="37.890659004701185" lon="12.829419820359005"><ele>347.0</ele><time>2026-04-28T08:19:38Z</time></trkpt><trkpt lat="37.89073440564503" lon="12.829476372199585"><ele>347.0</ele><time>2026-04-28T08:19:39Z</time></trkpt><trkpt lat="37.890816180963824" lon="12.829477426444148"><ele>347.0</ele><time>2026-04-28T08:19:40Z</time></trkpt><trkpt lat="37.89091142502072" lon="12.829400689554438"><ele>346.25</ele><time>2026-04-28T08:19:41Z</time></trkpt><trkpt lat="37.890991948511974" lon="12.829258331089981"><ele>345.5</ele><time>2026-04-28T08:19:42Z</time></trkpt><trkpt lat="37.89107270852496" lon="12.829113840158316"><ele>344.75</ele><time>2026-04-28T08:19:43Z</time></trkpt><trkpt lat="37.89114027337989" lon="12.828988770486035"><ele>344.0</ele><time>2026-04-28T08:19:44Z</time></trkpt><trkpt lat="37.891197922696904" lon="12.828902440933856"><ele>344.0</ele><time>2026-04-28T08:19:45Z</time></trkpt><trkpt lat="37.891260266378026" lon="12.828833831270718"><ele>344.0</ele><time>2026-04-28T08:19:46Z</time></trkpt><trkpt lat="37.89133876275441" lon="12.828831132924211"><ele>344.0</ele><time>2026-04-28T08:19:47Z</time></trkpt><trkpt lat="37.89141125579281" lon="12.828882851200552"><ele>344.0</ele><time>2026-04-28T08:19:48Z</time></trkpt><trkpt lat="37.8914875505491" lon="12.829011390674086"><ele>344.0</ele><time>2026-04-28T08:19:49Z</time></trkpt><trkpt lat="37.891544941604266" lon="12.829196443325234"><ele>340.0</ele><time>2026-04-28T08:19:50Z</time></trkpt><trkpt lat="37.89159926955673" lon="12.829348008973684"><ele>336.0</ele><time>2026-04-28T08:19:51Z</time></trkpt><trkpt lat="37.89164754464138" lon="12.829506451788923"><ele>332.0</ele><time>2026-04-28T08:19:52Z</time></trkpt><trkpt lat="37.89179475640129" lon="12.829615821514867"><ele>328.0</ele><time>2026-04-28T08:19:53Z</time></trkpt><trkpt lat="37.89197682550668" lon="12.829693521362719"><ele>323.5</ele><time>2026-04-28T08:19:54Z</time></trkpt><trkpt lat="37.89219771035257" lon="12.82972161110943"><ele>319.0</ele><time>2026-04-28T08:19:55Z</time></trkpt><trkpt lat="37.892428483733944" lon="12.829713713936318"><ele>313.5</ele><time>2026-04-28T08:19:56Z</time></trkpt><trkpt lat="37.89266950412694" lon="12.829651901283961"><ele>308.0</ele><time>2026-04-28T08:19:57Z</time></trkpt><trkpt lat="37.89289822700335" lon="12.829583353723862"><ele>308.0</ele><time>2026-04-28T08:19:58Z</time></trkpt><trkpt lat="37.89312475073498" lon="12.829435278987571"><ele>308.0</ele><time>2026-04-28T08:19:59Z</time></trkpt><trkpt lat="37.89333616596623" lon="12.829325079210244"><ele>308.6666666666667</ele><time>2026-04-28T08:20:00Z</time></trkpt><trkpt lat="37.89354046640985" lon="12.829244746385813"><ele>309.3333333333333</ele><time>2026-04-28T08:20:01Z</time></trkpt><trkpt lat="37.893726570240176" lon="12.829194495160028"><ele>310.0</ele><time>2026-04-28T08:20:02Z</time></trkpt><trkpt lat="37.89389474674441" lon="12.829111630210685"><ele>310.0</ele><time>2026-04-28T08:20:03Z</time></trkpt><trkpt lat="37.89406030193564" lon="12.82895689401389"><ele>310.0</ele><time>2026-04-28T08:20:04Z</time></trkpt><trkpt lat="37.8942145296594" lon="12.828769320607272"><ele>310.0</ele><time>2026-04-28T08:20:05Z</time></trkpt><trkpt lat="37.8943555201931" lon="12.828601300047296"><ele>309.25</ele><time>2026-04-28T08:20:06Z</time></trkpt><trkpt lat="37.894463280998956" lon="12.82845645247073"><ele>308.5</ele><time>2026-04-28T08:20:07Z</time></trkpt><trkpt lat="37.8945395791071" lon="12.828326635381885"><ele>307.75</ele><time>2026-04-28T08:20:08Z</time></trkpt><trkpt lat="37.894629261873284" lon="12.828247929496527"><ele>307.0</ele><time>2026-04-28T08:20:09Z</time></trkpt><trkpt lat="37.894717171035694" lon="12.828189655719216"><ele>307.0</ele><time>2026-04-28T08:20:10Z</time></trkpt><trkpt lat="37.89481520184947" lon="12.828155885346927"><ele>307.0</ele><time>2026-04-28T08:20:11Z</time></trkpt><trkpt lat="37.89489661257507" lon="12.828227718852283"><ele>307.0</ele><time>2026-04-28T08:20:12Z</time></trkpt><trkpt lat="37.89499127685087" lon="12.828318444450833"><ele>307.0</ele><time>2026-04-28T08:20:13Z</time></trkpt><trkpt lat="37.895160107607495" lon="12.82846499919027"><ele>303.0</ele><time>2026-04-28T08:20:14Z</time></trkpt><trkpt lat="37.895297609376144" lon="12.82860134787775"><ele>299.0</ele><time>2026-04-28T08:20:15Z</time></trkpt><trkpt lat="37.89543338025732" lon="12.828785989152331"><ele>295.0</ele><time>2026-04-28T08:20:16Z</time></trkpt><trkpt lat="37.89556095039714" lon="12.828985862311665"><ele>295.0</ele><time>2026-04-28T08:20:17Z</time></trkpt><trkpt lat="37.89565734737253" lon="12.829225666323383"><ele>295.0</ele><time>2026-04-28T08:20:18Z</time></trkpt><trkpt lat="37.89574375112081" lon="12.829439910854338"><ele>295.0</ele><time>2026-04-28T08:20:19Z</time></trkpt><trkpt lat="37.895796836446266" lon="12.82963823441133"><ele>294.0</ele><time>2026-04-28T08:20:20Z</time></trkpt><trkpt lat="37.89587289075423" lon="12.829807889374809"><ele>293.0</ele><time>2026-04-28T08:20:21Z</time></trkpt><trkpt lat="37.89599666611356" lon="12.829943617595196"><ele>292.0</ele><time>2026-04-28T08:20:22Z</time></trkpt><trkpt lat="37.896184548200345" lon="12.830043892868607"><ele>291.66666666666663</ele><time>2026-04-28T08:20:23Z</time></trkpt><trkpt lat="37.89637080464712" lon="12.830128295200645"><ele>291.3333333333333</ele><time>2026-04-28T08:20:24Z</time></trkpt><trkpt lat="37.89652211423876" lon="12.830221896668991"><ele>291.0</ele><time>2026-04-28T08:20:25Z</time></trkpt><trkpt lat="37.89664897636478" lon="12.830348135729228"><ele>291.0</ele><time>2026-04-28T08:20:26Z</time></trkpt><trkpt lat="37.89674031650937" lon="12.830493794609335"><ele>291.0</ele><time>2026-04-28T08:20:27Z</time></trkpt><trkpt lat="37.89680514896989" lon="12.830640372003755"><ele>291.0</ele><time>2026-04-28T08:20:28Z</time></trkpt><trkpt lat="37.896889830144886" lon="12.830729949079204"><ele>291.0</ele><time>2026-04-28T08:20:29Z</time></trkpt><trkpt lat="37.89693485277011" lon="12.830845744762332"><ele>289.0</ele><time>2026-04-28T08:20:30Z</time></trkpt><trkpt lat="37.89705511004843" lon="12.83088977845081"><ele>287.0</ele><time>2026-04-28T08:20:31Z</time></trkpt><trkpt lat="37.89721282016168" lon="12.830899724057762"><ele>285.0</ele><time>2026-04-28T08:20:32Z</time></trkpt><trkpt lat="37.89738628808905" lon="12.830907656259171"><ele>285.0</ele><time>2026-04-28T08:20:33Z</time></trkpt><trkpt lat="37.89757091863976" lon="12.830876382890501"><ele>285.0</ele><time>2026-04-28T08:20:34Z</time></trkpt><trkpt lat="37.89775528192015" lon="12.83083416208912"><ele>285.0</ele><time>2026-04-28T08:20:35Z</time></trkpt><trkpt lat="37.89790629984224" lon="12.830897034379122"><ele>296.0</ele><time>2026-04-28T08:20:36Z</time></trkpt><trkpt lat="37.89808789494739" lon="12.830982308205359"><ele>307.0</ele><time>2026-04-28T08:20:37Z</time></trkpt><trkpt lat="37.89835125373068" lon="12.83106051500462"><ele>301.0</ele><time>2026-04-28T08:20:38Z</time></trkpt><trkpt lat="37.89859311718764" lon="12.831167743802979"><ele>295.0</ele><time>2026-04-28T08:20:39Z</time></trkpt><trkpt lat="37.89887016809688" lon="12.831209873821646"><ele>295.0</ele><time>2026-04-28T08:20:39.999Z</time></trkpt><trkpt lat="37.89915436357147" lon="12.831297221615541"><ele>295.0</ele><time>2026-04-28T08:20:40.999Z</time></trkpt><trkpt lat="37.89948493842557" lon="12.831374837807827"><ele>292.0</ele><time>2026-04-28T08:20:41.999Z</time></trkpt><trkpt lat="37.89977477506556" lon="12.831451848937302"><ele>289.0</ele><time>2026-04-28T08:20:42.999Z</time></trkpt><trkpt lat="37.90001708373581" lon="12.831551114581194"><ele>284.5</ele><time>2026-04-28T08:20:43.999Z</time></trkpt><trkpt lat="37.90031246793576" lon="12.83163447598295"><ele>280.0</ele><time>2026-04-28T08:20:44.999Z</time></trkpt><trkpt lat="37.9006176043868" lon="12.831658126306543"><ele>280.0</ele><time>2026-04-28T08:20:45.999Z</time></trkpt><trkpt lat="37.90086456575493" lon="12.831670706023477"><ele>280.0</ele><time>2026-04-28T08:20:46.999Z</time></trkpt><trkpt lat="37.901080251012424" lon="12.831672610077444"><ele>279.0</ele><time>2026-04-28T08:20:47.999Z</time></trkpt><trkpt lat="37.901274795983646" lon="12.831691322957884"><ele>278.0</ele><time>2026-04-28T08:20:48.999Z</time></trkpt><trkpt lat="37.90146712242441" lon="12.831665186921017"><ele>277.0</ele><time>2026-04-28T08:20:49.999Z</time></trkpt><trkpt lat="37.90165435046074" lon="12.831690936208627"><ele>277.3333333333333</ele><time>2026-04-28T08:20:50.999Z</time></trkpt><trkpt lat="37.901804682159614" lon="12.831723367794392"><ele>277.6666666666667</ele><time>2026-04-28T08:20:51.999Z</time></trkpt><trkpt lat="37.90197255707804" lon="12.831791970170901"><ele>278.0</ele><time>2026-04-28T08:20:52.999Z</time></trkpt><trkpt lat="37.9021313750982" lon="12.83188250977766"><ele>278.0</ele><time>2026-04-28T08:20:53.999Z</time></trkpt><trkpt lat="37.90236465202909" lon="12.832040536057773"><ele>278.0</ele><time>2026-04-28T08:20:54.999Z</time></trkpt><trkpt lat="37.902610673849885" lon="12.832218445859334"><ele>271.0</ele><time>2026-04-28T08:20:55.999Z</time></trkpt><trkpt lat="37.902874745443725" lon="12.832408927706144"><ele>264.0</ele><time>2026-04-28T08:20:56.999Z</time></trkpt><trkpt lat="37.90311279288142" lon="12.832583324833008"><ele>263.5</ele><time>2026-04-28T08:20:57.999Z</time></trkpt><trkpt lat="37.903353666474565" lon="12.832745387321392"><ele>263.0</ele><time>2026-04-28T08:20:58.999Z</time></trkpt><trkpt lat="37.90358435865174" lon="12.832916843675692"><ele>263.0</ele><time>2026-04-28T08:20:59.999Z</time></trkpt><trkpt lat="37.90379526648977" lon="12.833089381303077"><ele>263.0</ele><time>2026-04-28T08:21:00.999Z</time></trkpt><trkpt lat="37.90398716224609" lon="12.833309448737454"><ele>259.5</ele><time>2026-04-28T08:21:01.999Z</time></trkpt><trkpt lat="37.90418397644812" lon="12.833544933027314"><ele>256.0</ele><time>2026-04-28T08:21:02.999Z</time></trkpt><trkpt lat="37.90438196556968" lon="12.83378834402949"><ele>256.0</ele><time>2026-04-28T08:21:03.999Z</time></trkpt><trkpt lat="37.904565242394995" lon="12.83401366737192"><ele>256.0</ele><time>2026-04-28T08:21:04.999Z</time></trkpt><trkpt lat="37.90473005370396" lon="12.834232020086446"><ele>255.0</ele><time>2026-04-28T08:21:05.999Z</time></trkpt><trkpt lat="37.90488847115076" lon="12.834437121751359"><ele>254.0</ele><time>2026-04-28T08:21:06.999Z</time></trkpt><trkpt lat="37.905028588608275" lon="12.834608845232886"><ele>253.0</ele><time>2026-04-28T08:21:07.999Z</time></trkpt><trkpt lat="37.90516345955533" lon="12.834778977292267"><ele>253.0</ele><time>2026-04-28T08:21:08.999Z</time></trkpt><trkpt lat="37.905293154855144" lon="12.834955175047986"><ele>253.0</ele><time>2026-04-28T08:21:09.999Z</time></trkpt><trkpt lat="37.90542996506951" lon="12.835149830554332"><ele>253.0</ele><time>2026-04-28T08:21:10.999Z</time></trkpt><trkpt lat="37.90557698929003" lon="12.835393894207948"><ele>256.5</ele><time>2026-04-28T08:21:11.999Z</time></trkpt><trkpt lat="37.905722793359814" lon="12.835637089079682"><ele>260.0</ele><time>2026-04-28T08:21:12.999Z</time></trkpt><trkpt lat="37.90587022318256" lon="12.835912631796724"><ele>258.0</ele><time>2026-04-28T08:21:13.999Z</time></trkpt><trkpt lat="37.9060463381065" lon="12.836116280322859"><ele>256.0</ele><time>2026-04-28T08:21:14.999Z</time></trkpt><trkpt lat="37.90619235365889" lon="12.836311650209334"><ele>256.0</ele><time>2026-04-28T08:21:15.999Z</time></trkpt><trkpt lat="37.906323927187564" lon="12.836519315815014"><ele>256.0</ele><time>2026-04-28T08:21:16.999Z</time></trkpt><trkpt lat="37.90642699181591" lon="12.836731766589368"><ele>256.0</ele><time>2026-04-28T08:21:17.999Z</time></trkpt><trkpt lat="37.90653523753213" lon="12.836961957125043"><ele>257.66666666666663</ele><time>2026-04-28T08:21:18.999Z</time></trkpt><trkpt lat="37.906623593100186" lon="12.837178629679185"><ele>259.3333333333333</ele><time>2026-04-28T08:21:20Z</time></trkpt><trkpt lat="37.90670469613398" lon="12.837422110205571"><ele>261.0</ele><time>2026-04-28T08:21:21Z</time></trkpt><trkpt lat="37.90676713885585" lon="12.837694729920676"><ele>258.6666666666667</ele><time>2026-04-28T08:21:22Z</time></trkpt><trkpt lat="37.90684190125474" lon="12.837963336670159"><ele>256.33333333333337</ele><time>2026-04-28T08:21:23Z</time></trkpt><trkpt lat="37.906928771978706" lon="12.83822077174511"><ele>254.0</ele><time>2026-04-28T08:21:24Z</time></trkpt><trkpt lat="37.90701845245157" lon="12.838476140081957"><ele>254.0</ele><time>2026-04-28T08:21:25Z</time></trkpt><trkpt lat="37.90712062012752" lon="12.838685493421586"><ele>254.0</ele><time>2026-04-28T08:21:26Z</time></trkpt><trkpt lat="37.90722208055783" lon="12.83886650347333"><ele>254.0</ele><time>2026-04-28T08:21:27Z</time></trkpt><trkpt lat="37.90732184690665" lon="12.839039192217284"><ele>254.0</ele><time>2026-04-28T08:21:28Z</time></trkpt><trkpt lat="37.90739421627888" lon="12.83921766517531"><ele>254.0</ele><time>2026-04-28T08:21:29Z</time></trkpt><trkpt lat="37.90746011482422" lon="12.839361912921948"><ele>254.0</ele><time>2026-04-28T08:21:30Z</time></trkpt><trkpt lat="37.90752788863065" lon="12.83952250184699"><ele>254.0</ele><time>2026-04-28T08:21:31Z</time></trkpt><trkpt lat="37.907589408979405" lon="12.839684128736092"><ele>252.25</ele><time>2026-04-28T08:21:32Z</time></trkpt><trkpt lat="37.90762718322988" lon="12.839840987010739"><ele>250.5</ele><time>2026-04-28T08:21:33Z</time></trkpt><trkpt lat="37.907664115869416" lon="12.840000763756175"><ele>248.75</ele><time>2026-04-28T08:21:34Z</time></trkpt><trkpt lat="37.907676423757465" lon="12.840167205972927"><ele>247.0</ele><time>2026-04-28T08:21:35Z</time></trkpt><trkpt lat="37.9076730995865" lon="12.840344265560017"><ele>247.0</ele><time>2026-04-28T08:21:36Z</time></trkpt><trkpt lat="37.90768375462464" lon="12.84053492174735"><ele>247.0</ele><time>2026-04-28T08:21:37Z</time></trkpt><trkpt lat="37.90769585696127" lon="12.840707040263824"><ele>247.0</ele><time>2026-04-28T08:21:38Z</time></trkpt><trkpt lat="37.90775459639227" lon="12.840857712651033"><ele>247.0</ele><time>2026-04-28T08:21:39Z</time></trkpt><trkpt lat="37.90783868583846" lon="12.841017638378457"><ele>248.33333333333331</ele><time>2026-04-28T08:21:40Z</time></trkpt><trkpt lat="37.90793042051875" lon="12.841192307113555"><ele>249.66666666666669</ele><time>2026-04-28T08:21:41Z</time></trkpt><trkpt lat="37.908045619000475" lon="12.841407792486354"><ele>251.0</ele><time>2026-04-28T08:21:42Z</time></trkpt><trkpt lat="37.90816682026033" lon="12.84163909800656"><ele>253.66666666666669</ele><time>2026-04-28T08:21:43Z</time></trkpt><trkpt lat="37.90831037647888" lon="12.841851831983117"><ele>256.3333333333333</ele><time>2026-04-28T08:21:44Z</time></trkpt><trkpt lat="37.90843405643698" lon="12.84205657253065"><ele>259.0</ele><time>2026-04-28T08:21:45Z</time></trkpt><trkpt lat="37.9085721770739" lon="12.84223552591728"><ele>253.0</ele><time>2026-04-28T08:21:46Z</time></trkpt><trkpt lat="37.908684816104135" lon="12.842404069207335"><ele>247.0</ele><time>2026-04-28T08:21:47Z</time></trkpt><trkpt lat="37.90877572517716" lon="12.84256114306501"><ele>241.0</ele><time>2026-04-28T08:21:48Z</time></trkpt><trkpt lat="37.90886107257349" lon="12.842717238519446"><ele>241.0</ele><time>2026-04-28T08:21:49Z</time></trkpt><trkpt lat="37.90892107335374" lon="12.842919807475573"><ele>241.0</ele><time>2026-04-28T08:21:50Z</time></trkpt><trkpt lat="37.90893703953377" lon="12.843145843900183"><ele>241.0</ele><time>2026-04-28T08:21:51Z</time></trkpt><trkpt lat="37.90898038618065" lon="12.843347278117369"><ele>240.66666666666666</ele><time>2026-04-28T08:21:52Z</time></trkpt><trkpt lat="37.90900267410775" lon="12.843539910763313"><ele>240.33333333333331</ele><time>2026-04-28T08:21:53Z</time></trkpt><trkpt lat="37.9089797806282" lon="12.84373048039605"><ele>240.0</ele><time>2026-04-28T08:21:54Z</time></trkpt><trkpt lat="37.908932876427684" lon="12.843919470433066"><ele>240.0</ele><time>2026-04-28T08:21:55Z</time></trkpt><trkpt lat="37.90887996842634" lon="12.844102581229228"><ele>240.0</ele><time>2026-04-28T08:21:56Z</time></trkpt><trkpt lat="37.90884593501297" lon="12.844271575312948"><ele>240.0</ele><time>2026-04-28T08:21:57Z</time></trkpt><trkpt lat="37.90880193843017" lon="12.84446096620931"><ele>240.0</ele><time>2026-04-28T08:21:58Z</time></trkpt><trkpt lat="37.90879366071555" lon="12.844646061080544"><ele>239.33333333333331</ele><time>2026-04-28T08:21:59Z</time></trkpt><trkpt lat="37.90881009711357" lon="12.844837243255773"><ele>238.66666666666666</ele><time>2026-04-28T08:22:00Z</time></trkpt><trkpt lat="37.908829585335305" lon="12.845030131425483"><ele>238.0</ele><time>2026-04-28T08:22:01Z</time></trkpt><trkpt lat="37.90886471969892" lon="12.845214169096028"><ele>237.25</ele><time>2026-04-28T08:22:02Z</time></trkpt><trkpt lat="37.9089140417248" lon="12.845386435946875"><ele>236.5</ele><time>2026-04-28T08:22:03Z</time></trkpt><trkpt lat="37.90892526026278" lon="12.845548345431737"><ele>235.75</ele><time>2026-04-28T08:22:04Z</time></trkpt><trkpt lat="37.90891556134682" lon="12.84570390171033"><ele>235.0</ele><time>2026-04-28T08:22:05Z</time></trkpt><trkpt lat="37.908875879255255" lon="12.845853694285077"><ele>236.0</ele><time>2026-04-28T08:22:06Z</time></trkpt><trkpt lat="37.90888218026093" lon="12.845999256348742"><ele>237.0</ele><time>2026-04-28T08:22:07Z</time></trkpt><trkpt lat="37.908923966262115" lon="12.846157912176125"><ele>238.0</ele><time>2026-04-28T08:22:08Z</time></trkpt><trkpt lat="37.909010911990116" lon="12.846322211050309"><ele>239.0</ele><time>2026-04-28T08:22:09Z</time></trkpt><trkpt lat="37.909104544636996" lon="12.846491131240631"><ele>239.0</ele><time>2026-04-28T08:22:10Z</time></trkpt><trkpt lat="37.90918061341605" lon="12.846664237633835"><ele>239.0</ele><time>2026-04-28T08:22:11Z</time></trkpt><trkpt lat="37.90925856403917" lon="12.846836345653498"><ele>239.0</ele><time>2026-04-28T08:22:12Z</time></trkpt><trkpt lat="37.90930727523067" lon="12.84700989023883"><ele>234.75</ele><time>2026-04-28T08:22:13Z</time></trkpt><trkpt lat="37.909337294436675" lon="12.847208761820315"><ele>230.5</ele><time>2026-04-28T08:22:14Z</time></trkpt><trkpt lat="37.90934682579786" lon="12.847386170198677"><ele>226.25</ele><time>2026-04-28T08:22:15Z</time></trkpt><trkpt lat="37.909357479915094" lon="12.847548720299455"><ele>222.0</ele><time>2026-04-28T08:22:16Z</time></trkpt><trkpt lat="37.909381955147396" lon="12.847691023931"><ele>222.0</ele><time>2026-04-28T08:22:17Z</time></trkpt><trkpt lat="37.90939928371529" lon="12.847846288315374"><ele>222.0</ele><time>2026-04-28T08:22:18Z</time></trkpt><trkpt lat="37.90942191619484" lon="12.848007840062886"><ele>222.0</ele><time>2026-04-28T08:22:19Z</time></trkpt><trkpt lat="37.90944020321158" lon="12.848184592183314"><ele>222.0</ele><time>2026-04-28T08:22:20Z</time></trkpt><trkpt lat="37.9094763025017" lon="12.8483682661034"><ele>222.0</ele><time>2026-04-28T08:22:21Z</time></trkpt><trkpt lat="37.909527469454304" lon="12.848540795173896"><ele>222.0</ele><time>2026-04-28T08:22:22Z</time></trkpt><trkpt lat="37.90958102064709" lon="12.848710153970968"><ele>222.0</ele><time>2026-04-28T08:22:23Z</time></trkpt><trkpt lat="37.90961457517644" lon="12.848875246261452"><ele>222.0</ele><time>2026-04-28T08:22:24Z</time></trkpt><trkpt lat="37.90963178749953" lon="12.849048677546303"><ele>222.0</ele><time>2026-04-28T08:22:25Z</time></trkpt><trkpt lat="37.909648366961285" lon="12.849225897132998"><ele>222.0</ele><time>2026-04-28T08:22:26Z</time></trkpt><trkpt lat="37.90967604040962" lon="12.849400016289934"><ele>222.0</ele><time>2026-04-28T08:22:27Z</time></trkpt><trkpt lat="37.90969054005681" lon="12.849569929445181"><ele>222.0</ele><time>2026-04-28T08:22:28Z</time></trkpt><trkpt lat="37.90970876152083" lon="12.84973000292117"><ele>221.75</ele><time>2026-04-28T08:22:29Z</time></trkpt><trkpt lat="37.90971543375918" lon="12.849882098208175"><ele>221.5</ele><time>2026-04-28T08:22:30Z</time></trkpt><trkpt lat="37.90971552306231" lon="12.850032011415124"><ele>221.25</ele><time>2026-04-28T08:22:31Z</time></trkpt><trkpt lat="37.90971830602942" lon="12.85017486341285"><ele>221.0</ele><time>2026-04-28T08:22:32Z</time></trkpt><trkpt lat="37.90973905859631" lon="12.85031468950338"><ele>221.0</ele><time>2026-04-28T08:22:33Z</time></trkpt><trkpt lat="37.90977020545462" lon="12.850435142669934"><ele>221.00000000000003</ele><time>2026-04-28T08:22:34Z</time></trkpt><trkpt lat="37.90982711198636" lon="12.850542666281216"><ele>221.00000000000003</ele><time>2026-04-28T08:22:35Z</time></trkpt><trkpt lat="37.90988682509709" lon="12.85062997827103"><ele>221.0</ele><time>2026-04-28T08:22:36Z</time></trkpt><trkpt lat="37.909920321517674" lon="12.850719350155334"><ele>221.0</ele><time>2026-04-28T08:22:37Z</time></trkpt><trkpt lat="37.90997486917876" lon="12.850861477631577"><ele>221.0</ele><time>2026-04-28T08:22:39Z</time></trkpt><trkpt lat="37.910005775799654" lon="12.850943002483945"><ele>221.00000000000003</ele><time>2026-04-28T08:22:40Z</time></trkpt><trkpt lat="37.91005307687476" lon="12.85102215057321"><ele>221.00000000000003</ele><time>2026-04-28T08:22:41Z</time></trkpt><trkpt lat="37.91010134776746" lon="12.851107781662842"><ele>221.0</ele><time>2026-04-28T08:22:42Z</time></trkpt><trkpt lat="37.91018652897929" lon="12.851173006195637"><ele>221.0</ele><time>2026-04-28T08:22:43Z</time></trkpt><trkpt lat="37.91031273088847" lon="12.8512068036484"><ele>224.66666666666669</ele><time>2026-04-28T08:22:44Z</time></trkpt><trkpt lat="37.91048362153563" lon="12.851251127078768"><ele>228.33333333333331</ele><time>2026-04-28T08:22:44.999Z</time></trkpt><trkpt lat="37.910694095319144" lon="12.851295055217962"><ele>232.0</ele><time>2026-04-28T08:22:45.999Z</time></trkpt><trkpt lat="37.910907916330096" lon="12.851305617717955"><ele>232.66666666666666</ele><time>2026-04-28T08:22:46.999Z</time></trkpt><trkpt lat="37.911121621770164" lon="12.851307972186778"><ele>233.33333333333331</ele><time>2026-04-28T08:22:47.999Z</time></trkpt><trkpt lat="37.91130378235402" lon="12.851352820488978"><ele>234.0</ele><time>2026-04-28T08:22:48.999Z</time></trkpt><trkpt lat="37.91146661152433" lon="12.85142922794093"><ele>234.0</ele><time>2026-04-28T08:22:49.999Z</time></trkpt><trkpt lat="37.91163753143381" lon="12.851523810367267"><ele>234.0</ele><time>2026-04-28T08:22:50.999Z</time></trkpt><trkpt lat="37.91177582029829" lon="12.851639353378195"><ele>234.0</ele><time>2026-04-28T08:22:51.999Z</time></trkpt><trkpt lat="37.911924307338516" lon="12.851733612285363"><ele>233.66666666666669</ele><time>2026-04-28T08:22:52.999Z</time></trkpt><trkpt lat="37.91209151472073" lon="12.851759988355731"><ele>233.33333333333334</ele><time>2026-04-28T08:22:53.999Z</time></trkpt><trkpt lat="37.91229592901172" lon="12.851760488829061"><ele>233.0</ele><time>2026-04-28T08:22:54.999Z</time></trkpt><trkpt lat="37.912525689400695" lon="12.851745714104746"><ele>234.33333333333334</ele><time>2026-04-28T08:22:55.999Z</time></trkpt><trkpt lat="37.91275072635435" lon="12.851739371035395"><ele>235.66666666666669</ele><time>2026-04-28T08:22:56.999Z</time></trkpt><trkpt lat="37.9129421363851" lon="12.85172874892899"><ele>237.0</ele><time>2026-04-28T08:22:57.999Z</time></trkpt><trkpt lat="37.91311501184019" lon="12.851732493429086"><ele>237.0</ele><time>2026-04-28T08:22:58.999Z</time></trkpt><trkpt lat="37.91327095955271" lon="12.851750966778726"><ele>237.0</ele><time>2026-04-28T08:22:59.999Z</time></trkpt><trkpt lat="37.91341746175189" lon="12.851827779866309"><ele>237.0</ele><time>2026-04-28T08:23:00.999Z</time></trkpt><trkpt lat="37.91355482383636" lon="12.851953964554776"><ele>239.66666666666669</ele><time>2026-04-28T08:23:01.999Z</time></trkpt><trkpt lat="37.91371033762956" lon="12.852116023313547"><ele>242.33333333333334</ele><time>2026-04-28T08:23:02.999Z</time></trkpt><trkpt lat="37.91386467864674" lon="12.85228014630447"><ele>245.0</ele><time>2026-04-28T08:23:03.999Z</time></trkpt><trkpt lat="37.91403492823226" lon="12.852392473747125"><ele>245.0</ele><time>2026-04-28T08:23:04.999Z</time></trkpt><trkpt lat="37.91418883926359" lon="12.852516723446294"><ele>245.0</ele><time>2026-04-28T08:23:05.999Z</time></trkpt><trkpt lat="37.914331778998395" lon="12.852682640091558"><ele>245.0</ele><time>2026-04-28T08:23:06.999Z</time></trkpt><trkpt lat="37.91447154992277" lon="12.852901187332582"><ele>242.66666666666669</ele><time>2026-04-28T08:23:07.999Z</time></trkpt><trkpt lat="37.91460239916642" lon="12.853109459276762"><ele>240.33333333333331</ele><time>2026-04-28T08:23:08.999Z</time></trkpt><trkpt lat="37.9147268825917" lon="12.853282623605716"><ele>238.0</ele><time>2026-04-28T08:23:09.999Z</time></trkpt><trkpt lat="37.914829197574704" lon="12.853452164580023"><ele>241.25</ele><time>2026-04-28T08:23:10.999Z</time></trkpt><trkpt lat="37.91491945808148" lon="12.85358799706591"><ele>244.5</ele><time>2026-04-28T08:23:11.999Z</time></trkpt><trkpt lat="37.91498911369446" lon="12.853732030698152"><ele>247.75</ele><time>2026-04-28T08:23:12.999Z</time></trkpt><trkpt lat="37.91507625689944" lon="12.853833925085867"><ele>251.0</ele><time>2026-04-28T08:23:13.999Z</time></trkpt><trkpt lat="37.915180366342774" lon="12.853891752468412"><ele>251.0</ele><time>2026-04-28T08:23:14.999Z</time></trkpt><trkpt lat="37.91531029130463" lon="12.853891701766697"><ele>251.0</ele><time>2026-04-28T08:23:15.999Z</time></trkpt><trkpt lat="37.91543065536006" lon="12.853851097789102"><ele>251.0</ele><time>2026-04-28T08:23:16.999Z</time></trkpt><trkpt lat="37.91554509015884" lon="12.853751378515643"><ele>251.0</ele><time>2026-04-28T08:23:17.999Z</time></trkpt><trkpt lat="37.91562938019322" lon="12.853616735371709"><ele>250.75</ele><time>2026-04-28T08:23:18.999Z</time></trkpt><trkpt lat="37.91567728005669" lon="12.853428386229178"><ele>250.5</ele><time>2026-04-28T08:23:19.999Z</time></trkpt><trkpt lat="37.915685783480626" lon="12.853227650966597"><ele>250.25</ele><time>2026-04-28T08:23:20.999Z</time></trkpt><trkpt lat="37.915722475270805" lon="12.853064924700684"><ele>250.0</ele><time>2026-04-28T08:23:21.999Z</time></trkpt><trkpt lat="37.9158179166008" lon="12.852915200645622"><ele>256.3333333333333</ele><time>2026-04-28T08:23:22.999Z</time></trkpt><trkpt lat="37.91594992804424" lon="12.852774205464192"><ele>262.6666666666667</ele><time>2026-04-28T08:23:23.999Z</time></trkpt><trkpt lat="37.91606200374249" lon="12.852666571824756"><ele>269.0</ele><time>2026-04-28T08:23:24.999Z</time></trkpt><trkpt lat="37.91614264920036" lon="12.852526062923172"><ele>269.0</ele><time>2026-04-28T08:23:26Z</time></trkpt><trkpt lat="37.91619362551644" lon="12.852351650636988"><ele>269.0</ele><time>2026-04-28T08:23:27Z</time></trkpt><trkpt lat="37.91621581646566" lon="12.852131739196997"><ele>269.0</ele><time>2026-04-28T08:23:28Z</time></trkpt><trkpt lat="37.916243792561495" lon="12.851917379887587"><ele>266.5</ele><time>2026-04-28T08:23:29Z</time></trkpt><trkpt lat="37.916297960322446" lon="12.851746761759893"><ele>264.0</ele><time>2026-04-28T08:23:30Z</time></trkpt><trkpt lat="37.9163562218735" lon="12.851589647573444"><ele>261.5</ele><time>2026-04-28T08:23:31Z</time></trkpt><trkpt lat="37.91643304062698" lon="12.851456808150967"><ele>259.0</ele><time>2026-04-28T08:23:32Z</time></trkpt><trkpt lat="37.91652842013734" lon="12.851350879685086"><ele>259.0</ele><time>2026-04-28T08:23:33Z</time></trkpt><trkpt lat="37.91663552723551" lon="12.85127216953587"><ele>259.0</ele><time>2026-04-28T08:23:34Z</time></trkpt><trkpt lat="37.91673803406942" lon="12.851229802671076"><ele>259.0</ele><time>2026-04-28T08:23:35Z</time></trkpt><trkpt lat="37.91685077715242" lon="12.85121824475416"><ele>259.0</ele><time>2026-04-28T08:23:36Z</time></trkpt><trkpt lat="37.91696385343117" lon="12.851226628692372"><ele>257.4</ele><time>2026-04-28T08:23:37Z</time></trkpt><trkpt lat="37.91706818124223" lon="12.851260506795384"><ele>255.79999999999998</ele><time>2026-04-28T08:23:38Z</time></trkpt><trkpt lat="37.91715195375922" lon="12.851304605780438"><ele>254.20000000000002</ele><time>2026-04-28T08:23:39Z</time></trkpt><trkpt lat="37.917212612831065" lon="12.851350266279995"><ele>252.60000000000002</ele><time>2026-04-28T08:23:40Z</time></trkpt><trkpt lat="37.917264334677064" lon="12.851432814907186"><ele>251.0</ele><time>2026-04-28T08:23:42Z</time></trkpt><trkpt lat="37.91731568916313" lon="12.85155490272881"><ele>251.0</ele><time>2026-04-28T08:23:44Z</time></trkpt><trkpt lat="37.9173919878636" lon="12.851633731394994"><ele>251.0</ele><time>2026-04-28T08:23:45Z</time></trkpt><trkpt lat="37.91748407053354" lon="12.851717168872714"><ele>251.0</ele><time>2026-04-28T08:23:46Z</time></trkpt><trkpt lat="37.91759262690702" lon="12.851826017112835"><ele>251.0</ele><time>2026-04-28T08:23:47Z</time></trkpt><trkpt lat="37.91768898826211" lon="12.851966413990292"><ele>255.0</ele><time>2026-04-28T08:23:48Z</time></trkpt><trkpt lat="37.91779558694743" lon="12.852072805183932"><ele>259.0</ele><time>2026-04-28T08:23:49Z</time></trkpt><trkpt lat="37.91798085956668" lon="12.852129165164884"><ele>263.0</ele><time>2026-04-28T08:23:50Z</time></trkpt><trkpt lat="37.91818114537823" lon="12.852202887334228"><ele>263.0</ele><time>2026-04-28T08:23:51Z</time></trkpt><trkpt lat="37.91835712437248" lon="12.852258209594085"><ele>263.0</ele><time>2026-04-28T08:23:52Z</time></trkpt><trkpt lat="37.918524690602375" lon="12.852279057124205"><ele>263.0</ele><time>2026-04-28T08:23:53Z</time></trkpt><trkpt lat="37.91868726193132" lon="12.852283763890904"><ele>258.0</ele><time>2026-04-28T08:23:54Z</time></trkpt><trkpt lat="37.91883358990116" lon="12.852253694490113"><ele>253.0</ele><time>2026-04-28T08:23:55Z</time></trkpt><trkpt lat="37.91898799122641" lon="12.852206964114167"><ele>248.0</ele><time>2026-04-28T08:23:56Z</time></trkpt><trkpt lat="37.91917383123372" lon="12.852099683489369"><ele>249.0</ele><time>2026-04-28T08:23:57Z</time></trkpt><trkpt lat="37.919365210673654" lon="12.852013595460903"><ele>250.0</ele><time>2026-04-28T08:23:58Z</time></trkpt><trkpt lat="37.91954883947403" lon="12.851965888292469"><ele>251.0</ele><time>2026-04-28T08:23:59Z</time></trkpt><trkpt lat="37.91974972332907" lon="12.851917601860169"><ele>251.0</ele><time>2026-04-28T08:24:00Z</time></trkpt><trkpt lat="37.91999077276523" lon="12.851934824417919"><ele>251.0</ele><time>2026-04-28T08:24:01Z</time></trkpt><trkpt lat="37.920339815398385" lon="12.851924584263257"><ele>250.0</ele><time>2026-04-28T08:24:02Z</time></trkpt><trkpt lat="37.92061514424567" lon="12.851900733517958"><ele>249.0</ele><time>2026-04-28T08:24:03Z</time></trkpt><trkpt lat="37.92082687881971" lon="12.851897483304557"><ele>249.33333333333331</ele><time>2026-04-28T08:24:04Z</time></trkpt><trkpt lat="37.92101817069301" lon="12.851893165560998"><ele>249.66666666666666</ele><time>2026-04-28T08:24:05Z</time></trkpt><trkpt lat="37.9211537748597" lon="12.851891873099351"><ele>250.0</ele><time>2026-04-28T08:24:06Z</time></trkpt><trkpt lat="37.92131082593832" lon="12.85186724295002"><ele>250.0</ele><time>2026-04-28T08:24:07Z</time></trkpt><trkpt lat="37.921453353182315" lon="12.851794811557474"><ele>250.0</ele><time>2026-04-28T08:24:08Z</time></trkpt><trkpt lat="37.921583463002996" lon="12.851688178047544"><ele>250.0</ele><time>2026-04-28T08:24:09Z</time></trkpt><trkpt lat="37.92169578810871" lon="12.851514268581147"><ele>244.66666666666666</ele><time>2026-04-28T08:24:10Z</time></trkpt><trkpt lat="37.92178460666585" lon="12.85133172630349"><ele>239.33333333333331</ele><time>2026-04-28T08:24:11Z</time></trkpt><trkpt lat="37.92189323791868" lon="12.851195130078938"><ele>234.0</ele><time>2026-04-28T08:24:12Z</time></trkpt><trkpt lat="37.92198991746361" lon="12.851075435882228"><ele>234.0</ele><time>2026-04-28T08:24:13Z</time></trkpt><trkpt lat="37.922085033291644" lon="12.850982573577593"><ele>234.0</ele><time>2026-04-28T08:24:14Z</time></trkpt><trkpt lat="37.922190790774245" lon="12.850883281724649"><ele>234.0</ele><time>2026-04-28T08:24:15Z</time></trkpt><trkpt lat="37.92228941358858" lon="12.85080324742454"><ele>234.0</ele><time>2026-04-28T08:24:16Z</time></trkpt><trkpt lat="37.92241767435321" lon="12.850699494510899"><ele>233.75</ele><time>2026-04-28T08:24:17Z</time></trkpt><trkpt lat="37.922529395090386" lon="12.850590081352282"><ele>233.5</ele><time>2026-04-28T08:24:18Z</time></trkpt><trkpt lat="37.9226574732123" lon="12.850506369754179"><ele>233.25</ele><time>2026-04-28T08:24:19Z</time></trkpt><trkpt lat="37.92275784510616" lon="12.850414442923157"><ele>233.0</ele><time>2026-04-28T08:24:20Z</time></trkpt><trkpt lat="37.922815944949555" lon="12.850338969472649"><ele>233.0</ele><time>2026-04-28T08:24:21Z</time></trkpt><trkpt lat="37.9228748816538" lon="12.850271757973399"><ele>233.0</ele><time>2026-04-28T08:24:22Z</time></trkpt><trkpt lat="37.92295436009331" lon="12.850216963241339"><ele>233.0</ele><time>2026-04-28T08:24:24Z</time></trkpt><trkpt lat="37.92300733320849" lon="12.850154882648155"><ele>233.0</ele><time>2026-04-28T08:24:25Z</time></trkpt><trkpt lat="37.92311071162333" lon="12.850018645335004"><ele>233.0</ele><time>2026-04-28T08:24:27Z</time></trkpt><trkpt lat="37.923171782651" lon="12.849926664798788"><ele>232.25</ele><time>2026-04-28T08:24:28Z</time></trkpt><trkpt lat="37.92325174049783" lon="12.849815946920616"><ele>231.5</ele><time>2026-04-28T08:24:29Z</time></trkpt><trkpt lat="37.923333460871035" lon="12.849722137209723"><ele>230.75</ele><time>2026-04-28T08:24:30Z</time></trkpt><trkpt lat="37.92343646341507" lon="12.849635475671244"><ele>230.0</ele><time>2026-04-28T08:24:31Z</time></trkpt><trkpt lat="37.923517505159005" lon="12.849549747078647"><ele>230.0</ele><time>2026-04-28T08:24:32Z</time></trkpt><trkpt lat="37.923609901337436" lon="12.849479690628396"><ele>230.0</ele><time>2026-04-28T08:24:33Z</time></trkpt><trkpt lat="37.92368809195706" lon="12.849448309518642"><ele>230.0</ele><time>2026-04-28T08:24:34Z</time></trkpt><trkpt lat="37.92376613195463" lon="12.84943303824534"><ele>230.0</ele><time>2026-04-28T08:24:35Z</time></trkpt><trkpt lat="37.923862745589496" lon="12.849423238062409"><ele>230.0</ele><time>2026-04-28T08:24:36Z</time></trkpt><trkpt lat="37.92403813349937" lon="12.84946446515149"><ele>230.0</ele><time>2026-04-28T08:24:37Z</time></trkpt><trkpt lat="37.92421504234344" lon="12.849519107213627"><ele>230.0</ele><time>2026-04-28T08:24:38Z</time></trkpt><trkpt lat="37.92432081478483" lon="12.849558346519265"><ele>230.0</ele><time>2026-04-28T08:24:39Z</time></trkpt><trkpt lat="37.924432291975506" lon="12.849602069619674"><ele>230.0</ele><time>2026-04-28T08:24:40Z</time></trkpt><trkpt lat="37.92454078218541" lon="12.849644088302387"><ele>229.2</ele><time>2026-04-28T08:24:41Z</time></trkpt><trkpt lat="37.924614283953545" lon="12.849673751563964"><ele>228.4</ele><time>2026-04-28T08:24:42Z</time></trkpt><trkpt lat="37.92469027289938" lon="12.849705864710772"><ele>227.60000000000002</ele><time>2026-04-28T08:24:43Z</time></trkpt><trkpt lat="37.92478405762006" lon="12.84974122305713"><ele>226.8</ele><time>2026-04-28T08:24:44Z</time></trkpt><trkpt lat="37.924894175508285" lon="12.849749013255371"><ele>226.0</ele><time>2026-04-28T08:24:45Z</time></trkpt><trkpt lat="37.925010881432684" lon="12.849776240205772"><ele>227.60000000000002</ele><time>2026-04-28T08:24:46Z</time></trkpt><trkpt lat="37.92511412683533" lon="12.849751484352385"><ele>229.20000000000002</ele><time>2026-04-28T08:24:47Z</time></trkpt><trkpt lat="37.92520572348716" lon="12.849677346371605"><ele>230.79999999999998</ele><time>2026-04-28T08:24:48Z</time></trkpt><trkpt lat="37.92528490551983" lon="12.849571317690163"><ele>232.39999999999998</ele><time>2026-04-28T08:24:48.999Z</time></trkpt><trkpt lat="37.92535292129525" lon="12.84946793219587"><ele>234.0</ele><time>2026-04-28T08:24:49.999Z</time></trkpt><trkpt lat="37.92541023721625" lon="12.84936378348308"><ele>230.33333333333334</ele><time>2026-04-28T08:24:50.999Z</time></trkpt><trkpt lat="37.92546699958676" lon="12.849272001875198"><ele>226.66666666666669</ele><time>2026-04-28T08:24:51.999Z</time></trkpt><trkpt lat="37.92552727655873" lon="12.849179820770951"><ele>223.0</ele><time>2026-04-28T08:24:53.999Z</time></trkpt><trkpt lat="37.925596933000215" lon="12.849130477641031"><ele>219.33333333333334</ele><time>2026-04-28T08:24:56.999Z</time></trkpt><trkpt lat="37.92567773360434" lon="12.849055533975662"><ele>215.66666666666669</ele><time>2026-04-28T08:24:58.999Z</time></trkpt><trkpt lat="37.92574104211134" lon="12.849033950169087"><ele>212.0</ele><time>2026-04-28T08:24:59.999Z</time></trkpt><trkpt lat="37.925829407122805" lon="12.849033249258705"><ele>211.25</ele><time>2026-04-28T08:25:00.999Z</time></trkpt><trkpt lat="37.92593175982771" lon="12.849049883568487"><ele>210.5</ele><time>2026-04-28T08:25:01.999Z</time></trkpt><trkpt lat="37.92604110859598" lon="12.849069981042396"><ele>209.75</ele><time>2026-04-28T08:25:02.999Z</time></trkpt><trkpt lat="37.926168505829814" lon="12.849095724346588"><ele>209.0</ele><time>2026-04-28T08:25:03.999Z</time></trkpt><trkpt lat="37.92630432768534" lon="12.849110247776666"><ele>209.0</ele><time>2026-04-28T08:25:04.999Z</time></trkpt><trkpt lat="37.92644860066652" lon="12.849115060268044"><ele>209.0</ele><time>2026-04-28T08:25:05.999Z</time></trkpt><trkpt lat="37.92658534624314" lon="12.849131041479179"><ele>209.0</ele><time>2026-04-28T08:25:06.999Z</time></trkpt><trkpt lat="37.92671579394797" lon="12.849152402697314"><ele>209.0</ele><time>2026-04-28T08:25:07.999Z</time></trkpt><trkpt lat="37.9268527981571" lon="12.849161777914855"><ele>207.75</ele><time>2026-04-28T08:25:08.999Z</time></trkpt><trkpt lat="37.9269966604756" lon="12.849172232236292"><ele>206.5</ele><time>2026-04-28T08:25:09.999Z</time></trkpt><trkpt lat="37.927142988717954" lon="12.849194999579984"><ele>205.25</ele><time>2026-04-28T08:25:10.999Z</time></trkpt><trkpt lat="37.92728151715564" lon="12.84920305791142"><ele>204.0</ele><time>2026-04-28T08:25:11.999Z</time></trkpt><trkpt lat="37.92741376075104" lon="12.849197218586461"><ele>204.0</ele><time>2026-04-28T08:25:12.999Z</time></trkpt><trkpt lat="37.9275460877706" lon="12.849210089697422"><ele>204.0</ele><time>2026-04-28T08:25:13.999Z</time></trkpt><trkpt lat="37.927688888449914" lon="12.849209673781221"><ele>204.0</ele><time>2026-04-28T08:25:14.999Z</time></trkpt><trkpt lat="37.927844436455" lon="12.849240888345985"><ele>204.0</ele><time>2026-04-28T08:25:15.999Z</time></trkpt><trkpt lat="37.92798909892323" lon="12.849282827386668"><ele>205.5</ele><time>2026-04-28T08:25:16.999Z</time></trkpt><trkpt lat="37.92813139935415" lon="12.849318138223977"><ele>207.0</ele><time>2026-04-28T08:25:17.999Z</time></trkpt><trkpt lat="37.92824499632471" lon="12.849368429131665"><ele>208.5</ele><time>2026-04-28T08:25:18.999Z</time></trkpt><trkpt lat="37.928336761409774" lon="12.84941515073571"><ele>210.0</ele><time>2026-04-28T08:25:19.999Z</time></trkpt><trkpt lat="37.928440075417434" lon="12.849440733047052"><ele>206.25</ele><time>2026-04-28T08:25:20.999Z</time></trkpt><trkpt lat="37.92855277152115" lon="12.84950167895022"><ele>202.5</ele><time>2026-04-28T08:25:21.999Z</time></trkpt><trkpt lat="37.928663597096865" lon="12.849537183290218"><ele>198.75</ele><time>2026-04-28T08:25:22.999Z</time></trkpt><trkpt lat="37.92876988317629" lon="12.849568202265548"><ele>195.0</ele><time>2026-04-28T08:25:23.999Z</time></trkpt><trkpt lat="37.92889537294865" lon="12.849621578846946"><ele>195.0</ele><time>2026-04-28T08:25:24.999Z</time></trkpt><trkpt lat="37.92900647790986" lon="12.8496922005208"><ele>195.0</ele><time>2026-04-28T08:25:25.999Z</time></trkpt><trkpt lat="37.929106603872604" lon="12.849800284461574"><ele>195.0</ele><time>2026-04-28T08:25:26.999Z</time></trkpt><trkpt lat="37.92920251589856" lon="12.849949145566152"><ele>195.0</ele><time>2026-04-28T08:25:27.999Z</time></trkpt><trkpt lat="37.929275283255" lon="12.850172791269895"><ele>195.0</ele><time>2026-04-28T08:25:28.999Z</time></trkpt><trkpt lat="37.9294033784263" lon="12.850298299487832"><ele>195.0</ele><time>2026-04-28T08:25:29.999Z</time></trkpt><trkpt lat="37.929578993612026" lon="12.8503942476275"><ele>195.0</ele><time>2026-04-28T08:25:30.999Z</time></trkpt><trkpt lat="37.929783232161604" lon="12.850441028510426"><ele>195.0</ele><time>2026-04-28T08:25:32Z</time></trkpt><trkpt lat="37.93004387370739" lon="12.850487690005027"><ele>195.0</ele><time>2026-04-28T08:25:33Z</time></trkpt><trkpt lat="37.930284975758575" lon="12.85055003606533"><ele>192.66666666666666</ele><time>2026-04-28T08:25:34Z</time></trkpt><trkpt lat="37.93048454391615" lon="12.850595607213638"><ele>190.33333333333331</ele><time>2026-04-28T08:25:35Z</time></trkpt><trkpt lat="37.930672784272836" lon="12.850617003546008"><ele>188.0</ele><time>2026-04-28T08:25:36Z</time></trkpt><trkpt lat="37.930847850934214" lon="12.85064250836149"><ele>186.66666666666666</ele><time>2026-04-28T08:25:37Z</time></trkpt><trkpt lat="37.93099607424209" lon="12.850714414089524"><ele>185.33333333333334</ele><time>2026-04-28T08:25:38Z</time></trkpt><trkpt lat="37.93112116138843" lon="12.850839940547104"><ele>184.0</ele><time>2026-04-28T08:25:39Z</time></trkpt><trkpt lat="37.93123283399497" lon="12.85104821753554"><ele>184.0</ele><time>2026-04-28T08:25:40Z</time></trkpt><trkpt lat="37.9313412948095" lon="12.85122534461212"><ele>184.0</ele><time>2026-04-28T08:25:41Z</time></trkpt><trkpt lat="37.93141891491166" lon="12.851399251258293"><ele>184.0</ele><time>2026-04-28T08:25:42Z</time></trkpt><trkpt lat="37.931497534359295" lon="12.851539415388732"><ele>184.0</ele><time>2026-04-28T08:25:43Z</time></trkpt><trkpt lat="37.93158546309389" lon="12.851666522296249"><ele>184.0</ele><time>2026-04-28T08:25:44Z</time></trkpt><trkpt lat="37.93175426133782" lon="12.851754902415516"><ele>184.0</ele><time>2026-04-28T08:25:45Z</time></trkpt><trkpt lat="37.93193613076894" lon="12.851837189598438"><ele>184.33333333333334</ele><time>2026-04-28T08:25:46Z</time></trkpt><trkpt lat="37.93210289777979" lon="12.851941356255066"><ele>184.66666666666666</ele><time>2026-04-28T08:25:47Z</time></trkpt><trkpt lat="37.93229889002712" lon="12.85208091056761"><ele>185.0</ele><time>2026-04-28T08:25:48Z</time></trkpt><trkpt lat="37.93245500696766" lon="12.852237472990819"><ele>181.0</ele><time>2026-04-28T08:25:49Z</time></trkpt><trkpt lat="37.93258466723574" lon="12.85234561934407"><ele>177.0</ele><time>2026-04-28T08:25:50Z</time></trkpt><trkpt lat="37.93270969477673" lon="12.852492639312079"><ele>173.0</ele><time>2026-04-28T08:25:51Z</time></trkpt><trkpt lat="37.93283911068363" lon="12.852614724809257"><ele>177.33333333333331</ele><time>2026-04-28T08:25:52Z</time></trkpt><trkpt lat="37.932979201931964" lon="12.852647275802417"><ele>181.66666666666666</ele><time>2026-04-28T08:25:53Z</time></trkpt><trkpt lat="37.93317574346135" lon="12.852663791616713"><ele>186.0</ele><time>2026-04-28T08:25:54Z</time></trkpt><trkpt lat="37.933384417931514" lon="12.852660735009417"><ele>176.5</ele><time>2026-04-28T08:25:55Z</time></trkpt><trkpt lat="37.93361727921172" lon="12.852559331053811"><ele>167.0</ele><time>2026-04-28T08:25:56Z</time></trkpt><trkpt lat="37.93384001175904" lon="12.852488817752313"><ele>167.0</ele><time>2026-04-28T08:25:57Z</time></trkpt><trkpt lat="37.93402807342936" lon="12.852419054139858"><ele>167.0</ele><time>2026-04-28T08:25:58Z</time></trkpt><trkpt lat="37.93419722526307" lon="12.852351974760202"><ele>167.0</ele><time>2026-04-28T08:25:59Z</time></trkpt><trkpt lat="37.93433519284326" lon="12.852334378461133"><ele>164.66666666666666</ele><time>2026-04-28T08:26:00Z</time></trkpt><trkpt lat="37.93448275111172" lon="12.852334482801686"><ele>162.33333333333334</ele><time>2026-04-28T08:26:01Z</time></trkpt><trkpt lat="37.93462612421577" lon="12.85237192228546"><ele>160.0</ele><time>2026-04-28T08:26:02Z</time></trkpt><trkpt lat="37.93479435368123" lon="12.852506373242603"><ele>159.5</ele><time>2026-04-28T08:26:03Z</time></trkpt><trkpt lat="37.93493962641877" lon="12.852785710551023"><ele>159.0</ele><time>2026-04-28T08:26:04Z</time></trkpt><trkpt lat="37.935104065064515" lon="12.853021395118276"><ele>159.0</ele><time>2026-04-28T08:26:05Z</time></trkpt><trkpt lat="37.93527114384153" lon="12.853194011010423"><ele>159.0</ele><time>2026-04-28T08:26:06Z</time></trkpt><trkpt lat="37.935438268891936" lon="12.853313635592887"><ele>159.0</ele><time>2026-04-28T08:26:07Z</time></trkpt><trkpt lat="37.93562540270525" lon="12.853410849417886"><ele>160.0</ele><time>2026-04-28T08:26:08Z</time></trkpt><trkpt lat="37.935854465756314" lon="12.853507039637618"><ele>161.0</ele><time>2026-04-28T08:26:09Z</time></trkpt><trkpt lat="37.93610399161427" lon="12.85360238461596"><ele>161.0</ele><time>2026-04-28T08:26:10Z</time></trkpt><trkpt lat="37.93634168209353" lon="12.85372480249886"><ele>161.0</ele><time>2026-04-28T08:26:11Z</time></trkpt><trkpt lat="37.93659327283373" lon="12.853858506411235"><ele>160.0</ele><time>2026-04-28T08:26:12Z</time></trkpt><trkpt lat="37.93683189492493" lon="12.85406405081322"><ele>159.0</ele><time>2026-04-28T08:26:13Z</time></trkpt><trkpt lat="37.93703040720588" lon="12.854260518572755"><ele>161.5</ele><time>2026-04-28T08:26:14Z</time></trkpt><trkpt lat="37.93721193893754" lon="12.854455172303194"><ele>164.0</ele><time>2026-04-28T08:26:15Z</time></trkpt><trkpt lat="37.937393601936854" lon="12.85460361873606"><ele>163.5</ele><time>2026-04-28T08:26:16Z</time></trkpt><trkpt lat="37.9376278813898" lon="12.854716976168739"><ele>163.0</ele><time>2026-04-28T08:26:17Z</time></trkpt><trkpt lat="37.937900060875016" lon="12.85480190474391"><ele>163.0</ele><time>2026-04-28T08:26:18Z</time></trkpt><trkpt lat="37.93817107322546" lon="12.854913041330935"><ele>163.0</ele><time>2026-04-28T08:26:19Z</time></trkpt><trkpt lat="37.938447319297666" lon="12.85501620795444"><ele>162.0</ele><time>2026-04-28T08:26:20Z</time></trkpt><trkpt lat="37.93871909474658" lon="12.855111917044919"><ele>161.0</ele><time>2026-04-28T08:26:21Z</time></trkpt><trkpt lat="37.93894900589167" lon="12.855203654434675"><ele>161.0</ele><time>2026-04-28T08:26:22Z</time></trkpt><trkpt lat="37.939166881693055" lon="12.855285274255708"><ele>161.0</ele><time>2026-04-28T08:26:23Z</time></trkpt><trkpt lat="37.93938417222842" lon="12.855383855262266"><ele>159.5</ele><time>2026-04-28T08:26:24Z</time></trkpt><trkpt lat="37.93960574409955" lon="12.85548555746148"><ele>158.0</ele><time>2026-04-28T08:26:25Z</time></trkpt><trkpt lat="37.93982434262961" lon="12.855629699593708"><ele>156.5</ele><time>2026-04-28T08:26:26Z</time></trkpt><trkpt lat="37.94005570198563" lon="12.855779010771238"><ele>155.0</ele><time>2026-04-28T08:26:27Z</time></trkpt><trkpt lat="37.94033827859527" lon="12.85598771959367"><ele>155.0</ele><time>2026-04-28T08:26:28Z</time></trkpt><trkpt lat="37.940527861994724" lon="12.856353073990325"><ele>155.0</ele><time>2026-04-28T08:26:29Z</time></trkpt><trkpt lat="37.940796767409644" lon="12.856616724479748"><ele>155.0</ele><time>2026-04-28T08:26:30Z</time></trkpt><trkpt lat="37.941088500875196" lon="12.856897804620898"><ele>155.0</ele><time>2026-04-28T08:26:31Z</time></trkpt><trkpt lat="37.941375349274395" lon="12.857170822647433"><ele>155.0</ele><time>2026-04-28T08:26:32Z</time></trkpt><trkpt lat="37.94163015517362" lon="12.857414351925934"><ele>155.0</ele><time>2026-04-28T08:26:33Z</time></trkpt><trkpt lat="37.94187012693573" lon="12.857627312985981"><ele>154.5</ele><time>2026-04-28T08:26:34Z</time></trkpt><trkpt lat="37.94209771662604" lon="12.857836176069465"><ele>154.0</ele><time>2026-04-28T08:26:35Z</time></trkpt><trkpt lat="37.94228588085951" lon="12.85801109849413"><ele>154.0</ele><time>2026-04-28T08:26:36Z</time></trkpt><trkpt lat="37.94245993377345" lon="12.858146750330514"><ele>154.0</ele><time>2026-04-28T08:26:37Z</time></trkpt><trkpt lat="37.94260855387275" lon="12.85828735933422"><ele>154.0</ele><time>2026-04-28T08:26:38Z</time></trkpt><trkpt lat="37.9427346497027" lon="12.858398286505011"><ele>153.75</ele><time>2026-04-28T08:26:39Z</time></trkpt><trkpt lat="37.94282284939669" lon="12.858508232796733"><ele>153.5</ele><time>2026-04-28T08:26:40Z</time></trkpt><trkpt lat="37.94289480378598" lon="12.85863041255565"><ele>153.25</ele><time>2026-04-28T08:26:41Z</time></trkpt><trkpt lat="37.942943306591474" lon="12.85877651310382"><ele>153.0</ele><time>2026-04-28T08:26:42Z</time></trkpt><trkpt lat="37.942890016204025" lon="12.858984915380937"><ele>153.0</ele><time>2026-04-28T08:26:43Z</time></trkpt><trkpt lat="37.94286355725083" lon="12.85910994271611"><ele>153.0</ele><time>2026-04-28T08:26:44Z</time></trkpt><trkpt lat="37.94292050688942" lon="12.85922227277687"><ele>153.0</ele><time>2026-04-28T08:26:45Z</time></trkpt><trkpt lat="37.943028121307854" lon="12.859317283885044"><ele>153.0</ele><time>2026-04-28T08:26:46Z</time></trkpt><trkpt lat="37.94319543168483" lon="12.85940388239633"><ele>154.0</ele><time>2026-04-28T08:26:47Z</time></trkpt><trkpt lat="37.943399929103826" lon="12.859442754066173"><ele>155.0</ele><time>2026-04-28T08:26:48Z</time></trkpt><trkpt lat="37.94358781814316" lon="12.859424603800042"><ele>156.0</ele><time>2026-04-28T08:26:49Z</time></trkpt><trkpt lat="37.94374365243239" lon="12.85940335669087"><ele>156.0</ele><time>2026-04-28T08:26:50Z</time></trkpt><trkpt lat="37.94391371726337" lon="12.859405316768406"><ele>156.0</ele><time>2026-04-28T08:26:51Z</time></trkpt><trkpt lat="37.9440962629976" lon="12.859461650450143"><ele>156.0</ele><time>2026-04-28T08:26:52Z</time></trkpt><trkpt lat="37.94429440203389" lon="12.85961410487719"><ele>152.0</ele><time>2026-04-28T08:26:53Z</time></trkpt><trkpt lat="37.94440784533131" lon="12.859714910813342"><ele>148.0</ele><time>2026-04-28T08:26:54Z</time></trkpt><trkpt lat="37.94453640262827" lon="12.859780807415415"><ele>144.0</ele><time>2026-04-28T08:26:55Z</time></trkpt><trkpt lat="37.94461894493188" lon="12.859860583034834"><ele>140.0</ele><time>2026-04-28T08:26:56Z</time></trkpt><trkpt lat="37.944689015573374" lon="12.859975226915202"><ele>140.0</ele><time>2026-04-28T08:26:56.999Z</time></trkpt><trkpt lat="37.944690306369125" lon="12.86011525970836"><ele>140.0</ele><time>2026-04-28T08:26:57.999Z</time></trkpt><trkpt lat="37.94462383397861" lon="12.860324259362232"><ele>140.0</ele><time>2026-04-28T08:26:58.999Z</time></trkpt><trkpt lat="37.944633282945894" lon="12.860483872851601"><ele>140.0</ele><time>2026-04-28T08:26:59.999Z</time></trkpt><trkpt lat="37.94461110455531" lon="12.860661083363988"><ele>143.33333333333331</ele><time>2026-04-28T08:27:00.999Z</time></trkpt><trkpt lat="37.94468407544573" lon="12.860793004647071"><ele>146.66666666666666</ele><time>2026-04-28T08:27:01.999Z</time></trkpt><trkpt lat="37.9447913707505" lon="12.86092729368605"><ele>150.0</ele><time>2026-04-28T08:27:02.999Z</time></trkpt><trkpt lat="37.94499798566789" lon="12.861069999856385"><ele>155.0</ele><time>2026-04-28T08:27:03.999Z</time></trkpt><trkpt lat="37.945244799925625" lon="12.861163926650084"><ele>160.0</ele><time>2026-04-28T08:27:04.999Z</time></trkpt><trkpt lat="37.94545207181783" lon="12.861307450827052"><ele>160.0</ele><time>2026-04-28T08:27:05.999Z</time></trkpt><trkpt lat="37.94569143828812" lon="12.861356673559575"><ele>160.0</ele><time>2026-04-28T08:27:06.999Z</time></trkpt><trkpt lat="37.94588766125653" lon="12.861446459233973"><ele>157.0</ele><time>2026-04-28T08:27:07.999Z</time></trkpt><trkpt lat="37.94613002463388" lon="12.86144920191754"><ele>154.0</ele><time>2026-04-28T08:27:08.999Z</time></trkpt><trkpt lat="37.94638682088171" lon="12.86146518020945"><ele>154.0</ele><time>2026-04-28T08:27:09.999Z</time></trkpt><trkpt lat="37.946658935652415" lon="12.861490381511459"><ele>154.0</ele><time>2026-04-28T08:27:10.999Z</time></trkpt><trkpt lat="37.94691842869557" lon="12.861544760478091"><ele>151.5</ele><time>2026-04-28T08:27:11.999Z</time></trkpt><trkpt lat="37.94715558920367" lon="12.86160435914097"><ele>149.0</ele><time>2026-04-28T08:27:12.999Z</time></trkpt><trkpt lat="37.94740668376312" lon="12.861664929957572"><ele>147.5</ele><time>2026-04-28T08:27:13.999Z</time></trkpt><trkpt lat="37.94767405028109" lon="12.861682598059136"><ele>146.0</ele><time>2026-04-28T08:27:14.999Z</time></trkpt><trkpt lat="37.94797217143955" lon="12.861654823639608"><ele>146.0</ele><time>2026-04-28T08:27:15.999Z</time></trkpt><trkpt lat="37.948262902067086" lon="12.861639111852675"><ele>146.0</ele><time>2026-04-28T08:27:16.999Z</time></trkpt><trkpt lat="37.94852243937056" lon="12.861602863737733"><ele>146.33333333333331</ele><time>2026-04-28T08:27:17.999Z</time></trkpt><trkpt lat="37.948739497397625" lon="12.861591691943646"><ele>146.66666666666666</ele><time>2026-04-28T08:27:18.999Z</time></trkpt><trkpt lat="37.948938331472554" lon="12.861535546263397"><ele>147.0</ele><time>2026-04-28T08:27:19.999Z</time></trkpt><trkpt lat="37.94911806968742" lon="12.861481339858878"><ele>146.25</ele><time>2026-04-28T08:27:20.999Z</time></trkpt><trkpt lat="37.949269981407696" lon="12.861451081303224"><ele>145.5</ele><time>2026-04-28T08:27:21.999Z</time></trkpt><trkpt lat="37.94940310706264" lon="12.86144260542178"><ele>144.75</ele><time>2026-04-28T08:27:22.999Z</time></trkpt><trkpt lat="37.94953071167925" lon="12.861505152836493"><ele>144.0</ele><time>2026-04-28T08:27:23.999Z</time></trkpt><trkpt lat="37.9496515985663" lon="12.861608090079764"><ele>144.0</ele><time>2026-04-28T08:27:24.999Z</time></trkpt><trkpt lat="37.94975351006845" lon="12.86177078845254"><ele>144.0</ele><time>2026-04-28T08:27:25.999Z</time></trkpt><trkpt lat="37.9498461226995" lon="12.861940869809334"><ele>144.0</ele><time>2026-04-28T08:27:26.999Z</time></trkpt><trkpt lat="37.950006433271724" lon="12.862063623370581"><ele>150.0</ele><time>2026-04-28T08:27:27.999Z</time></trkpt><trkpt lat="37.950236265708625" lon="12.86214465771789"><ele>156.0</ele><time>2026-04-28T08:27:28.999Z</time></trkpt><trkpt lat="37.95050448645988" lon="12.862210947420383"><ele>156.0</ele><time>2026-04-28T08:27:29.999Z</time></trkpt><trkpt lat="37.9507815435342" lon="12.862291314757238"><ele>156.0</ele><time>2026-04-28T08:27:30.999Z</time></trkpt><trkpt lat="37.95105515649158" lon="12.862378312034869"><ele>153.5</ele><time>2026-04-28T08:27:31.999Z</time></trkpt><trkpt lat="37.95131912342496" lon="12.862456710858348"><ele>151.0</ele><time>2026-04-28T08:27:32.999Z</time></trkpt><trkpt lat="37.95154040814161" lon="12.862503308585783"><ele>148.5</ele><time>2026-04-28T08:27:33.999Z</time></trkpt><trkpt lat="37.95176307708417" lon="12.862506820716236"><ele>146.0</ele><time>2026-04-28T08:27:34.999Z</time></trkpt><trkpt lat="37.9519891985355" lon="12.862473304990992"><ele>146.0</ele><time>2026-04-28T08:27:35.999Z</time></trkpt><trkpt lat="37.95220522923901" lon="12.862492395583452"><ele>146.0</ele><time>2026-04-28T08:27:36.999Z</time></trkpt><trkpt lat="37.95241172874865" lon="12.862533766536798"><ele>146.0</ele><time>2026-04-28T08:27:38Z</time></trkpt><trkpt lat="37.9526110935824" lon="12.862599572690579"><ele>146.33333333333331</ele><time>2026-04-28T08:27:39Z</time></trkpt><trkpt lat="37.95278091645644" lon="12.862709946534942"><ele>146.66666666666666</ele><time>2026-04-28T08:27:40Z</time></trkpt><trkpt lat="37.952938615581346" lon="12.862876501905182"><ele>147.0</ele><time>2026-04-28T08:27:41Z</time></trkpt><trkpt lat="37.95307587565581" lon="12.862967578061516"><ele>147.0</ele><time>2026-04-28T08:27:42Z</time></trkpt><trkpt lat="37.95316723835548" lon="12.863072939967426"><ele>147.0</ele><time>2026-04-28T08:27:43Z</time></trkpt><trkpt lat="37.9532368903546" lon="12.863193225819627"><ele>147.0</ele><time>2026-04-28T08:27:44Z</time></trkpt><trkpt lat="37.95324353925482" lon="12.863382364031775"><ele>147.0</ele><time>2026-04-28T08:27:45Z</time></trkpt><trkpt lat="37.95317495445484" lon="12.86357140602423"><ele>149.0</ele><time>2026-04-28T08:27:46Z</time></trkpt><trkpt lat="37.95308496567467" lon="12.863722609992768"><ele>151.0</ele><time>2026-04-28T08:27:47Z</time></trkpt><trkpt lat="37.95301561796785" lon="12.86383988335089"><ele>153.0</ele><time>2026-04-28T08:27:48Z</time></trkpt><trkpt lat="37.953031406287685" lon="12.863946862102305"><ele>155.0</ele><time>2026-04-28T08:27:49Z</time></trkpt><trkpt lat="37.95310524945682" lon="12.86408476908966"><ele>155.0</ele><time>2026-04-28T08:27:50Z</time></trkpt><trkpt lat="37.95323132860375" lon="12.864196742027863"><ele>155.0</ele><time>2026-04-28T08:27:51Z</time></trkpt><trkpt lat="37.95340685873055" lon="12.864260172368926"><ele>155.0</ele><time>2026-04-28T08:27:52Z</time></trkpt><trkpt lat="37.95355640232772" lon="12.864293334240175"><ele>155.66666666666666</ele><time>2026-04-28T08:27:53Z</time></trkpt><trkpt lat="37.95368066009383" lon="12.864378760680577"><ele>156.33333333333334</ele><time>2026-04-28T08:27:54Z</time></trkpt><trkpt lat="37.9538057731801" lon="12.864522393868587"><ele>157.0</ele><time>2026-04-28T08:27:55Z</time></trkpt><trkpt lat="37.95391523542452" lon="12.864744527419363"><ele>157.0</ele><time>2026-04-28T08:27:56Z</time></trkpt><trkpt lat="37.95401805578101" lon="12.864977923361653"><ele>157.0</ele><time>2026-04-28T08:27:57Z</time></trkpt><trkpt lat="37.95411364875419" lon="12.865217639812695"><ele>157.0</ele><time>2026-04-28T08:27:58Z</time></trkpt><trkpt lat="37.954291246266045" lon="12.865356996697916"><ele>156.33333333333334</ele><time>2026-04-28T08:27:59Z</time></trkpt><trkpt lat="37.954466421143" lon="12.865422874646207"><ele>155.66666666666666</ele><time>2026-04-28T08:28:00Z</time></trkpt><trkpt lat="37.95462775697207" lon="12.86547543214954"><ele>155.0</ele><time>2026-04-28T08:28:01Z</time></trkpt><trkpt lat="37.954752508932174" lon="12.865553567140086"><ele>155.0</ele><time>2026-04-28T08:28:02Z</time></trkpt><trkpt lat="37.95489988626972" lon="12.865672881742828"><ele>155.0</ele><time>2026-04-28T08:28:03Z</time></trkpt><trkpt lat="37.95500264687858" lon="12.865841740288513"><ele>155.0</ele><time>2026-04-28T08:28:04Z</time></trkpt><trkpt lat="37.95510576097821" lon="12.866054283867479"><ele>152.0</ele><time>2026-04-28T08:28:05Z</time></trkpt><trkpt lat="37.95516467434002" lon="12.866350104554083"><ele>149.0</ele><time>2026-04-28T08:28:06Z</time></trkpt><trkpt lat="37.955262271442" lon="12.866673952413828"><ele>154.5</ele><time>2026-04-28T08:28:07Z</time></trkpt><trkpt lat="37.95546175491202" lon="12.86692672928655"><ele>160.0</ele><time>2026-04-28T08:28:08Z</time></trkpt><trkpt lat="37.955680568361686" lon="12.867172955594906"><ele>160.0</ele><time>2026-04-28T08:28:09Z</time></trkpt><trkpt lat="37.955866674018445" lon="12.867420979160228"><ele>160.0</ele><time>2026-04-28T08:28:10Z</time></trkpt><trkpt lat="37.956028280480616" lon="12.86765026799276"><ele>159.0</ele><time>2026-04-28T08:28:11Z</time></trkpt><trkpt lat="37.956196086419446" lon="12.867805580602104"><ele>158.0</ele><time>2026-04-28T08:28:12Z</time></trkpt><trkpt lat="37.95636719834207" lon="12.867929827692372"><ele>157.0</ele><time>2026-04-28T08:28:13Z</time></trkpt><trkpt lat="37.95651502613232" lon="12.868020707047625"><ele>157.0</ele><time>2026-04-28T08:28:14Z</time></trkpt><trkpt lat="37.956640154224246" lon="12.868096326310841"><ele>157.0</ele><time>2026-04-28T08:28:15Z</time></trkpt><trkpt lat="37.956737672975" lon="12.86816574698981"><ele>157.0</ele><time>2026-04-28T08:28:16Z</time></trkpt><trkpt lat="37.95680254744205" lon="12.86825731501754"><ele>157.0</ele><time>2026-04-28T08:28:17Z</time></trkpt><trkpt lat="37.95686025754923" lon="12.868363922882418"><ele>157.0</ele><time>2026-04-28T08:28:18Z</time></trkpt><trkpt lat="37.956866982171135" lon="12.868515690322273"><ele>157.4</ele><time>2026-04-28T08:28:19Z</time></trkpt><trkpt lat="37.95683246174094" lon="12.868667952727812"><ele>157.79999999999998</ele><time>2026-04-28T08:28:20Z</time></trkpt><trkpt lat="37.95677335409988" lon="12.868805399225394"><ele>158.2</ele><time>2026-04-28T08:28:21Z</time></trkpt><trkpt lat="37.95674039124876" lon="12.868912554909894"><ele>158.6</ele><time>2026-04-28T08:28:22Z</time></trkpt><trkpt lat="37.95669256360402" lon="12.869001583303394"><ele>159.0</ele><time>2026-04-28T08:28:23Z</time></trkpt><trkpt lat="37.95668153464686" lon="12.869161583489735"><ele>158.0</ele><time>2026-04-28T08:28:25Z</time></trkpt><trkpt lat="37.95672280303451" lon="12.869265362170038"><ele>157.0</ele><time>2026-04-28T08:28:26Z</time></trkpt><trkpt lat="37.95680437973013" lon="12.869355436083051"><ele>156.0</ele><time>2026-04-28T08:28:27Z</time></trkpt><trkpt lat="37.95690675242057" lon="12.869407002778603"><ele>155.0</ele><time>2026-04-28T08:28:28Z</time></trkpt><trkpt lat="37.95701667989001" lon="12.869380529361665"><ele>154.0</ele><time>2026-04-28T08:28:29Z</time></trkpt><trkpt lat="37.957127728857756" lon="12.86930336190638"><ele>154.0</ele><time>2026-04-28T08:28:30Z</time></trkpt><trkpt lat="37.95722547466521" lon="12.86921751886844"><ele>154.0</ele><time>2026-04-28T08:28:31Z</time></trkpt><trkpt lat="37.95731805054105" lon="12.869137188736902"><ele>154.0</ele><time>2026-04-28T08:28:32Z</time></trkpt><trkpt lat="37.95742039822025" lon="12.869073794244596"><ele>154.0</ele><time>2026-04-28T08:28:33Z</time></trkpt><trkpt lat="37.95753596441216" lon="12.869022198035546"><ele>153.4</ele><time>2026-04-28T08:28:34Z</time></trkpt><trkpt lat="37.9576441022858" lon="12.86900674340341"><ele>152.8</ele><time>2026-04-28T08:28:35Z</time></trkpt><trkpt lat="37.95775329552109" lon="12.86898305665545"><ele>152.2</ele><time>2026-04-28T08:28:36Z</time></trkpt><trkpt lat="37.957854072181284" lon="12.868946367221161"><ele>151.6</ele><time>2026-04-28T08:28:37Z</time></trkpt><trkpt lat="37.95795504949304" lon="12.868859562414753"><ele>151.0</ele><time>2026-04-28T08:28:38Z</time></trkpt><trkpt lat="37.95803351032175" lon="12.868754786034406"><ele>151.0</ele><time>2026-04-28T08:28:39Z</time></trkpt><trkpt lat="37.958108510276" lon="12.868689230133894"><ele>151.0</ele><time>2026-04-28T08:28:40Z</time></trkpt><trkpt lat="37.95818394852924" lon="12.868653500261301"><ele>151.0</ele><time>2026-04-28T08:28:41Z</time></trkpt><trkpt lat="37.95826677981774" lon="12.868663266744688"><ele>151.0</ele><time>2026-04-28T08:28:42Z</time></trkpt><trkpt lat="37.95835789535714" lon="12.868677681864964"><ele>151.0</ele><time>2026-04-28T08:28:43Z</time></trkpt><trkpt lat="37.95846301153663" lon="12.868763227373647"><ele>147.5</ele><time>2026-04-28T08:28:44Z</time></trkpt><trkpt lat="37.95852659947198" lon="12.868911595641418"><ele>144.0</ele><time>2026-04-28T08:28:45Z</time></trkpt><trkpt lat="37.95856134115029" lon="12.869102519558368"><ele>140.5</ele><time>2026-04-28T08:28:46Z</time></trkpt><trkpt lat="37.958617122947004" lon="12.869238311545933"><ele>137.0</ele><time>2026-04-28T08:28:47Z</time></trkpt><trkpt lat="37.958650188936794" lon="12.869404944322655"><ele>137.0</ele><time>2026-04-28T08:28:48Z</time></trkpt><trkpt lat="37.95868284322458" lon="12.869575744271087"><ele>137.0</ele><time>2026-04-28T08:28:49Z</time></trkpt><trkpt lat="37.95870404017675" lon="12.86981991701204"><ele>137.0</ele><time>2026-04-28T08:28:50Z</time></trkpt><trkpt lat="37.958689858822474" lon="12.870102190540134"><ele>135.5</ele><time>2026-04-28T08:28:51Z</time></trkpt><trkpt lat="37.958637159725185" lon="12.87040635484063"><ele>134.0</ele><time>2026-04-28T08:28:52Z</time></trkpt><trkpt lat="37.958613645076426" lon="12.870683146278141"><ele>134.0</ele><time>2026-04-28T08:28:53Z</time></trkpt><trkpt lat="37.95862925390092" lon="12.870940864803547"><ele>134.0</ele><time>2026-04-28T08:28:54Z</time></trkpt><trkpt lat="37.95872263690381" lon="12.871161685242143"><ele>134.0</ele><time>2026-04-28T08:28:55Z</time></trkpt><trkpt lat="37.95881085665139" lon="12.871366933182019"><ele>134.33333333333331</ele><time>2026-04-28T08:28:56Z</time></trkpt><trkpt lat="37.958877921253396" lon="12.871585734115746"><ele>134.66666666666666</ele><time>2026-04-28T08:28:57Z</time></trkpt><trkpt lat="37.95892154829144" lon="12.871775268109205"><ele>135.0</ele><time>2026-04-28T08:28:58Z</time></trkpt><trkpt lat="37.958949496340686" lon="12.871954917614453"><ele>134.0</ele><time>2026-04-28T08:28:59Z</time></trkpt><trkpt lat="37.958941917763134" lon="12.872112094792254"><ele>133.0</ele><time>2026-04-28T08:28:59.999Z</time></trkpt><trkpt lat="37.958884975570214" lon="12.872276313249596"><ele>132.0</ele><time>2026-04-28T08:29:00.999Z</time></trkpt><trkpt lat="37.95878296096443" lon="12.872431851571976"><ele>131.0</ele><time>2026-04-28T08:29:01.999Z</time></trkpt><trkpt lat="37.95863161683902" lon="12.872584603428045"><ele>128.33333333333331</ele><time>2026-04-28T08:29:02.999Z</time></trkpt><trkpt lat="37.958460235212854" lon="12.872703753632173"><ele>125.66666666666666</ele><time>2026-04-28T08:29:03.999Z</time></trkpt><trkpt lat="37.95833795112846" lon="12.872832574836695"><ele>123.0</ele><time>2026-04-28T08:29:04.999Z</time></trkpt><trkpt lat="37.95823498154736" lon="12.872941817653636"><ele>129.33333333333334</ele><time>2026-04-28T08:29:05.999Z</time></trkpt><trkpt lat="37.958164562790515" lon="12.873085953646388"><ele>135.66666666666669</ele><time>2026-04-28T08:29:06.999Z</time></trkpt><trkpt lat="37.95817063506176" lon="12.873317627321565"><ele>142.0</ele><time>2026-04-28T08:29:07.999Z</time></trkpt><trkpt lat="37.95819504178725" lon="12.873597814252372"><ele>142.5</ele><time>2026-04-28T08:29:08.999Z</time></trkpt><trkpt lat="37.9581897931308" lon="12.873908428583112"><ele>143.0</ele><time>2026-04-28T08:29:09.999Z</time></trkpt><trkpt lat="37.95818728050522" lon="12.874201270810222"><ele>141.66666666666666</ele><time>2026-04-28T08:29:10.999Z</time></trkpt><trkpt lat="37.95818553758968" lon="12.874439831132126"><ele>140.33333333333334</ele><time>2026-04-28T08:29:11.999Z</time></trkpt><trkpt lat="37.95819885646889" lon="12.8746414094119"><ele>139.0</ele><time>2026-04-28T08:29:12.999Z</time></trkpt><trkpt lat="37.95825766227013" lon="12.874852331330969"><ele>139.0</ele><time>2026-04-28T08:29:13.999Z</time></trkpt><trkpt lat="37.95835883979959" lon="12.875061540921077"><ele>139.0</ele><time>2026-04-28T08:29:14.999Z</time></trkpt><trkpt lat="37.95848996755491" lon="12.875218822127671"><ele>139.0</ele><time>2026-04-28T08:29:15.999Z</time></trkpt><trkpt lat="37.958590185882" lon="12.87536116127119"><ele>132.66666666666669</ele><time>2026-04-28T08:29:16.999Z</time></trkpt><trkpt lat="37.95864844129381" lon="12.875521937895103"><ele>126.33333333333334</ele><time>2026-04-28T08:29:17.999Z</time></trkpt><trkpt lat="37.958663837311995" lon="12.875747157158441"><ele>120.0</ele><time>2026-04-28T08:29:18.999Z</time></trkpt><trkpt lat="37.95864023582428" lon="12.876005582798236"><ele>119.0</ele><time>2026-04-28T08:29:19.999Z</time></trkpt><trkpt lat="37.95863560819604" lon="12.87625356279492"><ele>118.0</ele><time>2026-04-28T08:29:20.999Z</time></trkpt><trkpt lat="37.95864150327261" lon="12.876494255028408"><ele>117.0</ele><time>2026-04-28T08:29:21.999Z</time></trkpt><trkpt lat="37.95866296888029" lon="12.876721947641972"><ele>117.0</ele><time>2026-04-28T08:29:22.999Z</time></trkpt><trkpt lat="37.958693530791365" lon="12.876950165606287"><ele>117.0</ele><time>2026-04-28T08:29:23.999Z</time></trkpt><trkpt lat="37.95874086598617" lon="12.877178572409028"><ele>117.0</ele><time>2026-04-28T08:29:24.999Z</time></trkpt><trkpt lat="37.9588073391187" lon="12.8773918062676"><ele>117.0</ele><time>2026-04-28T08:29:25.999Z</time></trkpt><trkpt lat="37.958854733481125" lon="12.87758596077629"><ele>117.0</ele><time>2026-04-28T08:29:26.999Z</time></trkpt><trkpt lat="37.95892071458021" lon="12.877764893959725"><ele>117.0</ele><time>2026-04-28T08:29:27.999Z</time></trkpt><trkpt lat="37.95896856695455" lon="12.877971575906832"><ele>116.66666666666666</ele><time>2026-04-28T08:29:28.999Z</time></trkpt><trkpt lat="37.95894371619628" lon="12.878200316037473"><ele>116.33333333333333</ele><time>2026-04-28T08:29:29.999Z</time></trkpt><trkpt lat="37.958908036491486" lon="12.878405538265953"><ele>116.0</ele><time>2026-04-28T08:29:30.999Z</time></trkpt><trkpt lat="37.95891989080168" lon="12.878589343904693"><ele>116.66666666666666</ele><time>2026-04-28T08:29:31.999Z</time></trkpt><trkpt lat="37.95897813858672" lon="12.878752357665935"><ele>117.33333333333334</ele><time>2026-04-28T08:29:32.999Z</time></trkpt><trkpt lat="37.959068805542394" lon="12.878916605474068"><ele>118.0</ele><time>2026-04-28T08:29:33.999Z</time></trkpt><trkpt lat="37.95920448875488" lon="12.879093604038305"><ele>114.33333333333334</ele><time>2026-04-28T08:29:34.999Z</time></trkpt><trkpt lat="37.959317895484105" lon="12.87927948314195"><ele>110.66666666666666</ele><time>2026-04-28T08:29:35.999Z</time></trkpt><trkpt lat="37.95939946346405" lon="12.879503602336504"><ele>107.0</ele><time>2026-04-28T08:29:36.999Z</time></trkpt><trkpt lat="37.9594566495957" lon="12.879767381463436"><ele>107.0</ele><time>2026-04-28T08:29:37.999Z</time></trkpt><trkpt lat="37.95947618900223" lon="12.880042599943131"><ele>107.0</ele><time>2026-04-28T08:29:38.999Z</time></trkpt><trkpt lat="37.959504803398914" lon="12.880275427016166"><ele>107.0</ele><time>2026-04-28T08:29:39.999Z</time></trkpt><trkpt lat="37.95953479211094" lon="12.880507420578061"><ele>107.33333333333333</ele><time>2026-04-28T08:29:40.999Z</time></trkpt><trkpt lat="37.959522263724466" lon="12.88075340006239"><ele>107.66666666666666</ele><time>2026-04-28T08:29:41.999Z</time></trkpt><trkpt lat="37.959513920558855" lon="12.880990605772674"><ele>108.0</ele><time>2026-04-28T08:29:42.999Z</time></trkpt><trkpt lat="37.959467075394194" lon="12.88119872630951"><ele>107.5</ele><time>2026-04-28T08:29:44Z</time></trkpt><trkpt lat="37.95940581723611" lon="12.881382088757263"><ele>107.0</ele><time>2026-04-28T08:29:45Z</time></trkpt><trkpt lat="37.95933154961407" lon="12.88154709957075"><ele>106.5</ele><time>2026-04-28T08:29:46Z</time></trkpt><trkpt lat="37.95926609450924" lon="12.881703037117871"><ele>106.0</ele><time>2026-04-28T08:29:47Z</time></trkpt><trkpt lat="37.95920050222383" lon="12.88182971232539"><ele>106.5</ele><time>2026-04-28T08:29:48Z</time></trkpt><trkpt lat="37.95917874033096" lon="12.881980595356042"><ele>107.0</ele><time>2026-04-28T08:29:49Z</time></trkpt><trkpt lat="37.95918059405018" lon="12.882156165632296"><ele>107.5</ele><time>2026-04-28T08:29:50Z</time></trkpt><trkpt lat="37.95921464866962" lon="12.88233168498603"><ele>108.0</ele><time>2026-04-28T08:29:51Z</time></trkpt><trkpt lat="37.95931855412929" lon="12.882494955310033"><ele>109.25</ele><time>2026-04-28T08:29:52Z</time></trkpt><trkpt lat="37.95945820950602" lon="12.882612375885675"><ele>110.5</ele><time>2026-04-28T08:29:53Z</time></trkpt><trkpt lat="37.95959574617375" lon="12.88267655057716"><ele>111.75</ele><time>2026-04-28T08:29:54Z</time></trkpt><trkpt lat="37.95969621734233" lon="12.882734492568112"><ele>113.0</ele><time>2026-04-28T08:29:55Z</time></trkpt><trkpt lat="37.95978611669607" lon="12.88280200887648"><ele>112.99999999999999</ele><time>2026-04-28T08:29:56Z</time></trkpt><trkpt lat="37.95986775828607" lon="12.88286592039688"><ele>113.0</ele><time>2026-04-28T08:29:57Z</time></trkpt><trkpt lat="37.95994990095728" lon="12.882919992244004"><ele>113.0</ele><time>2026-04-28T08:29:58Z</time></trkpt><trkpt lat="37.96002227256559" lon="12.882969854563775"><ele>113.0</ele><time>2026-04-28T08:29:59Z</time></trkpt><trkpt lat="37.96009031779957" lon="12.883005127981484"><ele>112.99999999999999</ele><time>2026-04-28T08:30:00Z</time></trkpt><trkpt lat="37.960161414480446" lon="12.883026292402482"><ele>113.0</ele><time>2026-04-28T08:30:01Z</time></trkpt><trkpt lat="37.96021711934749" lon="12.883074932360593"><ele>111.49999999999999</ele><time>2026-04-28T08:30:02Z</time></trkpt><trkpt lat="37.960275675788864" lon="12.883109520105544"><ele>110.0</ele><time>2026-04-28T08:30:03Z</time></trkpt><trkpt lat="37.96038225534873" lon="12.883163192802495"><ele>108.5</ele><time>2026-04-28T08:30:05Z</time></trkpt><trkpt lat="37.96044794751406" lon="12.883172622199282"><ele>107.0</ele><time>2026-04-28T08:30:06Z</time></trkpt><trkpt lat="37.960516336300046" lon="12.883219036564874"><ele>105.49999999999999</ele><time>2026-04-28T08:30:07Z</time></trkpt><trkpt lat="37.96060520500086" lon="12.883266917355146"><ele>104.0</ele><time>2026-04-28T08:30:08Z</time></trkpt><trkpt lat="37.96072713988983" lon="12.883306923963811"><ele>102.66666666666666</ele><time>2026-04-28T08:30:09Z</time></trkpt><trkpt lat="37.96089184638676" lon="12.883365611170696"><ele>101.33333333333334</ele><time>2026-04-28T08:30:10Z</time></trkpt><trkpt lat="37.96104798090878" lon="12.883434183536352"><ele>100.0</ele><time>2026-04-28T08:30:11Z</time></trkpt><trkpt lat="37.961185015597" lon="12.88354050221992"><ele>100.0</ele><time>2026-04-28T08:30:12Z</time></trkpt><trkpt lat="37.9612990328899" lon="12.883741442627601"><ele>100.0</ele><time>2026-04-28T08:30:13Z</time></trkpt><trkpt lat="37.96141901825591" lon="12.884006248583699"><ele>100.0</ele><time>2026-04-28T08:30:14Z</time></trkpt><trkpt lat="37.96151403464034" lon="12.884243753069798"><ele>101.66666666666667</ele><time>2026-04-28T08:30:15Z</time></trkpt><trkpt lat="37.961595698904766" lon="12.884449585266012"><ele>103.33333333333334</ele><time>2026-04-28T08:30:16Z</time></trkpt><trkpt lat="37.961710339359065" lon="12.884644395231795"><ele>105.0</ele><time>2026-04-28T08:30:17Z</time></trkpt><trkpt lat="37.961782746869574" lon="12.884846703382584"><ele>100.0</ele><time>2026-04-28T08:30:18Z</time></trkpt><trkpt lat="37.961812701447286" lon="12.885096114236077"><ele>95.0</ele><time>2026-04-28T08:30:19Z</time></trkpt><trkpt lat="37.9618271025196" lon="12.885397113739861"><ele>90.0</ele><time>2026-04-28T08:30:20Z</time></trkpt><trkpt lat="37.96185817531976" lon="12.885745115672442"><ele>89.5</ele><time>2026-04-28T08:30:21Z</time></trkpt><trkpt lat="37.96186545305753" lon="12.886102205950278"><ele>89.0</ele><time>2026-04-28T08:30:22Z</time></trkpt><trkpt lat="37.96188977537266" lon="12.886473999977936"><ele>88.5</ele><time>2026-04-28T08:30:23Z</time></trkpt><trkpt lat="37.961899429189614" lon="12.88680348003357"><ele>88.0</ele><time>2026-04-28T08:30:24Z</time></trkpt><trkpt lat="37.96192971684361" lon="12.887111818891466"><ele>88.0</ele><time>2026-04-28T08:30:25Z</time></trkpt><trkpt lat="37.961958236587094" lon="12.887395045664345"><ele>88.0</ele><time>2026-04-28T08:30:26Z</time></trkpt><trkpt lat="37.961973251015856" lon="12.887664369692134"><ele>88.0</ele><time>2026-04-28T08:30:27Z</time></trkpt><trkpt lat="37.96199562087184" lon="12.887900144243526"><ele>88.33333333333333</ele><time>2026-04-28T08:30:28Z</time></trkpt><trkpt lat="37.96200219060257" lon="12.888105046831846"><ele>88.66666666666667</ele><time>2026-04-28T08:30:29Z</time></trkpt><trkpt lat="37.96202062385521" lon="12.888292974639347"><ele>89.0</ele><time>2026-04-28T08:30:30Z</time></trkpt><trkpt lat="37.962077310134006" lon="12.888454198839188"><ele>90.0</ele><time>2026-04-28T08:30:31Z</time></trkpt><trkpt lat="37.96219145561971" lon="12.88862257629519"><ele>91.0</ele><time>2026-04-28T08:30:32Z</time></trkpt><trkpt lat="37.96233705404543" lon="12.888798205358519"><ele>92.0</ele><time>2026-04-28T08:30:33Z</time></trkpt><trkpt lat="37.96247299102917" lon="12.889013826630606"><ele>89.5</ele><time>2026-04-28T08:30:34Z</time></trkpt><trkpt lat="37.96268428213163" lon="12.889244521342617"><ele>87.0</ele><time>2026-04-28T08:30:35Z</time></trkpt><trkpt lat="37.96290735984701" lon="12.889499223445616"><ele>87.0</ele><time>2026-04-28T08:30:36Z</time></trkpt><trkpt lat="37.96314208203513" lon="12.889768173907255"><ele>87.0</ele><time>2026-04-28T08:30:37Z</time></trkpt><trkpt lat="37.96339441722567" lon="12.890058311352124"><ele>85.0</ele><time>2026-04-28T08:30:38Z</time></trkpt><trkpt lat="37.963650752984584" lon="12.89035283682883"><ele>83.0</ele><time>2026-04-28T08:30:39Z</time></trkpt><trkpt lat="37.96390511495305" lon="12.890644191987647"><ele>84.0</ele><time>2026-04-28T08:30:40Z</time></trkpt><trkpt lat="37.96417217887658" lon="12.89096828298827"><ele>85.0</ele><time>2026-04-28T08:30:41Z</time></trkpt><trkpt lat="37.96447962614571" lon="12.89128776795035"><ele>85.0</ele><time>2026-04-28T08:30:42Z</time></trkpt><trkpt lat="37.96474454357654" lon="12.89157682849074"><ele>85.0</ele><time>2026-04-28T08:30:43Z</time></trkpt><trkpt lat="37.96498894267017" lon="12.891838806193554"><ele>84.5</ele><time>2026-04-28T08:30:44Z</time></trkpt><trkpt lat="37.96523332737559" lon="12.892094362151"><ele>84.0</ele><time>2026-04-28T08:30:45Z</time></trkpt><trkpt lat="37.96545566999951" lon="12.892336411755174"><ele>84.0</ele><time>2026-04-28T08:30:46Z</time></trkpt><trkpt lat="37.96565616314535" lon="12.892566861380503"><ele>84.0</ele><time>2026-04-28T08:30:47Z</time></trkpt><trkpt lat="37.96584627727696" lon="12.892776499224778"><ele>84.0</ele><time>2026-04-28T08:30:48Z</time></trkpt><trkpt lat="37.966017845273626" lon="12.892967166045278"><ele>84.0</ele><time>2026-04-28T08:30:49Z</time></trkpt><trkpt lat="37.96616820273356" lon="12.89314240860992"><ele>84.0</ele><time>2026-04-28T08:30:50Z</time></trkpt><trkpt lat="37.96631328535019" lon="12.893303591765239"><ele>84.66666666666667</ele><time>2026-04-28T08:30:51Z</time></trkpt><trkpt lat="37.96643854130057" lon="12.893464865594575"><ele>85.33333333333334</ele><time>2026-04-28T08:30:52Z</time></trkpt><trkpt lat="37.96652175552352" lon="12.893634119753342"><ele>86.0</ele><time>2026-04-28T08:30:53Z</time></trkpt><trkpt lat="37.96660876500252" lon="12.89376776048373"><ele>86.0</ele><time>2026-04-28T08:30:54Z</time></trkpt><trkpt lat="37.966666463869345" lon="12.893884171576742"><ele>86.0</ele><time>2026-04-28T08:30:55Z</time></trkpt><trkpt lat="37.966712572861425" lon="12.893982601659868"><ele>86.0</ele><time>2026-04-28T08:30:56Z</time></trkpt><trkpt lat="37.96675178806329" lon="12.894053017514814"><ele>86.0</ele><time>2026-04-28T08:30:57Z</time></trkpt><trkpt lat="37.967026837788424" lon="12.893962485544751"><ele>85.0</ele><time>2026-04-28T08:30:59Z</time></trkpt><trkpt lat="37.967165596407035" lon="12.893835587210349"><ele>84.0</ele><time>2026-04-28T08:31:00Z</time></trkpt><trkpt lat="37.967308787308916" lon="12.893745807687665"><ele>83.0</ele><time>2026-04-28T08:31:01Z</time></trkpt><trkpt lat="37.967498283016226" lon="12.89362333053678"><ele>83.0</ele><time>2026-04-28T08:31:02Z</time></trkpt><trkpt lat="37.96770224030553" lon="12.893472131896793"><ele>83.0</ele><time>2026-04-28T08:31:03Z</time></trkpt><trkpt lat="37.967909857622786" lon="12.893303193220838"><ele>83.0</ele><time>2026-04-28T08:31:04Z</time></trkpt><trkpt lat="37.968138321301765" lon="12.893122516124206"><ele>83.0</ele><time>2026-04-28T08:31:05Z</time></trkpt><trkpt lat="37.968370787619975" lon="12.892933055880789"><ele>85.5</ele><time>2026-04-28T08:31:06Z</time></trkpt><trkpt lat="37.968574497758446" lon="12.892767753104112"><ele>88.0</ele><time>2026-04-28T08:31:06.999Z</time></trkpt><trkpt lat="37.968763224991335" lon="12.89261741243994"><ele>86.0</ele><time>2026-04-28T08:31:07.999Z</time></trkpt><trkpt lat="37.96894297007722" lon="12.892480199512338"><ele>84.0</ele><time>2026-04-28T08:31:08.999Z</time></trkpt><trkpt lat="37.96910985095713" lon="12.892363331034343"><ele>82.0</ele><time>2026-04-28T08:31:09.999Z</time></trkpt><trkpt lat="37.9692689787314" lon="12.892234559445084"><ele>86.66666666666666</ele><time>2026-04-28T08:31:10.999Z</time></trkpt><trkpt lat="37.96943596937655" lon="12.892111781519636"><ele>91.33333333333333</ele><time>2026-04-28T08:31:11.999Z</time></trkpt><trkpt lat="37.96958369518172" lon="12.891995403577987"><ele>96.0</ele><time>2026-04-28T08:31:12.999Z</time></trkpt><trkpt lat="37.969723971602356" lon="12.891884487851797"><ele>96.0</ele><time>2026-04-28T08:31:13.999Z</time></trkpt><trkpt lat="37.96986986958809" lon="12.891786396581526"><ele>96.0</ele><time>2026-04-28T08:31:14.999Z</time></trkpt><trkpt lat="37.970040135096156" lon="12.891729100800598"><ele>96.0</ele><time>2026-04-28T08:31:15.999Z</time></trkpt><trkpt lat="37.97021114462106" lon="12.891738860226118"><ele>94.0</ele><time>2026-04-28T08:31:16.999Z</time></trkpt><trkpt lat="37.97035652865058" lon="12.891697833380125"><ele>92.0</ele><time>2026-04-28T08:31:17.999Z</time></trkpt><trkpt lat="37.97048244149513" lon="12.89160325723154"><ele>90.0</ele><time>2026-04-28T08:31:18.999Z</time></trkpt><trkpt lat="37.97059203965532" lon="12.891509543228695"><ele>88.0</ele><time>2026-04-28T08:31:19.999Z</time></trkpt><trkpt lat="37.970678979151494" lon="12.891376577141152"><ele>88.0</ele><time>2026-04-28T08:31:20.999Z</time></trkpt><trkpt lat="37.9707566874772" lon="12.89120142833798"><ele>88.0</ele><time>2026-04-28T08:31:21.999Z</time></trkpt><trkpt lat="37.97080663761967" lon="12.891018929577307"><ele>88.0</ele><time>2026-04-28T08:31:22.999Z</time></trkpt><trkpt lat="37.9708699011123" lon="12.890879040584993"><ele>88.0</ele><time>2026-04-28T08:31:23.999Z</time></trkpt><trkpt lat="37.97092941656699" lon="12.890748175297084"><ele>86.80000000000001</ele><time>2026-04-28T08:31:24.999Z</time></trkpt><trkpt lat="37.970963527856554" lon="12.890629816474473"><ele>85.6</ele><time>2026-04-28T08:31:25.999Z</time></trkpt><trkpt lat="37.97099107038075" lon="12.890516816147105"><ele>84.4</ele><time>2026-04-28T08:31:26.999Z</time></trkpt><trkpt lat="37.97101588937091" lon="12.890424743419622"><ele>83.19999999999999</ele><time>2026-04-28T08:31:27.999Z</time></trkpt><trkpt lat="37.97109827559385" lon="12.89033469045946"><ele>82.0</ele><time>2026-04-28T08:31:29.999Z</time></trkpt><trkpt lat="37.97126901398058" lon="12.890367835081744"><ele>82.0</ele><time>2026-04-28T08:31:31.999Z</time></trkpt><trkpt lat="37.9713848685888" lon="12.890429138249528"><ele>82.0</ele><time>2026-04-28T08:31:32.999Z</time></trkpt><trkpt lat="37.97151324004804" lon="12.890522775445893"><ele>82.0</ele><time>2026-04-28T08:31:33.999Z</time></trkpt><trkpt lat="37.97166600770873" lon="12.890602239858143"><ele>82.0</ele><time>2026-04-28T08:31:34.999Z</time></trkpt><trkpt lat="37.97184901683288" lon="12.890710195531934"><ele>81.33333333333333</ele><time>2026-04-28T08:31:35.999Z</time></trkpt><trkpt lat="37.97203966475253" lon="12.890789278662139"><ele>80.66666666666667</ele><time>2026-04-28T08:31:36.999Z</time></trkpt><trkpt lat="37.97222256860359" lon="12.890873947575813"><ele>80.0</ele><time>2026-04-28T08:31:37.999Z</time></trkpt><trkpt lat="37.97237684181239" lon="12.890929462105916"><ele>80.0</ele><time>2026-04-28T08:31:38.999Z</time></trkpt><trkpt lat="37.97250707931967" lon="12.891018570761622"><ele>80.0</ele><time>2026-04-28T08:31:39.999Z</time></trkpt><trkpt lat="37.972617962230764" lon="12.891130650389055"><ele>80.0</ele><time>2026-04-28T08:31:40.999Z</time></trkpt><trkpt lat="37.972716349125726" lon="12.891268290087503"><ele>80.0</ele><time>2026-04-28T08:31:41.999Z</time></trkpt><trkpt lat="37.97275738192723" lon="12.891497353333047"><ele>80.66666666666667</ele><time>2026-04-28T08:31:42.999Z</time></trkpt><trkpt lat="37.97282409184262" lon="12.891678208583125"><ele>81.33333333333333</ele><time>2026-04-28T08:31:43.999Z</time></trkpt><trkpt lat="37.972965712171536" lon="12.891817515320692"><ele>82.0</ele><time>2026-04-28T08:31:44.999Z</time></trkpt><trkpt lat="37.973154782572855" lon="12.891970433928025"><ele>82.0</ele><time>2026-04-28T08:31:45.999Z</time></trkpt><trkpt lat="37.97334361618063" lon="12.892149217482189"><ele>82.0</ele><time>2026-04-28T08:31:46.999Z</time></trkpt><trkpt lat="37.97352124981896" lon="12.89229734388214"><ele>82.0</ele><time>2026-04-28T08:31:47.999Z</time></trkpt><trkpt lat="37.97368643377333" lon="12.892393685515714"><ele>82.75</ele><time>2026-04-28T08:31:48.999Z</time></trkpt><trkpt lat="37.97383266976221" lon="12.892478904683514"><ele>83.5</ele><time>2026-04-28T08:31:50Z</time></trkpt><trkpt lat="37.973970054976824" lon="12.892540120988306"><ele>84.25</ele><time>2026-04-28T08:31:51Z</time></trkpt><trkpt lat="37.97409360294282" lon="12.892613923474924"><ele>85.0</ele><time>2026-04-28T08:31:52Z</time></trkpt><trkpt lat="37.974201730220734" lon="12.892701347396981"><ele>90.33333333333333</ele><time>2026-04-28T08:31:53Z</time></trkpt><trkpt lat="37.97429717954029" lon="12.892834626762776"><ele>95.66666666666666</ele><time>2026-04-28T08:31:54Z</time></trkpt><trkpt lat="37.97435789571124" lon="12.893046122351242"><ele>101.0</ele><time>2026-04-28T08:31:55Z</time></trkpt><trkpt lat="37.97438470655841" lon="12.893309692490453"><ele>99.33333333333333</ele><time>2026-04-28T08:31:56Z</time></trkpt><trkpt lat="37.97445388552555" lon="12.893555853478691"><ele>97.66666666666666</ele><time>2026-04-28T08:31:57Z</time></trkpt><trkpt lat="37.97454028436532" lon="12.893802766309486"><ele>96.0</ele><time>2026-04-28T08:31:58Z</time></trkpt><trkpt lat="37.97460877259355" lon="12.8940224899057"><ele>96.0</ele><time>2026-04-28T08:31:59Z</time></trkpt><trkpt lat="37.97467933803391" lon="12.894213059931875"><ele>96.0</ele><time>2026-04-28T08:32:00Z</time></trkpt><trkpt lat="37.97474538428128" lon="12.894387220294364"><ele>96.0</ele><time>2026-04-28T08:32:01Z</time></trkpt><trkpt lat="37.97483776759232" lon="12.894524357707667"><ele>95.66666666666667</ele><time>2026-04-28T08:32:02Z</time></trkpt><trkpt lat="37.97495283515845" lon="12.894646571043774"><ele>95.33333333333334</ele><time>2026-04-28T08:32:03Z</time></trkpt><trkpt lat="37.975075152797714" lon="12.89474635834314"><ele>95.0</ele><time>2026-04-28T08:32:04Z</time></trkpt><trkpt lat="37.97524516586852" lon="12.894817472090883"><ele>95.0</ele><time>2026-04-28T08:32:05Z</time></trkpt><trkpt lat="37.975449037296364" lon="12.894894774274137"><ele>95.0</ele><time>2026-04-28T08:32:06Z</time></trkpt><trkpt lat="37.975683820145996" lon="12.894960038037805"><ele>97.0</ele><time>2026-04-28T08:32:07Z</time></trkpt><trkpt lat="37.97588950299362" lon="12.894995295610839"><ele>99.0</ele><time>2026-04-28T08:32:08Z</time></trkpt><trkpt lat="37.97606288999319" lon="12.895005712930601"><ele>101.0</ele><time>2026-04-28T08:32:09Z</time></trkpt><trkpt lat="37.976222398112434" lon="12.894985528715008"><ele>101.0</ele><time>2026-04-28T08:32:10Z</time></trkpt><trkpt lat="37.97636401512457" lon="12.894977182369354"><ele>101.0</ele><time>2026-04-28T08:32:11Z</time></trkpt><trkpt lat="37.976488683091574" lon="12.895011760019143"><ele>101.0</ele><time>2026-04-28T08:32:12Z</time></trkpt><trkpt lat="37.97660713204189" lon="12.895113888310803"><ele>101.0</ele><time>2026-04-28T08:32:13Z</time></trkpt><trkpt lat="37.9767222221892" lon="12.895294370748788"><ele>104.0</ele><time>2026-04-28T08:32:14Z</time></trkpt><trkpt lat="37.9768435704111" lon="12.895589328993177"><ele>107.0</ele><time>2026-04-28T08:32:15Z</time></trkpt><trkpt lat="37.97701147147099" lon="12.895850967572569"><ele>103.0</ele><time>2026-04-28T08:32:16Z</time></trkpt><trkpt lat="37.977191852277834" lon="12.896092402440088"><ele>99.0</ele><time>2026-04-28T08:32:17Z</time></trkpt><trkpt lat="37.97733682090909" lon="12.896303924742826"><ele>99.0</ele><time>2026-04-28T08:32:18Z</time></trkpt><trkpt lat="37.97746826301626" lon="12.896486083631613"><ele>99.0</ele><time>2026-04-28T08:32:19Z</time></trkpt><trkpt lat="37.977586552364606" lon="12.896655205869711"><ele>99.0</ele><time>2026-04-28T08:32:20Z</time></trkpt><trkpt lat="37.977690218899845" lon="12.89680651378971"><ele>99.0</ele><time>2026-04-28T08:32:21Z</time></trkpt><trkpt lat="37.97778246337209" lon="12.896933710609698"><ele>99.0</ele><time>2026-04-28T08:32:22Z</time></trkpt><trkpt lat="37.97787452660794" lon="12.89704362327623"><ele>99.0</ele><time>2026-04-28T08:32:23Z</time></trkpt><trkpt lat="37.978002798358915" lon="12.897130943756224"><ele>99.0</ele><time>2026-04-28T08:32:24Z</time></trkpt><trkpt lat="37.97819132027277" lon="12.89718478972432"><ele>103.5</ele><time>2026-04-28T08:32:25Z</time></trkpt><trkpt lat="37.9784020866352" lon="12.897257906730497"><ele>108.0</ele><time>2026-04-28T08:32:26Z</time></trkpt><trkpt lat="37.9786362678881" lon="12.897317539685595"><ele>108.0</ele><time>2026-04-28T08:32:27Z</time></trkpt><trkpt lat="37.97889483779577" lon="12.89738087320897"><ele>108.0</ele><time>2026-04-28T08:32:28Z</time></trkpt><trkpt lat="37.979164031169454" lon="12.897456429793676"><ele>110.0</ele><time>2026-04-28T08:32:29Z</time></trkpt><trkpt lat="37.979414947998876" lon="12.897529751558443"><ele>112.0</ele><time>2026-04-28T08:32:30Z</time></trkpt><trkpt lat="37.979633090085166" lon="12.897579844325207"><ele>113.33333333333334</ele><time>2026-04-28T08:32:31Z</time></trkpt><trkpt lat="37.979810591897426" lon="12.897610359928155"><ele>114.66666666666666</ele><time>2026-04-28T08:32:32Z</time></trkpt><trkpt lat="37.9799803636364" lon="12.89760283692788"><ele>116.0</ele><time>2026-04-28T08:32:33Z</time></trkpt><trkpt lat="37.98013333093249" lon="12.89755446882325"><ele>116.0</ele><time>2026-04-28T08:32:34Z</time></trkpt><trkpt lat="37.98027255232171" lon="12.89752038380804"><ele>116.0</ele><time>2026-04-28T08:32:35Z</time></trkpt><trkpt lat="37.98040020763649" lon="12.897534320533449"><ele>116.0</ele><time>2026-04-28T08:32:36Z</time></trkpt><trkpt lat="37.98050565561249" lon="12.897560259919999"><ele>116.0</ele><time>2026-04-28T08:32:37Z</time></trkpt><trkpt lat="37.98058872889891" lon="12.897613310196546"><ele>116.0</ele><time>2026-04-28T08:32:38Z</time></trkpt><trkpt lat="37.980659111447096" lon="12.897683913991314"><ele>116.0</ele><time>2026-04-28T08:32:39Z</time></trkpt><trkpt lat="37.980728225935586" lon="12.897781145936479"><ele>116.0</ele><time>2026-04-28T08:32:40Z</time></trkpt><trkpt lat="37.980702387466565" lon="12.897945146551054"><ele>116.0</ele><time>2026-04-28T08:32:41Z</time></trkpt><trkpt lat="37.98067846600871" lon="12.898126377824326"><ele>116.0</ele><time>2026-04-28T08:32:42Z</time></trkpt><trkpt lat="37.98066797355943" lon="12.89831669512176"><ele>116.0</ele><time>2026-04-28T08:32:43Z</time></trkpt><trkpt lat="37.98064868677367" lon="12.898465991180187"><ele>116.0</ele><time>2026-04-28T08:32:44Z</time></trkpt><trkpt lat="37.980641691868534" lon="12.898598167379301"><ele>116.0</ele><time>2026-04-28T08:32:45Z</time></trkpt><trkpt lat="37.98068197178457" lon="12.898715289067608"><ele>114.75</ele><time>2026-04-28T08:32:46Z</time></trkpt><trkpt lat="37.980768033798746" lon="12.898820351077172"><ele>113.5</ele><time>2026-04-28T08:32:47Z</time></trkpt><trkpt lat="37.98089469757076" lon="12.898872243080488"><ele>112.25</ele><time>2026-04-28T08:32:48Z</time></trkpt><trkpt lat="37.98104403540638" lon="12.898857792408648"><ele>111.0</ele><time>2026-04-28T08:32:49Z</time></trkpt><trkpt lat="37.981203516181544" lon="12.898820512359965"><ele>111.0</ele><time>2026-04-28T08:32:50Z</time></trkpt><trkpt lat="37.981399264734875" lon="12.898785291588128"><ele>111.0</ele><time>2026-04-28T08:32:51Z</time></trkpt><trkpt lat="37.98162835990779" lon="12.898738651811023"><ele>111.0</ele><time>2026-04-28T08:32:52Z</time></trkpt><trkpt lat="37.98181103845719" lon="12.898689544921332"><ele>112.33333333333334</ele><time>2026-04-28T08:32:53Z</time></trkpt><trkpt lat="37.98198317094825" lon="12.898647885832645"><ele>113.66666666666667</ele><time>2026-04-28T08:32:54Z</time></trkpt><trkpt lat="37.98213009650652" lon="12.898597188627637"><ele>115.0</ele><time>2026-04-28T08:32:55Z</time></trkpt><trkpt lat="37.98226273264157" lon="12.898607788273248"><ele>115.0</ele><time>2026-04-28T08:32:56Z</time></trkpt><trkpt lat="37.982377820587296" lon="12.898674305569372"><ele>115.0</ele><time>2026-04-28T08:32:57Z</time></trkpt><trkpt lat="37.98251476119098" lon="12.898824994825228"><ele>115.0</ele><time>2026-04-28T08:32:58Z</time></trkpt><trkpt lat="37.98268311164233" lon="12.898999859416035"><ele>115.5</ele><time>2026-04-28T08:32:59Z</time></trkpt><trkpt lat="37.98284038489464" lon="12.899211023674178"><ele>116.0</ele><time>2026-04-28T08:33:00Z</time></trkpt><trkpt lat="37.98305332031823" lon="12.899430579462152"><ele>116.0</ele><time>2026-04-28T08:33:01Z</time></trkpt><trkpt lat="37.98322502164057" lon="12.899612256189785"><ele>116.0</ele><time>2026-04-28T08:33:02Z</time></trkpt><trkpt lat="37.98336873169441" lon="12.899753773836895"><ele>116.0</ele><time>2026-04-28T08:33:03Z</time></trkpt><trkpt lat="37.983524462767434" lon="12.899826610964142"><ele>117.66666666666666</ele><time>2026-04-28T08:33:04Z</time></trkpt><trkpt lat="37.9836899111731" lon="12.899837485404552"><ele>119.33333333333334</ele><time>2026-04-28T08:33:05Z</time></trkpt><trkpt lat="37.983897039166344" lon="12.899839560050014"><ele>121.0</ele><time>2026-04-28T08:33:06Z</time></trkpt><trkpt lat="37.98414468975159" lon="12.899824613084396"><ele>121.5</ele><time>2026-04-28T08:33:07Z</time></trkpt><trkpt lat="37.98441604056743" lon="12.899822504342907"><ele>122.0</ele><time>2026-04-28T08:33:08Z</time></trkpt><trkpt lat="37.984683815316394" lon="12.89980042399688"><ele>122.0</ele><time>2026-04-28T08:33:09Z</time></trkpt><trkpt lat="37.98490909394697" lon="12.899779101033335"><ele>122.0</ele><time>2026-04-28T08:33:10Z</time></trkpt><trkpt lat="37.98510249297219" lon="12.899741956535681"><ele>122.0</ele><time>2026-04-28T08:33:11Z</time></trkpt><trkpt lat="37.985281134172155" lon="12.899716694735147"><ele>122.66666666666666</ele><time>2026-04-28T08:33:12Z</time></trkpt><trkpt lat="37.9854450180485" lon="12.899696479055425"><ele>123.33333333333334</ele><time>2026-04-28T08:33:13Z</time></trkpt><trkpt lat="37.98559340467605" lon="12.899712466945857"><ele>124.0</ele><time>2026-04-28T08:33:14Z</time></trkpt><trkpt lat="37.98573130521097" lon="12.899689177613974"><ele>126.75</ele><time>2026-04-28T08:33:15Z</time></trkpt><trkpt lat="37.985870597133946" lon="12.8997033118985"><ele>129.5</ele><time>2026-04-28T08:33:15.999Z</time></trkpt><trkpt lat="37.985998108889135" lon="12.899763055265366"><ele>132.25</ele><time>2026-04-28T08:33:16.999Z</time></trkpt><trkpt lat="37.9861265677547" lon="12.89982282073036"><ele>135.0</ele><time>2026-04-28T08:33:17.999Z</time></trkpt><trkpt lat="37.98624965801334" lon="12.899888775559699"><ele>135.0</ele><time>2026-04-28T08:33:18.999Z</time></trkpt><trkpt lat="37.98634858539718" lon="12.89995312852415"><ele>135.0</ele><time>2026-04-28T08:33:19.999Z</time></trkpt><trkpt lat="37.98642428984865" lon="12.900018008251907"><ele>135.0</ele><time>2026-04-28T08:33:20.999Z</time></trkpt><trkpt lat="37.98647129378743" lon="12.900107992819386"><ele>135.0</ele><time>2026-04-28T08:33:24.999Z</time></trkpt><trkpt lat="37.986478626310166" lon="12.900198765416228"><ele>135.0</ele><time>2026-04-28T08:33:25.999Z</time></trkpt><trkpt lat="37.98651401582645" lon="12.900327460985231"><ele>135.0</ele><time>2026-04-28T08:33:26.999Z</time></trkpt><trkpt lat="37.98655245331396" lon="12.900521262935237"><ele>135.0</ele><time>2026-04-28T08:33:27.999Z</time></trkpt><trkpt lat="37.98660141586008" lon="12.900774371070204"><ele>135.0</ele><time>2026-04-28T08:33:28.999Z</time></trkpt><trkpt lat="37.98663891744882" lon="12.901059771718199"><ele>134.33333333333334</ele><time>2026-04-28T08:33:29.999Z</time></trkpt><trkpt lat="37.98667277110026" lon="12.901325974160796"><ele>133.66666666666669</ele><time>2026-04-28T08:33:30.999Z</time></trkpt><trkpt lat="37.986703322360725" lon="12.90152853233253"><ele>133.0</ele><time>2026-04-28T08:33:31.999Z</time></trkpt><trkpt lat="37.9867328941106" lon="12.901719400940914"><ele>134.75</ele><time>2026-04-28T08:33:32.999Z</time></trkpt><trkpt lat="37.986765947643065" lon="12.901899475807568"><ele>136.5</ele><time>2026-04-28T08:33:33.999Z</time></trkpt><trkpt lat="37.98681137198694" lon="12.902061661787464"><ele>138.25</ele><time>2026-04-28T08:33:34.999Z</time></trkpt><trkpt lat="37.986872235123805" lon="12.902206092126365"><ele>140.0</ele><time>2026-04-28T08:33:35.999Z</time></trkpt><trkpt lat="37.98698116478149" lon="12.902348689224903"><ele>140.0</ele><time>2026-04-28T08:33:36.999Z</time></trkpt><trkpt lat="37.98714650153817" lon="12.902539534637368"><ele>140.0</ele><time>2026-04-28T08:33:37.999Z</time></trkpt><trkpt lat="37.98735620380511" lon="12.902726765777384"><ele>140.5</ele><time>2026-04-28T08:33:38.999Z</time></trkpt><trkpt lat="37.987573624041374" lon="12.902967869143726"><ele>141.0</ele><time>2026-04-28T08:33:39.999Z</time></trkpt><trkpt lat="37.987792069323845" lon="12.903164598507031"><ele>141.0</ele><time>2026-04-28T08:33:40.999Z</time></trkpt><trkpt lat="37.98797890132716" lon="12.903338648580752"><ele>141.0</ele><time>2026-04-28T08:33:41.999Z</time></trkpt><trkpt lat="37.98813611332304" lon="12.903509178203555"><ele>141.0</ele><time>2026-04-28T08:33:42.999Z</time></trkpt><trkpt lat="37.988259534157784" lon="12.903698189487546"><ele>144.5</ele><time>2026-04-28T08:33:43.999Z</time></trkpt><trkpt lat="37.98837460466219" lon="12.903941124732738"><ele>148.0</ele><time>2026-04-28T08:33:44.999Z</time></trkpt><trkpt lat="37.988508587887765" lon="12.904210646631062"><ele>146.0</ele><time>2026-04-28T08:33:45.999Z</time></trkpt><trkpt lat="37.988615404895825" lon="12.904454749127902"><ele>144.0</ele><time>2026-04-28T08:33:46.999Z</time></trkpt><trkpt lat="37.988720031173834" lon="12.904652284067842"><ele>142.0</ele><time>2026-04-28T08:33:47.999Z</time></trkpt><trkpt lat="37.98881503181525" lon="12.904838434051502"><ele>142.0</ele><time>2026-04-28T08:33:48.999Z</time></trkpt><trkpt lat="37.98889021714496" lon="12.905004752987905"><ele>142.0</ele><time>2026-04-28T08:33:49.999Z</time></trkpt><trkpt lat="37.988955788488866" lon="12.905156606403544"><ele>142.0</ele><time>2026-04-28T08:33:50.999Z</time></trkpt><trkpt lat="37.98903502708277" lon="12.905282097822404"><ele>142.0</ele><time>2026-04-28T08:33:51.999Z</time></trkpt><trkpt lat="37.989125028363844" lon="12.905390492502418"><ele>142.0</ele><time>2026-04-28T08:33:52.999Z</time></trkpt><trkpt lat="37.98925131237192" lon="12.905450233984276"><ele>142.0</ele><time>2026-04-28T08:33:53.999Z</time></trkpt><trkpt lat="37.989398446820175" lon="12.90547217948768"><ele>142.0</ele><time>2026-04-28T08:33:54.999Z</time></trkpt><trkpt lat="37.98955500116398" lon="12.905482087964007"><ele>142.0</ele><time>2026-04-28T08:33:56Z</time></trkpt><trkpt lat="37.98971212330109" lon="12.905467348493868"><ele>142.0</ele><time>2026-04-28T08:33:57Z</time></trkpt><trkpt lat="37.98997045014045" lon="12.905417948148395"><ele>142.0</ele><time>2026-04-28T08:33:58Z</time></trkpt><trkpt lat="37.99024572158165" lon="12.905333728552767"><ele>148.0</ele><time>2026-04-28T08:33:59Z</time></trkpt><trkpt lat="37.99053046562567" lon="12.905276390629616"><ele>154.0</ele><time>2026-04-28T08:34:00Z</time></trkpt><trkpt lat="37.99079007791132" lon="12.905222046021098"><ele>157.5</ele><time>2026-04-28T08:34:01Z</time></trkpt><trkpt lat="37.99104816241349" lon="12.905179391708254"><ele>161.0</ele><time>2026-04-28T08:34:02Z</time></trkpt><trkpt lat="37.991284716954446" lon="12.905171935353236"><ele>161.0</ele><time>2026-04-28T08:34:03Z</time></trkpt><trkpt lat="37.99150250177443" lon="12.905167723112509"><ele>161.0</ele><time>2026-04-28T08:34:04Z</time></trkpt><trkpt lat="37.9917339370573" lon="12.905140000973981"><ele>158.33333333333331</ele><time>2026-04-28T08:34:05Z</time></trkpt><trkpt lat="37.99195890810872" lon="12.905135734528699"><ele>155.66666666666666</ele><time>2026-04-28T08:34:06Z</time></trkpt><trkpt lat="37.99217634161508" lon="12.905115580662635"><ele>153.0</ele><time>2026-04-28T08:34:07Z</time></trkpt><trkpt lat="37.99238864880376" lon="12.9050959019651"><ele>152.25</ele><time>2026-04-28T08:34:08Z</time></trkpt><trkpt lat="37.992558099626144" lon="12.905080195611308"><ele>151.5</ele><time>2026-04-28T08:34:09Z</time></trkpt><trkpt lat="37.99270127841347" lon="12.905065450951295"><ele>150.75</ele><time>2026-04-28T08:34:10Z</time></trkpt><trkpt lat="37.99283332406569" lon="12.905039784178376"><ele>150.0</ele><time>2026-04-28T08:34:11Z</time></trkpt><trkpt lat="37.992972532774324" lon="12.905029469016078"><ele>149.66666666666666</ele><time>2026-04-28T08:34:12Z</time></trkpt><trkpt lat="37.99307181883228" lon="12.904926500524702"><ele>149.33333333333331</ele><time>2026-04-28T08:34:13Z</time></trkpt><trkpt lat="37.99317589586914" lon="12.904800407486333"><ele>149.0</ele><time>2026-04-28T08:34:14Z</time></trkpt><trkpt lat="37.99328698884495" lon="12.904608620480037"><ele>148.0</ele><time>2026-04-28T08:34:15Z</time></trkpt><trkpt lat="37.9934390968919" lon="12.904390000492436"><ele>147.0</ele><time>2026-04-28T08:34:16Z</time></trkpt><trkpt lat="37.993601531321424" lon="12.904149490611356"><ele>147.0</ele><time>2026-04-28T08:34:17Z</time></trkpt><trkpt lat="37.993753927770406" lon="12.903867269188382"><ele>147.0</ele><time>2026-04-28T08:34:18Z</time></trkpt><trkpt lat="37.99390133755362" lon="12.903661388069011"><ele>147.0</ele><time>2026-04-28T08:34:19Z</time></trkpt><trkpt lat="37.994051258687314" lon="12.903476930817002"><ele>147.0</ele><time>2026-04-28T08:34:20Z</time></trkpt><trkpt lat="37.99417790032719" lon="12.90330095230626"><ele>147.0</ele><time>2026-04-28T08:34:21Z</time></trkpt><trkpt lat="37.99428558865268" lon="12.903139755356833"><ele>143.33333333333334</ele><time>2026-04-28T08:34:22Z</time></trkpt><trkpt lat="37.99439358195281" lon="12.902983166278393"><ele>139.66666666666669</ele><time>2026-04-28T08:34:23Z</time></trkpt><trkpt lat="37.994494389050665" lon="12.902841560250902"><ele>136.0</ele><time>2026-04-28T08:34:24Z</time></trkpt><trkpt lat="37.99461193998562" lon="12.902729447981384"><ele>136.0</ele><time>2026-04-28T08:34:25Z</time></trkpt><trkpt lat="37.994783962852225" lon="12.902705188667186"><ele>136.0</ele><time>2026-04-28T08:34:26Z</time></trkpt><trkpt lat="37.9949888544005" lon="12.902702553673816"><ele>136.0</ele><time>2026-04-28T08:34:27Z</time></trkpt><trkpt lat="37.99521499080531" lon="12.902699963213028"><ele>132.0</ele><time>2026-04-28T08:34:28Z</time></trkpt><trkpt lat="37.99549497068285" lon="12.90270002870016"><ele>128.0</ele><time>2026-04-28T08:34:29Z</time></trkpt><trkpt lat="37.99576787854238" lon="12.90272384420031"><ele>126.5</ele><time>2026-04-28T08:34:30Z</time></trkpt><trkpt lat="37.99600865229763" lon="12.902720942868868"><ele>125.0</ele><time>2026-04-28T08:34:31Z</time></trkpt><trkpt lat="37.996221362790465" lon="12.902690536642902"><ele>125.0</ele><time>2026-04-28T08:34:32Z</time></trkpt><trkpt lat="37.99641793236897" lon="12.902677722833422"><ele>125.0</ele><time>2026-04-28T08:34:33Z</time></trkpt><trkpt lat="37.99659557662991" lon="12.902676688097406"><ele>125.0</ele><time>2026-04-28T08:34:34Z</time></trkpt><trkpt lat="37.996762371510584" lon="12.90268753148408"><ele>124.25</ele><time>2026-04-28T08:34:35Z</time></trkpt><trkpt lat="37.99691145656672" lon="12.902661904983628"><ele>123.5</ele><time>2026-04-28T08:34:36Z</time></trkpt><trkpt lat="37.9970536527599" lon="12.90267013720542"><ele>122.75</ele><time>2026-04-28T08:34:37Z</time></trkpt><trkpt lat="37.99719103437006" lon="12.902647194105135"><ele>122.0</ele><time>2026-04-28T08:34:38Z</time></trkpt><trkpt lat="37.99732707182681" lon="12.902633341070704"><ele>122.0</ele><time>2026-04-28T08:34:39Z</time></trkpt><trkpt lat="37.99747341353036" lon="12.902603706652595"><ele>122.0</ele><time>2026-04-28T08:34:40Z</time></trkpt><trkpt lat="37.99762949581588" lon="12.902498833183639"><ele>122.0</ele><time>2026-04-28T08:34:41Z</time></trkpt><trkpt lat="37.997784505728326" lon="12.902367782100262"><ele>119.5</ele><time>2026-04-28T08:34:42Z</time></trkpt><trkpt lat="37.997951622627255" lon="12.902190028276227"><ele>117.0</ele><time>2026-04-28T08:34:43Z</time></trkpt><trkpt lat="37.99823600281406" lon="12.902558285361728"><ele>109.0</ele><time>2026-04-28T08:34:44Z</time></trkpt><trkpt lat="37.9983414453026" lon="12.901826120750197"><ele>111.5</ele><time>2026-04-28T08:34:45Z</time></trkpt><trkpt lat="37.99854974177043" lon="12.901626489763181"><ele>114.0</ele><time>2026-04-28T08:34:46Z</time></trkpt><trkpt lat="37.9987297198463" lon="12.901452285199333"><ele>114.0</ele><time>2026-04-28T08:34:47Z</time></trkpt><trkpt lat="37.99889390614397" lon="12.90129462057324"><ele>114.0</ele><time>2026-04-28T08:34:48Z</time></trkpt><trkpt lat="37.99904674778586" lon="12.901153207239476"><ele>114.0</ele><time>2026-04-28T08:34:49Z</time></trkpt><trkpt lat="37.99917906582826" lon="12.901029915710534"><ele>113.0</ele><time>2026-04-28T08:34:50Z</time></trkpt><trkpt lat="37.99931049811917" lon="12.900900953628287"><ele>112.0</ele><time>2026-04-28T08:34:51Z</time></trkpt><trkpt lat="37.99942466170886" lon="12.900745239429195"><ele>111.0</ele><time>2026-04-28T08:34:52Z</time></trkpt><trkpt lat="37.99952771065678" lon="12.900568695407854"><ele>111.0</ele><time>2026-04-28T08:34:53Z</time></trkpt><trkpt lat="37.99962729801396" lon="12.900407252921536"><ele>111.0</ele><time>2026-04-28T08:34:54Z</time></trkpt><trkpt lat="37.999714563608215" lon="12.90025200905028"><ele>111.0</ele><time>2026-04-28T08:34:55Z</time></trkpt><trkpt lat="37.99982211996308" lon="12.900090879661597"><ele>112.66666666666666</ele><time>2026-04-28T08:34:56Z</time></trkpt><trkpt lat="37.999920225882065" lon="12.899934773390159"><ele>114.33333333333333</ele><time>2026-04-28T08:34:57Z</time></trkpt><trkpt lat="38.000028224788274" lon="12.899783458991664"><ele>116.0</ele><time>2026-04-28T08:34:58Z</time></trkpt><trkpt lat="38.00015194185211" lon="12.899645256223836"><ele>116.0</ele><time>2026-04-28T08:34:59Z</time></trkpt><trkpt lat="38.00028550604737" lon="12.89951539700378"><ele>116.0</ele><time>2026-04-28T08:35:00Z</time></trkpt><trkpt lat="38.00042357394474" lon="12.899393956661457"><ele>116.0</ele><time>2026-04-28T08:35:01Z</time></trkpt><trkpt lat="38.00056921545005" lon="12.899273730059345"><ele>116.33333333333333</ele><time>2026-04-28T08:35:02Z</time></trkpt><trkpt lat="38.0007139567552" lon="12.899152187281413"><ele>116.66666666666666</ele><time>2026-04-28T08:35:03Z</time></trkpt><trkpt lat="38.00085759310709" lon="12.899030853995356"><ele>117.0</ele><time>2026-04-28T08:35:04Z</time></trkpt><trkpt lat="38.00100002915277" lon="12.898918422342387"><ele>117.0</ele><time>2026-04-28T08:35:05Z</time></trkpt><trkpt lat="38.001144384082075" lon="12.898799923601983"><ele>117.0</ele><time>2026-04-28T08:35:06Z</time></trkpt><trkpt lat="38.00129578300097" lon="12.89867193844032"><ele>117.0</ele><time>2026-04-28T08:35:07Z</time></trkpt><trkpt lat="38.001450598950115" lon="12.898534628660899"><ele>117.0</ele><time>2026-04-28T08:35:08Z</time></trkpt><trkpt lat="38.001605493810416" lon="12.898401494203526"><ele>117.0</ele><time>2026-04-28T08:35:09Z</time></trkpt><trkpt lat="38.00176799052515" lon="12.898263994241221"><ele>117.0</ele><time>2026-04-28T08:35:10Z</time></trkpt><trkpt lat="38.00193271777171" lon="12.898122100023441"><ele>117.0</ele><time>2026-04-28T08:35:11Z</time></trkpt><trkpt lat="38.00210095890776" lon="12.89798385002419"><ele>117.0</ele><time>2026-04-28T08:35:12Z</time></trkpt><trkpt lat="38.002271507659344" lon="12.897834173255141"><ele>117.0</ele><time>2026-04-28T08:35:13Z</time></trkpt><trkpt lat="38.00243791687166" lon="12.897693848049563"><ele>117.0</ele><time>2026-04-28T08:35:14Z</time></trkpt><trkpt lat="38.00259922541967" lon="12.897566711509258"><ele>117.0</ele><time>2026-04-28T08:35:15Z</time></trkpt><trkpt lat="38.00274223549498" lon="12.897427949143392"><ele>117.0</ele><time>2026-04-28T08:35:16Z</time></trkpt><trkpt lat="38.00289558282544" lon="12.897294110252485"><ele>117.0</ele><time>2026-04-28T08:35:17Z</time></trkpt><trkpt lat="38.0030654766982" lon="12.897169154471438"><ele>117.0</ele><time>2026-04-28T08:35:18Z</time></trkpt><trkpt lat="38.00322993010486" lon="12.897081385937163"><ele>117.0</ele><time>2026-04-28T08:35:19Z</time></trkpt><trkpt lat="38.00341240552872" lon="12.897023685739729"><ele>114.33333333333334</ele><time>2026-04-28T08:35:20Z</time></trkpt><trkpt lat="38.003598915094486" lon="12.896995856672099"><ele>111.66666666666667</ele><time>2026-04-28T08:35:20.999Z</time></trkpt><trkpt lat="38.00378008582245" lon="12.896979174928402"><ele>109.0</ele><time>2026-04-28T08:35:21.999Z</time></trkpt><trkpt lat="38.00394978068128" lon="12.896965842518263"><ele>109.0</ele><time>2026-04-28T08:35:22.999Z</time></trkpt><trkpt lat="38.00410650102609" lon="12.89694079208158"><ele>109.0</ele><time>2026-04-28T08:35:23.999Z</time></trkpt><trkpt lat="38.00425753093388" lon="12.896916253565017"><ele>109.0</ele><time>2026-04-28T08:35:24.999Z</time></trkpt><trkpt lat="38.00439861586272" lon="12.896900886892551"><ele>110.33333333333334</ele><time>2026-04-28T08:35:25.999Z</time></trkpt><trkpt lat="38.00453812438022" lon="12.89687118055927"><ele>111.66666666666666</ele><time>2026-04-28T08:35:26.999Z</time></trkpt><trkpt lat="38.004698419828244" lon="12.896815742807243"><ele>113.0</ele><time>2026-04-28T08:35:27.999Z</time></trkpt><trkpt lat="38.00485578686266" lon="12.896721946750878"><ele>110.66666666666666</ele><time>2026-04-28T08:35:28.999Z</time></trkpt><trkpt lat="38.00500695604651" lon="12.896593808894849"><ele>108.33333333333334</ele><time>2026-04-28T08:35:29.999Z</time></trkpt><trkpt lat="38.00515394139312" lon="12.896480719995962"><ele>106.0</ele><time>2026-04-28T08:35:30.999Z</time></trkpt><trkpt lat="38.00529366510635" lon="12.896380083025031"><ele>106.0</ele><time>2026-04-28T08:35:31.999Z</time></trkpt><trkpt lat="38.00542762432836" lon="12.89627045390242"><ele>106.0</ele><time>2026-04-28T08:35:32.999Z</time></trkpt><trkpt lat="38.00555819444139" lon="12.896163890744495"><ele>106.0</ele><time>2026-04-28T08:35:33.999Z</time></trkpt><trkpt lat="38.00571097121321" lon="12.89605273547561"><ele>106.0</ele><time>2026-04-28T08:35:34.999Z</time></trkpt><trkpt lat="38.00586924092649" lon="12.895940373384086"><ele>106.0</ele><time>2026-04-28T08:35:35.999Z</time></trkpt><trkpt lat="38.006021705563505" lon="12.89582307418734"><ele>106.0</ele><time>2026-04-28T08:35:36.999Z</time></trkpt><trkpt lat="38.00617824641594" lon="12.895695088086661"><ele>106.0</ele><time>2026-04-28T08:35:37.999Z</time></trkpt><trkpt lat="38.00634402306368" lon="12.895583206149983"><ele>106.0</ele><time>2026-04-28T08:35:38.999Z</time></trkpt><trkpt lat="38.006504664498266" lon="12.895463613726664"><ele>106.0</ele><time>2026-04-28T08:35:39.999Z</time></trkpt><trkpt lat="38.00665384362561" lon="12.895349152715884"><ele>105.66666666666667</ele><time>2026-04-28T08:35:40.999Z</time></trkpt><trkpt lat="38.00680587954296" lon="12.895231271055458"><ele>105.33333333333334</ele><time>2026-04-28T08:35:41.999Z</time></trkpt><trkpt lat="38.00693823522418" lon="12.89512482686572"><ele>105.0</ele><time>2026-04-28T08:35:42.999Z</time></trkpt><trkpt lat="38.00705528591448" lon="12.895017440441435"><ele>105.0</ele><time>2026-04-28T08:35:43.999Z</time></trkpt><trkpt lat="38.00716446367274" lon="12.8949109626435"><ele>105.0</ele><time>2026-04-28T08:35:44.999Z</time></trkpt><trkpt lat="38.00727655565202" lon="12.894785242221507"><ele>105.0</ele><time>2026-04-28T08:35:45.999Z</time></trkpt><trkpt lat="38.007388136721886" lon="12.89463400885359"><ele>105.0</ele><time>2026-04-28T08:35:46.999Z</time></trkpt><trkpt lat="38.007498640249906" lon="12.894482102401224"><ele>105.0</ele><time>2026-04-28T08:35:47.999Z</time></trkpt><trkpt lat="38.00760008128165" lon="12.894344197296025"><ele>105.0</ele><time>2026-04-28T08:35:48.999Z</time></trkpt><trkpt lat="38.00769357116692" lon="12.894217779704178"><ele>105.0</ele><time>2026-04-28T08:35:49.999Z</time></trkpt><trkpt lat="38.00779320156568" lon="12.894112799448427"><ele>105.0</ele><time>2026-04-28T08:35:50.999Z</time></trkpt><trkpt lat="38.00786767805085" lon="12.893994352902345"><ele>105.0</ele><time>2026-04-28T08:35:51.999Z</time></trkpt><trkpt lat="38.007944796438984" lon="12.893893315887826"><ele>105.0</ele><time>2026-04-28T08:35:52.999Z</time></trkpt><trkpt lat="38.00800452673003" lon="12.893810244843683"><ele>105.0</ele><time>2026-04-28T08:35:53.999Z</time></trkpt><trkpt lat="38.008060220853295" lon="12.893746669534698"><ele>105.0</ele><time>2026-04-28T08:35:54.999Z</time></trkpt><trkpt lat="38.0081546093921" lon="12.89362912823184"><ele>105.0</ele><time>2026-04-28T08:35:56.999Z</time></trkpt><trkpt lat="38.008228191773526" lon="12.893515116188642"><ele>105.0</ele><time>2026-04-28T08:35:57.999Z</time></trkpt><trkpt lat="38.00830971653767" lon="12.893404193791103"><ele>105.0</ele><time>2026-04-28T08:35:58.999Z</time></trkpt><trkpt lat="38.00838910304208" lon="12.893294217347785"><ele>105.0</ele><time>2026-04-28T08:35:59.999Z</time></trkpt><trkpt lat="38.008474503311035" lon="12.893201357296757"><ele>104.4</ele><time>2026-04-28T08:36:00.999Z</time></trkpt><trkpt lat="38.00854288795993" lon="12.893119171305386"><ele>103.8</ele><time>2026-04-28T08:36:02Z</time></trkpt><trkpt lat="38.008601268842405" lon="12.893023695444183"><ele>103.19999999999999</ele><time>2026-04-28T08:36:03Z</time></trkpt><trkpt lat="38.00866329147968" lon="12.892930039713741"><ele>102.6</ele><time>2026-04-28T08:36:04Z</time></trkpt><trkpt lat="38.00874698622162" lon="12.892835197834065"><ele>102.0</ele><time>2026-04-28T08:36:05Z</time></trkpt><trkpt lat="38.0088247637111" lon="12.89271867317388"><ele>102.66666666666666</ele><time>2026-04-28T08:36:06Z</time></trkpt><trkpt lat="38.00892677660393" lon="12.892588967799917"><ele>103.33333333333333</ele><time>2026-04-28T08:36:07Z</time></trkpt><trkpt lat="38.00903433326724" lon="12.892438386220174"><ele>104.0</ele><time>2026-04-28T08:36:08Z</time></trkpt><trkpt lat="38.0091461954724" lon="12.892259992736335"><ele>102.33333333333333</ele><time>2026-04-28T08:36:09Z</time></trkpt><trkpt lat="38.00927380869964" lon="12.89208366358422"><ele>100.66666666666666</ele><time>2026-04-28T08:36:10Z</time></trkpt><trkpt lat="38.00939092559517" lon="12.891934939692076"><ele>99.0</ele><time>2026-04-28T08:36:11Z</time></trkpt><trkpt lat="38.00948599176145" lon="12.89179346724291"><ele>99.75</ele><time>2026-04-28T08:36:12Z</time></trkpt><trkpt lat="38.00958525689356" lon="12.891672337016875"><ele>100.5</ele><time>2026-04-28T08:36:13Z</time></trkpt><trkpt lat="38.009667181634434" lon="12.891546771664954"><ele>101.25</ele><time>2026-04-28T08:36:14Z</time></trkpt><trkpt lat="38.00974545464707" lon="12.891437791350388"><ele>102.0</ele><time>2026-04-28T08:36:15Z</time></trkpt><trkpt lat="38.009822786878296" lon="12.891341660739133"><ele>102.0</ele><time>2026-04-28T08:36:16Z</time></trkpt><trkpt lat="38.00989297512859" lon="12.891256430602366"><ele>102.0</ele><time>2026-04-28T08:36:17Z</time></trkpt><trkpt lat="38.00996513797637" lon="12.891164689946185"><ele>102.0</ele><time>2026-04-28T08:36:18Z</time></trkpt><trkpt lat="38.01003978195804" lon="12.891069940323236"><ele>102.0</ele><time>2026-04-28T08:36:19Z</time></trkpt><trkpt lat="38.01013003093638" lon="12.890991272015425"><ele>102.0</ele><time>2026-04-28T08:36:20Z</time></trkpt><trkpt lat="38.01022307651338" lon="12.890936102211555"><ele>102.0</ele><time>2026-04-28T08:36:21Z</time></trkpt><trkpt lat="38.01032009290418" lon="12.890902998853678"><ele>102.0</ele><time>2026-04-28T08:36:22Z</time></trkpt><trkpt lat="38.01040683142329" lon="12.890876980122792"><ele>102.0</ele><time>2026-04-28T08:36:23Z</time></trkpt><trkpt lat="38.01047899483846" lon="12.890857591866885"><ele>102.0</ele><time>2026-04-28T08:36:24Z</time></trkpt><trkpt lat="38.010543246556466" lon="12.890832136392278"><ele>102.0</ele><time>2026-04-28T08:36:25Z</time></trkpt><trkpt lat="38.01060178001444" lon="12.890802632207926"><ele>102.0</ele><time>2026-04-28T08:36:26Z</time></trkpt><trkpt lat="38.010718185921036" lon="12.890754638175048"><ele>102.0</ele><time>2026-04-28T08:36:28Z</time></trkpt><trkpt lat="38.01080632641493" lon="12.890719808395547"><ele>102.0</ele><time>2026-04-28T08:36:29Z</time></trkpt><trkpt lat="38.01090807736562" lon="12.890686115923309"><ele>102.0</ele><time>2026-04-28T08:36:30Z</time></trkpt><trkpt lat="38.011021059020564" lon="12.890646452227127"><ele>102.0</ele><time>2026-04-28T08:36:31Z</time></trkpt><trkpt lat="38.0111519067836" lon="12.890600237071881"><ele>100.0</ele><time>2026-04-28T08:36:32Z</time></trkpt><trkpt lat="38.011281390651504" lon="12.89053929429899"><ele>98.0</ele><time>2026-04-28T08:36:33Z</time></trkpt><trkpt lat="38.011418489052566" lon="12.890489848405142"><ele>96.0</ele><time>2026-04-28T08:36:34Z</time></trkpt><trkpt lat="38.0115869185366" lon="12.890450046397522"><ele>95.0</ele><time>2026-04-28T08:36:35Z</time></trkpt><trkpt lat="38.01176266451081" lon="12.89040464511604"><ele>94.0</ele><time>2026-04-28T08:36:36Z</time></trkpt><trkpt lat="38.01196344159378" lon="12.890339359906429"><ele>93.0</ele><time>2026-04-28T08:36:37Z</time></trkpt><trkpt lat="38.01216189897624" lon="12.890250108781268"><ele>93.0</ele><time>2026-04-28T08:36:38Z</time></trkpt><trkpt lat="38.01236611264326" lon="12.890170238716061"><ele>93.0</ele><time>2026-04-28T08:36:39Z</time></trkpt><trkpt lat="38.01256109790492" lon="12.890093029798557"><ele>93.0</ele><time>2026-04-28T08:36:40Z</time></trkpt><trkpt lat="38.012743389724235" lon="12.890011198726341"><ele>93.66666666666667</ele><time>2026-04-28T08:36:41Z</time></trkpt><trkpt lat="38.012891724293965" lon="12.889932831222708"><ele>94.33333333333334</ele><time>2026-04-28T08:36:42Z</time></trkpt><trkpt lat="38.013041301662525" lon="12.889869633242718"><ele>95.0</ele><time>2026-04-28T08:36:43Z</time></trkpt><trkpt lat="38.01318023741221" lon="12.889801857575597"><ele>95.0</ele><time>2026-04-28T08:36:44Z</time></trkpt><trkpt lat="38.01329785048478" lon="12.889728504803033"><ele>95.0</ele><time>2026-04-28T08:36:45Z</time></trkpt><trkpt lat="38.013414701922365" lon="12.88968667949479"><ele>95.0</ele><time>2026-04-28T08:36:46Z</time></trkpt><trkpt lat="38.01355699910464" lon="12.88964313790947"><ele>95.0</ele><time>2026-04-28T08:36:47Z</time></trkpt><trkpt lat="38.01369378330076" lon="12.88957655302444"><ele>94.66666666666667</ele><time>2026-04-28T08:36:48Z</time></trkpt><trkpt lat="38.013847958386734" lon="12.8894739651923"><ele>94.33333333333333</ele><time>2026-04-28T08:36:49Z</time></trkpt><trkpt lat="38.01398084948088" lon="12.889365999749748"><ele>94.0</ele><time>2026-04-28T08:36:50Z</time></trkpt><trkpt lat="38.01409804521152" lon="12.889255605317656"><ele>93.75</ele><time>2026-04-28T08:36:51Z</time></trkpt><trkpt lat="38.01420554172565" lon="12.88915358543182"><ele>93.5</ele><time>2026-04-28T08:36:52Z</time></trkpt><trkpt lat="38.01430565413824" lon="12.88906393444688"><ele>93.25</ele><time>2026-04-28T08:36:53Z</time></trkpt><trkpt lat="38.014398283573726" lon="12.888994205013207"><ele>93.0</ele><time>2026-04-28T08:36:54Z</time></trkpt><trkpt lat="38.014501528740794" lon="12.888915940206331"><ele>93.0</ele><time>2026-04-28T08:36:55Z</time></trkpt><trkpt lat="38.01460659151247" lon="12.888835988742704"><ele>93.0</ele><time>2026-04-28T08:36:56Z</time></trkpt><trkpt lat="38.014703211771675" lon="12.888763744770996"><ele>93.0</ele><time>2026-04-28T08:36:57Z</time></trkpt><trkpt lat="38.01478698380266" lon="12.888727830796075"><ele>93.0</ele><time>2026-04-28T08:36:58Z</time></trkpt><trkpt lat="38.01485033331452" lon="12.888662560646772"><ele>93.0</ele><time>2026-04-28T08:36:59Z</time></trkpt><trkpt lat="38.01490519393728" lon="12.888606567083368"><ele>93.0</ele><time>2026-04-28T08:37:00Z</time></trkpt><trkpt lat="38.014967008853276" lon="12.888558118860994"><ele>93.0</ele><time>2026-04-28T08:37:01Z</time></trkpt><trkpt lat="38.01504620533938" lon="12.888505238651197"><ele>93.0</ele><time>2026-04-28T08:37:03Z</time></trkpt><trkpt lat="38.01512582729258" lon="12.88844483496919"><ele>93.0</ele><time>2026-04-28T08:37:05Z</time></trkpt><trkpt lat="38.015182571779384" lon="12.888401826192517"><ele>93.0</ele><time>2026-04-28T08:37:06Z</time></trkpt><trkpt lat="38.01527899732974" lon="12.888311481058656"><ele>93.0</ele><time>2026-04-28T08:37:08Z</time></trkpt><trkpt lat="38.015382361978034" lon="12.888239770135389"><ele>93.0</ele><time>2026-04-28T08:37:10Z</time></trkpt><trkpt lat="38.015480848311725" lon="12.888149357333482"><ele>93.0</ele><time>2026-04-28T08:37:12Z</time></trkpt><trkpt lat="38.015581554445916" lon="12.888063854799551"><ele>93.0</ele><time>2026-04-28T08:37:14Z</time></trkpt><trkpt lat="38.015656368523004" lon="12.887990886004983"><ele>93.0</ele><time>2026-04-28T08:37:15Z</time></trkpt><trkpt lat="38.01577160518568" lon="12.887925229582669"><ele>91.5</ele><time>2026-04-28T08:37:16Z</time></trkpt><trkpt lat="38.015871484507855" lon="12.887875125583806"><ele>90.0</ele><time>2026-04-28T08:37:17Z</time></trkpt><trkpt lat="38.015981416996645" lon="12.887818155245078"><ele>88.5</ele><time>2026-04-28T08:37:18Z</time></trkpt><trkpt lat="38.0160974192401" lon="12.887749741924768"><ele>87.0</ele><time>2026-04-28T08:37:19Z</time></trkpt><trkpt lat="38.016202975427696" lon="12.887687936065896"><ele>87.0</ele><time>2026-04-28T08:37:20Z</time></trkpt><trkpt lat="38.01631373611686" lon="12.887630906967907"><ele>87.0</ele><time>2026-04-28T08:37:21Z</time></trkpt><trkpt lat="38.01643135324454" lon="12.887596538462732"><ele>87.0</ele><time>2026-04-28T08:37:22Z</time></trkpt><trkpt lat="38.016543015914436" lon="12.887569148977247"><ele>87.0</ele><time>2026-04-28T08:37:23Z</time></trkpt><trkpt lat="38.016643699677466" lon="12.887547441199082"><ele>87.66666666666667</ele><time>2026-04-28T08:37:24Z</time></trkpt><trkpt lat="38.01673056791863" lon="12.887518457458826"><ele>88.33333333333333</ele><time>2026-04-28T08:37:25Z</time></trkpt><trkpt lat="38.01681749563211" lon="12.887492577689732"><ele>89.0</ele><time>2026-04-28T08:37:25.999Z</time></trkpt><trkpt lat="38.01690683110957" lon="12.887464931685406"><ele>89.66666666666666</ele><time>2026-04-28T08:37:26.999Z</time></trkpt><trkpt lat="38.01698401773095" lon="12.887442421466295"><ele>90.33333333333333</ele><time>2026-04-28T08:37:27.999Z</time></trkpt><trkpt lat="38.017054699536956" lon="12.887423512399693"><ele>91.0</ele><time>2026-04-28T08:37:28.999Z</time></trkpt><trkpt lat="38.01712056724004" lon="12.887397819194467"><ele>91.0</ele><time>2026-04-28T08:37:29.999Z</time></trkpt><trkpt lat="38.0171975574063" lon="12.887381366631928"><ele>91.0</ele><time>2026-04-28T08:37:32.999Z</time></trkpt><trkpt lat="38.0172832965381" lon="12.887393737296346"><ele>91.0</ele><time>2026-04-28T08:37:35.999Z</time></trkpt><trkpt lat="38.01735795447976" lon="12.88738806936136"><ele>91.0</ele><time>2026-04-28T08:37:37.999Z</time></trkpt><trkpt lat="38.017422296365346" lon="12.887256127019818"><ele>91.0</ele><time>2026-04-28T08:37:39.999Z</time></trkpt><trkpt lat="38.0174369229631" lon="12.887172905700764"><ele>91.0</ele><time>2026-04-28T08:37:40.999Z</time></trkpt><trkpt lat="38.017447713854565" lon="12.887084069105867"><ele>91.0</ele><time>2026-04-28T08:37:41.999Z</time></trkpt><trkpt lat="38.01745761108572" lon="12.887003390684981"><ele>91.0</ele><time>2026-04-28T08:37:42.999Z</time></trkpt><trkpt lat="38.01746090455831" lon="12.886916202983453"><ele>91.0</ele><time>2026-04-28T08:37:43.999Z</time></trkpt><trkpt lat="38.01747259756334" lon="12.886828417673867"><ele>91.0</ele><time>2026-04-28T08:37:44.999Z</time></trkpt><trkpt lat="38.01749467587537" lon="12.886682428632428"><ele>91.0</ele><time>2026-04-28T08:37:46.999Z</time></trkpt><trkpt lat="38.01750835600296" lon="12.886538427996706"><ele>91.0</ele><time>2026-04-28T08:37:48.999Z</time></trkpt><trkpt lat="38.01752395688873" lon="12.886416502422525"><ele>91.0</ele><time>2026-04-28T08:37:50.999Z</time></trkpt><trkpt lat="38.017533991982745" lon="12.886269620146077"><ele>91.0</ele><time>2026-04-28T08:37:52.999Z</time></trkpt><trkpt lat="38.01754705535527" lon="12.886185573159626"><ele>91.0</ele><time>2026-04-28T08:37:53.999Z</time></trkpt><trkpt lat="38.017559697033" lon="12.886095527097888"><ele>91.0</ele><time>2026-04-28T08:37:54.999Z</time></trkpt><trkpt lat="38.01756939508289" lon="12.885994516465072"><ele>91.0</ele><time>2026-04-28T08:37:55.999Z</time></trkpt><trkpt lat="38.01758504826833" lon="12.885891184450925"><ele>91.0</ele><time>2026-04-28T08:37:56.999Z</time></trkpt><trkpt lat="38.01758976612944" lon="12.885808063767971"><ele>91.0</ele><time>2026-04-28T08:37:57.999Z</time></trkpt><trkpt lat="38.01761303705236" lon="12.885656525389392"><ele>91.0</ele><time>2026-04-28T08:37:59.999Z</time></trkpt><trkpt lat="38.017626008691195" lon="12.88557048142009"><ele>91.0</ele><time>2026-04-28T08:38:00.999Z</time></trkpt><trkpt lat="38.0176334046199" lon="12.885483787672356"><ele>91.0</ele><time>2026-04-28T08:38:01.999Z</time></trkpt><trkpt lat="38.01765263677578" lon="12.885401980820737"><ele>91.0</ele><time>2026-04-28T08:38:02.999Z</time></trkpt><trkpt lat="38.01767476114972" lon="12.885262482585537"><ele>91.0</ele><time>2026-04-28T08:38:04.999Z</time></trkpt><trkpt lat="38.01768945690456" lon="12.885114052866735"><ele>92.0</ele><time>2026-04-28T08:38:06.999Z</time></trkpt><trkpt lat="38.017701844052716" lon="12.884973365227088"><ele>93.0</ele><time>2026-04-28T08:38:09Z</time></trkpt><trkpt lat="38.0177325368358" lon="12.884829046289138"><ele>94.0</ele><time>2026-04-28T08:38:11Z</time></trkpt><trkpt lat="38.017746841882065" lon="12.884742121428564"><ele>95.0</ele><time>2026-04-28T08:38:12Z</time></trkpt><trkpt lat="38.01777655026558" lon="12.884610551230066"><ele>96.0</ele><time>2026-04-28T08:38:14Z</time></trkpt><trkpt lat="38.017805644269046" lon="12.88453490714585"><ele>96.0</ele><time>2026-04-28T08:38:15Z</time></trkpt><trkpt lat="38.01784607876911" lon="12.884433218343602"><ele>96.0</ele><time>2026-04-28T08:38:16Z</time></trkpt><trkpt lat="38.01791657442577" lon="12.8842644254508"><ele>96.0</ele><time>2026-04-28T08:38:17Z</time></trkpt><trkpt lat="38.01797879969657" lon="12.88409153728321"><ele>96.0</ele><time>2026-04-28T08:38:18Z</time></trkpt><trkpt lat="38.01804590706239" lon="12.883909383517334"><ele>99.66666666666666</ele><time>2026-04-28T08:38:19Z</time></trkpt><trkpt lat="38.018105346664804" lon="12.88369754175453"><ele>103.33333333333333</ele><time>2026-04-28T08:38:20Z</time></trkpt><trkpt lat="38.01820588512769" lon="12.88343100940834"><ele>107.0</ele><time>2026-04-28T08:38:21Z</time></trkpt><trkpt lat="38.01828509866871" lon="12.88313514543313"><ele>108.0</ele><time>2026-04-28T08:38:22Z</time></trkpt><trkpt lat="38.01835109525279" lon="12.882911152954147"><ele>109.0</ele><time>2026-04-28T08:38:23Z</time></trkpt><trkpt lat="38.01840515545152" lon="12.882720130059573"><ele>110.0</ele><time>2026-04-28T08:38:24Z</time></trkpt><trkpt lat="38.01846252222174" lon="12.882534366158033"><ele>110.0</ele><time>2026-04-28T08:38:25Z</time></trkpt><trkpt lat="38.01850686644409" lon="12.882379040111779"><ele>110.0</ele><time>2026-04-28T08:38:26Z</time></trkpt><trkpt lat="38.01855801026898" lon="12.882224661501299"><ele>110.0</ele><time>2026-04-28T08:38:27Z</time></trkpt><trkpt lat="38.018618502384044" lon="12.88207043897717"><ele>110.0</ele><time>2026-04-28T08:38:28Z</time></trkpt><trkpt lat="38.018682527375404" lon="12.88190254919631"><ele>112.33333333333333</ele><time>2026-04-28T08:38:29Z</time></trkpt><trkpt lat="38.018745091378925" lon="12.881723356969689"><ele>114.66666666666666</ele><time>2026-04-28T08:38:30Z</time></trkpt><trkpt lat="38.0188139540043" lon="12.881537087355973"><ele>117.0</ele><time>2026-04-28T08:38:31Z</time></trkpt><trkpt lat="38.01887633815674" lon="12.881340840260885"><ele>117.0</ele><time>2026-04-28T08:38:32Z</time></trkpt><trkpt lat="38.01895984037002" lon="12.881148188735322"><ele>117.0</ele><time>2026-04-28T08:38:33Z</time></trkpt><trkpt lat="38.01901075275523" lon="12.880942704901472"><ele>117.0</ele><time>2026-04-28T08:38:34Z</time></trkpt><trkpt lat="38.01908465759074" lon="12.880755416240449"><ele>114.75</ele><time>2026-04-28T08:38:35Z</time></trkpt><trkpt lat="38.01914268520242" lon="12.880577252865669"><ele>112.5</ele><time>2026-04-28T08:38:36Z</time></trkpt><trkpt lat="38.019187479054715" lon="12.880427685960392"><ele>110.25</ele><time>2026-04-28T08:38:37Z</time></trkpt><trkpt lat="38.019228146601" lon="12.88027943084422"><ele>108.0</ele><time>2026-04-28T08:38:38Z</time></trkpt><trkpt lat="38.01927399929229" lon="12.880144841649475"><ele>109.75</ele><time>2026-04-28T08:38:39Z</time></trkpt><trkpt lat="38.019330766540364" lon="12.880003894520673"><ele>111.5</ele><time>2026-04-28T08:38:40Z</time></trkpt><trkpt lat="38.0193793895317" lon="12.879853337599599"><ele>113.25</ele><time>2026-04-28T08:38:41Z</time></trkpt><trkpt lat="38.01943228981074" lon="12.879705948940666"><ele>115.0</ele><time>2026-04-28T08:38:42Z</time></trkpt><trkpt lat="38.01949017645692" lon="12.879543015674239"><ele>115.0</ele><time>2026-04-28T08:38:43Z</time></trkpt><trkpt lat="38.01956854423783" lon="12.879380774628462"><ele>115.0</ele><time>2026-04-28T08:38:44Z</time></trkpt><trkpt lat="38.01964579050096" lon="12.879214903621724"><ele>115.0</ele><time>2026-04-28T08:38:45Z</time></trkpt><trkpt lat="38.01976759953151" lon="12.879050488642408"><ele>110.0</ele><time>2026-04-28T08:38:46Z</time></trkpt><trkpt lat="38.01991454258144" lon="12.878817834852793"><ele>105.0</ele><time>2026-04-28T08:38:47Z</time></trkpt><trkpt lat="38.02007035189652" lon="12.878625270744402"><ele>105.0</ele><time>2026-04-28T08:38:48Z</time></trkpt><trkpt lat="38.02018682044394" lon="12.878443606298132"><ele>105.0</ele><time>2026-04-28T08:38:49Z</time></trkpt><trkpt lat="38.02027817782863" lon="12.878293456991525"><ele>105.0</ele><time>2026-04-28T08:38:50Z</time></trkpt><trkpt lat="38.020363999511275" lon="12.878148965474074"><ele>107.66666666666666</ele><time>2026-04-28T08:38:51Z</time></trkpt><trkpt lat="38.02045918627044" lon="12.87800534374314"><ele>110.33333333333333</ele><time>2026-04-28T08:38:52Z</time></trkpt><trkpt lat="38.020579949660586" lon="12.877831195336386"><ele>113.0</ele><time>2026-04-28T08:38:53Z</time></trkpt><trkpt lat="38.02069905034993" lon="12.877654418729131"><ele>115.33333333333333</ele><time>2026-04-28T08:38:54Z</time></trkpt><trkpt lat="38.02078751487656" lon="12.877518024465054"><ele>117.66666666666666</ele><time>2026-04-28T08:38:55Z</time></trkpt><trkpt lat="38.02087921025258" lon="12.877369383169137"><ele>120.0</ele><time>2026-04-28T08:38:56Z</time></trkpt><trkpt lat="38.02101011598104" lon="12.877224539455261"><ele>120.0</ele><time>2026-04-28T08:38:57Z</time></trkpt><trkpt lat="38.021176885838884" lon="12.877031514006633"><ele>120.0</ele><time>2026-04-28T08:38:58Z</time></trkpt><trkpt lat="38.02133997591483" lon="12.87678563880459"><ele>122.33333333333334</ele><time>2026-04-28T08:38:59Z</time></trkpt><trkpt lat="38.02148086825709" lon="12.876543301259733"><ele>124.66666666666667</ele><time>2026-04-28T08:39:00Z</time></trkpt><trkpt lat="38.02160259430702" lon="12.876348846567732"><ele>127.0</ele><time>2026-04-28T08:39:01Z</time></trkpt><trkpt lat="38.0217144075097" lon="12.876179214928877"><ele>127.0</ele><time>2026-04-28T08:39:02Z</time></trkpt><trkpt lat="38.02180899409927" lon="12.876002994711376"><ele>127.0</ele><time>2026-04-28T08:39:03Z</time></trkpt><trkpt lat="38.02190340194979" lon="12.875849191495767"><ele>127.0</ele><time>2026-04-28T08:39:04Z</time></trkpt><trkpt lat="38.02198917685329" lon="12.87573812570869"><ele>127.0</ele><time>2026-04-28T08:39:05Z</time></trkpt><trkpt lat="38.02207594312711" lon="12.875626235473138"><ele>126.33333333333334</ele><time>2026-04-28T08:39:06Z</time></trkpt><trkpt lat="38.022176204473354" lon="12.875515056371222"><ele>125.66666666666666</ele><time>2026-04-28T08:39:07Z</time></trkpt><trkpt lat="38.022314713001485" lon="12.875433126921926"><ele>125.0</ele><time>2026-04-28T08:39:08Z</time></trkpt><trkpt lat="38.02249012166011" lon="12.875387094938972"><ele>125.0</ele><time>2026-04-28T08:39:09Z</time></trkpt><trkpt lat="38.022682923096994" lon="12.87538312517415"><ele>125.0</ele><time>2026-04-28T08:39:10Z</time></trkpt><trkpt lat="38.02290056967282" lon="12.875385570041374"><ele>125.0</ele><time>2026-04-28T08:39:11Z</time></trkpt><trkpt lat="38.02312925990501" lon="12.875415923684082"><ele>121.5</ele><time>2026-04-28T08:39:12Z</time></trkpt><trkpt lat="38.0233995965869" lon="12.875458936499442"><ele>118.0</ele><time>2026-04-28T08:39:13Z</time></trkpt><trkpt lat="38.02371793543212" lon="12.875462484737616"><ele>118.0</ele><time>2026-04-28T08:39:14Z</time></trkpt><trkpt lat="38.02402649724256" lon="12.875466282995308"><ele>118.0</ele><time>2026-04-28T08:39:15Z</time></trkpt><trkpt lat="38.024308013028005" lon="12.875453260660864"><ele>116.0</ele><time>2026-04-28T08:39:16Z</time></trkpt><trkpt lat="38.024616356218594" lon="12.875409369633065"><ele>114.0</ele><time>2026-04-28T08:39:17Z</time></trkpt><trkpt lat="38.024946991981906" lon="12.875358385940999"><ele>114.0</ele><time>2026-04-28T08:39:18Z</time></trkpt><trkpt lat="38.0252636044728" lon="12.87528251916354"><ele>114.0</ele><time>2026-04-28T08:39:19Z</time></trkpt><trkpt lat="38.02553210310838" lon="12.875221213379373"><ele>114.0</ele><time>2026-04-28T08:39:20Z</time></trkpt><trkpt lat="38.02577471637077" lon="12.875193233990045"><ele>114.0</ele><time>2026-04-28T08:39:21Z</time></trkpt><trkpt lat="38.02596709213923" lon="12.875200526091698"><ele>114.0</ele><time>2026-04-28T08:39:22Z</time></trkpt><trkpt lat="38.02614977925266" lon="12.875207851472123"><ele>114.33333333333334</ele><time>2026-04-28T08:39:23Z</time></trkpt><trkpt lat="38.026297616051515" lon="12.87514498621732"><ele>114.66666666666667</ele><time>2026-04-28T08:39:24Z</time></trkpt><trkpt lat="38.02644789177455" lon="12.875005794079385"><ele>115.0</ele><time>2026-04-28T08:39:25Z</time></trkpt><trkpt lat="38.026619890670766" lon="12.874900678276632"><ele>135.5</ele><time>2026-04-28T08:39:26Z</time></trkpt><trkpt lat="38.026824417899576" lon="12.874817827262824"><ele>156.0</ele><time>2026-04-28T08:39:27Z</time></trkpt><trkpt lat="38.02706595730599" lon="12.874792512935768"><ele>156.0</ele><time>2026-04-28T08:39:28Z</time></trkpt><trkpt lat="38.02732076212318" lon="12.874853696251261"><ele>156.0</ele><time>2026-04-28T08:39:29Z</time></trkpt><trkpt lat="38.02758640238764" lon="12.874921232501729"><ele>156.5</ele><time>2026-04-28T08:39:30Z</time></trkpt><trkpt lat="38.02781647852767" lon="12.87491841150495"><ele>157.0</ele><time>2026-04-28T08:39:30.999Z</time></trkpt><trkpt lat="38.02806950070857" lon="12.874829902697712"><ele>157.0</ele><time>2026-04-28T08:39:31.999Z</time></trkpt><trkpt lat="38.02834549243447" lon="12.874749936612385"><ele>157.0</ele><time>2026-04-28T08:39:32.999Z</time></trkpt><trkpt lat="38.028600739782846" lon="12.87469786761192"><ele>157.0</ele><time>2026-04-28T08:39:33.999Z</time></trkpt><trkpt lat="38.028819605961864" lon="12.87464966919426"><ele>157.0</ele><time>2026-04-28T08:39:34.999Z</time></trkpt><trkpt lat="38.02903652159738" lon="12.874614357646587"><ele>157.0</ele><time>2026-04-28T08:39:35.999Z</time></trkpt><trkpt lat="38.02923863416844" lon="12.874608314287071"><ele>156.0</ele><time>2026-04-28T08:39:36.999Z</time></trkpt><trkpt lat="38.02941870455084" lon="12.874589910068506"><ele>155.0</ele><time>2026-04-28T08:39:37.999Z</time></trkpt><trkpt lat="38.02961023730214" lon="12.874573084973452"><ele>154.0</ele><time>2026-04-28T08:39:38.999Z</time></trkpt><trkpt lat="38.029785591015646" lon="12.874539298870626"><ele>154.0</ele><time>2026-04-28T08:39:39.999Z</time></trkpt><trkpt lat="38.02994568777809" lon="12.874523067540522"><ele>154.0</ele><time>2026-04-28T08:39:40.999Z</time></trkpt><trkpt lat="38.03009777099021" lon="12.874482790043649"><ele>154.0</ele><time>2026-04-28T08:39:41.999Z</time></trkpt><trkpt lat="38.03023799363003" lon="12.874448721067605"><ele>153.5</ele><time>2026-04-28T08:39:42.999Z</time></trkpt><trkpt lat="38.03036513217187" lon="12.8744219025733"><ele>153.0</ele><time>2026-04-28T08:39:43.999Z</time></trkpt><trkpt lat="38.030495971940034" lon="12.874376759210302"><ele>152.5</ele><time>2026-04-28T08:39:44.999Z</time></trkpt><trkpt lat="38.03059186931017" lon="12.874336228323962"><ele>152.0</ele><time>2026-04-28T08:39:45.999Z</time></trkpt><trkpt lat="38.03068214579156" lon="12.87430383292095"><ele>152.0</ele><time>2026-04-28T08:39:46.999Z</time></trkpt><trkpt lat="38.0307722408928" lon="12.87428991677943"><ele>152.0</ele><time>2026-04-28T08:39:47.999Z</time></trkpt><trkpt lat="38.03084481501642" lon="12.874274243060523"><ele>152.0</ele><time>2026-04-28T08:39:48.999Z</time></trkpt><trkpt lat="38.03094197844786" lon="12.87425232155494"><ele>152.0</ele><time>2026-04-28T08:39:50.999Z</time></trkpt><trkpt lat="38.031028488364214" lon="12.874236392420729"><ele>152.0</ele><time>2026-04-28T08:40:41Z</time></trkpt><trkpt lat="38.03109208789488" lon="12.874206999553424"><ele>152.0</ele><time>2026-04-28T08:40:47Z</time></trkpt><trkpt lat="38.03102667004501" lon="12.874200453944459"><ele>157.83333333333331</ele><time>2026-04-28T08:41:01Z</time></trkpt><trkpt lat="38.03096523567486" lon="12.874222805124838"><ele>163.66666666666666</ele><time>2026-04-28T08:41:07Z</time></trkpt><trkpt lat="38.03103369935726" lon="12.874215186602772"><ele>169.5</ele><time>2026-04-28T08:49:00.999Z</time></trkpt><trkpt lat="38.03111236900513" lon="12.874140839767344"><ele>175.33333333333334</ele><time>2026-04-28T08:49:02.999Z</time></trkpt><trkpt lat="38.03116934650446" lon="12.874049891330746"><ele>181.16666666666669</ele><time>2026-04-28T08:49:04.999Z</time></trkpt><trkpt lat="38.0312250636532" lon="12.873957852156696"><ele>187.0</ele><time>2026-04-28T08:49:06.999Z</time></trkpt><trkpt lat="38.03126276278782" lon="12.873889284585522"><ele>187.0</ele><time>2026-04-28T08:49:08.999Z</time></trkpt><trkpt lat="38.031289752999186" lon="12.87381108701369"><ele>187.0</ele><time>2026-04-28T08:49:10.999Z</time></trkpt><trkpt lat="38.03132756267488" lon="12.873705521163995"><ele>187.0</ele><time>2026-04-28T08:49:12.999Z</time></trkpt><trkpt lat="38.03135041031081" lon="12.873548101474595"><ele>187.0</ele><time>2026-04-28T08:49:14.999Z</time></trkpt><trkpt lat="38.03134688199796" lon="12.873464864087948"><ele>187.0</ele><time>2026-04-28T08:49:16Z</time></trkpt><trkpt lat="38.03135962797169" lon="12.873357214266946"><ele>187.0</ele><time>2026-04-28T08:49:17Z</time></trkpt><trkpt lat="38.03134951241471" lon="12.873217643839446"><ele>191.0</ele><time>2026-04-28T08:49:18Z</time></trkpt><trkpt lat="38.031352425332074" lon="12.873049618824535"><ele>195.0</ele><time>2026-04-28T08:49:19Z</time></trkpt><trkpt lat="38.031370906194255" lon="12.872847385969099"><ele>199.0</ele><time>2026-04-28T08:49:20Z</time></trkpt><trkpt lat="38.03140419111228" lon="12.872627272402962"><ele>204.33333333333331</ele><time>2026-04-28T08:49:21Z</time></trkpt><trkpt lat="38.031427118533045" lon="12.872396158529531"><ele>209.66666666666669</ele><time>2026-04-28T08:49:22Z</time></trkpt><trkpt lat="38.03144545240487" lon="12.872157268261738"><ele>215.0</ele><time>2026-04-28T08:49:23Z</time></trkpt><trkpt lat="38.03146882137673" lon="12.871946546554561"><ele>217.75</ele><time>2026-04-28T08:49:24Z</time></trkpt><trkpt lat="38.031490700331084" lon="12.871754755322447"><ele>220.5</ele><time>2026-04-28T08:49:25Z</time></trkpt><trkpt lat="38.031528505952814" lon="12.871584606925852"><ele>223.25</ele><time>2026-04-28T08:49:26Z</time></trkpt><trkpt lat="38.03162578284442" lon="12.871450097271413"><ele>226.0</ele><time>2026-04-28T08:49:27Z</time></trkpt><trkpt lat="38.031751804207616" lon="12.871342369140589"><ele>215.0</ele><time>2026-04-28T08:49:28Z</time></trkpt><trkpt lat="38.03191899749688" lon="12.871258391486656"><ele>204.0</ele><time>2026-04-28T08:49:29Z</time></trkpt><trkpt lat="38.032111519811416" lon="12.871203751184245"><ele>193.0</ele><time>2026-04-28T08:49:30Z</time></trkpt><trkpt lat="38.03231817862095" lon="12.871194239793063"><ele>186.0</ele><time>2026-04-28T08:49:31Z</time></trkpt><trkpt lat="38.03252795198423" lon="12.871229393326505"><ele>179.0</ele><time>2026-04-28T08:49:32Z</time></trkpt><trkpt lat="38.032716608984856" lon="12.8712544403349"><ele>172.0</ele><time>2026-04-28T08:49:33Z</time></trkpt><trkpt lat="38.032876108013454" lon="12.871293505349565"><ele>172.0</ele><time>2026-04-28T08:49:34Z</time></trkpt><trkpt lat="38.03302470215268" lon="12.87130471285748"><ele>172.0</ele><time>2026-04-28T08:49:35Z</time></trkpt><trkpt lat="38.03317568543199" lon="12.871275362252701"><ele>172.0</ele><time>2026-04-28T08:49:36Z</time></trkpt><trkpt lat="38.03333858266898" lon="12.871178032434972"><ele>170.66666666666669</ele><time>2026-04-28T08:49:37Z</time></trkpt><trkpt lat="38.033512418866295" lon="12.871019309067483"><ele>169.33333333333334</ele><time>2026-04-28T08:49:38Z</time></trkpt><trkpt lat="38.03369004042902" lon="12.870829379048814"><ele>168.0</ele><time>2026-04-28T08:49:39Z</time></trkpt><trkpt lat="38.03387574225973" lon="12.870630297960648"><ele>169.0</ele><time>2026-04-28T08:49:40Z</time></trkpt><trkpt lat="38.03406171847344" lon="12.870413274449504"><ele>170.0</ele><time>2026-04-28T08:49:41Z</time></trkpt><trkpt lat="38.03425760135235" lon="12.870181216699532"><ele>183.5</ele><time>2026-04-28T08:49:42Z</time></trkpt><trkpt lat="38.034457065185876" lon="12.869963914608832"><ele>197.0</ele><time>2026-04-28T08:49:43Z</time></trkpt><trkpt lat="38.034679968947145" lon="12.869770236129392"><ele>197.0</ele><time>2026-04-28T08:49:44Z</time></trkpt><trkpt lat="38.03492201619318" lon="12.869609845260847"><ele>197.0</ele><time>2026-04-28T08:49:45Z</time></trkpt><trkpt lat="38.03516886539619" lon="12.869456894693379"><ele>199.5</ele><time>2026-04-28T08:49:46Z</time></trkpt><trkpt lat="38.03541701211174" lon="12.869293515505753"><ele>202.0</ele><time>2026-04-28T08:49:47Z</time></trkpt><trkpt lat="38.0356595143725" lon="12.869128175532333"><ele>190.5</ele><time>2026-04-28T08:49:48Z</time></trkpt><trkpt lat="38.03590099531409" lon="12.868953985298665"><ele>179.0</ele><time>2026-04-28T08:49:49Z</time></trkpt><trkpt lat="38.03613834080388" lon="12.868767553866512"><ele>179.0</ele><time>2026-04-28T08:49:50Z</time></trkpt><trkpt lat="38.036374390162266" lon="12.868568725968432"><ele>179.0</ele><time>2026-04-28T08:49:51Z</time></trkpt><trkpt lat="38.036603216129876" lon="12.868354629186985"><ele>178.0</ele><time>2026-04-28T08:49:52Z</time></trkpt><trkpt lat="38.03681131333178" lon="12.868151592655725"><ele>177.0</ele><time>2026-04-28T08:49:53Z</time></trkpt><trkpt lat="38.036995425809025" lon="12.867966227713726"><ele>177.0</ele><time>2026-04-28T08:49:54Z</time></trkpt><trkpt lat="38.037178779421446" lon="12.867794485993722"><ele>177.0</ele><time>2026-04-28T08:49:55Z</time></trkpt><trkpt lat="38.037359544245795" lon="12.867622889645283"><ele>176.0</ele><time>2026-04-28T08:49:56Z</time></trkpt><trkpt lat="38.03754942862938" lon="12.867447642697842"><ele>175.0</ele><time>2026-04-28T08:49:57Z</time></trkpt><trkpt lat="38.03774079242435" lon="12.867264730398862"><ele>175.0</ele><time>2026-04-28T08:49:58Z</time></trkpt><trkpt lat="38.03793368952627" lon="12.867078196945636"><ele>175.0</ele><time>2026-04-28T08:49:59Z</time></trkpt><trkpt lat="38.038133905676695" lon="12.866888067494626"><ele>173.5</ele><time>2026-04-28T08:50:00Z</time></trkpt><trkpt lat="38.038334775982804" lon="12.86669992947398"><ele>172.0</ele><time>2026-04-28T08:50:01Z</time></trkpt><trkpt lat="38.0385333516044" lon="12.866508685672473"><ele>172.0</ele><time>2026-04-28T08:50:02Z</time></trkpt><trkpt lat="38.0387301497232" lon="12.866313817662805"><ele>172.0</ele><time>2026-04-28T08:50:03Z</time></trkpt><trkpt lat="38.03892561550861" lon="12.866108288734917"><ele>169.0</ele><time>2026-04-28T08:50:04Z</time></trkpt><trkpt lat="38.03910346580927" lon="12.865870538710926"><ele>166.0</ele><time>2026-04-28T08:50:05Z</time></trkpt><trkpt lat="38.03927453784421" lon="12.86560774785993"><ele>166.0</ele><time>2026-04-28T08:50:06Z</time></trkpt><trkpt lat="38.039434524364836" lon="12.865332178207456"><ele>166.0</ele><time>2026-04-28T08:50:07Z</time></trkpt><trkpt lat="38.03956850221587" lon="12.865044718988484"><ele>167.0</ele><time>2026-04-28T08:50:08Z</time></trkpt><trkpt lat="38.039687943712295" lon="12.864739599758437"><ele>168.0</ele><time>2026-04-28T08:50:09Z</time></trkpt><trkpt lat="38.03978963898808" lon="12.864422955256527"><ele>168.5</ele><time>2026-04-28T08:50:10Z</time></trkpt><trkpt lat="38.03987632719245" lon="12.864089543380135"><ele>169.0</ele><time>2026-04-28T08:50:11Z</time></trkpt><trkpt lat="38.039948046741415" lon="12.863748806644512"><ele>164.0</ele><time>2026-04-28T08:50:12Z</time></trkpt><trkpt lat="38.03998977178356" lon="12.863395972652254"><ele>159.0</ele><time>2026-04-28T08:50:13Z</time></trkpt><trkpt lat="38.040010440727976" lon="12.863030499021024"><ele>159.0</ele><time>2026-04-28T08:50:14Z</time></trkpt><trkpt lat="38.040015675593416" lon="12.862650575543594"><ele>159.0</ele><time>2026-04-28T08:50:15Z</time></trkpt><trkpt lat="38.04000814921045" lon="12.862262247185443"><ele>158.5</ele><time>2026-04-28T08:50:16Z</time></trkpt><trkpt lat="38.040009272589664" lon="12.861908033249286"><ele>158.0</ele><time>2026-04-28T08:50:17Z</time></trkpt><trkpt lat="38.04000512339378" lon="12.861586657427896"><ele>158.0</ele><time>2026-04-28T08:50:18Z</time></trkpt><trkpt lat="38.04001364593385" lon="12.861285043789787"><ele>158.0</ele><time>2026-04-28T08:50:19Z</time></trkpt><trkpt lat="38.040018649723216" lon="12.861006875864982"><ele>158.0</ele><time>2026-04-28T08:50:20Z</time></trkpt><trkpt lat="38.040019194474205" lon="12.860760929788535"><ele>158.0</ele><time>2026-04-28T08:50:21Z</time></trkpt><trkpt lat="38.040016617337685" lon="12.860552125993134"><ele>158.0</ele><time>2026-04-28T08:50:22Z</time></trkpt><trkpt lat="38.040015422780186" lon="12.860350833214824"><ele>158.0</ele><time>2026-04-28T08:50:23Z</time></trkpt><trkpt lat="38.0400040727686" lon="12.86016018745922"><ele>158.0</ele><time>2026-04-28T08:50:24Z</time></trkpt><trkpt lat="38.03998088533534" lon="12.859946395201948"><ele>158.0</ele><time>2026-04-28T08:50:25Z</time></trkpt><trkpt lat="38.039965607204756" lon="12.85970837059733"><ele>158.66666666666666</ele><time>2026-04-28T08:50:26Z</time></trkpt><trkpt lat="38.03994887442513" lon="12.859442832454041"><ele>159.33333333333334</ele><time>2026-04-28T08:50:27Z</time></trkpt><trkpt lat="38.03991812697733" lon="12.85915925883455"><ele>160.0</ele><time>2026-04-28T08:50:28Z</time></trkpt><trkpt lat="38.03988258935655" lon="12.858860961015726"><ele>160.0</ele><time>2026-04-28T08:50:29Z</time></trkpt><trkpt lat="38.03983922700596" lon="12.858548826314552"><ele>160.0</ele><time>2026-04-28T08:50:30Z</time></trkpt><trkpt lat="38.03979776463086" lon="12.858245431446468"><ele>159.66666666666669</ele><time>2026-04-28T08:50:31Z</time></trkpt><trkpt lat="38.039763996659055" lon="12.857965475371744"><ele>159.33333333333334</ele><time>2026-04-28T08:50:32Z</time></trkpt><trkpt lat="38.039737080940114" lon="12.857692443814123"><ele>159.0</ele><time>2026-04-28T08:50:33Z</time></trkpt><trkpt lat="38.03970790488467" lon="12.857431638127194"><ele>158.33333333333334</ele><time>2026-04-28T08:50:34Z</time></trkpt><trkpt lat="38.0396648962449" lon="12.857156009316004"><ele>157.66666666666669</ele><time>2026-04-28T08:50:35Z</time></trkpt><trkpt lat="38.03962272237275" lon="12.85687709527481"><ele>157.0</ele><time>2026-04-28T08:50:36Z</time></trkpt><trkpt lat="38.03958780802988" lon="12.856586371714762"><ele>155.0</ele><time>2026-04-28T08:50:37Z</time></trkpt><trkpt lat="38.03957065892203" lon="12.856278258573992"><ele>153.0</ele><time>2026-04-28T08:50:38Z</time></trkpt><trkpt lat="38.039556462899576" lon="12.855968224404632"><ele>152.0</ele><time>2026-04-28T08:50:39Z</time></trkpt><trkpt lat="38.03954046768016" lon="12.855665798406749"><ele>151.0</ele><time>2026-04-28T08:50:40Z</time></trkpt><trkpt lat="38.039540788811046" lon="12.855390542770959"><ele>151.0</ele><time>2026-04-28T08:50:41Z</time></trkpt><trkpt lat="38.03953304970051" lon="12.855129923668507"><ele>151.0</ele><time>2026-04-28T08:50:42Z</time></trkpt><trkpt lat="38.03953207406535" lon="12.854867205277106"><ele>151.0</ele><time>2026-04-28T08:50:43Z</time></trkpt><trkpt lat="38.039536599141606" lon="12.854616401564668"><ele>150.33333333333334</ele><time>2026-04-28T08:50:43.999Z</time></trkpt><trkpt lat="38.03953584372773" lon="12.85438759408203"><ele>149.66666666666666</ele><time>2026-04-28T08:50:44.999Z</time></trkpt><trkpt lat="38.039542453368554" lon="12.854173851129087"><ele>149.0</ele><time>2026-04-28T08:50:45.999Z</time></trkpt><trkpt lat="38.03955710466276" lon="12.853970530196904"><ele>149.0</ele><time>2026-04-28T08:50:46.999Z</time></trkpt><trkpt lat="38.03959802255943" lon="12.853761213496698"><ele>149.0</ele><time>2026-04-28T08:50:47.999Z</time></trkpt><trkpt lat="38.03964054327665" lon="12.85353591465696"><ele>149.0</ele><time>2026-04-28T08:50:48.999Z</time></trkpt><trkpt lat="38.039692173319" lon="12.853312177081742"><ele>148.33333333333331</ele><time>2026-04-28T08:50:49.999Z</time></trkpt><trkpt lat="38.03974705161564" lon="12.853085288168105"><ele>147.66666666666666</ele><time>2026-04-28T08:50:50.999Z</time></trkpt><trkpt lat="38.039805646096966" lon="12.852870265914135"><ele>147.0</ele><time>2026-04-28T08:50:51.999Z</time></trkpt><trkpt lat="38.03986894965668" lon="12.852668894919718"><ele>145.66666666666666</ele><time>2026-04-28T08:50:52.999Z</time></trkpt><trkpt lat="38.039935483130215" lon="12.852481485525482"><ele>144.33333333333331</ele><time>2026-04-28T08:50:53.999Z</time></trkpt><trkpt lat="38.03999462278623" lon="12.852312384294233"><ele>143.0</ele><time>2026-04-28T08:50:54.999Z</time></trkpt><trkpt lat="38.04006029339416" lon="12.85214812366454"><ele>141.75</ele><time>2026-04-28T08:50:55.999Z</time></trkpt><trkpt lat="38.04012408710361" lon="12.851993655574994"><ele>140.5</ele><time>2026-04-28T08:50:56.999Z</time></trkpt><trkpt lat="38.040190164087186" lon="12.851869358924134"><ele>139.25</ele><time>2026-04-28T08:50:57.999Z</time></trkpt><trkpt lat="38.04024803221247" lon="12.851747926361439"><ele>138.0</ele><time>2026-04-28T08:50:58.999Z</time></trkpt><trkpt lat="38.0403023390791" lon="12.85163038832442"><ele>137.20000000000002</ele><time>2026-04-28T08:50:59.999Z</time></trkpt><trkpt lat="38.04035425173694" lon="12.85151410549132"><ele>136.4</ele><time>2026-04-28T08:51:00.999Z</time></trkpt><trkpt lat="38.0403986440447" lon="12.85139394158617"><ele>135.60000000000002</ele><time>2026-04-28T08:51:01.999Z</time></trkpt><trkpt lat="38.040462621125805" lon="12.85126694004156"><ele>134.8</ele><time>2026-04-28T08:51:02.999Z</time></trkpt><trkpt lat="38.04051229615614" lon="12.851135972403574"><ele>134.0</ele><time>2026-04-28T08:51:03.999Z</time></trkpt><trkpt lat="38.040568310914466" lon="12.851011035789918"><ele>133.5</ele><time>2026-04-28T08:51:04.999Z</time></trkpt><trkpt lat="38.04062396057904" lon="12.850884812841004"><ele>133.0</ele><time>2026-04-28T08:51:05.999Z</time></trkpt><trkpt lat="38.04068238551029" lon="12.850762542942316"><ele>132.5</ele><time>2026-04-28T08:51:06.999Z</time></trkpt><trkpt lat="38.040734953336795" lon="12.850621079260478"><ele>132.0</ele><time>2026-04-28T08:51:07.999Z</time></trkpt><trkpt lat="38.04079316919653" lon="12.850496452104464"><ele>131.0</ele><time>2026-04-28T08:51:08.999Z</time></trkpt><trkpt lat="38.04084163282992" lon="12.85038222558386"><ele>130.0</ele><time>2026-04-28T08:51:09.999Z</time></trkpt><trkpt lat="38.040897268510136" lon="12.85027266449949"><ele>129.0</ele><time>2026-04-28T08:51:10.999Z</time></trkpt><trkpt lat="38.0409556745162" lon="12.850171778447123"><ele>128.0</ele><time>2026-04-28T08:51:11.999Z</time></trkpt><trkpt lat="38.040999300992524" lon="12.850053883049517"><ele>127.0</ele><time>2026-04-28T08:51:12.999Z</time></trkpt><trkpt lat="38.04105315580367" lon="12.849934635096734"><ele>126.5</ele><time>2026-04-28T08:51:13.999Z</time></trkpt><trkpt lat="38.0411153617966" lon="12.849820547906916"><ele>126.0</ele><time>2026-04-28T08:51:14.999Z</time></trkpt><trkpt lat="38.04117284814993" lon="12.849692213405614"><ele>125.5</ele><time>2026-04-28T08:51:15.999Z</time></trkpt><trkpt lat="38.041230411400505" lon="12.849563671902107"><ele>125.0</ele><time>2026-04-28T08:51:16.999Z</time></trkpt><trkpt lat="38.04129121813375" lon="12.849432330684795"><ele>125.0</ele><time>2026-04-28T08:51:17.999Z</time></trkpt><trkpt lat="38.041349228965615" lon="12.849299618416586"><ele>125.0</ele><time>2026-04-28T08:51:18.999Z</time></trkpt><trkpt lat="38.04140600915543" lon="12.849160270782173"><ele>125.0</ele><time>2026-04-28T08:51:19.999Z</time></trkpt><trkpt lat="38.04146640885634" lon="12.849020844046743"><ele>125.0</ele><time>2026-04-28T08:51:20.999Z</time></trkpt><trkpt lat="38.04153632981819" lon="12.848879390404507"><ele>125.25</ele><time>2026-04-28T08:51:22Z</time></trkpt><trkpt lat="38.04159996992492" lon="12.84872437234378"><ele>125.5</ele><time>2026-04-28T08:51:23Z</time></trkpt><trkpt lat="38.041669079869294" lon="12.848571363155445"><ele>125.75</ele><time>2026-04-28T08:51:24Z</time></trkpt><trkpt lat="38.04174603448897" lon="12.848419096524"><ele>126.0</ele><time>2026-04-28T08:51:25Z</time></trkpt><trkpt lat="38.04181981297551" lon="12.848255082871836"><ele>124.0</ele><time>2026-04-28T08:51:26Z</time></trkpt><trkpt lat="38.0418888796697" lon="12.84810198179779"><ele>122.0</ele><time>2026-04-28T08:51:27Z</time></trkpt><trkpt lat="38.041960181182475" lon="12.847936214425411"><ele>120.0</ele><time>2026-04-28T08:51:28Z</time></trkpt><trkpt lat="38.04203882169155" lon="12.8477633839847"><ele>118.0</ele><time>2026-04-28T08:51:29Z</time></trkpt><trkpt lat="38.042123214839584" lon="12.847577941978365"><ele>117.66666666666667</ele><time>2026-04-28T08:51:30Z</time></trkpt><trkpt lat="38.042194951209" lon="12.847392510928888"><ele>117.33333333333334</ele><time>2026-04-28T08:51:31Z</time></trkpt><trkpt lat="38.04230064497361" lon="12.847166787664403"><ele>117.0</ele><time>2026-04-28T08:51:32Z</time></trkpt><trkpt lat="38.04239373933889" lon="12.846944482751777"><ele>114.66666666666666</ele><time>2026-04-28T08:51:33Z</time></trkpt><trkpt lat="38.04249835776209" lon="12.84670712235404"><ele>112.33333333333333</ele><time>2026-04-28T08:51:34Z</time></trkpt><trkpt lat="38.042614718691695" lon="12.846472177608089"><ele>110.0</ele><time>2026-04-28T08:51:35Z</time></trkpt><trkpt lat="38.04273053131155" lon="12.84618053115597"><ele>109.5</ele><time>2026-04-28T08:51:36Z</time></trkpt><trkpt lat="38.04283782136966" lon="12.845891595562495"><ele>109.0</ele><time>2026-04-28T08:51:37Z</time></trkpt><trkpt lat="38.042966615026856" lon="12.84557392856714"><ele>109.0</ele><time>2026-04-28T08:51:38Z</time></trkpt><trkpt lat="38.04307297143487" lon="12.845243729510985"><ele>109.0</ele><time>2026-04-28T08:51:39Z</time></trkpt><trkpt lat="38.04316953543606" lon="12.844894035947695"><ele>107.5</ele><time>2026-04-28T08:51:40Z</time></trkpt><trkpt lat="38.04323688480637" lon="12.844536949928518"><ele>106.0</ele><time>2026-04-28T08:51:41Z</time></trkpt><trkpt lat="38.04328192006848" lon="12.844177348359743"><ele>103.0</ele><time>2026-04-28T08:51:42Z</time></trkpt><trkpt lat="38.04331527691091" lon="12.84382882495775"><ele>100.0</ele><time>2026-04-28T08:51:43Z</time></trkpt><trkpt lat="38.0433407361474" lon="12.8434974794851"><ele>100.0</ele><time>2026-04-28T08:51:44Z</time></trkpt><trkpt lat="38.043341281118074" lon="12.84317590995682"><ele>100.0</ele><time>2026-04-28T08:51:45Z</time></trkpt><trkpt lat="38.043347544111214" lon="12.842865952169552"><ele>101.0</ele><time>2026-04-28T08:51:46Z</time></trkpt><trkpt lat="38.043349283431205" lon="12.842542194707525"><ele>102.0</ele><time>2026-04-28T08:51:47Z</time></trkpt><trkpt lat="38.04326776436757" lon="12.842233797259633"><ele>102.0</ele><time>2026-04-28T08:51:48Z</time></trkpt><trkpt lat="38.0431845880885" lon="12.841927763469421"><ele>102.0</ele><time>2026-04-28T08:51:49Z</time></trkpt><trkpt lat="38.043107917153186" lon="12.841617681132302"><ele>98.5</ele><time>2026-04-28T08:51:50Z</time></trkpt><trkpt lat="38.043022571923785" lon="12.841307860180535"><ele>95.0</ele><time>2026-04-28T08:51:51Z</time></trkpt><trkpt lat="38.042927531751424" lon="12.840998561734414"><ele>88.0</ele><time>2026-04-28T08:51:52Z</time></trkpt><trkpt lat="38.04279131288768" lon="12.840709901926065"><ele>81.0</ele><time>2026-04-28T08:51:53Z</time></trkpt><trkpt lat="38.042666982471445" lon="12.840427282331726"><ele>81.0</ele><time>2026-04-28T08:51:54Z</time></trkpt><trkpt lat="38.042540402876604" lon="12.840145266862713"><ele>81.0</ele><time>2026-04-28T08:51:55Z</time></trkpt><trkpt lat="38.04242420849123" lon="12.83987192045197"><ele>72.0</ele><time>2026-04-28T08:51:56Z</time></trkpt><trkpt lat="38.042305208016316" lon="12.839602885941575"><ele>63.0</ele><time>2026-04-28T08:51:57Z</time></trkpt><trkpt lat="38.04219353645175" lon="12.839329240515646"><ele>68.5</ele><time>2026-04-28T08:51:58Z</time></trkpt><trkpt lat="38.042079018019926" lon="12.839060655791549"><ele>74.0</ele><time>2026-04-28T08:51:59Z</time></trkpt><trkpt lat="38.041966543352096" lon="12.838796258164683"><ele>74.0</ele><time>2026-04-28T08:52:00Z</time></trkpt><trkpt lat="38.04185385734118" lon="12.838537391981278"><ele>74.0</ele><time>2026-04-28T08:52:01Z</time></trkpt><trkpt lat="38.041734503513155" lon="12.83828730433991"><ele>73.33333333333334</ele><time>2026-04-28T08:52:02Z</time></trkpt><trkpt lat="38.041625942022065" lon="12.838055406621766"><ele>72.66666666666667</ele><time>2026-04-28T08:52:03Z</time></trkpt><trkpt lat="38.04154163107196" lon="12.837838522000618"><ele>72.0</ele><time>2026-04-28T08:52:04Z</time></trkpt><trkpt lat="38.04146482568609" lon="12.837625276788447"><ele>72.0</ele><time>2026-04-28T08:52:05Z</time></trkpt><trkpt lat="38.04137596822513" lon="12.837436662446535"><ele>72.0</ele><time>2026-04-28T08:52:06Z</time></trkpt><trkpt lat="38.04129564858928" lon="12.837258768004453"><ele>72.0</ele><time>2026-04-28T08:52:07Z</time></trkpt><trkpt lat="38.04122975306845" lon="12.837095671168077"><ele>72.0</ele><time>2026-04-28T08:52:08Z</time></trkpt><trkpt lat="38.041168645914325" lon="12.836939186680635"><ele>72.0</ele><time>2026-04-28T08:52:09Z</time></trkpt><trkpt lat="38.041108953412305" lon="12.836802325321477"><ele>72.0</ele><time>2026-04-28T08:52:10Z</time></trkpt><trkpt lat="38.0410550986712" lon="12.83669351166428"><ele>72.0</ele><time>2026-04-28T08:52:11Z</time></trkpt><trkpt lat="38.04100799903451" lon="12.836608353796567"><ele>72.0</ele><time>2026-04-28T08:52:12Z</time></trkpt><trkpt lat="38.04098895978893" lon="12.836530151672047"><ele>72.33333333333333</ele><time>2026-04-28T08:52:13Z</time></trkpt><trkpt lat="38.04096248108122" lon="12.836454623549406"><ele>72.66666666666667</ele><time>2026-04-28T08:52:14Z</time></trkpt><trkpt lat="38.040930812934995" lon="12.83637894686272"><ele>73.0</ele><time>2026-04-28T08:52:15Z</time></trkpt><trkpt lat="38.04090384322688" lon="12.836295294717413"><ele>73.33333333333334</ele><time>2026-04-28T08:52:16Z</time></trkpt><trkpt lat="38.04087803693145" lon="12.836202804432029"><ele>73.66666666666667</ele><time>2026-04-28T08:52:17Z</time></trkpt><trkpt lat="38.04083228964122" lon="12.836094147563934"><ele>74.0</ele><time>2026-04-28T08:52:18Z</time></trkpt><trkpt lat="38.04077885673329" lon="12.835982390636206"><ele>78.33333333333334</ele><time>2026-04-28T08:52:19Z</time></trkpt><trkpt lat="38.04072531579688" lon="12.83583744666573"><ele>82.66666666666667</ele><time>2026-04-28T08:52:20Z</time></trkpt><trkpt lat="38.04066310690676" lon="12.835645125070352"><ele>87.0</ele><time>2026-04-28T08:52:21Z</time></trkpt><trkpt lat="38.040587201199976" lon="12.835416227095662"><ele>87.0</ele><time>2026-04-28T08:52:22Z</time></trkpt><trkpt lat="38.0404879632526" lon="12.83515601110508"><ele>87.0</ele><time>2026-04-28T08:52:23Z</time></trkpt><trkpt lat="38.04037246938525" lon="12.834886932230107"><ele>84.0</ele><time>2026-04-28T08:52:24Z</time></trkpt><trkpt lat="38.04023435685565" lon="12.834606108061177"><ele>81.0</ele><time>2026-04-28T08:52:25Z</time></trkpt><trkpt lat="38.04007832959816" lon="12.834328630437712"><ele>80.0</ele><time>2026-04-28T08:52:26Z</time></trkpt><trkpt lat="38.039902832304115" lon="12.834055219181044"><ele>79.0</ele><time>2026-04-28T08:52:27Z</time></trkpt><trkpt lat="38.039698274356404" lon="12.833792220793992"><ele>79.0</ele><time>2026-04-28T08:52:28Z</time></trkpt><trkpt lat="38.03951077685427" lon="12.833526288730068"><ele>79.0</ele><time>2026-04-28T08:52:29Z</time></trkpt><trkpt lat="38.03935241247275" lon="12.833247777907632"><ele>80.0</ele><time>2026-04-28T08:52:30Z</time></trkpt><trkpt lat="38.039210638159346" lon="12.832960947290077"><ele>81.0</ele><time>2026-04-28T08:52:31Z</time></trkpt><trkpt lat="38.039094004423454" lon="12.832661515519932"><ele>78.5</ele><time>2026-04-28T08:52:32Z</time></trkpt><trkpt lat="38.03899480770842" lon="12.832365714460366"><ele>76.0</ele><time>2026-04-28T08:52:33Z</time></trkpt><trkpt lat="38.03890451571638" lon="12.83208510871727"><ele>76.0</ele><time>2026-04-28T08:52:34Z</time></trkpt><trkpt lat="38.03882878697565" lon="12.831824915210065"><ele>76.0</ele><time>2026-04-28T08:52:35Z</time></trkpt><trkpt lat="38.0387624106806" lon="12.83158035187284"><ele>76.0</ele><time>2026-04-28T08:52:36Z</time></trkpt><trkpt lat="38.03869548677129" lon="12.831353413589806"><ele>75.0</ele><time>2026-04-28T08:52:37Z</time></trkpt><trkpt lat="38.03862201108885" lon="12.831132625637855"><ele>74.0</ele><time>2026-04-28T08:52:38Z</time></trkpt><trkpt lat="38.038563317204506" lon="12.830910802625054"><ele>73.0</ele><time>2026-04-28T08:52:39Z</time></trkpt><trkpt lat="38.03850344350905" lon="12.83070900652536"><ele>73.0</ele><time>2026-04-28T08:52:40Z</time></trkpt><trkpt lat="38.03843955327616" lon="12.83051111921134"><ele>73.0</ele><time>2026-04-28T08:52:41Z</time></trkpt><trkpt lat="38.03836630734838" lon="12.830300185797208"><ele>73.0</ele><time>2026-04-28T08:52:42Z</time></trkpt><trkpt lat="38.03827538108774" lon="12.830061148215428"><ele>75.0</ele><time>2026-04-28T08:52:43Z</time></trkpt><trkpt lat="38.03815221561193" lon="12.829792969300069"><ele>77.0</ele><time>2026-04-28T08:52:44Z</time></trkpt><trkpt lat="38.038019096216885" lon="12.829512699474417"><ele>74.0</ele><time>2026-04-28T08:52:45Z</time></trkpt><trkpt lat="38.037880497287674" lon="12.829224555590756"><ele>71.0</ele><time>2026-04-28T08:52:46Z</time></trkpt><trkpt lat="38.03772355695097" lon="12.828943425638975"><ele>71.0</ele><time>2026-04-28T08:52:47Z</time></trkpt><trkpt lat="38.03755388350022" lon="12.828660664585472"><ele>71.0</ele><time>2026-04-28T08:52:48Z</time></trkpt><trkpt lat="38.03736495605256" lon="12.82838850318175"><ele>70.5</ele><time>2026-04-28T08:52:49Z</time></trkpt><trkpt lat="38.037181265586085" lon="12.828133410270178"><ele>70.0</ele><time>2026-04-28T08:52:50Z</time></trkpt><trkpt lat="38.03700644172575" lon="12.82788083419824"><ele>64.0</ele><time>2026-04-28T08:52:51Z</time></trkpt><trkpt lat="38.03684797703761" lon="12.827633854790538"><ele>58.0</ele><time>2026-04-28T08:52:52Z</time></trkpt><trkpt lat="38.03669403180465" lon="12.827395157109743"><ele>64.0</ele><time>2026-04-28T08:52:52.999Z</time></trkpt><trkpt lat="38.03654154699403" lon="12.827160785371937"><ele>70.0</ele><time>2026-04-28T08:52:53.999Z</time></trkpt><trkpt lat="38.03639529550063" lon="12.8269348601209"><ele>66.66666666666666</ele><time>2026-04-28T08:52:54.999Z</time></trkpt><trkpt lat="38.03624503359625" lon="12.826721619123067"><ele>63.33333333333333</ele><time>2026-04-28T08:52:55.999Z</time></trkpt><trkpt lat="38.03610535205429" lon="12.826526658447285"><ele>60.0</ele><time>2026-04-28T08:52:56.999Z</time></trkpt><trkpt lat="38.035966745653624" lon="12.826324854049467"><ele>60.0</ele><time>2026-04-28T08:52:57.999Z</time></trkpt><trkpt lat="38.0358069785536" lon="12.826112189248738"><ele>60.0</ele><time>2026-04-28T08:52:58.999Z</time></trkpt><trkpt lat="38.03561376310142" lon="12.82589044148786"><ele>61.5</ele><time>2026-04-28T08:52:59.999Z</time></trkpt><trkpt lat="38.03539239134156" lon="12.825647195523468"><ele>63.0</ele><time>2026-04-28T08:53:00.999Z</time></trkpt><trkpt lat="38.03514904649521" lon="12.825385876999848"><ele>63.5</ele><time>2026-04-28T08:53:01.999Z</time></trkpt><trkpt lat="38.03488687427963" lon="12.825117888096681"><ele>64.0</ele><time>2026-04-28T08:53:02.999Z</time></trkpt><trkpt lat="38.03463025159199" lon="12.82484772189091"><ele>64.0</ele><time>2026-04-28T08:53:03.999Z</time></trkpt><trkpt lat="38.03440636354439" lon="12.824607611902412"><ele>64.0</ele><time>2026-04-28T08:53:04.999Z</time></trkpt><trkpt lat="38.034169025118636" lon="12.824361198190562"><ele>63.5</ele><time>2026-04-28T08:53:05.999Z</time></trkpt><trkpt lat="38.03391036943999" lon="12.824099023407209"><ele>63.0</ele><time>2026-04-28T08:53:06.999Z</time></trkpt><trkpt lat="38.03368488837778" lon="12.82387585290268"><ele>63.0</ele><time>2026-04-28T08:53:07.999Z</time></trkpt><trkpt lat="38.03346096264957" lon="12.82367906141095"><ele>63.0</ele><time>2026-04-28T08:53:08.999Z</time></trkpt><trkpt lat="38.03322921323104" lon="12.823524264491859"><ele>62.0</ele><time>2026-04-28T08:53:09.999Z</time></trkpt><trkpt lat="38.03301003312587" lon="12.823393701367262"><ele>61.0</ele><time>2026-04-28T08:53:10.999Z</time></trkpt><trkpt lat="38.03279793249686" lon="12.823283638207739"><ele>61.0</ele><time>2026-04-28T08:53:11.999Z</time></trkpt><trkpt lat="38.032597943386996" lon="12.82319629478881"><ele>61.0</ele><time>2026-04-28T08:53:12.999Z</time></trkpt><trkpt lat="38.03240124495279" lon="12.823134757418632"><ele>61.0</ele><time>2026-04-28T08:53:13.999Z</time></trkpt><trkpt lat="38.032225967836304" lon="12.82306835660532"><ele>62.33333333333333</ele><time>2026-04-28T08:53:14.999Z</time></trkpt><trkpt lat="38.03205825199806" lon="12.822999633468688"><ele>63.66666666666667</ele><time>2026-04-28T08:53:15.999Z</time></trkpt><trkpt lat="38.03189547618674" lon="12.822932788034306"><ele>65.0</ele><time>2026-04-28T08:53:16.999Z</time></trkpt><trkpt lat="38.03175056326698" lon="12.822865664924375"><ele>64.5</ele><time>2026-04-28T08:53:17.999Z</time></trkpt><trkpt lat="38.031609993236366" lon="12.82281140831154"><ele>64.0</ele><time>2026-04-28T08:53:18.999Z</time></trkpt><trkpt lat="38.03148143796271" lon="12.822743987966879"><ele>63.5</ele><time>2026-04-28T08:53:19.999Z</time></trkpt><trkpt lat="38.031364053084275" lon="12.82263525891143"><ele>63.0</ele><time>2026-04-28T08:53:20.999Z</time></trkpt><trkpt lat="38.031280636530184" lon="12.822478392296043"><ele>63.0</ele><time>2026-04-28T08:53:21.999Z</time></trkpt><trkpt lat="38.03119713420817" lon="12.822325102294334"><ele>63.0</ele><time>2026-04-28T08:53:22.999Z</time></trkpt><trkpt lat="38.03116898375818" lon="12.822141555060087"><ele>63.0</ele><time>2026-04-28T08:53:23.999Z</time></trkpt><trkpt lat="38.03114916891891" lon="12.821944347943987"><ele>60.0</ele><time>2026-04-28T08:53:24.999Z</time></trkpt><trkpt lat="38.03112823200707" lon="12.82174792558352"><ele>57.0</ele><time>2026-04-28T08:53:25.999Z</time></trkpt><trkpt lat="38.03114381007893" lon="12.821568650830695"><ele>54.0</ele><time>2026-04-28T08:53:26.999Z</time></trkpt><trkpt lat="38.0312008287926" lon="12.821385472706785"><ele>54.0</ele><time>2026-04-28T08:53:28Z</time></trkpt><trkpt lat="38.031258442025695" lon="12.82117485199704"><ele>54.0</ele><time>2026-04-28T08:53:29Z</time></trkpt><trkpt lat="38.031360977593046" lon="12.820963720425928"><ele>54.0</ele><time>2026-04-28T08:53:30Z</time></trkpt><trkpt lat="38.03148116542659" lon="12.820740857542372"><ele>53.66666666666667</ele><time>2026-04-28T08:53:31Z</time></trkpt><trkpt lat="38.03160556227445" lon="12.820514561430452"><ele>53.333333333333336</ele><time>2026-04-28T08:53:32Z</time></trkpt><trkpt lat="38.031699845148175" lon="12.82026709341597"><ele>53.0</ele><time>2026-04-28T08:53:33Z</time></trkpt><trkpt lat="38.031766899971124" lon="12.819988015587045"><ele>56.66666666666667</ele><time>2026-04-28T08:53:34Z</time></trkpt><trkpt lat="38.03181454345504" lon="12.819748004312677"><ele>60.33333333333333</ele><time>2026-04-28T08:53:35Z</time></trkpt><trkpt lat="38.031860298537026" lon="12.819518037721654"><ele>64.0</ele><time>2026-04-28T08:53:36Z</time></trkpt><trkpt lat="38.03190582768168" lon="12.81927601012294"><ele>64.0</ele><time>2026-04-28T08:53:37Z</time></trkpt><trkpt lat="38.03195110422787" lon="12.819013040963474"><ele>64.0</ele><time>2026-04-28T08:53:38Z</time></trkpt><trkpt lat="38.031995972016254" lon="12.818735514197659"><ele>64.0</ele><time>2026-04-28T08:53:39Z</time></trkpt><trkpt lat="38.032023610411635" lon="12.818472195271886"><ele>66.0</ele><time>2026-04-28T08:53:40Z</time></trkpt><trkpt lat="38.03205527462642" lon="12.818207758558291"><ele>68.0</ele><time>2026-04-28T08:53:41Z</time></trkpt><trkpt lat="38.03208990088286" lon="12.817912817444824"><ele>70.0</ele><time>2026-04-28T08:53:42Z</time></trkpt><trkpt lat="38.03214674050567" lon="12.817594233125545"><ele>78.5</ele><time>2026-04-28T08:53:43Z</time></trkpt><trkpt lat="38.03222906512265" lon="12.817297524891183"><ele>87.0</ele><time>2026-04-28T08:53:44Z</time></trkpt><trkpt lat="38.03229496142374" lon="12.817039720252483"><ele>91.0</ele><time>2026-04-28T08:53:45Z</time></trkpt><trkpt lat="38.03233800272385" lon="12.816796429900664"><ele>95.0</ele><time>2026-04-28T08:53:46Z</time></trkpt><trkpt lat="38.032364260264316" lon="12.816575650126286"><ele>99.0</ele><time>2026-04-28T08:53:47Z</time></trkpt><trkpt lat="38.03234517279368" lon="12.81637313378165"><ele>99.0</ele><time>2026-04-28T08:53:48Z</time></trkpt><trkpt lat="38.032277217339086" lon="12.81618451999699"><ele>99.0</ele><time>2026-04-28T08:53:49Z</time></trkpt><trkpt lat="38.03216996259428" lon="12.816015883238432"><ele>99.0</ele><time>2026-04-28T08:53:50Z</time></trkpt><trkpt lat="38.0320256269968" lon="12.815867826791534"><ele>92.33333333333333</ele><time>2026-04-28T08:53:51Z</time></trkpt><trkpt lat="38.03184403508343" lon="12.815728719131052"><ele>85.66666666666666</ele><time>2026-04-28T08:53:52Z</time></trkpt><trkpt lat="38.03165771783189" lon="12.815567255899904"><ele>79.0</ele><time>2026-04-28T08:53:53Z</time></trkpt><trkpt lat="38.03148518269336" lon="12.815401515067755"><ele>86.66666666666666</ele><time>2026-04-28T08:53:54Z</time></trkpt><trkpt lat="38.0313302898457" lon="12.815228460249877"><ele>94.33333333333333</ele><time>2026-04-28T08:53:55Z</time></trkpt><trkpt lat="38.031193334509354" lon="12.815031675929786"><ele>102.0</ele><time>2026-04-28T08:53:56Z</time></trkpt><trkpt lat="38.03108541972382" lon="12.814816492762331"><ele>102.0</ele><time>2026-04-28T08:53:57Z</time></trkpt><trkpt lat="38.03099590107286" lon="12.814604124926966"><ele>102.0</ele><time>2026-04-28T08:53:58Z</time></trkpt><trkpt lat="38.03093139506381" lon="12.81440100237086"><ele>102.0</ele><time>2026-04-28T08:53:59Z</time></trkpt><trkpt lat="38.030902727781616" lon="12.81420123258457"><ele>99.66666666666667</ele><time>2026-04-28T08:54:00Z</time></trkpt><trkpt lat="38.030914522796174" lon="12.813986869990275"><ele>97.33333333333334</ele><time>2026-04-28T08:54:01Z</time></trkpt><trkpt lat="38.03093343325297" lon="12.81375286011744"><ele>95.0</ele><time>2026-04-28T08:54:02Z</time></trkpt><trkpt lat="38.03096834923078" lon="12.813517289292859"><ele>95.0</ele><time>2026-04-28T08:54:03Z</time></trkpt><trkpt lat="38.031024660753616" lon="12.81328772719802"><ele>95.0</ele><time>2026-04-28T08:54:04Z</time></trkpt><trkpt lat="38.031086798979516" lon="12.813061338691378"><ele>95.0</ele><time>2026-04-28T08:54:05Z</time></trkpt><trkpt lat="38.03112037881548" lon="12.812828490667313"><ele>96.5</ele><time>2026-04-28T08:54:06Z</time></trkpt><trkpt lat="38.03111879701622" lon="12.812542948122642"><ele>98.0</ele><time>2026-04-28T08:54:07Z</time></trkpt><trkpt lat="38.03110698746343" lon="12.81225512873454"><ele>98.0</ele><time>2026-04-28T08:54:08Z</time></trkpt><trkpt lat="38.03106734646621" lon="12.811982241917063"><ele>98.0</ele><time>2026-04-28T08:54:09Z</time></trkpt><trkpt lat="38.03100894036264" lon="12.81174697744628"><ele>98.0</ele><time>2026-04-28T08:54:10Z</time></trkpt><trkpt lat="38.03093886119733" lon="12.811537478647667"><ele>97.33333333333333</ele><time>2026-04-28T08:54:11Z</time></trkpt><trkpt lat="38.030878751426" lon="12.811333200534863"><ele>96.66666666666666</ele><time>2026-04-28T08:54:12Z</time></trkpt><trkpt lat="38.0308156445379" lon="12.811156928532489"><ele>96.0</ele><time>2026-04-28T08:54:13Z</time></trkpt><trkpt lat="38.030769888739925" lon="12.81097848995642"><ele>96.66666666666666</ele><time>2026-04-28T08:54:14Z</time></trkpt><trkpt lat="38.03077354496742" lon="12.810794655000151"><ele>97.33333333333333</ele><time>2026-04-28T08:54:15Z</time></trkpt><trkpt lat="38.03080892562013" lon="12.810605931339849"><ele>98.0</ele><time>2026-04-28T08:54:16Z</time></trkpt><trkpt lat="38.03085622017037" lon="12.810399279309976"><ele>98.0</ele><time>2026-04-28T08:54:17Z</time></trkpt><trkpt lat="38.03090514854183" lon="12.810231687538606"><ele>98.0</ele><time>2026-04-28T08:54:18Z</time></trkpt><trkpt lat="38.030975519904345" lon="12.81006489712348"><ele>98.0</ele><time>2026-04-28T08:54:19Z</time></trkpt><trkpt lat="38.031076772863656" lon="12.809889151188646"><ele>103.66666666666666</ele><time>2026-04-28T08:54:20Z</time></trkpt><trkpt lat="38.03124586389231" lon="12.809780668619116"><ele>109.33333333333334</ele><time>2026-04-28T08:54:21Z</time></trkpt><trkpt lat="38.031397987604905" lon="12.809700037053593"><ele>115.0</ele><time>2026-04-28T08:54:22Z</time></trkpt><trkpt lat="38.031527760697365" lon="12.809636997430971"><ele>115.0</ele><time>2026-04-28T08:54:23Z</time></trkpt><trkpt lat="38.031628583077875" lon="12.809539157013072"><ele>115.0</ele><time>2026-04-28T08:54:24Z</time></trkpt><trkpt lat="38.031707629646704" lon="12.809397677216142"><ele>115.0</ele><time>2026-04-28T08:54:25Z</time></trkpt><trkpt lat="38.03174222021939" lon="12.809221845412301"><ele>115.0</ele><time>2026-04-28T08:54:26Z</time></trkpt><trkpt lat="38.03173109956798" lon="12.809038838635578"><ele>108.66666666666667</ele><time>2026-04-28T08:54:27Z</time></trkpt><trkpt lat="38.031679276725995" lon="12.808859193300002"><ele>102.33333333333334</ele><time>2026-04-28T08:54:28Z</time></trkpt><trkpt lat="38.03158137597365" lon="12.80870822796373"><ele>96.0</ele><time>2026-04-28T08:54:29Z</time></trkpt><trkpt lat="38.03143440924865" lon="12.808575094078224"><ele>104.0</ele><time>2026-04-28T08:54:30Z</time></trkpt><trkpt lat="38.03126428355907" lon="12.808443786182139"><ele>112.0</ele><time>2026-04-28T08:54:31Z</time></trkpt><trkpt lat="38.03109709461806" lon="12.808299328725369"><ele>120.0</ele><time>2026-04-28T08:54:32Z</time></trkpt><trkpt lat="38.030944931392455" lon="12.808151253756863"><ele>120.0</ele><time>2026-04-28T08:54:33Z</time></trkpt><trkpt lat="38.030818171539956" lon="12.807973591587574"><ele>120.0</ele><time>2026-04-28T08:54:34Z</time></trkpt><trkpt lat="38.03073235058019" lon="12.807749992542542"><ele>120.0</ele><time>2026-04-28T08:54:35Z</time></trkpt><trkpt lat="38.030683710888404" lon="12.807500805372698"><ele>125.66666666666666</ele><time>2026-04-28T08:54:36Z</time></trkpt><trkpt lat="38.03065576945011" lon="12.807237154165147"><ele>131.33333333333331</ele><time>2026-04-28T08:54:37Z</time></trkpt><trkpt lat="38.030604456646564" lon="12.806968574308708"><ele>137.0</ele><time>2026-04-28T08:54:38Z</time></trkpt><trkpt lat="38.030514631634716" lon="12.806679131290851"><ele>137.0</ele><time>2026-04-28T08:54:39Z</time></trkpt><trkpt lat="38.03039432581601" lon="12.806405685742225"><ele>137.0</ele><time>2026-04-28T08:54:40Z</time></trkpt><trkpt lat="38.030245490587426" lon="12.80615216500534"><ele>129.5</ele><time>2026-04-28T08:54:41Z</time></trkpt><trkpt lat="38.030083221836165" lon="12.805920457980138"><ele>122.0</ele><time>2026-04-28T08:54:42Z</time></trkpt><trkpt lat="38.029940296027284" lon="12.80571685275297"><ele>138.33333333333331</ele><time>2026-04-28T08:54:43Z</time></trkpt><trkpt lat="38.02982340254825" lon="12.805521127048255"><ele>154.66666666666666</ele><time>2026-04-28T08:54:44Z</time></trkpt><trkpt lat="38.02971705485579" lon="12.805342178056573"><ele>171.0</ele><time>2026-04-28T08:54:45Z</time></trkpt><trkpt lat="38.02962684972596" lon="12.805170278199355"><ele>164.0</ele><time>2026-04-28T08:54:46Z</time></trkpt><trkpt lat="38.029574946259146" lon="12.80497848505482"><ele>157.0</ele><time>2026-04-28T08:54:47Z</time></trkpt><trkpt lat="38.02952362531419" lon="12.804796344713706"><ele>150.0</ele><time>2026-04-28T08:54:48Z</time></trkpt><trkpt lat="38.02951416071416" lon="12.804611396344969"><ele>150.0</ele><time>2026-04-28T08:54:49Z</time></trkpt><trkpt lat="38.02952297526271" lon="12.804424719459565"><ele>150.0</ele><time>2026-04-28T08:54:50Z</time></trkpt><trkpt lat="38.02953993999573" lon="12.804261315251203"><ele>150.0</ele><time>2026-04-28T08:54:51Z</time></trkpt><trkpt lat="38.02953670630332" lon="12.804111992006064"><ele>150.0</ele><time>2026-04-28T08:54:52Z</time></trkpt><trkpt lat="38.02950123903563" lon="12.803955226293734"><ele>146.0</ele><time>2026-04-28T08:54:53Z</time></trkpt><trkpt lat="38.02942306338213" lon="12.80379426877161"><ele>142.0</ele><time>2026-04-28T08:54:54Z</time></trkpt><trkpt lat="38.029322053488" lon="12.80359323871751"><ele>138.0</ele><time>2026-04-28T08:54:55Z</time></trkpt><trkpt lat="38.02920208035479" lon="12.803403835368094"><ele>147.66666666666666</ele><time>2026-04-28T08:54:56Z</time></trkpt><trkpt lat="38.029094440018014" lon="12.803234887400489"><ele>157.33333333333331</ele><time>2026-04-28T08:54:57Z</time></trkpt><trkpt lat="38.029012480709774" lon="12.80307416618037"><ele>167.0</ele><time>2026-04-28T08:54:58Z</time></trkpt><trkpt lat="38.02893642610392" lon="12.802917546913385"><ele>167.0</ele><time>2026-04-28T08:54:59Z</time></trkpt><trkpt lat="38.02887853962368" lon="12.802749221262557"><ele>167.0</ele><time>2026-04-28T08:55:00Z</time></trkpt><trkpt lat="38.028820296081584" lon="12.802575007129088"><ele>167.0</ele><time>2026-04-28T08:55:01Z</time></trkpt><trkpt lat="38.028755695708966" lon="12.802395081310918"><ele>167.0</ele><time>2026-04-28T08:55:02Z</time></trkpt><trkpt lat="38.028666050300615" lon="12.802220930340386"><ele>162.33333333333331</ele><time>2026-04-28T08:55:03Z</time></trkpt><trkpt lat="38.02856619294655" lon="12.802070409744555"><ele>157.66666666666666</ele><time>2026-04-28T08:55:03.999Z</time></trkpt><trkpt lat="38.02845801262083" lon="12.801934576641703"><ele>153.0</ele><time>2026-04-28T08:55:04.999Z</time></trkpt><trkpt lat="38.028336805766614" lon="12.801812471258497"><ele>153.66666666666666</ele><time>2026-04-28T08:55:05.999Z</time></trkpt><trkpt lat="38.02821759690145" lon="12.801700557559135"><ele>154.33333333333331</ele><time>2026-04-28T08:55:06.999Z</time></trkpt><trkpt lat="38.028078405345916" lon="12.801603196761489"><ele>155.0</ele><time>2026-04-28T08:55:07.999Z</time></trkpt><trkpt lat="38.027887413882084" lon="12.801487106371017"><ele>155.0</ele><time>2026-04-28T08:55:08.999Z</time></trkpt><trkpt lat="38.02764795204944" lon="12.801424354253195"><ele>155.0</ele><time>2026-04-28T08:55:09.999Z</time></trkpt><trkpt lat="38.02743935813999" lon="12.80134168858088"><ele>161.0</ele><time>2026-04-28T08:55:10.999Z</time></trkpt><trkpt lat="38.02725794908261" lon="12.80127297087399"><ele>167.0</ele><time>2026-04-28T08:55:11.999Z</time></trkpt><trkpt lat="38.02711691457205" lon="12.801165611235511"><ele>173.0</ele><time>2026-04-28T08:55:12.999Z</time></trkpt><trkpt lat="38.0269940747649" lon="12.801002283221322"><ele>169.0</ele><time>2026-04-28T08:55:13.999Z</time></trkpt><trkpt lat="38.0268809052952" lon="12.800790334845022"><ele>165.0</ele><time>2026-04-28T08:55:14.999Z</time></trkpt><trkpt lat="38.02676971701673" lon="12.80052008426304"><ele>161.0</ele><time>2026-04-28T08:55:15.999Z</time></trkpt><trkpt lat="38.02666145464464" lon="12.800209623256618"><ele>183.5</ele><time>2026-04-28T08:55:16.999Z</time></trkpt><trkpt lat="38.026557279945926" lon="12.799900549049863"><ele>206.0</ele><time>2026-04-28T08:55:17.999Z</time></trkpt><trkpt lat="38.026469002291336" lon="12.799587611203584"><ele>203.0</ele><time>2026-04-28T08:55:18.999Z</time></trkpt><trkpt lat="38.026408807207886" lon="12.799277754127699"><ele>200.0</ele><time>2026-04-28T08:55:19.999Z</time></trkpt><trkpt lat="38.026383681286745" lon="12.798959151940062"><ele>200.0</ele><time>2026-04-28T08:55:20.999Z</time></trkpt><trkpt lat="38.0263828563921" lon="12.79863173959049"><ele>200.0</ele><time>2026-04-28T08:55:21.999Z</time></trkpt><trkpt lat="38.026399937069385" lon="12.79834339252361"><ele>200.33333333333334</ele><time>2026-04-28T08:55:22.999Z</time></trkpt><trkpt lat="38.026429714838706" lon="12.798086797042592"><ele>200.66666666666669</ele><time>2026-04-28T08:55:23.999Z</time></trkpt><trkpt lat="38.02643944695462" lon="12.797858495739916"><ele>201.0</ele><time>2026-04-28T08:55:24.999Z</time></trkpt><trkpt lat="38.026388860970464" lon="12.79761668843017"><ele>201.0</ele><time>2026-04-28T08:55:25.999Z</time></trkpt><trkpt lat="38.026305578378576" lon="12.797357353282477"><ele>201.0</ele><time>2026-04-28T08:55:26.999Z</time></trkpt><trkpt lat="38.02621030333415" lon="12.797072051148577"><ele>195.5</ele><time>2026-04-28T08:55:27.999Z</time></trkpt><trkpt lat="38.026126305817336" lon="12.796750574509328"><ele>190.0</ele><time>2026-04-28T08:55:28.999Z</time></trkpt><trkpt lat="38.026058947606366" lon="12.796416517487138"><ele>190.0</ele><time>2026-04-28T08:55:29.999Z</time></trkpt><trkpt lat="38.02601893035545" lon="12.796097551757017"><ele>190.0</ele><time>2026-04-28T08:55:30.999Z</time></trkpt><trkpt lat="38.025996304004245" lon="12.795816598291491"><ele>188.0</ele><time>2026-04-28T08:55:31.999Z</time></trkpt><trkpt lat="38.02597101711418" lon="12.795569409066328"><ele>186.0</ele><time>2026-04-28T08:55:32.999Z</time></trkpt><trkpt lat="38.025934852054576" lon="12.795345664036896"><ele>184.0</ele><time>2026-04-28T08:55:34Z</time></trkpt><trkpt lat="38.025865969489125" lon="12.795116292209599"><ele>194.5</ele><time>2026-04-28T08:55:35Z</time></trkpt><trkpt lat="38.02574130907133" lon="12.794879985340097"><ele>205.0</ele><time>2026-04-28T08:55:36Z</time></trkpt><trkpt lat="38.025576064146335" lon="12.794675475707246"><ele>205.0</ele><time>2026-04-28T08:55:37Z</time></trkpt><trkpt lat="38.0254379831223" lon="12.794487469174843"><ele>205.0</ele><time>2026-04-28T08:55:38Z</time></trkpt><trkpt lat="38.02534195518116" lon="12.794267502435368"><ele>205.0</ele><time>2026-04-28T08:55:39Z</time></trkpt><trkpt lat="38.02523823525024" lon="12.794016032802197"><ele>197.5</ele><time>2026-04-28T08:55:40Z</time></trkpt><trkpt lat="38.025189180234165" lon="12.793695132654276"><ele>190.0</ele><time>2026-04-28T08:55:41Z</time></trkpt><trkpt lat="38.02514958330042" lon="12.793335318160503"><ele>190.0</ele><time>2026-04-28T08:55:42Z</time></trkpt><trkpt lat="38.02512586416461" lon="12.792967397212506"><ele>190.0</ele><time>2026-04-28T08:55:43Z</time></trkpt><trkpt lat="38.02506951849396" lon="12.792618061168572"><ele>193.0</ele><time>2026-04-28T08:55:44Z</time></trkpt><trkpt lat="38.0250199988881" lon="12.792307615049689"><ele>196.0</ele><time>2026-04-28T08:55:45Z</time></trkpt><trkpt lat="38.02494538293745" lon="12.792020947183278"><ele>204.5</ele><time>2026-04-28T08:55:46Z</time></trkpt><trkpt lat="38.02484152414993" lon="12.791742561549729"><ele>213.0</ele><time>2026-04-28T08:55:47Z</time></trkpt><trkpt lat="38.02471621398508" lon="12.791476460465955"><ele>213.0</ele><time>2026-04-28T08:55:48Z</time></trkpt><trkpt lat="38.02457498387007" lon="12.791212582930228"><ele>213.0</ele><time>2026-04-28T08:55:49Z</time></trkpt><trkpt lat="38.024412346587766" lon="12.790962199732062"><ele>214.5</ele><time>2026-04-28T08:55:50Z</time></trkpt><trkpt lat="38.02422094511233" lon="12.790740967387638"><ele>216.0</ele><time>2026-04-28T08:55:51Z</time></trkpt><trkpt lat="38.023969311286905" lon="12.7905453337973"><ele>216.0</ele><time>2026-04-28T08:55:52Z</time></trkpt><trkpt lat="38.02372761940395" lon="12.790343910958505"><ele>216.0</ele><time>2026-04-28T08:55:53Z</time></trkpt><trkpt lat="38.023477606525354" lon="12.790155524236388"><ele>214.0</ele><time>2026-04-28T08:55:54Z</time></trkpt><trkpt lat="38.02324099053356" lon="12.789977019473957"><ele>212.0</ele><time>2026-04-28T08:55:55Z</time></trkpt><trkpt lat="38.023037645471824" lon="12.789792644173968"><ele>212.0</ele><time>2026-04-28T08:55:56Z</time></trkpt><trkpt lat="38.02284873104342" lon="12.789624625696431"><ele>212.0</ele><time>2026-04-28T08:55:57Z</time></trkpt><trkpt lat="38.02265956375235" lon="12.789481044175592"><ele>212.0</ele><time>2026-04-28T08:55:58Z</time></trkpt><trkpt lat="38.02250137918291" lon="12.789355692370963"><ele>212.0</ele><time>2026-04-28T08:55:59Z</time></trkpt><trkpt lat="38.022339819455794" lon="12.789235255531423"><ele>212.0</ele><time>2026-04-28T08:56:00Z</time></trkpt><trkpt lat="38.022195871612574" lon="12.789108210101451"><ele>212.33333333333334</ele><time>2026-04-28T08:56:01Z</time></trkpt><trkpt lat="38.02205038283851" lon="12.78898602053966"><ele>212.66666666666669</ele><time>2026-04-28T08:56:02Z</time></trkpt><trkpt lat="38.021908079222655" lon="12.788857097810183"><ele>213.0</ele><time>2026-04-28T08:56:03Z</time></trkpt><trkpt lat="38.02178341134595" lon="12.788705565778749"><ele>213.0</ele><time>2026-04-28T08:56:04Z</time></trkpt><trkpt lat="38.021677634885" lon="12.788536689284708"><ele>213.0</ele><time>2026-04-28T08:56:05Z</time></trkpt><trkpt lat="38.02160461469371" lon="12.788357264295215"><ele>213.0</ele><time>2026-04-28T08:56:06Z</time></trkpt><trkpt lat="38.02153795477924" lon="12.788175815619383"><ele>213.66666666666669</ele><time>2026-04-28T08:56:07Z</time></trkpt><trkpt lat="38.02149033246138" lon="12.787994462655416"><ele>214.33333333333334</ele><time>2026-04-28T08:56:08Z</time></trkpt><trkpt lat="38.02144524202755" lon="12.787797266171259"><ele>215.0</ele><time>2026-04-28T08:56:09Z</time></trkpt><trkpt lat="38.02141354068386" lon="12.787580006235466"><ele>208.66666666666669</ele><time>2026-04-28T08:56:10Z</time></trkpt><trkpt lat="38.02139553630765" lon="12.787343536122368"><ele>202.33333333333331</ele><time>2026-04-28T08:56:11Z</time></trkpt><trkpt lat="38.021418453250426" lon="12.787101090921283"><ele>196.0</ele><time>2026-04-28T08:56:12Z</time></trkpt><trkpt lat="38.021456946682946" lon="12.786887197072629"><ele>194.33333333333331</ele><time>2026-04-28T08:56:13Z</time></trkpt><trkpt lat="38.02150872125249" lon="12.786676563975142"><ele>192.66666666666666</ele><time>2026-04-28T08:56:14Z</time></trkpt><trkpt lat="38.02155818771155" lon="12.786476754644713"><ele>191.0</ele><time>2026-04-28T08:56:15Z</time></trkpt><trkpt lat="38.021627599826616" lon="12.78629408489605"><ele>191.33333333333331</ele><time>2026-04-28T08:56:16Z</time></trkpt><trkpt lat="38.02168490009101" lon="12.78612279437185"><ele>191.66666666666666</ele><time>2026-04-28T08:56:17Z</time></trkpt><trkpt lat="38.02179593917269" lon="12.785936266158128"><ele>192.0</ele><time>2026-04-28T08:56:18Z</time></trkpt><trkpt lat="38.02193347977429" lon="12.78574626490136"><ele>192.0</ele><time>2026-04-28T08:56:19Z</time></trkpt><trkpt lat="38.02211359067524" lon="12.78555229957063"><ele>192.0</ele><time>2026-04-28T08:56:20Z</time></trkpt><trkpt lat="38.022319850614615" lon="12.785359777589017"><ele>190.5</ele><time>2026-04-28T08:56:21Z</time></trkpt><trkpt lat="38.02253527925978" lon="12.785104188810594"><ele>189.0</ele><time>2026-04-28T08:56:22Z</time></trkpt><trkpt lat="38.022750574318806" lon="12.784855438952421"><ele>189.0</ele><time>2026-04-28T08:56:23Z</time></trkpt><trkpt lat="38.02297611703574" lon="12.784600369925103"><ele>189.0</ele><time>2026-04-28T08:56:24Z</time></trkpt><trkpt lat="38.02320653881957" lon="12.78433922764357"><ele>185.0</ele><time>2026-04-28T08:56:25Z</time></trkpt><trkpt lat="38.02344046584761" lon="12.784071290966292"><ele>181.0</ele><time>2026-04-28T08:56:26Z</time></trkpt><trkpt lat="38.02367876638873" lon="12.78380549725213"><ele>181.0</ele><time>2026-04-28T08:56:27Z</time></trkpt><trkpt lat="38.023917774731174" lon="12.78354216783042"><ele>181.0</ele><time>2026-04-28T08:56:28Z</time></trkpt><trkpt lat="38.02414373761919" lon="12.783283032993095"><ele>176.5</ele><time>2026-04-28T08:56:29Z</time></trkpt><trkpt lat="38.02435417238837" lon="12.783043557107804"><ele>172.0</ele><time>2026-04-28T08:56:30Z</time></trkpt><trkpt lat="38.024554535005414" lon="12.782802890852114"><ele>169.5</ele><time>2026-04-28T08:56:31Z</time></trkpt><trkpt lat="38.02474395208795" lon="12.782545073990454"><ele>167.0</ele><time>2026-04-28T08:56:32Z</time></trkpt><trkpt lat="38.02491408728489" lon="12.78226183711575"><ele>168.0</ele><time>2026-04-28T08:56:33Z</time></trkpt><trkpt lat="38.02507036919975" lon="12.781954516975167"><ele>169.0</ele><time>2026-04-28T08:56:34Z</time></trkpt><trkpt lat="38.02521572050519" lon="12.781632247628684"><ele>173.5</ele><time>2026-04-28T08:56:35Z</time></trkpt><trkpt lat="38.0253329063975" lon="12.781286760758984"><ele>178.0</ele><time>2026-04-28T08:56:36Z</time></trkpt><trkpt lat="38.025426033859446" lon="12.780921703130204"><ele>180.5</ele><time>2026-04-28T08:56:37Z</time></trkpt><trkpt lat="38.02549681165317" lon="12.780571438855906"><ele>183.0</ele><time>2026-04-28T08:56:38Z</time></trkpt><trkpt lat="38.02555127032007" lon="12.780250977605203"><ele>186.0</ele><time>2026-04-28T08:56:39Z</time></trkpt><trkpt lat="38.025617004621466" lon="12.779955285603215"><ele>189.0</ele><time>2026-04-28T08:56:40Z</time></trkpt><trkpt lat="38.02568021530446" lon="12.779677632000155"><ele>189.0</ele><time>2026-04-28T08:56:41Z</time></trkpt><trkpt lat="38.02573234585972" lon="12.779418037851785"><ele>189.0</ele><time>2026-04-28T08:56:42Z</time></trkpt><trkpt lat="38.02578864918056" lon="12.779172196374759"><ele>189.0</ele><time>2026-04-28T08:56:43Z</time></trkpt><trkpt lat="38.025835604445035" lon="12.778939149769577"><ele>187.33333333333334</ele><time>2026-04-28T08:56:44Z</time></trkpt><trkpt lat="38.025879979882156" lon="12.778708892795514"><ele>185.66666666666669</ele><time>2026-04-28T08:56:45Z</time></trkpt><trkpt lat="38.025923457756036" lon="12.778483380719297"><ele>184.0</ele><time>2026-04-28T08:56:46Z</time></trkpt><trkpt lat="38.02596882935446" lon="12.77826450140955"><ele>184.0</ele><time>2026-04-28T08:56:47Z</time></trkpt><trkpt lat="38.02599931343725" lon="12.778071307295457"><ele>184.0</ele><time>2026-04-28T08:56:48Z</time></trkpt><trkpt lat="38.026026241832234" lon="12.777892019730997"><ele>184.0</ele><time>2026-04-28T08:56:49Z</time></trkpt><trkpt lat="38.02605597842527" lon="12.777694440912075"><ele>184.66666666666669</ele><time>2026-04-28T08:56:50Z</time></trkpt><trkpt lat="38.026084066256075" lon="12.777489885058412"><ele>185.33333333333334</ele><time>2026-04-28T08:56:51Z</time></trkpt><trkpt lat="38.02610637315526" lon="12.777279308264529"><ele>186.0</ele><time>2026-04-28T08:56:52Z</time></trkpt><trkpt lat="38.026119881142534" lon="12.777033337417388"><ele>187.66666666666666</ele><time>2026-04-28T08:56:53Z</time></trkpt><trkpt lat="38.026136074874564" lon="12.776770076516573"><ele>189.33333333333331</ele><time>2026-04-28T08:56:54Z</time></trkpt><trkpt lat="38.026148416272505" lon="12.776470227900186"><ele>191.0</ele><time>2026-04-28T08:56:55Z</time></trkpt><trkpt lat="38.02616203224916" lon="12.776133875481886"><ele>194.5</ele><time>2026-04-28T08:56:56Z</time></trkpt><trkpt lat="38.02619599887459" lon="12.775770738981375"><ele>198.0</ele><time>2026-04-28T08:56:57Z</time></trkpt><trkpt lat="38.02622108468028" lon="12.775414101893611"><ele>198.0</ele><time>2026-04-28T08:56:58Z</time></trkpt><trkpt lat="38.02623698885006" lon="12.775048685325304"><ele>198.0</ele><time>2026-04-28T08:56:59Z</time></trkpt><trkpt lat="38.02623908420343" lon="12.774720371746895"><ele>198.0</ele><time>2026-04-28T08:57:00Z</time></trkpt><trkpt lat="38.02625131391807" lon="12.77439824277468"><ele>198.0</ele><time>2026-04-28T08:57:01Z</time></trkpt><trkpt lat="38.02626345855209" lon="12.774021148554707"><ele>199.0</ele><time>2026-04-28T08:57:02Z</time></trkpt><trkpt lat="38.026290114698824" lon="12.773635659493177"><ele>200.0</ele><time>2026-04-28T08:57:03Z</time></trkpt><trkpt lat="38.02633074991336" lon="12.77330956273546"><ele>202.5</ele><time>2026-04-28T08:57:04Z</time></trkpt><trkpt lat="38.02634410983349" lon="12.773004262438269"><ele>205.0</ele><time>2026-04-28T08:57:04.999Z</time></trkpt><trkpt lat="38.026316741520475" lon="12.772699331336437"><ele>206.5</ele><time>2026-04-28T08:57:05.999Z</time></trkpt><trkpt lat="38.02626149774599" lon="12.772414992871568"><ele>208.0</ele><time>2026-04-28T08:57:06.999Z</time></trkpt><trkpt lat="38.02618222016028" lon="12.772143575544701"><ele>208.0</ele><time>2026-04-28T08:57:07.999Z</time></trkpt><trkpt lat="38.026060926331894" lon="12.77186122704788"><ele>208.0</ele><time>2026-04-28T08:57:08.999Z</time></trkpt><trkpt lat="38.025917159879" lon="12.771593830132906"><ele>209.66666666666666</ele><time>2026-04-28T08:57:09.999Z</time></trkpt><trkpt lat="38.02579520879195" lon="12.771358462078526"><ele>211.33333333333331</ele><time>2026-04-28T08:57:10.999Z</time></trkpt><trkpt lat="38.02568487079102" lon="12.77113865533815"><ele>213.0</ele><time>2026-04-28T08:57:11.999Z</time></trkpt><trkpt lat="38.025588992341966" lon="12.770937992095254"><ele>213.0</ele><time>2026-04-28T08:57:12.999Z</time></trkpt><trkpt lat="38.02549844464336" lon="12.770752431252527"><ele>213.0</ele><time>2026-04-28T08:57:13.999Z</time></trkpt><trkpt lat="38.02541077012104" lon="12.770580061947474"><ele>213.0</ele><time>2026-04-28T08:57:14.999Z</time></trkpt><trkpt lat="38.02533174670246" lon="12.770412696762806"><ele>213.0</ele><time>2026-04-28T08:57:15.999Z</time></trkpt><trkpt lat="38.02525456672373" lon="12.770235232487268"><ele>213.0</ele><time>2026-04-28T08:57:16.999Z</time></trkpt><trkpt lat="38.025166553333385" lon="12.770056423047965"><ele>213.0</ele><time>2026-04-28T08:57:17.999Z</time></trkpt><trkpt lat="38.02511873885164" lon="12.769864504704811"><ele>212.0</ele><time>2026-04-28T08:57:18.999Z</time></trkpt><trkpt lat="38.02507350366087" lon="12.769665315332931"><ele>211.0</ele><time>2026-04-28T08:57:19.999Z</time></trkpt><trkpt lat="38.02502202902206" lon="12.769432850213544"><ele>210.0</ele><time>2026-04-28T08:57:20.999Z</time></trkpt><trkpt lat="38.02495086350846" lon="12.76917383170322"><ele>212.33333333333331</ele><time>2026-04-28T08:57:21.999Z</time></trkpt><trkpt lat="38.02490531280606" lon="12.768913545181737"><ele>214.66666666666666</ele><time>2026-04-28T08:57:22.999Z</time></trkpt><trkpt lat="38.02485084467425" lon="12.76866960847519"><ele>217.0</ele><time>2026-04-28T08:57:23.999Z</time></trkpt><trkpt lat="38.02480545904626" lon="12.768450424410322"><ele>217.0</ele><time>2026-04-28T08:57:24.999Z</time></trkpt><trkpt lat="38.024746566554136" lon="12.76823926432257"><ele>217.0</ele><time>2026-04-28T08:57:25.999Z</time></trkpt><trkpt lat="38.02466212321441" lon="12.768035962211156"><ele>217.0</ele><time>2026-04-28T08:57:26.999Z</time></trkpt><trkpt lat="38.02455190881624" lon="12.767800064872638"><ele>216.5</ele><time>2026-04-28T08:57:27.999Z</time></trkpt><trkpt lat="38.02440143604383" lon="12.767537512486593"><ele>216.0</ele><time>2026-04-28T08:57:28.999Z</time></trkpt><trkpt lat="38.02420637819307" lon="12.767250636204391"><ele>217.0</ele><time>2026-04-28T08:57:29.999Z</time></trkpt><trkpt lat="38.023973806725195" lon="12.766936837720653"><ele>218.0</ele><time>2026-04-28T08:57:30.999Z</time></trkpt><trkpt lat="38.0237373357801" lon="12.7666050775285"><ele>218.0</ele><time>2026-04-28T08:57:31.999Z</time></trkpt><trkpt lat="38.02347845063719" lon="12.766247435126036"><ele>218.0</ele><time>2026-04-28T08:57:32.999Z</time></trkpt><trkpt lat="38.023204509503735" lon="12.765879474678869"><ele>216.0</ele><time>2026-04-28T08:57:33.999Z</time></trkpt><trkpt lat="38.02292193729244" lon="12.765496112022483"><ele>214.0</ele><time>2026-04-28T08:57:34.999Z</time></trkpt><trkpt lat="38.02261956445224" lon="12.765097058416304"><ele>216.0</ele><time>2026-04-28T08:57:35.999Z</time></trkpt><trkpt lat="38.02232505914667" lon="12.764685388597057"><ele>218.0</ele><time>2026-04-28T08:57:36.999Z</time></trkpt><trkpt lat="38.02203881339864" lon="12.764321953273045"><ele>221.5</ele><time>2026-04-28T08:57:37.999Z</time></trkpt><trkpt lat="38.02180950592306" lon="12.763977283842946"><ele>225.0</ele><time>2026-04-28T08:57:38.999Z</time></trkpt><trkpt lat="38.0215880998618" lon="12.76367270676423"><ele>230.5</ele><time>2026-04-28T08:57:40Z</time></trkpt><trkpt lat="38.021385857410024" lon="12.76337389543786"><ele>236.0</ele><time>2026-04-28T08:57:41Z</time></trkpt><trkpt lat="38.02120439047471" lon="12.763049117739042"><ele>236.0</ele><time>2026-04-28T08:57:42Z</time></trkpt><trkpt lat="38.021036603604365" lon="12.762689181259757"><ele>236.0</ele><time>2026-04-28T08:57:43Z</time></trkpt><trkpt lat="38.02088383966581" lon="12.762300101472077"><ele>239.0</ele><time>2026-04-28T08:57:44Z</time></trkpt><trkpt lat="38.020719012581566" lon="12.761869091534876"><ele>242.0</ele><time>2026-04-28T08:57:45Z</time></trkpt><trkpt lat="38.02053508810925" lon="12.761427673496973"><ele>245.0</ele><time>2026-04-28T08:57:46Z</time></trkpt><trkpt lat="38.02037283180996" lon="12.760978870338715"><ele>248.0</ele><time>2026-04-28T08:57:47Z</time></trkpt><trkpt lat="38.02023217356971" lon="12.760584611990192"><ele>248.0</ele><time>2026-04-28T08:57:48Z</time></trkpt><trkpt lat="38.02009666129734" lon="12.760217414717173"><ele>248.0</ele><time>2026-04-28T08:57:49Z</time></trkpt><trkpt lat="38.01996155605332" lon="12.759860370981015"><ele>247.0</ele><time>2026-04-28T08:57:50Z</time></trkpt><trkpt lat="38.01982776789062" lon="12.759498777694166"><ele>246.0</ele><time>2026-04-28T08:57:51Z</time></trkpt><trkpt lat="38.01969335807298" lon="12.759138734760581"><ele>242.5</ele><time>2026-04-28T08:57:52Z</time></trkpt><trkpt lat="38.01955624845765" lon="12.758766530308053"><ele>239.0</ele><time>2026-04-28T08:57:53Z</time></trkpt><trkpt lat="38.01943527697774" lon="12.758416519980212"><ele>236.5</ele><time>2026-04-28T08:57:54Z</time></trkpt><trkpt lat="38.019313955413836" lon="12.758069711786073"><ele>234.0</ele><time>2026-04-28T08:57:55Z</time></trkpt><trkpt lat="38.01919815642259" lon="12.757706065569726"><ele>232.5</ele><time>2026-04-28T08:57:56Z</time></trkpt><trkpt lat="38.019115500566166" lon="12.757312578936348"><ele>231.0</ele><time>2026-04-28T08:57:57Z</time></trkpt><trkpt lat="38.019048316325716" lon="12.756895243321544"><ele>231.0</ele><time>2026-04-28T08:57:58Z</time></trkpt><trkpt lat="38.018996473696646" lon="12.756463096117743"><ele>231.0</ele><time>2026-04-28T08:57:59Z</time></trkpt><trkpt lat="38.01900716620655" lon="12.756034080524177"><ele>231.0</ele><time>2026-04-28T08:58:00Z</time></trkpt><trkpt lat="38.019041789437026" lon="12.75561924054874"><ele>231.0</ele><time>2026-04-28T08:58:01Z</time></trkpt><trkpt lat="38.01911112580338" lon="12.755194602147377"><ele>227.5</ele><time>2026-04-28T08:58:02Z</time></trkpt><trkpt lat="38.01919842077548" lon="12.75479895606982"><ele>224.0</ele><time>2026-04-28T08:58:03Z</time></trkpt><trkpt lat="38.01928294058022" lon="12.75442522043751"><ele>222.0</ele><time>2026-04-28T08:58:04Z</time></trkpt><trkpt lat="38.01941304150924" lon="12.754039443340888"><ele>220.0</ele><time>2026-04-28T08:58:05Z</time></trkpt><trkpt lat="38.01953903759875" lon="12.75364009718376"><ele>218.5</ele><time>2026-04-28T08:58:06Z</time></trkpt><trkpt lat="38.019663308454724" lon="12.753220424453161"><ele>217.0</ele><time>2026-04-28T08:58:07Z</time></trkpt><trkpt lat="38.01978853876089" lon="12.752798080051818"><ele>215.0</ele><time>2026-04-28T08:58:08Z</time></trkpt><trkpt lat="38.019910294265436" lon="12.752365722338098"><ele>213.0</ele><time>2026-04-28T08:58:09Z</time></trkpt><trkpt lat="38.02004124135755" lon="12.751919246398323"><ele>211.0</ele><time>2026-04-28T08:58:10Z</time></trkpt><trkpt lat="38.020184722940456" lon="12.751460026817439"><ele>209.0</ele><time>2026-04-28T08:58:11Z</time></trkpt><trkpt lat="38.020318416827" lon="12.751011662016278"><ele>209.0</ele><time>2026-04-28T08:58:12Z</time></trkpt><trkpt lat="38.02045192488884" lon="12.750559683017983"><ele>209.0</ele><time>2026-04-28T08:58:13Z</time></trkpt><trkpt lat="38.02059293549642" lon="12.750087780164243"><ele>208.0</ele><time>2026-04-28T08:58:14Z</time></trkpt><trkpt lat="38.0207376457315" lon="12.749596658405858"><ele>207.0</ele><time>2026-04-28T08:58:15Z</time></trkpt><trkpt lat="38.020887276211695" lon="12.749094381940763"><ele>204.0</ele><time>2026-04-28T08:58:16Z</time></trkpt><trkpt lat="38.02104103280017" lon="12.748576393212874"><ele>201.0</ele><time>2026-04-28T08:58:17Z</time></trkpt><trkpt lat="38.02119693851736" lon="12.748037335023211"><ele>205.0</ele><time>2026-04-28T08:58:18Z</time></trkpt><trkpt lat="38.02135936933528" lon="12.747485491737077"><ele>205.0</ele><time>2026-04-28T08:58:19Z</time></trkpt><trkpt lat="38.02153003776651" lon="12.746916185593477"><ele>195.0</ele><time>2026-04-28T08:58:20Z</time></trkpt><trkpt lat="38.02170483526878" lon="12.746328775809625"><ele>191.0</ele><time>2026-04-28T08:58:21Z</time></trkpt><trkpt lat="38.02187930660307" lon="12.745769157892699"><ele>191.0</ele><time>2026-04-28T08:58:22Z</time></trkpt><trkpt lat="38.02203430351829" lon="12.745259813034943"><ele>191.0</ele><time>2026-04-28T08:58:23Z</time></trkpt><trkpt lat="38.02214825810249" lon="12.74478532197261"><ele>187.0</ele><time>2026-04-28T08:58:24Z</time></trkpt><trkpt lat="38.02227163712511" lon="12.744341827254393"><ele>183.0</ele><time>2026-04-28T08:58:25Z</time></trkpt><trkpt lat="38.02239117703638" lon="12.743929463685951"><ele>183.5</ele><time>2026-04-28T08:58:26Z</time></trkpt><trkpt lat="38.022498428099134" lon="12.743506695928195"><ele>184.0</ele><time>2026-04-28T08:58:27Z</time></trkpt><trkpt lat="38.022590155308066" lon="12.743060757671731"><ele>183.5</ele><time>2026-04-28T08:58:28Z</time></trkpt><trkpt lat="38.02265778827429" lon="12.742606029358152"><ele>183.0</ele><time>2026-04-28T08:58:29Z</time></trkpt><trkpt lat="38.02271682914658" lon="12.742141061341059"><ele>183.0</ele><time>2026-04-28T08:58:30Z</time></trkpt><trkpt lat="38.02276114004743" lon="12.74169558066557"><ele>183.0</ele><time>2026-04-28T08:58:31Z</time></trkpt><trkpt lat="38.02280649561287" lon="12.741286499717468"><ele>182.0</ele><time>2026-04-28T08:58:32Z</time></trkpt><trkpt lat="38.02284410844066" lon="12.740899925954942"><ele>181.0</ele><time>2026-04-28T08:58:33Z</time></trkpt><trkpt lat="38.022877624274855" lon="12.740520716684967"><ele>180.5</ele><time>2026-04-28T08:58:34Z</time></trkpt><trkpt lat="38.022918829309674" lon="12.740149117999458"><ele>180.0</ele><time>2026-04-28T08:58:35Z</time></trkpt><trkpt lat="38.02299095980421" lon="12.73977201092211"><ele>178.0</ele><time>2026-04-28T08:58:36Z</time></trkpt><trkpt lat="38.02307927763754" lon="12.73937870160568"><ele>176.0</ele><time>2026-04-28T08:58:37Z</time></trkpt><trkpt lat="38.02317757372429" lon="12.738974095787457"><ele>176.0</ele><time>2026-04-28T08:58:38Z</time></trkpt><trkpt lat="38.02327383781218" lon="12.738555174722135"><ele>176.0</ele><time>2026-04-28T08:58:39Z</time></trkpt><trkpt lat="38.02337082482966" lon="12.738130810113386"><ele>177.5</ele><time>2026-04-28T08:58:40Z</time></trkpt><trkpt lat="38.02346072304553" lon="12.737736048975087"><ele>179.0</ele><time>2026-04-28T08:58:41Z</time></trkpt><trkpt lat="38.023544643259875" lon="12.737364116319403"><ele>179.0</ele><time>2026-04-28T08:58:42Z</time></trkpt><trkpt lat="38.0236209973128" lon="12.737014554855577"><ele>179.0</ele><time>2026-04-28T08:58:43Z</time></trkpt><trkpt lat="38.02369930580251" lon="12.736687222342203"><ele>176.5</ele><time>2026-04-28T08:58:44Z</time></trkpt><trkpt lat="38.023773890907435" lon="12.73638378749032"><ele>174.0</ele><time>2026-04-28T08:58:45Z</time></trkpt><trkpt lat="38.02384728473629" lon="12.73611380750993"><ele>173.0</ele><time>2026-04-28T08:58:46Z</time></trkpt><trkpt lat="38.02390449639606" lon="12.735870085763857"><ele>172.0</ele><time>2026-04-28T08:58:47Z</time></trkpt><trkpt lat="38.02395892534173" lon="12.73564345468292"><ele>171.0</ele><time>2026-04-28T08:58:48Z</time></trkpt><trkpt lat="38.02401311841538" lon="12.735437497889531"><ele>171.0</ele><time>2026-04-28T08:58:49Z</time></trkpt><trkpt lat="38.02406858876239" lon="12.735244749526473"><ele>171.0</ele><time>2026-04-28T08:58:50Z</time></trkpt><trkpt lat="38.02412451778875" lon="12.735063690536148"><ele>171.0</ele><time>2026-04-28T08:58:51Z</time></trkpt><trkpt lat="38.02418789499658" lon="12.734884391575907"><ele>171.33333333333334</ele><time>2026-04-28T08:58:52Z</time></trkpt><trkpt lat="38.02425568708245" lon="12.734699204667795"><ele>171.66666666666669</ele><time>2026-04-28T08:58:53Z</time></trkpt><trkpt lat="38.024325795409254" lon="12.734523562067986"><ele>172.0</ele><time>2026-04-28T08:58:54Z</time></trkpt><trkpt lat="38.02439980598505" lon="12.73436373956109"><ele>172.0</ele><time>2026-04-28T08:58:55Z</time></trkpt><trkpt lat="38.02446997019528" lon="12.73420814305549"><ele>172.0</ele><time>2026-04-28T08:58:56Z</time></trkpt><trkpt lat="38.02454073071317" lon="12.73406221415218"><ele>172.0</ele><time>2026-04-28T08:58:57Z</time></trkpt><trkpt lat="38.02461469950165" lon="12.73391437669463"><ele>172.0</ele><time>2026-04-28T08:58:58Z</time></trkpt><trkpt lat="38.024691311141865" lon="12.733777001340444"><ele>172.0</ele><time>2026-04-28T08:58:59Z</time></trkpt><trkpt lat="38.024769048033505" lon="12.7336443288325"><ele>172.0</ele><time>2026-04-28T08:59:00Z</time></trkpt><trkpt lat="38.024847402356244" lon="12.733505480250386"><ele>172.0</ele><time>2026-04-28T08:59:01Z</time></trkpt><trkpt lat="38.024941329060674" lon="12.733342399626068"><ele>172.0</ele><time>2026-04-28T08:59:02Z</time></trkpt><trkpt lat="38.02504703210014" lon="12.733139737536112"><ele>173.0</ele><time>2026-04-28T08:59:03Z</time></trkpt><trkpt lat="38.025187324493146" lon="12.732909438402938"><ele>174.0</ele><time>2026-04-28T08:59:04Z</time></trkpt><trkpt lat="38.02534401935331" lon="12.73264929674004"><ele>169.5</ele><time>2026-04-28T08:59:05Z</time></trkpt><trkpt lat="38.025515940067955" lon="12.732351468943298"><ele>165.0</ele><time>2026-04-28T08:59:05.999Z</time></trkpt><trkpt lat="38.02571124704253" lon="12.732028567822002"><ele>164.5</ele><time>2026-04-28T08:59:06.999Z</time></trkpt><trkpt lat="38.02592842167327" lon="12.731684035881468"><ele>164.0</ele><time>2026-04-28T08:59:07.999Z</time></trkpt><trkpt lat="38.02615984702101" lon="12.731341529808866"><ele>161.5</ele><time>2026-04-28T08:59:08.999Z</time></trkpt><trkpt lat="38.02636779358355" lon="12.73099085793442"><ele>159.0</ele><time>2026-04-28T08:59:09.999Z</time></trkpt><trkpt lat="38.026549323398285" lon="12.730670817273914"><ele>158.5</ele><time>2026-04-28T08:59:10.999Z</time></trkpt><trkpt lat="38.02671727602562" lon="12.730371003481471"><ele>158.0</ele><time>2026-04-28T08:59:11.999Z</time></trkpt><trkpt lat="38.026875769756906" lon="12.730096372165793"><ele>158.0</ele><time>2026-04-28T08:59:12.999Z</time></trkpt><trkpt lat="38.02705394724902" lon="12.72983344793103"><ele>158.0</ele><time>2026-04-28T08:59:13.999Z</time></trkpt><trkpt lat="38.02721634862525" lon="12.729559955784982"><ele>159.0</ele><time>2026-04-28T08:59:14.999Z</time></trkpt><trkpt lat="38.02736957677611" lon="12.729294283592745"><ele>160.0</ele><time>2026-04-28T08:59:15.999Z</time></trkpt><trkpt lat="38.02750454592174" lon="12.72902104934115"><ele>160.0</ele><time>2026-04-28T08:59:16.999Z</time></trkpt><trkpt lat="38.02764588889357" lon="12.728738937115855"><ele>160.0</ele><time>2026-04-28T08:59:17.999Z</time></trkpt><trkpt lat="38.02777666244344" lon="12.728429780110801"><ele>157.0</ele><time>2026-04-28T08:59:18.999Z</time></trkpt><trkpt lat="38.027916283538914" lon="12.728101846668611"><ele>154.0</ele><time>2026-04-28T08:59:19.999Z</time></trkpt><trkpt lat="38.028069814623386" lon="12.727757694588371"><ele>152.0</ele><time>2026-04-28T08:59:20.999Z</time></trkpt><trkpt lat="38.028223973524334" lon="12.727395076871709"><ele>150.0</ele><time>2026-04-28T08:59:21.999Z</time></trkpt><trkpt lat="38.028376915032105" lon="12.72703663724002"><ele>148.5</ele><time>2026-04-28T08:59:22.999Z</time></trkpt><trkpt lat="38.02852023527448" lon="12.726707625482126"><ele>147.0</ele><time>2026-04-28T08:59:23.999Z</time></trkpt><trkpt lat="38.02865460132779" lon="12.726384761861334"><ele>147.0</ele><time>2026-04-28T08:59:24.999Z</time></trkpt><trkpt lat="38.02879201298504" lon="12.72606607614499"><ele>147.0</ele><time>2026-04-28T08:59:25.999Z</time></trkpt><trkpt lat="38.02891794437309" lon="12.72575877623953"><ele>149.0</ele><time>2026-04-28T08:59:26.999Z</time></trkpt><trkpt lat="38.029041793005376" lon="12.725460727460243"><ele>151.0</ele><time>2026-04-28T08:59:27.999Z</time></trkpt><trkpt lat="38.02917683040208" lon="12.725165996661813"><ele>151.0</ele><time>2026-04-28T08:59:28.999Z</time></trkpt><trkpt lat="38.029331306149864" lon="12.724877119982093"><ele>151.0</ele><time>2026-04-28T08:59:29.999Z</time></trkpt><trkpt lat="38.02949659868367" lon="12.724585887712836"><ele>150.0</ele><time>2026-04-28T08:59:30.999Z</time></trkpt><trkpt lat="38.02968560157654" lon="12.724291084618379"><ele>149.0</ele><time>2026-04-28T08:59:31.999Z</time></trkpt><trkpt lat="38.029883088752875" lon="12.723991524591234"><ele>149.0</ele><time>2026-04-28T08:59:32.999Z</time></trkpt><trkpt lat="38.03009183234907" lon="12.723694919755935"><ele>149.0</ele><time>2026-04-28T08:59:33.999Z</time></trkpt><trkpt lat="38.030289351065626" lon="12.723390456690325"><ele>148.0</ele><time>2026-04-28T08:59:34.999Z</time></trkpt><trkpt lat="38.03046735774827" lon="12.723113858570205"><ele>147.0</ele><time>2026-04-28T08:59:35.999Z</time></trkpt><trkpt lat="38.030637230471555" lon="12.722859374842537"><ele>146.0</ele><time>2026-04-28T08:59:36.999Z</time></trkpt><trkpt lat="38.030795670011294" lon="12.722621131727003"><ele>145.0</ele><time>2026-04-28T08:59:37.999Z</time></trkpt><trkpt lat="38.030954312028136" lon="12.722388847361115"><ele>145.0</ele><time>2026-04-28T08:59:38.999Z</time></trkpt><trkpt lat="38.031120991897886" lon="12.722157178194946"><ele>145.0</ele><time>2026-04-28T08:59:39.999Z</time></trkpt><trkpt lat="38.03128465011778" lon="12.721914441733414"><ele>143.5</ele><time>2026-04-28T08:59:40.999Z</time></trkpt><trkpt lat="38.031451032102716" lon="12.721657886680497"><ele>142.0</ele><time>2026-04-28T08:59:41.999Z</time></trkpt><trkpt lat="38.03162291717356" lon="12.721387078385622"><ele>142.5</ele><time>2026-04-28T08:59:42.999Z</time></trkpt><trkpt lat="38.03180055835333" lon="12.721113220466142"><ele>143.0</ele><time>2026-04-28T08:59:43.999Z</time></trkpt><trkpt lat="38.0319902432421" lon="12.720830324975317"><ele>143.0</ele><time>2026-04-28T08:59:44.999Z</time></trkpt><trkpt lat="38.03218076038911" lon="12.720529121668646"><ele>143.0</ele><time>2026-04-28T08:59:46Z</time></trkpt><trkpt lat="38.03237925705439" lon="12.72023587751744"><ele>142.0</ele><time>2026-04-28T08:59:47Z</time></trkpt><trkpt lat="38.03256631362822" lon="12.719918486518297"><ele>141.0</ele><time>2026-04-28T08:59:48Z</time></trkpt><trkpt lat="38.03274834731989" lon="12.719615287077003"><ele>142.5</ele><time>2026-04-28T08:59:49Z</time></trkpt><trkpt lat="38.03291300196073" lon="12.719341732369855"><ele>144.0</ele><time>2026-04-28T08:59:50Z</time></trkpt><trkpt lat="38.03307679302401" lon="12.719077655599103"><ele>144.0</ele><time>2026-04-28T08:59:51Z</time></trkpt><trkpt lat="38.03323516045005" lon="12.718818492825537"><ele>144.0</ele><time>2026-04-28T08:59:52Z</time></trkpt><trkpt lat="38.03338627071313" lon="12.718547332702096"><ele>144.0</ele><time>2026-04-28T08:59:53Z</time></trkpt><trkpt lat="38.033528454570934" lon="12.718274012680547"><ele>144.0</ele><time>2026-04-28T08:59:54Z</time></trkpt><trkpt lat="38.03365481660884" lon="12.717990219307692"><ele>145.0</ele><time>2026-04-28T08:59:55Z</time></trkpt><trkpt lat="38.03375960702345" lon="12.717722043292593"><ele>146.0</ele><time>2026-04-28T08:59:56Z</time></trkpt><trkpt lat="38.03386411814127" lon="12.717436642714667"><ele>146.0</ele><time>2026-04-28T08:59:57Z</time></trkpt><trkpt lat="38.03397460441297" lon="12.717143869173496"><ele>146.0</ele><time>2026-04-28T08:59:58Z</time></trkpt><trkpt lat="38.03408477324003" lon="12.71686215809594"><ele>144.0</ele><time>2026-04-28T08:59:59Z</time></trkpt><trkpt lat="38.03418734656843" lon="12.716605915075636"><ele>142.0</ele><time>2026-04-28T09:00:00Z</time></trkpt><trkpt lat="38.03429311766523" lon="12.716345904090927"><ele>142.0</ele><time>2026-04-28T09:00:01Z</time></trkpt><trkpt lat="38.03440898385947" lon="12.716080005217858"><ele>142.0</ele><time>2026-04-28T09:00:02Z</time></trkpt><trkpt lat="38.03453866335516" lon="12.7158200316787"><ele>142.0</ele><time>2026-04-28T09:00:03Z</time></trkpt><trkpt lat="38.03466727131615" lon="12.715596743571485"><ele>142.0</ele><time>2026-04-28T09:00:04Z</time></trkpt><trkpt lat="38.034793747321174" lon="12.715383958518183"><ele>142.0</ele><time>2026-04-28T09:00:05Z</time></trkpt><trkpt lat="38.03491713228113" lon="12.715157190834157"><ele>141.0</ele><time>2026-04-28T09:00:06Z</time></trkpt><trkpt lat="38.035048202014885" lon="12.714921789567732"><ele>140.0</ele><time>2026-04-28T09:00:07Z</time></trkpt><trkpt lat="38.03519056464687" lon="12.714686567752407"><ele>140.0</ele><time>2026-04-28T09:00:08Z</time></trkpt><trkpt lat="38.03533225982449" lon="12.714457214143138"><ele>140.0</ele><time>2026-04-28T09:00:09Z</time></trkpt><trkpt lat="38.03546574953715" lon="12.71423571522928"><ele>140.0</ele><time>2026-04-28T09:00:10Z</time></trkpt><trkpt lat="38.035593307801065" lon="12.714006555834183"><ele>139.33333333333331</ele><time>2026-04-28T09:00:11Z</time></trkpt><trkpt lat="38.0357258244239" lon="12.713789232198806"><ele>138.66666666666666</ele><time>2026-04-28T09:00:12Z</time></trkpt><trkpt lat="38.0358478658334" lon="12.713572491470313"><ele>138.0</ele><time>2026-04-28T09:00:13Z</time></trkpt><trkpt lat="38.035971960056706" lon="12.71335026794567"><ele>137.5</ele><time>2026-04-28T09:00:14Z</time></trkpt><trkpt lat="38.03609897364223" lon="12.713106001501266"><ele>137.0</ele><time>2026-04-28T09:00:15Z</time></trkpt><trkpt lat="38.03623646329522" lon="12.712856627938818"><ele>135.5</ele><time>2026-04-28T09:00:16Z</time></trkpt><trkpt lat="38.03638367426778" lon="12.712601412846967"><ele>134.0</ele><time>2026-04-28T09:00:17Z</time></trkpt><trkpt lat="38.036531847019134" lon="12.7123477462439"><ele>132.66666666666666</ele><time>2026-04-28T09:00:18Z</time></trkpt><trkpt lat="38.03665807175284" lon="12.712127835610088"><ele>131.33333333333334</ele><time>2026-04-28T09:00:19Z</time></trkpt><trkpt lat="38.03678196518133" lon="12.71191640641455"><ele>130.0</ele><time>2026-04-28T09:00:20Z</time></trkpt><trkpt lat="38.036893268338126" lon="12.711726432497308"><ele>130.0</ele><time>2026-04-28T09:00:21Z</time></trkpt><trkpt lat="38.03700247867039" lon="12.71152365932927"><ele>130.0</ele><time>2026-04-28T09:00:22Z</time></trkpt><trkpt lat="38.03710563076561" lon="12.711319920055736"><ele>130.0</ele><time>2026-04-28T09:00:23Z</time></trkpt><trkpt lat="38.037209099997675" lon="12.711136056969437"><ele>130.33333333333334</ele><time>2026-04-28T09:00:24Z</time></trkpt><trkpt lat="38.037313067572974" lon="12.710946117695778"><ele>130.66666666666666</ele><time>2026-04-28T09:00:25Z</time></trkpt><trkpt lat="38.03740925032112" lon="12.71076582748893"><ele>131.0</ele><time>2026-04-28T09:00:26Z</time></trkpt><trkpt lat="38.03751018420422" lon="12.7105733615122"><ele>131.0</ele><time>2026-04-28T09:00:27Z</time></trkpt><trkpt lat="38.037607412000945" lon="12.71037022908563"><ele>131.0</ele><time>2026-04-28T09:00:28Z</time></trkpt><trkpt lat="38.03770437631744" lon="12.710160366313511"><ele>131.0</ele><time>2026-04-28T09:00:29Z</time></trkpt><trkpt lat="38.03779963244898" lon="12.70994041671757"><ele>131.66666666666666</ele><time>2026-04-28T09:00:30Z</time></trkpt><trkpt lat="38.03787685579417" lon="12.709709312278795"><ele>132.33333333333334</ele><time>2026-04-28T09:00:31Z</time></trkpt><trkpt lat="38.03795809376644" lon="12.709467044691737"><ele>133.0</ele><time>2026-04-28T09:00:32Z</time></trkpt><trkpt lat="38.03803956647395" lon="12.70921558430201"><ele>133.0</ele><time>2026-04-28T09:00:33Z</time></trkpt><trkpt lat="38.038122732488546" lon="12.708959249382128"><ele>133.0</ele><time>2026-04-28T09:00:34Z</time></trkpt><trkpt lat="38.03821174467489" lon="12.708700392917581"><ele>133.0</ele><time>2026-04-28T09:00:35Z</time></trkpt><trkpt lat="38.03830017181787" lon="12.70843269444166"><ele>131.0</ele><time>2026-04-28T09:00:36Z</time></trkpt><trkpt lat="38.03838665447583" lon="12.708160532959505"><ele>129.0</ele><time>2026-04-28T09:00:37Z</time></trkpt><trkpt lat="38.03848200388298" lon="12.707876143437337"><ele>128.5</ele><time>2026-04-28T09:00:38Z</time></trkpt><trkpt lat="38.03857942203425" lon="12.707579450260724"><ele>128.0</ele><time>2026-04-28T09:00:39Z</time></trkpt><trkpt lat="38.03867876954219" lon="12.707276336489398"><ele>128.0</ele><time>2026-04-28T09:00:40Z</time></trkpt><trkpt lat="38.03878420446842" lon="12.706971328049017"><ele>128.0</ele><time>2026-04-28T09:00:41Z</time></trkpt><trkpt lat="38.038883292141705" lon="12.706665408334718"><ele>128.5</ele><time>2026-04-28T09:00:42Z</time></trkpt><trkpt lat="38.038982768487166" lon="12.70635657724748"><ele>129.0</ele><time>2026-04-28T09:00:43Z</time></trkpt><trkpt lat="38.039091145065946" lon="12.706050790605474"><ele>127.0</ele><time>2026-04-28T09:00:44Z</time></trkpt><trkpt lat="38.03919571145864" lon="12.705740444609617"><ele>125.0</ele><time>2026-04-28T09:00:45Z</time></trkpt><trkpt lat="38.039306052333096" lon="12.705435860727821"><ele>125.0</ele><time>2026-04-28T09:00:46Z</time></trkpt><trkpt lat="38.03941700897048" lon="12.705117173671347"><ele>125.0</ele><time>2026-04-28T09:00:47Z</time></trkpt><trkpt lat="38.039528820747684" lon="12.704813891085564"><ele>125.0</ele><time>2026-04-28T09:00:48Z</time></trkpt><trkpt lat="38.03962426191372" lon="12.704516273652377"><ele>125.0</ele><time>2026-04-28T09:00:49Z</time></trkpt><trkpt lat="38.03970863242682" lon="12.704214583433782"><ele>126.0</ele><time>2026-04-28T09:00:50Z</time></trkpt><trkpt lat="38.03981267478736" lon="12.703912015561471"><ele>127.0</ele><time>2026-04-28T09:00:51Z</time></trkpt><trkpt lat="38.039912375751" lon="12.703627105386515"><ele>126.5</ele><time>2026-04-28T09:00:52Z</time></trkpt><trkpt lat="38.04000021843836" lon="12.703342179962904"><ele>126.0</ele><time>2026-04-28T09:00:53Z</time></trkpt><trkpt lat="38.040090185551875" lon="12.703043202769232"><ele>128.5</ele><time>2026-04-28T09:00:54Z</time></trkpt><trkpt lat="38.04018123386567" lon="12.702744404971064"><ele>131.0</ele><time>2026-04-28T09:00:55Z</time></trkpt><trkpt lat="38.040265832121804" lon="12.702441702330109"><ele>131.0</ele><time>2026-04-28T09:00:56Z</time></trkpt><trkpt lat="38.04034873655824" lon="12.702138418791082"><ele>131.0</ele><time>2026-04-28T09:00:57Z</time></trkpt><trkpt lat="38.04042138719992" lon="12.70183893215131"><ele>131.5</ele><time>2026-04-28T09:00:58Z</time></trkpt><trkpt lat="38.040495047822105" lon="12.701527308273079"><ele>132.0</ele><time>2026-04-28T09:00:59Z</time></trkpt><trkpt lat="38.040580340857204" lon="12.701191732237708"><ele>130.5</ele><time>2026-04-28T09:01:00Z</time></trkpt><trkpt lat="38.0406702304271" lon="12.70084688720272"><ele>129.0</ele><time>2026-04-28T09:01:01Z</time></trkpt><trkpt lat="38.04076591046236" lon="12.700500004284057"><ele>125.5</ele><time>2026-04-28T09:01:02Z</time></trkpt><trkpt lat="38.04085434714531" lon="12.70015495359519"><ele>122.0</ele><time>2026-04-28T09:01:03Z</time></trkpt><trkpt lat="38.04095605275988" lon="12.699823973039683"><ele>122.0</ele><time>2026-04-28T09:01:04Z</time></trkpt><trkpt lat="38.04107971567068" lon="12.699507849145585"><ele>122.0</ele><time>2026-04-28T09:01:05Z</time></trkpt><trkpt lat="38.04121581438369" lon="12.699196788171385"><ele>123.0</ele><time>2026-04-28T09:01:06Z</time></trkpt><trkpt lat="38.04135573570423" lon="12.698882994243075"><ele>124.0</ele><time>2026-04-28T09:01:07Z</time></trkpt><trkpt lat="38.041472541029854" lon="12.698575636365442"><ele>124.5</ele><time>2026-04-28T09:01:08Z</time></trkpt><trkpt lat="38.041606362671025" lon="12.698270299090892"><ele>125.0</ele><time>2026-04-28T09:01:09Z</time></trkpt><trkpt lat="38.04171941810959" lon="12.6979453440421"><ele>123.0</ele><time>2026-04-28T09:01:09.999Z</time></trkpt><trkpt lat="38.04181731700307" lon="12.697603294982562"><ele>121.0</ele><time>2026-04-28T09:01:10.999Z</time></trkpt><trkpt lat="38.041892194444465" lon="12.69724208830975"><ele>121.0</ele><time>2026-04-28T09:01:11.999Z</time></trkpt><trkpt lat="38.04195613165279" lon="12.696858713942758"><ele>121.0</ele><time>2026-04-28T09:01:12.999Z</time></trkpt><trkpt lat="38.042025375092344" lon="12.696468836072274"><ele>122.0</ele><time>2026-04-28T09:01:13.999Z</time></trkpt><trkpt lat="38.04210035394117" lon="12.696074127150139"><ele>123.0</ele><time>2026-04-28T09:01:14.999Z</time></trkpt><trkpt lat="38.04217374148877" lon="12.695687616464228"><ele>123.0</ele><time>2026-04-28T09:01:15.999Z</time></trkpt><trkpt lat="38.04224111315819" lon="12.6953014711946"><ele>123.0</ele><time>2026-04-28T09:01:16.999Z</time></trkpt><trkpt lat="38.04229975295087" lon="12.694901156362265"><ele>123.0</ele><time>2026-04-28T09:01:17.999Z</time></trkpt><trkpt lat="38.04234696623756" lon="12.694515057538633"><ele>123.0</ele><time>2026-04-28T09:01:18.999Z</time></trkpt><trkpt lat="38.0423963733286" lon="12.694131436258894"><ele>124.0</ele><time>2026-04-28T09:01:19.999Z</time></trkpt><trkpt lat="38.04244712396196" lon="12.69374950082487"><ele>125.0</ele><time>2026-04-28T09:01:20.999Z</time></trkpt><trkpt lat="38.04249823695878" lon="12.693360566889991"><ele>121.0</ele><time>2026-04-28T09:01:21.999Z</time></trkpt><trkpt lat="38.04254239894043" lon="12.692963861020951"><ele>117.0</ele><time>2026-04-28T09:01:22.999Z</time></trkpt><trkpt lat="38.04259065090624" lon="12.692576210933332"><ele>117.0</ele><time>2026-04-28T09:01:23.999Z</time></trkpt><trkpt lat="38.04265033997733" lon="12.692219725171586"><ele>117.0</ele><time>2026-04-28T09:01:24.999Z</time></trkpt><trkpt lat="38.042695319653596" lon="12.691888591529851"><ele>116.5</ele><time>2026-04-28T09:01:25.999Z</time></trkpt><trkpt lat="38.04273801973972" lon="12.69157423976207"><ele>116.0</ele><time>2026-04-28T09:01:26.999Z</time></trkpt><trkpt lat="38.04276889797224" lon="12.691276107018814"><ele>117.0</ele><time>2026-04-28T09:01:27.999Z</time></trkpt><trkpt lat="38.04281799510436" lon="12.690973704831725"><ele>118.0</ele><time>2026-04-28T09:01:28.999Z</time></trkpt><trkpt lat="38.04285529289259" lon="12.690668933192349"><ele>118.0</ele><time>2026-04-28T09:01:29.999Z</time></trkpt><trkpt lat="38.04289507381285" lon="12.690364433939969"><ele>118.0</ele><time>2026-04-28T09:01:30.999Z</time></trkpt><trkpt lat="38.04293866976458" lon="12.69006762853959"><ele>118.33333333333334</ele><time>2026-04-28T09:01:31.999Z</time></trkpt><trkpt lat="38.042976333845175" lon="12.689788989142993"><ele>118.66666666666666</ele><time>2026-04-28T09:01:32.999Z</time></trkpt><trkpt lat="38.04301576073851" lon="12.689510014883682"><ele>119.0</ele><time>2026-04-28T09:01:33.999Z</time></trkpt><trkpt lat="38.043056241696725" lon="12.689247408488205"><ele>119.0</ele><time>2026-04-28T09:01:34.999Z</time></trkpt><trkpt lat="38.04309300112283" lon="12.688996307216977"><ele>119.0</ele><time>2026-04-28T09:01:35.999Z</time></trkpt><trkpt lat="38.04312743683796" lon="12.688746753278004"><ele>119.0</ele><time>2026-04-28T09:01:36.999Z</time></trkpt><trkpt lat="38.04316050075919" lon="12.688510155520248"><ele>121.0</ele><time>2026-04-28T09:01:37.999Z</time></trkpt><trkpt lat="38.04318651316555" lon="12.688264875245768"><ele>123.0</ele><time>2026-04-28T09:01:38.999Z</time></trkpt><trkpt lat="38.04320082464314" lon="12.688010783206302"><ele>125.0</ele><time>2026-04-28T09:01:39.999Z</time></trkpt><trkpt lat="38.04319883881662" lon="12.687766362643558"><ele>125.0</ele><time>2026-04-28T09:01:40.999Z</time></trkpt><trkpt lat="38.04317758386287" lon="12.687526760878047"><ele>125.0</ele><time>2026-04-28T09:01:41.999Z</time></trkpt><trkpt lat="38.04314568096221" lon="12.687277491702353"><ele>125.0</ele><time>2026-04-28T09:01:42.999Z</time></trkpt><trkpt lat="38.04309412050392" lon="12.687028265168822"><ele>125.0</ele><time>2026-04-28T09:01:43.999Z</time></trkpt><trkpt lat="38.04302825878061" lon="12.686783426625414"><ele>125.0</ele><time>2026-04-28T09:01:44.999Z</time></trkpt><trkpt lat="38.04296442341154" lon="12.686558817220176"><ele>125.0</ele><time>2026-04-28T09:01:45.999Z</time></trkpt><trkpt lat="38.042895235234944" lon="12.68634000372883"><ele>125.0</ele><time>2026-04-28T09:01:46.999Z</time></trkpt><trkpt lat="38.04281828751787" lon="12.68610804396449"><ele>125.0</ele><time>2026-04-28T09:01:47.999Z</time></trkpt><trkpt lat="38.042739264052194" lon="12.685879905680908"><ele>125.0</ele><time>2026-04-28T09:01:48.999Z</time></trkpt><trkpt lat="38.042679130338506" lon="12.685660220180907"><ele>125.33333333333333</ele><time>2026-04-28T09:01:49.999Z</time></trkpt><trkpt lat="38.042608695061936" lon="12.685438963416773"><ele>125.66666666666666</ele><time>2026-04-28T09:01:51Z</time></trkpt><trkpt lat="38.04252503822945" lon="12.685206325371807"><ele>126.0</ele><time>2026-04-28T09:01:52Z</time></trkpt><trkpt lat="38.042447727777024" lon="12.68496536768903"><ele>126.0</ele><time>2026-04-28T09:01:53Z</time></trkpt><trkpt lat="38.04236636418374" lon="12.684723920006695"><ele>126.0</ele><time>2026-04-28T09:01:54Z</time></trkpt><trkpt lat="38.042285770914326" lon="12.684469727447654"><ele>126.0</ele><time>2026-04-28T09:01:55Z</time></trkpt><trkpt lat="38.04221345400669" lon="12.68421833504296"><ele>123.5</ele><time>2026-04-28T09:01:56Z</time></trkpt><trkpt lat="38.04213952183532" lon="12.683954770058467"><ele>121.0</ele><time>2026-04-28T09:01:57Z</time></trkpt><trkpt lat="38.04207753975941" lon="12.6836440549194"><ele>119.5</ele><time>2026-04-28T09:01:58Z</time></trkpt><trkpt lat="38.041999828871816" lon="12.68330698455679"><ele>118.0</ele><time>2026-04-28T09:01:59Z</time></trkpt><trkpt lat="38.04193208804296" lon="12.682971471069887"><ele>119.5</ele><time>2026-04-28T09:02:00Z</time></trkpt><trkpt lat="38.04186162666806" lon="12.682653179996425"><ele>121.0</ele><time>2026-04-28T09:02:01Z</time></trkpt><trkpt lat="38.041814946173524" lon="12.682343583437559"><ele>121.0</ele><time>2026-04-28T09:02:02Z</time></trkpt><trkpt lat="38.041788278526525" lon="12.682043641306452"><ele>121.0</ele><time>2026-04-28T09:02:03Z</time></trkpt><trkpt lat="38.04175813473674" lon="12.681759701344305"><ele>121.66666666666667</ele><time>2026-04-28T09:02:04Z</time></trkpt><trkpt lat="38.04173253279297" lon="12.681479029250253"><ele>122.33333333333334</ele><time>2026-04-28T09:02:05Z</time></trkpt><trkpt lat="38.041711541954434" lon="12.681203216927267"><ele>123.0</ele><time>2026-04-28T09:02:06Z</time></trkpt><trkpt lat="38.04169528313344" lon="12.68092799125922"><ele>123.33333333333334</ele><time>2026-04-28T09:02:07Z</time></trkpt><trkpt lat="38.04168108208628" lon="12.680672501102633"><ele>123.66666666666667</ele><time>2026-04-28T09:02:08Z</time></trkpt><trkpt lat="38.04166695750464" lon="12.680418386681213"><ele>124.0</ele><time>2026-04-28T09:02:09Z</time></trkpt><trkpt lat="38.04163731349333" lon="12.680168677107002"><ele>126.0</ele><time>2026-04-28T09:02:10Z</time></trkpt><trkpt lat="38.04162537074594" lon="12.679928775821923"><ele>128.0</ele><time>2026-04-28T09:02:11Z</time></trkpt><trkpt lat="38.04160934500001" lon="12.679668943349066"><ele>130.0</ele><time>2026-04-28T09:02:12Z</time></trkpt><trkpt lat="38.0415938006682" lon="12.679399622812943"><ele>131.0</ele><time>2026-04-28T09:02:13Z</time></trkpt><trkpt lat="38.04158379986814" lon="12.67913830220754"><ele>132.0</ele><time>2026-04-28T09:02:14Z</time></trkpt><trkpt lat="38.041576075236534" lon="12.678890557374935"><ele>133.0</ele><time>2026-04-28T09:02:15Z</time></trkpt><trkpt lat="38.04156686185094" lon="12.678639665169634"><ele>133.66666666666669</ele><time>2026-04-28T09:02:16Z</time></trkpt><trkpt lat="38.041545034406774" lon="12.678397873026231"><ele>134.33333333333334</ele><time>2026-04-28T09:02:17Z</time></trkpt><trkpt lat="38.04152759962722" lon="12.678145351823842"><ele>135.0</ele><time>2026-04-28T09:02:18Z</time></trkpt><trkpt lat="38.04151688492141" lon="12.677865676205085"><ele>132.5</ele><time>2026-04-28T09:02:19Z</time></trkpt><trkpt lat="38.04149267129559" lon="12.677537774827945"><ele>130.0</ele><time>2026-04-28T09:02:20Z</time></trkpt><trkpt lat="38.04146192575958" lon="12.677173055583504"><ele>129.0</ele><time>2026-04-28T09:02:21Z</time></trkpt><trkpt lat="38.04144994109463" lon="12.676772295750096"><ele>128.0</ele><time>2026-04-28T09:02:22Z</time></trkpt><trkpt lat="38.04143138596713" lon="12.676345474593125"><ele>127.0</ele><time>2026-04-28T09:02:23Z</time></trkpt><trkpt lat="38.041406140471054" lon="12.675921035967285"><ele>126.0</ele><time>2026-04-28T09:02:24Z</time></trkpt><trkpt lat="38.041401954592175" lon="12.675546927705298"><ele>126.0</ele><time>2026-04-28T09:02:25Z</time></trkpt><trkpt lat="38.041397651157205" lon="12.675188979150144"><ele>126.0</ele><time>2026-04-28T09:02:26Z</time></trkpt><trkpt lat="38.04137713474126" lon="12.674886037098634"><ele>126.0</ele><time>2026-04-28T09:02:27Z</time></trkpt><trkpt lat="38.04136718620518" lon="12.67460231724999"><ele>126.0</ele><time>2026-04-28T09:02:28Z</time></trkpt><trkpt lat="38.04135749556831" lon="12.674342552769218"><ele>126.0</ele><time>2026-04-28T09:02:29Z</time></trkpt><trkpt lat="38.04134519135011" lon="12.6741012302733"><ele>126.0</ele><time>2026-04-28T09:02:30Z</time></trkpt><trkpt lat="38.041328858719424" lon="12.673876262741475"><ele>126.0</ele><time>2026-04-28T09:02:31Z</time></trkpt><trkpt lat="38.041328979094544" lon="12.673669775792474"><ele>126.0</ele><time>2026-04-28T09:02:32Z</time></trkpt><trkpt lat="38.04132305427655" lon="12.673482614520825"><ele>126.0</ele><time>2026-04-28T09:02:33Z</time></trkpt><trkpt lat="38.04131917892263" lon="12.6732884872299"><ele>126.0</ele><time>2026-04-28T09:02:34Z</time></trkpt><trkpt lat="38.04130988837838" lon="12.673059500709535"><ele>126.0</ele><time>2026-04-28T09:02:35Z</time></trkpt><trkpt lat="38.04130893219896" lon="12.672792726714935"><ele>127.0</ele><time>2026-04-28T09:02:36Z</time></trkpt><trkpt lat="38.041317890602144" lon="12.672483945844792"><ele>128.0</ele><time>2026-04-28T09:02:37Z</time></trkpt><trkpt lat="38.041318382064006" lon="12.6721445671346"><ele>128.5</ele><time>2026-04-28T09:02:38Z</time></trkpt><trkpt lat="38.041325659721615" lon="12.671787896411061"><ele>129.0</ele><time>2026-04-28T09:02:39Z</time></trkpt><trkpt lat="38.041328718687474" lon="12.671463090476381"><ele>129.0</ele><time>2026-04-28T09:02:40Z</time></trkpt><trkpt lat="38.041325338389285" lon="12.671167084795803"><ele>129.0</ele><time>2026-04-28T09:02:41Z</time></trkpt><trkpt lat="38.04132318464249" lon="12.670888094825795"><ele>129.5</ele><time>2026-04-28T09:02:42Z</time></trkpt><trkpt lat="38.041306718990604" lon="12.670605434989655"><ele>130.0</ele><time>2026-04-28T09:02:43Z</time></trkpt><trkpt lat="38.04126654524176" lon="12.670304284438885"><ele>129.5</ele><time>2026-04-28T09:02:44Z</time></trkpt><trkpt lat="38.04120450985841" lon="12.669982627898735"><ele>129.0</ele><time>2026-04-28T09:02:45Z</time></trkpt><trkpt lat="38.041119861085534" lon="12.669643640443873"><ele>129.0</ele><time>2026-04-28T09:02:46Z</time></trkpt><trkpt lat="38.04101418133912" lon="12.669303030709694"><ele>129.0</ele><time>2026-04-28T09:02:47Z</time></trkpt><trkpt lat="38.040912452682" lon="12.668973909353342"><ele>129.0</ele><time>2026-04-28T09:02:48Z</time></trkpt><trkpt lat="38.04081675058497" lon="12.66866022859106"><ele>129.0</ele><time>2026-04-28T09:02:49Z</time></trkpt><trkpt lat="38.040725475970724" lon="12.66835820141814"><ele>129.5</ele><time>2026-04-28T09:02:50Z</time></trkpt><trkpt lat="38.040635189909985" lon="12.668055585652736"><ele>130.0</ele><time>2026-04-28T09:02:51Z</time></trkpt><trkpt lat="38.04055559318159" lon="12.667753809332782"><ele>130.0</ele><time>2026-04-28T09:02:52Z</time></trkpt><trkpt lat="38.04048407661484" lon="12.66744758459534"><ele>130.0</ele><time>2026-04-28T09:02:53Z</time></trkpt><trkpt lat="38.04042659504234" lon="12.667116599793033"><ele>130.0</ele><time>2026-04-28T09:02:54Z</time></trkpt><trkpt lat="38.04038234293153" lon="12.666768721702422"><ele>130.0</ele><time>2026-04-28T09:02:55Z</time></trkpt><trkpt lat="38.04035366556117" lon="12.666434498092013"><ele>130.0</ele><time>2026-04-28T09:02:56Z</time></trkpt><trkpt lat="38.040334397939006" lon="12.666115159958741"><ele>130.0</ele><time>2026-04-28T09:02:57Z</time></trkpt><trkpt lat="38.040337570464644" lon="12.66577181420022"><ele>131.0</ele><time>2026-04-28T09:02:58Z</time></trkpt><trkpt lat="38.04035487844676" lon="12.665467165416315"><ele>132.0</ele><time>2026-04-28T09:02:59Z</time></trkpt><trkpt lat="38.04037305068697" lon="12.665179776906655"><ele>132.5</ele><time>2026-04-28T09:03:00Z</time></trkpt><trkpt lat="38.04038466169283" lon="12.664889358659432"><ele>133.0</ele><time>2026-04-28T09:03:01Z</time></trkpt><trkpt lat="38.04040402269814" lon="12.66459210839634"><ele>135.0</ele><time>2026-04-28T09:03:02Z</time></trkpt><trkpt lat="38.04042000656592" lon="12.664293113249396"><ele>137.0</ele><time>2026-04-28T09:03:03Z</time></trkpt><trkpt lat="38.040433418780374" lon="12.663994449378785"><ele>137.0</ele><time>2026-04-28T09:03:04Z</time></trkpt><trkpt lat="38.04044610089468" lon="12.663687820306352"><ele>137.0</ele><time>2026-04-28T09:03:05Z</time></trkpt><trkpt lat="38.040454181406126" lon="12.663416021590617"><ele>138.66666666666666</ele><time>2026-04-28T09:03:06Z</time></trkpt><trkpt lat="38.040448985594324" lon="12.663143971030527"><ele>140.33333333333334</ele><time>2026-04-28T09:03:07Z</time></trkpt><trkpt lat="38.04041657841348" lon="12.662868668767977"><ele>142.0</ele><time>2026-04-28T09:03:08Z</time></trkpt><trkpt lat="38.04036139975851" lon="12.662589855941295"><ele>143.0</ele><time>2026-04-28T09:03:09Z</time></trkpt><trkpt lat="38.040285004544636" lon="12.662306791187607"><ele>144.0</ele><time>2026-04-28T09:03:10Z</time></trkpt><trkpt lat="38.04018857566378" lon="12.662022684106093"><ele>143.0</ele><time>2026-04-28T09:03:11Z</time></trkpt><trkpt lat="38.04007303305918" lon="12.66175971775553"><ele>142.0</ele><time>2026-04-28T09:03:12Z</time></trkpt><trkpt lat="38.03994720114579" lon="12.661508535752406"><ele>144.0</ele><time>2026-04-28T09:03:13Z</time></trkpt><trkpt lat="38.03980353078176" lon="12.661280393271197"><ele>146.0</ele><time>2026-04-28T09:03:14Z</time></trkpt><trkpt lat="38.03963384646408" lon="12.661060610641101"><ele>146.0</ele><time>2026-04-28T09:03:14.999Z</time></trkpt><trkpt lat="38.03943488098018" lon="12.660864560501684"><ele>146.0</ele><time>2026-04-28T09:03:15.999Z</time></trkpt><trkpt lat="38.03923066828195" lon="12.660689669901164"><ele>148.0</ele><time>2026-04-28T09:03:16.999Z</time></trkpt><trkpt lat="38.039044937956305" lon="12.660545420128791"><ele>150.0</ele><time>2026-04-28T09:03:17.999Z</time></trkpt><trkpt lat="38.03887641931621" lon="12.660408941839309"><ele>152.0</ele><time>2026-04-28T09:03:18.999Z</time></trkpt><trkpt lat="38.03872214558647" lon="12.660278246961033"><ele>152.0</ele><time>2026-04-28T09:03:19.999Z</time></trkpt><trkpt lat="38.03856511803878" lon="12.660157476463784"><ele>152.0</ele><time>2026-04-28T09:03:20.999Z</time></trkpt><trkpt lat="38.03842645947732" lon="12.660045088885257"><ele>152.0</ele><time>2026-04-28T09:03:21.999Z</time></trkpt><trkpt lat="38.03830368727886" lon="12.659926861702324"><ele>155.0</ele><time>2026-04-28T09:03:22.999Z</time></trkpt><trkpt lat="38.03820214247449" lon="12.659762392740815"><ele>158.0</ele><time>2026-04-28T09:03:23.999Z</time></trkpt><trkpt lat="38.03813825560107" lon="12.659574874688342"><ele>161.0</ele><time>2026-04-28T09:03:24.999Z</time></trkpt><trkpt lat="38.03811732768753" lon="12.659371913352935"><ele>162.0</ele><time>2026-04-28T09:03:25.999Z</time></trkpt><trkpt lat="38.03811850098996" lon="12.659157641839208"><ele>163.0</ele><time>2026-04-28T09:03:26.999Z</time></trkpt><trkpt lat="38.038140327943914" lon="12.658885747196303"><ele>164.0</ele><time>2026-04-28T09:03:27.999Z</time></trkpt><trkpt lat="38.03814246667135" lon="12.658570823235875"><ele>166.5</ele><time>2026-04-28T09:03:28.999Z</time></trkpt><trkpt lat="38.038138348598295" lon="12.658266939270648"><ele>169.0</ele><time>2026-04-28T09:03:29.999Z</time></trkpt><trkpt lat="38.038108005090216" lon="12.657972367227709"><ele>170.0</ele><time>2026-04-28T09:03:30.999Z</time></trkpt><trkpt lat="38.038043760273816" lon="12.657691282747804"><ele>171.0</ele><time>2026-04-28T09:03:31.999Z</time></trkpt><trkpt lat="38.03797545730575" lon="12.657445924170961"><ele>172.0</ele><time>2026-04-28T09:03:32.999Z</time></trkpt><trkpt lat="38.03791939385083" lon="12.657188328442977"><ele>171.66666666666669</ele><time>2026-04-28T09:03:33.999Z</time></trkpt><trkpt lat="38.0378545319153" lon="12.656952408122349"><ele>171.33333333333334</ele><time>2026-04-28T09:03:34.999Z</time></trkpt><trkpt lat="38.03779523541825" lon="12.656735624654402"><ele>171.0</ele><time>2026-04-28T09:03:35.999Z</time></trkpt><trkpt lat="38.03776005483357" lon="12.656531110330167"><ele>171.0</ele><time>2026-04-28T09:03:36.999Z</time></trkpt><trkpt lat="38.03773344630863" lon="12.656320608290345"><ele>171.0</ele><time>2026-04-28T09:03:37.999Z</time></trkpt><trkpt lat="38.03773434765133" lon="12.656098641809264"><ele>171.0</ele><time>2026-04-28T09:03:38.999Z</time></trkpt><trkpt lat="38.037753262734086" lon="12.655845094516984"><ele>173.5</ele><time>2026-04-28T09:03:39.999Z</time></trkpt><trkpt lat="38.03780347041324" lon="12.655571305711012"><ele>176.0</ele><time>2026-04-28T09:03:40.999Z</time></trkpt><trkpt lat="38.03783466640629" lon="12.655276205223307"><ele>178.0</ele><time>2026-04-28T09:03:41.999Z</time></trkpt><trkpt lat="38.0378763109776" lon="12.655047854133894"><ele>180.0</ele><time>2026-04-28T09:03:42.999Z</time></trkpt><trkpt lat="38.03789626171462" lon="12.654853130040294"><ele>182.0</ele><time>2026-04-28T09:03:43.999Z</time></trkpt><trkpt lat="38.03791400972335" lon="12.654677594080926"><ele>182.0</ele><time>2026-04-28T09:03:44.999Z</time></trkpt><trkpt lat="38.037940885505506" lon="12.654488650078896"><ele>182.0</ele><time>2026-04-28T09:03:45.999Z</time></trkpt><trkpt lat="38.03795347358562" lon="12.654283418164223"><ele>182.0</ele><time>2026-04-28T09:03:46.999Z</time></trkpt><trkpt lat="38.03796008930529" lon="12.65408834558865"><ele>183.0</ele><time>2026-04-28T09:03:47.999Z</time></trkpt><trkpt lat="38.03794315958877" lon="12.653864150067276"><ele>184.0</ele><time>2026-04-28T09:03:48.999Z</time></trkpt><trkpt lat="38.03791578371558" lon="12.653617650410133"><ele>185.0</ele><time>2026-04-28T09:03:49.999Z</time></trkpt><trkpt lat="38.03791161606884" lon="12.653383942024407"><ele>185.66666666666666</ele><time>2026-04-28T09:03:50.999Z</time></trkpt><trkpt lat="38.03794392549758" lon="12.653157274298403"><ele>186.33333333333334</ele><time>2026-04-28T09:03:51.999Z</time></trkpt><trkpt lat="38.03801160160004" lon="12.652935958947914"><ele>187.0</ele><time>2026-04-28T09:03:52.999Z</time></trkpt><trkpt lat="38.03811071621888" lon="12.652712247971182"><ele>187.5</ele><time>2026-04-28T09:03:53.999Z</time></trkpt><trkpt lat="38.038227265679836" lon="12.6524567739534"><ele>188.0</ele><time>2026-04-28T09:03:54.999Z</time></trkpt><trkpt lat="38.03835391641109" lon="12.652162239427447"><ele>190.5</ele><time>2026-04-28T09:03:55.999Z</time></trkpt><trkpt lat="38.0385093306757" lon="12.651844432352366"><ele>193.0</ele><time>2026-04-28T09:03:57Z</time></trkpt><trkpt lat="38.03863742525369" lon="12.651511509652138"><ele>193.0</ele><time>2026-04-28T09:03:58Z</time></trkpt><trkpt lat="38.03875475048119" lon="12.65124926352538"><ele>193.0</ele><time>2026-04-28T09:03:59Z</time></trkpt><trkpt lat="38.03886359669265" lon="12.65101195768831"><ele>193.66666666666666</ele><time>2026-04-28T09:04:00Z</time></trkpt><trkpt lat="38.038949856557736" lon="12.650798141043326"><ele>194.33333333333331</ele><time>2026-04-28T09:04:01Z</time></trkpt><trkpt lat="38.03904788412781" lon="12.650611341624009"><ele>195.0</ele><time>2026-04-28T09:04:02Z</time></trkpt><trkpt lat="38.039123860165155" lon="12.650454078953047"><ele>197.66666666666669</ele><time>2026-04-28T09:04:03Z</time></trkpt><trkpt lat="38.039190453399684" lon="12.65027771152347"><ele>200.33333333333334</ele><time>2026-04-28T09:04:04Z</time></trkpt><trkpt lat="38.03921490435525" lon="12.650085756768615"><ele>203.0</ele><time>2026-04-28T09:04:05Z</time></trkpt><trkpt lat="38.03919391835109" lon="12.649862339310474"><ele>203.0</ele><time>2026-04-28T09:04:06Z</time></trkpt><trkpt lat="38.03914196193405" lon="12.64960720488158"><ele>203.0</ele><time>2026-04-28T09:04:07Z</time></trkpt><trkpt lat="38.03909383059785" lon="12.649320455725757"><ele>203.0</ele><time>2026-04-28T09:04:08Z</time></trkpt><trkpt lat="38.03906431052385" lon="12.649027325313138"><ele>202.33333333333334</ele><time>2026-04-28T09:04:09Z</time></trkpt><trkpt lat="38.03902397508955" lon="12.648734272851"><ele>201.66666666666669</ele><time>2026-04-28T09:04:10Z</time></trkpt><trkpt lat="38.03898889896024" lon="12.64848352719169"><ele>201.0</ele><time>2026-04-28T09:04:11Z</time></trkpt><trkpt lat="38.03895852002425" lon="12.6482633426224"><ele>202.0</ele><time>2026-04-28T09:04:12Z</time></trkpt><trkpt lat="38.0389255421844" lon="12.648073540780524"><ele>203.0</ele><time>2026-04-28T09:04:13Z</time></trkpt><trkpt lat="38.03889756030287" lon="12.647911788447058"><ele>204.0</ele><time>2026-04-28T09:04:14Z</time></trkpt><trkpt lat="38.03887644981251" lon="12.647757379453278"><ele>205.0</ele><time>2026-04-28T09:04:15Z</time></trkpt><trkpt lat="38.038874906309495" lon="12.64763722179675"><ele>205.8</ele><time>2026-04-28T09:04:16Z</time></trkpt><trkpt lat="38.03887141068778" lon="12.647526578348582"><ele>206.6</ele><time>2026-04-28T09:04:17Z</time></trkpt><trkpt lat="38.03888024552455" lon="12.647409771075315"><ele>207.39999999999998</ele><time>2026-04-28T09:04:18Z</time></trkpt><trkpt lat="38.0389353947951" lon="12.64729502404554"><ele>208.2</ele><time>2026-04-28T09:04:19Z</time></trkpt><trkpt lat="38.039020603113" lon="12.647198648853786"><ele>209.0</ele><time>2026-04-28T09:04:20Z</time></trkpt><trkpt lat="38.039138848188415" lon="12.647120555718244"><ele>211.0</ele><time>2026-04-28T09:04:21Z</time></trkpt><trkpt lat="38.03929485834524" lon="12.647062279151445"><ele>213.0</ele><time>2026-04-28T09:04:22Z</time></trkpt><trkpt lat="38.039489723606955" lon="12.646968510422536"><ele>215.0</ele><time>2026-04-28T09:04:23Z</time></trkpt><trkpt lat="38.039680901165255" lon="12.646858561120784"><ele>217.0</ele><time>2026-04-28T09:04:24Z</time></trkpt><trkpt lat="38.03984672670762" lon="12.646764823342108"><ele>219.0</ele><time>2026-04-28T09:04:25Z</time></trkpt><trkpt lat="38.04000442737784" lon="12.646676215791357"><ele>221.0</ele><time>2026-04-28T09:04:26Z</time></trkpt><trkpt lat="38.040188400768066" lon="12.646619315478473"><ele>222.0</ele><time>2026-04-28T09:04:27Z</time></trkpt><trkpt lat="38.04037829773439" lon="12.64662501224748"><ele>223.0</ele><time>2026-04-28T09:04:28Z</time></trkpt><trkpt lat="38.040595084399904" lon="12.646647854013713"><ele>224.0</ele><time>2026-04-28T09:04:29Z</time></trkpt><trkpt lat="38.040822228251976" lon="12.646693650949066"><ele>225.5</ele><time>2026-04-28T09:04:30Z</time></trkpt><trkpt lat="38.04106913894835" lon="12.646731990461108"><ele>227.0</ele><time>2026-04-28T09:04:31Z</time></trkpt><trkpt lat="38.041326509934876" lon="12.646814447840226"><ele>227.0</ele><time>2026-04-28T09:04:32Z</time></trkpt><trkpt lat="38.041536587583366" lon="12.646863483878866"><ele>227.0</ele><time>2026-04-28T09:04:33Z</time></trkpt><trkpt lat="38.0417204819963" lon="12.646896437676602"><ele>227.0</ele><time>2026-04-28T09:04:34Z</time></trkpt><trkpt lat="38.04189134006842" lon="12.646913346549832"><ele>228.66666666666669</ele><time>2026-04-28T09:04:35Z</time></trkpt><trkpt lat="38.042056209232214" lon="12.646884310242935"><ele>230.33333333333331</ele><time>2026-04-28T09:04:36Z</time></trkpt><trkpt lat="38.042219308398145" lon="12.646797948545633"><ele>232.0</ele><time>2026-04-28T09:04:37Z</time></trkpt><trkpt lat="38.04237298459091" lon="12.646645418739322"><ele>233.66666666666666</ele><time>2026-04-28T09:04:38Z</time></trkpt><trkpt lat="38.04250403395291" lon="12.646467906983661"><ele>235.33333333333331</ele><time>2026-04-28T09:04:39Z</time></trkpt><trkpt lat="38.04265946185681" lon="12.64631837441626"><ele>237.0</ele><time>2026-04-28T09:04:40Z</time></trkpt><trkpt lat="38.04284871412495" lon="12.646112627963848"><ele>237.0</ele><time>2026-04-28T09:04:41Z</time></trkpt><trkpt lat="38.04304909789563" lon="12.645879477986615"><ele>237.0</ele><time>2026-04-28T09:04:42Z</time></trkpt><trkpt lat="38.04327187518529" lon="12.645631086471381"><ele>241.5</ele><time>2026-04-28T09:04:43Z</time></trkpt><trkpt lat="38.04348471065772" lon="12.64539840566485"><ele>246.0</ele><time>2026-04-28T09:04:44Z</time></trkpt><trkpt lat="38.04366415415418" lon="12.645199676754899"><ele>246.0</ele><time>2026-04-28T09:04:45Z</time></trkpt><trkpt lat="38.04382838470431" lon="12.64500967885934"><ele>246.0</ele><time>2026-04-28T09:04:46Z</time></trkpt><trkpt lat="38.043967592537925" lon="12.644778907431945"><ele>246.0</ele><time>2026-04-28T09:04:47Z</time></trkpt><trkpt lat="38.04407804849057" lon="12.64449284346716"><ele>246.0</ele><time>2026-04-28T09:04:48Z</time></trkpt><trkpt lat="38.04418448555679" lon="12.644163778193318"><ele>247.0</ele><time>2026-04-28T09:04:49Z</time></trkpt><trkpt lat="38.044301593548354" lon="12.643812430002935"><ele>248.0</ele><time>2026-04-28T09:04:50Z</time></trkpt><trkpt lat="38.04442852956722" lon="12.643449956487235"><ele>249.5</ele><time>2026-04-28T09:04:51Z</time></trkpt><trkpt lat="38.04454668692106" lon="12.64311541942632"><ele>251.0</ele><time>2026-04-28T09:04:52Z</time></trkpt><trkpt lat="38.04464491177256" lon="12.642807408470679"><ele>253.5</ele><time>2026-04-28T09:04:53Z</time></trkpt><trkpt lat="38.04473110747379" lon="12.64252105712844"><ele>256.0</ele><time>2026-04-28T09:04:54Z</time></trkpt><trkpt lat="38.04482702308042" lon="12.642278884620417"><ele>256.0</ele><time>2026-04-28T09:04:55Z</time></trkpt><trkpt lat="38.04491319771099" lon="12.642022048075196"><ele>256.0</ele><time>2026-04-28T09:04:56Z</time></trkpt><trkpt lat="38.0449851785226" lon="12.64172679498376"><ele>256.0</ele><time>2026-04-28T09:04:57Z</time></trkpt><trkpt lat="38.04503986571137" lon="12.641411836504346"><ele>256.0</ele><time>2026-04-28T09:04:58Z</time></trkpt><trkpt lat="38.0450948071938" lon="12.641131221152246"><ele>256.0</ele><time>2026-04-28T09:04:59Z</time></trkpt><trkpt lat="38.04514173675213" lon="12.64086512654544"><ele>256.0</ele><time>2026-04-28T09:05:00Z</time></trkpt><trkpt lat="38.04518494385998" lon="12.640610861879713"><ele>256.0</ele><time>2026-04-28T09:05:01Z</time></trkpt><trkpt lat="38.04521483872248" lon="12.640332670554308"><ele>256.5</ele><time>2026-04-28T09:05:02Z</time></trkpt><trkpt lat="38.04519839220235" lon="12.640010049380493"><ele>257.0</ele><time>2026-04-28T09:05:03Z</time></trkpt><trkpt lat="38.045170646627135" lon="12.639654884981935"><ele>256.0</ele><time>2026-04-28T09:05:04Z</time></trkpt><trkpt lat="38.04515184809712" lon="12.639296196021263"><ele>255.0</ele><time>2026-04-28T09:05:05Z</time></trkpt><trkpt lat="38.045160902552745" lon="12.63895083425904"><ele>256.5</ele><time>2026-04-28T09:05:06Z</time></trkpt><trkpt lat="38.04518027405494" lon="12.638631035852738"><ele>258.0</ele><time>2026-04-28T09:05:07Z</time></trkpt><trkpt lat="38.04518135969692" lon="12.638336645437404"><ele>258.0</ele><time>2026-04-28T09:05:08Z</time></trkpt><trkpt lat="38.04514683131714" lon="12.638028535701581"><ele>258.0</ele><time>2026-04-28T09:05:09Z</time></trkpt><trkpt lat="38.04508367035608" lon="12.637745000558564"><ele>258.0</ele><time>2026-04-28T09:05:10Z</time></trkpt><trkpt lat="38.04507099509289" lon="12.637487711046115"><ele>258.0</ele><time>2026-04-28T09:05:11Z</time></trkpt><trkpt lat="38.04504109326898" lon="12.637261015005679"><ele>258.0</ele><time>2026-04-28T09:05:12Z</time></trkpt><trkpt lat="38.044936015073574" lon="12.63706893771312"><ele>258.3333333333333</ele><time>2026-04-28T09:05:13Z</time></trkpt><trkpt lat="38.044927537201275" lon="12.636863338831882"><ele>258.66666666666663</ele><time>2026-04-28T09:05:14Z</time></trkpt><trkpt lat="38.0449401987379" lon="12.636631739447298"><ele>259.0</ele><time>2026-04-28T09:05:15Z</time></trkpt><trkpt lat="38.04497279468902" lon="12.636344934593843"><ele>261.0</ele><time>2026-04-28T09:05:16Z</time></trkpt><trkpt lat="38.04504226812249" lon="12.636044688835558"><ele>263.0</ele><time>2026-04-28T09:05:17Z</time></trkpt><trkpt lat="38.045094416484346" lon="12.63570014016078"><ele>263.0</ele><time>2026-04-28T09:05:17.999Z</time></trkpt><trkpt lat="38.045141901478445" lon="12.635389843819057"><ele>263.0</ele><time>2026-04-28T09:05:18.999Z</time></trkpt><trkpt lat="38.045200762758114" lon="12.635116340990802"><ele>263.33333333333337</ele><time>2026-04-28T09:05:19.999Z</time></trkpt><trkpt lat="38.045248841700925" lon="12.634878284604477"><ele>263.6666666666667</ele><time>2026-04-28T09:05:20.999Z</time></trkpt><trkpt lat="38.045317768823466" lon="12.634664989862793"><ele>264.0</ele><time>2026-04-28T09:05:21.999Z</time></trkpt><trkpt lat="38.04538043433477" lon="12.634479211979896"><ele>265.5</ele><time>2026-04-28T09:05:22.999Z</time></trkpt><trkpt lat="38.045460525841335" lon="12.63431722916897"><ele>267.0</ele><time>2026-04-28T09:05:23.999Z</time></trkpt><trkpt lat="38.04552496905881" lon="12.634167206185941"><ele>268.5</ele><time>2026-04-28T09:05:24.999Z</time></trkpt><trkpt lat="38.045573594375206" lon="12.634008988422696"><ele>270.0</ele><time>2026-04-28T09:05:25.999Z</time></trkpt><trkpt lat="38.04559477798723" lon="12.63382819913854"><ele>270.0</ele><time>2026-04-28T09:05:26.999Z</time></trkpt><trkpt lat="38.04562904424592" lon="12.633626511757186"><ele>270.0</ele><time>2026-04-28T09:05:27.999Z</time></trkpt><trkpt lat="38.04560486595706" lon="12.633425410542921"><ele>270.0</ele><time>2026-04-28T09:05:28.999Z</time></trkpt><trkpt lat="38.04553586697418" lon="12.633230215336496"><ele>270.0</ele><time>2026-04-28T09:05:29.999Z</time></trkpt><trkpt lat="38.04545978043122" lon="12.633039303732593"><ele>270.0</ele><time>2026-04-28T09:05:30.999Z</time></trkpt><trkpt lat="38.045383127450144" lon="12.63285169048071"><ele>270.0</ele><time>2026-04-28T09:05:31.999Z</time></trkpt><trkpt lat="38.04530962987977" lon="12.632656506441801"><ele>267.6666666666667</ele><time>2026-04-28T09:05:32.999Z</time></trkpt><trkpt lat="38.04523994091214" lon="12.632450119419074"><ele>265.33333333333337</ele><time>2026-04-28T09:05:33.999Z</time></trkpt><trkpt lat="38.04515386963091" lon="12.632231617725084"><ele>263.0</ele><time>2026-04-28T09:05:34.999Z</time></trkpt><trkpt lat="38.04504868285008" lon="12.632042884298587"><ele>263.75</ele><time>2026-04-28T09:05:35.999Z</time></trkpt><trkpt lat="38.04495458125645" lon="12.631879046769749"><ele>264.5</ele><time>2026-04-28T09:05:36.999Z</time></trkpt><trkpt lat="38.04487547052264" lon="12.631725251212758"><ele>265.25</ele><time>2026-04-28T09:05:37.999Z</time></trkpt><trkpt lat="38.0448071918605" lon="12.631572856805299"><ele>266.0</ele><time>2026-04-28T09:05:38.999Z</time></trkpt><trkpt lat="38.04476705190719" lon="12.63140112671635"><ele>266.0</ele><time>2026-04-28T09:05:39.999Z</time></trkpt><trkpt lat="38.04474546231028" lon="12.631205270751686"><ele>266.0</ele><time>2026-04-28T09:05:40.999Z</time></trkpt><trkpt lat="38.04472652000318" lon="12.631000074625117"><ele>266.0</ele><time>2026-04-28T09:05:41.999Z</time></trkpt><trkpt lat="38.04469773040867" lon="12.630802318902166"><ele>264.33333333333337</ele><time>2026-04-28T09:05:42.999Z</time></trkpt><trkpt lat="38.04466445252479" lon="12.630599605654426"><ele>262.6666666666667</ele><time>2026-04-28T09:05:43.999Z</time></trkpt><trkpt lat="38.04463264508748" lon="12.630397456125355"><ele>261.0</ele><time>2026-04-28T09:05:44.999Z</time></trkpt><trkpt lat="38.04459026394961" lon="12.63020701180334"><ele>259.3333333333333</ele><time>2026-04-28T09:05:45.999Z</time></trkpt><trkpt lat="38.04454967551036" lon="12.630014112881822"><ele>257.66666666666663</ele><time>2026-04-28T09:05:46.999Z</time></trkpt><trkpt lat="38.04449562275534" lon="12.629828353232245"><ele>256.0</ele><time>2026-04-28T09:05:47.999Z</time></trkpt><trkpt lat="38.04443062811235" lon="12.629660783698354"><ele>256.0</ele><time>2026-04-28T09:05:48.999Z</time></trkpt><trkpt lat="38.04437240333692" lon="12.629495496374725"><ele>256.0</ele><time>2026-04-28T09:05:49.999Z</time></trkpt><trkpt lat="38.044317866269346" lon="12.6293217282132"><ele>256.0</ele><time>2026-04-28T09:05:50.999Z</time></trkpt><trkpt lat="38.04424951579675" lon="12.629158846621698"><ele>256.0</ele><time>2026-04-28T09:05:51.999Z</time></trkpt><trkpt lat="38.04416545433058" lon="12.62900339922881"><ele>256.75</ele><time>2026-04-28T09:05:52.999Z</time></trkpt><trkpt lat="38.044058484869886" lon="12.628871654248044"><ele>257.5</ele><time>2026-04-28T09:05:53.999Z</time></trkpt><trkpt lat="38.04396299617897" lon="12.62873106339333"><ele>258.25</ele><time>2026-04-28T09:05:54.999Z</time></trkpt><trkpt lat="38.04387066538037" lon="12.628593267674773"><ele>259.0</ele><time>2026-04-28T09:05:55.999Z</time></trkpt><trkpt lat="38.04379980576403" lon="12.628427035169132"><ele>257.0</ele><time>2026-04-28T09:05:56.999Z</time></trkpt><trkpt lat="38.04374270113353" lon="12.628231958537091"><ele>255.0</ele><time>2026-04-28T09:05:57.999Z</time></trkpt><trkpt lat="38.04369506876061" lon="12.628028729082734"><ele>253.0</ele><time>2026-04-28T09:05:58.999Z</time></trkpt><trkpt lat="38.04363666819391" lon="12.627828858840449"><ele>252.0</ele><time>2026-04-28T09:05:59.999Z</time></trkpt><trkpt lat="38.04357781265953" lon="12.627624350419715"><ele>251.0</ele><time>2026-04-28T09:06:00.999Z</time></trkpt><trkpt lat="38.04351879599018" lon="12.62742311769147"><ele>250.0</ele><time>2026-04-28T09:06:01.999Z</time></trkpt><trkpt lat="38.043457362356456" lon="12.627215846300857"><ele>250.0</ele><time>2026-04-28T09:06:03Z</time></trkpt><trkpt lat="38.04340009168193" lon="12.627015901182084"><ele>250.0</ele><time>2026-04-28T09:06:04Z</time></trkpt><trkpt lat="38.043352503670945" lon="12.626836147005212"><ele>250.0</ele><time>2026-04-28T09:06:05Z</time></trkpt><trkpt lat="38.043280333739986" lon="12.626645048127099"><ele>250.75</ele><time>2026-04-28T09:06:06Z</time></trkpt><trkpt lat="38.04324846816937" lon="12.626490664238371"><ele>251.5</ele><time>2026-04-28T09:06:07Z</time></trkpt><trkpt lat="38.04322784318763" lon="12.626307381559498"><ele>252.25</ele><time>2026-04-28T09:06:08Z</time></trkpt><trkpt lat="38.04319282759799" lon="12.626127318867171"><ele>253.0</ele><time>2026-04-28T09:06:09Z</time></trkpt><trkpt lat="38.043153537251456" lon="12.62597328347069"><ele>253.0</ele><time>2026-04-28T09:06:10Z</time></trkpt><trkpt lat="38.043084745843444" lon="12.625835550245204"><ele>253.0</ele><time>2026-04-28T09:06:11Z</time></trkpt><trkpt lat="38.043017994706354" lon="12.625713861899388"><ele>253.0</ele><time>2026-04-28T09:06:12Z</time></trkpt><trkpt lat="38.042970965897226" lon="12.62559446312481"><ele>253.0</ele><time>2026-04-28T09:06:13Z</time></trkpt><trkpt lat="38.04292877535903" lon="12.625478643859037"><ele>253.0</ele><time>2026-04-28T09:06:14Z</time></trkpt><trkpt lat="38.042879536371935" lon="12.625371474336506"><ele>253.0</ele><time>2026-04-28T09:06:15Z</time></trkpt><trkpt lat="38.04285653926232" lon="12.625247706850212"><ele>253.0</ele><time>2026-04-28T09:06:16Z</time></trkpt><trkpt lat="38.04280735315668" lon="12.625123970966998"><ele>253.0</ele><time>2026-04-28T09:06:17Z</time></trkpt><trkpt lat="38.04274227164845" lon="12.624988392204333"><ele>253.0</ele><time>2026-04-28T09:06:18Z</time></trkpt><trkpt lat="38.04267879270241" lon="12.62482709834812"><ele>252.8</ele><time>2026-04-28T09:06:19Z</time></trkpt><trkpt lat="38.04262588977701" lon="12.624681977624428"><ele>252.60000000000002</ele><time>2026-04-28T09:06:20Z</time></trkpt><trkpt lat="38.042588138928245" lon="12.62455286668636"><ele>252.39999999999998</ele><time>2026-04-28T09:06:21Z</time></trkpt><trkpt lat="38.04255168729752" lon="12.62442122587646"><ele>252.2</ele><time>2026-04-28T09:06:22Z</time></trkpt><trkpt lat="38.0425049190394" lon="12.624303223426445"><ele>252.0</ele><time>2026-04-28T09:06:23Z</time></trkpt><trkpt lat="38.042454047855706" lon="12.624179023284624"><ele>252.0</ele><time>2026-04-28T09:06:24Z</time></trkpt><trkpt lat="38.04239642790856" lon="12.624035525704354"><ele>252.0</ele><time>2026-04-28T09:06:25Z</time></trkpt><trkpt lat="38.04235136286057" lon="12.62387562522643"><ele>252.0</ele><time>2026-04-28T09:06:26Z</time></trkpt><trkpt lat="38.04230037780788" lon="12.623702116656489"><ele>252.0</ele><time>2026-04-28T09:06:27Z</time></trkpt><trkpt lat="38.0422481333582" lon="12.623520960579924"><ele>252.33333333333331</ele><time>2026-04-28T09:06:28Z</time></trkpt><trkpt lat="38.04218405990908" lon="12.623331573029695"><ele>252.66666666666666</ele><time>2026-04-28T09:06:29Z</time></trkpt><trkpt lat="38.042161588750275" lon="12.62314112003868"><ele>253.0</ele><time>2026-04-28T09:06:30Z</time></trkpt><trkpt lat="38.042135446480266" lon="12.62296778301489"><ele>252.5</ele><time>2026-04-28T09:06:31Z</time></trkpt><trkpt lat="38.042119070215094" lon="12.622805016846495"><ele>252.0</ele><time>2026-04-28T09:06:32Z</time></trkpt><trkpt lat="38.042088808713515" lon="12.622652274973499"><ele>251.5</ele><time>2026-04-28T09:06:33Z</time></trkpt><trkpt lat="38.0420568659255" lon="12.622508502400843"><ele>251.0</ele><time>2026-04-28T09:06:34Z</time></trkpt><trkpt lat="38.04202574935847" lon="12.622354686554548"><ele>251.0</ele><time>2026-04-28T09:06:35Z</time></trkpt><trkpt lat="38.04198954099307" lon="12.622198710575635"><ele>251.00000000000003</ele><time>2026-04-28T09:06:36Z</time></trkpt><trkpt lat="38.04195531260527" lon="12.62205181770816"><ele>251.00000000000003</ele><time>2026-04-28T09:06:37Z</time></trkpt><trkpt lat="38.04192730218504" lon="12.62192059327517"><ele>251.0</ele><time>2026-04-28T09:06:38Z</time></trkpt><trkpt lat="38.04190279635456" lon="12.621806232116723"><ele>251.0</ele><time>2026-04-28T09:06:39Z</time></trkpt><trkpt lat="38.04187515616995" lon="12.621690392052715"><ele>250.50000000000003</ele><time>2026-04-28T09:06:40Z</time></trkpt><trkpt lat="38.041869050744175" lon="12.621566056446278"><ele>250.0</ele><time>2026-04-28T09:06:41Z</time></trkpt><trkpt lat="38.041850253332925" lon="12.621446428185056"><ele>249.5</ele><time>2026-04-28T09:06:42Z</time></trkpt><trkpt lat="38.04183517453561" lon="12.621362052397307"><ele>249.0</ele><time>2026-04-28T09:06:43Z</time></trkpt><trkpt lat="38.041809004176294" lon="12.621278423401014"><ele>248.50000000000003</ele><time>2026-04-28T09:06:44Z</time></trkpt><trkpt lat="38.04176370615611" lon="12.621196255489963"><ele>248.0</ele><time>2026-04-28T09:06:45Z</time></trkpt><trkpt lat="38.04171171223049" lon="12.621106916630222"><ele>247.66666666666669</ele><time>2026-04-28T09:06:46Z</time></trkpt><trkpt lat="38.04166918678943" lon="12.621007395818715"><ele>247.33333333333334</ele><time>2026-04-28T09:06:47Z</time></trkpt><trkpt lat="38.0416241137683" lon="12.62091053046945"><ele>247.0</ele><time>2026-04-28T09:06:48Z</time></trkpt><trkpt lat="38.04158136007393" lon="12.620815669961718"><ele>246.66666666666669</ele><time>2026-04-28T09:06:49Z</time></trkpt><trkpt lat="38.041552623296276" lon="12.620733390921487"><ele>246.33333333333334</ele><time>2026-04-28T09:06:50Z</time></trkpt><trkpt lat="38.041524926868746" lon="12.620652470489006"><ele>246.0</ele><time>2026-04-28T09:06:51Z</time></trkpt><trkpt lat="38.04148668783138" lon="12.62056801677102"><ele>247.33333333333334</ele><time>2026-04-28T09:06:52Z</time></trkpt><trkpt lat="38.04144441433728" lon="12.62047918314007"><ele>248.66666666666669</ele><time>2026-04-28T09:06:53Z</time></trkpt><trkpt lat="38.04140507018833" lon="12.620386908028298"><ele>250.0</ele><time>2026-04-28T09:06:54Z</time></trkpt><trkpt lat="38.04137010363211" lon="12.620290384061772"><ele>251.33333333333334</ele><time>2026-04-28T09:06:55Z</time></trkpt><trkpt lat="38.04134006542124" lon="12.62019841551734"><ele>252.66666666666669</ele><time>2026-04-28T09:06:56Z</time></trkpt><trkpt lat="38.04131110915488" lon="12.6201109289611"><ele>254.0</ele><time>2026-04-28T09:06:57Z</time></trkpt><trkpt lat="38.04129490587704" lon="12.620029516839711"><ele>254.0</ele><time>2026-04-28T09:07:01Z</time></trkpt><trkpt lat="38.041251737150326" lon="12.619958704462855"><ele>253.99999999999997</ele><time>2026-04-28T09:07:02Z</time></trkpt><trkpt lat="38.04121068748051" lon="12.619825207202663"><ele>253.99999999999997</ele><time>2026-04-28T09:07:03Z</time></trkpt><trkpt lat="38.041149975115246" lon="12.619669965655433"><ele>254.0</ele><time>2026-04-28T09:07:04Z</time></trkpt><trkpt lat="38.04111461691595" lon="12.61958775702274"><ele>254.0</ele><time>2026-04-28T09:07:05Z</time></trkpt><trkpt lat="38.04105965522804" lon="12.619443891293127"><ele>253.75</ele><time>2026-04-28T09:07:07Z</time></trkpt><trkpt lat="38.041029287463395" lon="12.619354476745038"><ele>253.5</ele><time>2026-04-28T09:07:08Z</time></trkpt><trkpt lat="38.04098099632765" lon="12.619252360976565"><ele>253.25</ele><time>2026-04-28T09:07:09Z</time></trkpt><trkpt lat="38.04092008537477" lon="12.619104109871227"><ele>253.0</ele><time>2026-04-28T09:07:10Z</time></trkpt><trkpt lat="38.040837382583305" lon="12.618907693503447"><ele>254.0</ele><time>2026-04-28T09:07:11Z</time></trkpt><trkpt lat="38.04075803539162" lon="12.618722350187001"><ele>255.0</ele><time>2026-04-28T09:07:12Z</time></trkpt><trkpt lat="38.04066823306317" lon="12.618526895631083"><ele>256.0</ele><time>2026-04-28T09:07:13Z</time></trkpt><trkpt lat="38.0405984662023" lon="12.61835788565441"><ele>256.0</ele><time>2026-04-28T09:07:14Z</time></trkpt><trkpt lat="38.04053469001606" lon="12.618217493990471"><ele>256.0</ele><time>2026-04-28T09:07:15Z</time></trkpt><trkpt lat="38.04048328462192" lon="12.618105187617427"><ele>256.0</ele><time>2026-04-28T09:07:16Z</time></trkpt><trkpt lat="38.040438963041325" lon="12.61797184955269"><ele>256.0</ele><time>2026-04-28T09:07:18Z</time></trkpt><trkpt lat="38.040421937917856" lon="12.61785580132328"><ele>256.0</ele><time>2026-04-28T09:07:20Z</time></trkpt><trkpt lat="38.04037309839453" lon="12.617722462011056"><ele>254.75</ele><time>2026-04-28T09:07:22Z</time></trkpt><trkpt lat="38.04031820255538" lon="12.617594941332555"><ele>253.5</ele><time>2026-04-28T09:07:23Z</time></trkpt><trkpt lat="38.04025235851051" lon="12.61744732305217"><ele>252.25</ele><time>2026-04-28T09:07:24Z</time></trkpt><trkpt lat="38.04019594062718" lon="12.617330432046368"><ele>251.0</ele><time>2026-04-28T09:07:25Z</time></trkpt><trkpt lat="38.04015638062407" lon="12.617204732450812"><ele>251.0</ele><time>2026-04-28T09:07:26Z</time></trkpt><trkpt lat="38.04009462017612" lon="12.617026601327458"><ele>251.0</ele><time>2026-04-28T09:07:27Z</time></trkpt><trkpt lat="38.04001768356428" lon="12.616850501490001"><ele>251.0</ele><time>2026-04-28T09:07:27.999Z</time></trkpt><trkpt lat="38.03994986171706" lon="12.616724263362162"><ele>251.0</ele><time>2026-04-28T09:07:28.999Z</time></trkpt><trkpt lat="38.039892995194975" lon="12.61661922092153"><ele>251.4</ele><time>2026-04-28T09:07:29.999Z</time></trkpt><trkpt lat="38.03982482399349" lon="12.61653381344733"><ele>251.8</ele><time>2026-04-28T09:07:30.999Z</time></trkpt><trkpt lat="38.03975314687137" lon="12.616442213656764"><ele>252.20000000000002</ele><time>2026-04-28T09:07:31.999Z</time></trkpt><trkpt lat="38.03968510517275" lon="12.616372334794901"><ele>252.60000000000002</ele><time>2026-04-28T09:07:32.999Z</time></trkpt><trkpt lat="38.039615524464025" lon="12.616294280005679"><ele>253.0</ele><time>2026-04-28T09:07:33.999Z</time></trkpt><trkpt lat="38.03954447078154" lon="12.616213294142858"><ele>253.0</ele><time>2026-04-28T09:07:34.999Z</time></trkpt><trkpt lat="38.03949207917389" lon="12.616127415794109"><ele>253.0</ele><time>2026-04-28T09:07:35.999Z</time></trkpt><trkpt lat="38.03944966757376" lon="12.616067102877157"><ele>253.0</ele><time>2026-04-28T09:07:36.999Z</time></trkpt><trkpt lat="38.03938487508165" lon="12.615964598518195"><ele>253.0</ele><time>2026-04-28T09:07:38.999Z</time></trkpt><trkpt lat="38.03933150203692" lon="12.615894127752856"><ele>253.0</ele><time>2026-04-28T09:07:40.999Z</time></trkpt><trkpt lat="38.039234228944665" lon="12.615789201517403"><ele>253.0</ele><time>2026-04-28T09:07:42.999Z</time></trkpt><trkpt lat="38.03917155240976" lon="12.615686239386811"><ele>253.0</ele><time>2026-04-28T09:07:44.999Z</time></trkpt><trkpt lat="38.03911362523326" lon="12.615598922021556"><ele>253.0</ele><time>2026-04-28T09:07:46.999Z</time></trkpt><trkpt lat="38.039059803958274" lon="12.615516547060617"><ele>253.0</ele><time>2026-04-28T09:07:48.999Z</time></trkpt><trkpt lat="38.03899800329006" lon="12.615401275187114"><ele>253.0</ele><time>2026-04-28T09:07:50.999Z</time></trkpt><trkpt lat="38.03893694696719" lon="12.615317500203282"><ele>251.49999999999997</ele><time>2026-04-28T09:07:52.999Z</time></trkpt><trkpt lat="38.038887828861036" lon="12.615230455729872"><ele>250.0</ele><time>2026-04-28T09:07:54.999Z</time></trkpt><trkpt lat="38.038832155742135" lon="12.615146987687018"><ele>248.5</ele><time>2026-04-28T09:07:56.999Z</time></trkpt><trkpt lat="38.038756198094895" lon="12.615025850864406"><ele>247.0</ele><time>2026-04-28T09:07:58.999Z</time></trkpt><trkpt lat="38.038723841272606" lon="12.614950141569723"><ele>245.49999999999997</ele><time>2026-04-28T09:07:59.999Z</time></trkpt><trkpt lat="38.03868627638043" lon="12.614881951240305"><ele>244.0</ele><time>2026-04-28T09:08:00.999Z</time></trkpt><trkpt lat="38.03864367014546" lon="12.614813222231565"><ele>244.0</ele><time>2026-04-28T09:08:01.999Z</time></trkpt><trkpt lat="38.0385996046972" lon="12.614754414101988"><ele>243.99999999999997</ele><time>2026-04-28T09:08:02.999Z</time></trkpt><trkpt lat="38.03856221761412" lon="12.614686030764013"><ele>243.99999999999997</ele><time>2026-04-28T09:08:03.999Z</time></trkpt><trkpt lat="38.03849629263283" lon="12.61454896047713"><ele>244.0</ele><time>2026-04-28T09:08:05.999Z</time></trkpt><trkpt lat="38.03842864354987" lon="12.614413756598031"><ele>244.0</ele><time>2026-04-28T09:08:07.999Z</time></trkpt><trkpt lat="38.03838285020704" lon="12.614306977114987"><ele>243.33333333333331</ele><time>2026-04-28T09:08:10Z</time></trkpt><trkpt lat="38.03834393232152" lon="12.614241199221453"><ele>242.66666666666666</ele><time>2026-04-28T09:08:12Z</time></trkpt><trkpt lat="38.0382992045001" lon="12.61416630594697"><ele>242.0</ele><time>2026-04-28T09:08:14Z</time></trkpt><trkpt lat="38.03823691131303" lon="12.614082770480643"><ele>241.33333333333331</ele><time>2026-04-28T09:08:16Z</time></trkpt><trkpt lat="38.038167844370285" lon="12.613965276550662"><ele>240.66666666666666</ele><time>2026-04-28T09:08:18Z</time></trkpt><trkpt lat="38.03810514715846" lon="12.613873141161994"><ele>240.0</ele><time>2026-04-28T09:08:20Z</time></trkpt><trkpt lat="38.03805745062943" lon="12.613815709965401"><ele>240.0</ele><time>2026-04-28T09:08:21Z</time></trkpt><trkpt lat="38.037985573875645" lon="12.613699882136016"><ele>240.0</ele><time>2026-04-28T09:08:23Z</time></trkpt><trkpt lat="38.03792140475948" lon="12.61359933061486"><ele>240.0</ele><time>2026-04-28T09:08:25Z</time></trkpt><trkpt lat="38.0378328646852" lon="12.613496910614353"><ele>240.0</ele><time>2026-04-28T09:08:27Z</time></trkpt><trkpt lat="38.037753052585074" lon="12.613385249690092"><ele>240.8</ele><time>2026-04-28T09:08:29Z</time></trkpt><trkpt lat="38.03770969187721" lon="12.61332334046666"><ele>241.6</ele><time>2026-04-28T09:08:30Z</time></trkpt><trkpt lat="38.037635274704186" lon="12.61320000165899"><ele>242.39999999999998</ele><time>2026-04-28T09:08:32Z</time></trkpt><trkpt lat="38.03758307724279" lon="12.613145438731095"><ele>243.2</ele><time>2026-04-28T09:08:33Z</time></trkpt><trkpt lat="38.03750921496492" lon="12.613035327191279"><ele>244.0</ele><time>2026-04-28T09:08:35Z</time></trkpt><trkpt lat="38.037431924798945" lon="12.612922584000524"><ele>243.33333333333331</ele><time>2026-04-28T09:08:37Z</time></trkpt><trkpt lat="38.037381769363236" lon="12.612866666841674"><ele>242.66666666666666</ele><time>2026-04-28T09:08:38Z</time></trkpt><trkpt lat="38.037304612096925" lon="12.612766474565818"><ele>242.0</ele><time>2026-04-28T09:08:40Z</time></trkpt><trkpt lat="38.037241404194596" lon="12.612696027344898"><ele>241.33333333333331</ele><time>2026-04-28T09:08:42Z</time></trkpt><trkpt lat="38.03717571770532" lon="12.612637552734961"><ele>240.66666666666666</ele><time>2026-04-28T09:08:44Z</time></trkpt><trkpt lat="38.03713645005155" lon="12.612574841739443"><ele>240.0</ele><time>2026-04-28T09:08:46Z</time></trkpt><trkpt lat="38.0370840356739" lon="12.612511024515957"><ele>240.0</ele><time>2026-04-28T09:08:48Z</time></trkpt><trkpt lat="38.037050042774304" lon="12.612442763231897"><ele>240.0</ele><time>2026-04-28T09:08:50Z</time></trkpt><trkpt lat="38.03700136157823" lon="12.612364020332693"><ele>240.0</ele><time>2026-04-28T09:08:52Z</time></trkpt><trkpt lat="38.036982852425055" lon="12.61221544757631"><ele>240.0</ele><time>2026-04-28T09:08:54Z</time></trkpt><trkpt lat="38.036999723860355" lon="12.61213302126258"><ele>240.0</ele><time>2026-04-28T09:08:55Z</time></trkpt><trkpt lat="38.03701127128414" lon="12.612045809500865"><ele>240.0</ele><time>2026-04-28T09:08:56Z</time></trkpt><trkpt lat="38.037027858997945" lon="12.61191255558069"><ele>241.75</ele><time>2026-04-28T09:08:57Z</time></trkpt><trkpt lat="38.03705003066245" lon="12.611787720033597"><ele>243.5</ele><time>2026-04-28T09:08:58Z</time></trkpt><trkpt lat="38.03708195198013" lon="12.61165005982661"><ele>245.25</ele><time>2026-04-28T09:08:59Z</time></trkpt><trkpt lat="38.03711545983342" lon="12.611498422749701"><ele>247.0</ele><time>2026-04-28T09:09:00Z</time></trkpt><trkpt lat="38.03714484707183" lon="12.611346312193783"><ele>247.0</ele><time>2026-04-28T09:09:01Z</time></trkpt><trkpt lat="38.03718255494624" lon="12.61118632635195"><ele>247.0</ele><time>2026-04-28T09:09:02Z</time></trkpt><trkpt lat="38.037228142433925" lon="12.61104995268929"><ele>247.0</ele><time>2026-04-28T09:09:03Z</time></trkpt><trkpt lat="38.03727771942904" lon="12.610946164029977"><ele>247.0</ele><time>2026-04-28T09:09:04Z</time></trkpt><trkpt lat="38.03731133079096" lon="12.61086087566076"><ele>247.0</ele><time>2026-04-28T09:09:05Z</time></trkpt><trkpt lat="38.037356802138945" lon="12.61078881597668"><ele>247.83333333333331</ele><time>2026-04-28T09:09:06Z</time></trkpt><trkpt lat="38.03740338923737" lon="12.610715465071664"><ele>248.66666666666666</ele><time>2026-04-28T09:09:07Z</time></trkpt><trkpt lat="38.03745389887423" lon="12.610638595890249"><ele>249.5</ele><time>2026-04-28T09:09:08Z</time></trkpt><trkpt lat="38.037509720500154" lon="12.61056836583131"><ele>250.33333333333331</ele><time>2026-04-28T09:09:09Z</time></trkpt><trkpt lat="38.037562568226235" lon="12.610495114594537"><ele>251.16666666666666</ele><time>2026-04-28T09:09:10Z</time></trkpt><trkpt lat="38.03762212418249" lon="12.610422540800577"><ele>252.0</ele><time>2026-04-28T09:09:11Z</time></trkpt><trkpt lat="38.03768164002123" lon="12.610330358280423"><ele>252.8</ele><time>2026-04-28T09:09:12Z</time></trkpt><trkpt lat="38.037751816484665" lon="12.610221963614432"><ele>253.6</ele><time>2026-04-28T09:09:13Z</time></trkpt><trkpt lat="38.03781806944421" lon="12.610121755392893"><ele>254.40000000000003</ele><time>2026-04-28T09:09:14Z</time></trkpt><trkpt lat="38.03788971007583" lon="12.610046901098828"><ele>255.20000000000002</ele><time>2026-04-28T09:09:15Z</time></trkpt><trkpt lat="38.03795830283331" lon="12.609959546421093"><ele>256.0</ele><time>2026-04-28T09:09:16Z</time></trkpt><trkpt lat="38.038032281424265" lon="12.609876466541255"><ele>256.0</ele><time>2026-04-28T09:09:17Z</time></trkpt><trkpt lat="38.03809612028889" lon="12.60977584751421"><ele>256.0</ele><time>2026-04-28T09:09:18Z</time></trkpt><trkpt lat="38.03817083668845" lon="12.609677298084021"><ele>256.0</ele><time>2026-04-28T09:09:19Z</time></trkpt><trkpt lat="38.03825681821526" lon="12.609583208225645"><ele>256.0</ele><time>2026-04-28T09:09:20Z</time></trkpt><trkpt lat="38.03832447002" lon="12.609495819575853"><ele>256.0</ele><time>2026-04-28T09:09:21Z</time></trkpt><trkpt lat="38.03838924692326" lon="12.609388972413795"><ele>258.75</ele><time>2026-04-28T09:09:22Z</time></trkpt><trkpt lat="38.03846248222431" lon="12.609268308845138"><ele>261.5</ele><time>2026-04-28T09:09:23Z</time></trkpt><trkpt lat="38.0385346581695" lon="12.609153192975898"><ele>264.25</ele><time>2026-04-28T09:09:24Z</time></trkpt><trkpt lat="38.038617010741795" lon="12.609051283321959"><ele>267.0</ele><time>2026-04-28T09:09:25Z</time></trkpt><trkpt lat="38.03870265081518" lon="12.608940358772083"><ele>267.0</ele><time>2026-04-28T09:09:26Z</time></trkpt><trkpt lat="38.038777850354876" lon="12.60883786274417"><ele>267.0</ele><time>2026-04-28T09:09:27Z</time></trkpt><trkpt lat="38.03887432714333" lon="12.60874126426721"><ele>267.0</ele><time>2026-04-28T09:09:28Z</time></trkpt><trkpt lat="38.03894702830668" lon="12.608674674324767"><ele>267.0</ele><time>2026-04-28T09:09:29Z</time></trkpt><trkpt lat="38.039019824376076" lon="12.608605653375376"><ele>267.0</ele><time>2026-04-28T09:09:30Z</time></trkpt><trkpt lat="38.03908697730592" lon="12.60850306391703"><ele>267.6666666666667</ele><time>2026-04-28T09:09:31Z</time></trkpt><trkpt lat="38.03916494525655" lon="12.608400467502728"><ele>268.33333333333337</ele><time>2026-04-28T09:09:32Z</time></trkpt><trkpt lat="38.039276503958895" lon="12.608282177856404"><ele>269.0</ele><time>2026-04-28T09:09:33Z</time></trkpt><trkpt lat="38.03943008061846" lon="12.608097050932539"><ele>269.0</ele><time>2026-04-28T09:09:33.999Z</time></trkpt><trkpt lat="38.03956868490186" lon="12.607951267325522"><ele>269.0</ele><time>2026-04-28T09:09:34.999Z</time></trkpt><trkpt lat="38.039708843445" lon="12.607806968658208"><ele>269.0</ele><time>2026-04-28T09:09:35.999Z</time></trkpt><trkpt lat="38.03982735951712" lon="12.607618115010654"><ele>270.33333333333337</ele><time>2026-04-28T09:09:36.999Z</time></trkpt><trkpt lat="38.0399430980605" lon="12.607417590306886"><ele>271.6666666666667</ele><time>2026-04-28T09:09:37.999Z</time></trkpt><trkpt lat="38.04005093059468" lon="12.607214633514221"><ele>273.0</ele><time>2026-04-28T09:09:38.999Z</time></trkpt><trkpt lat="38.040127915473185" lon="12.607032275680622"><ele>275.0</ele><time>2026-04-28T09:09:39.999Z</time></trkpt><trkpt lat="38.04018957817078" lon="12.606837097722966"><ele>277.0</ele><time>2026-04-28T09:09:40.999Z</time></trkpt><trkpt lat="38.04025353075479" lon="12.606624048061903"><ele>279.0</ele><time>2026-04-28T09:09:41.999Z</time></trkpt><trkpt lat="38.04031125150715" lon="12.606403033912478"><ele>279.0</ele><time>2026-04-28T09:09:42.999Z</time></trkpt><trkpt lat="38.04036497117512" lon="12.606191954115864"><ele>279.0</ele><time>2026-04-28T09:09:43.999Z</time></trkpt><trkpt lat="38.040399629030716" lon="12.606017589114638"><ele>279.0</ele><time>2026-04-28T09:09:44.999Z</time></trkpt><trkpt lat="38.04047572652675" lon="12.605884104137218"><ele>279.0</ele><time>2026-04-28T09:09:45.999Z</time></trkpt><trkpt lat="38.04055977291437" lon="12.60576401830543"><ele>279.6666666666667</ele><time>2026-04-28T09:09:46.999Z</time></trkpt><trkpt lat="38.04068330419337" lon="12.60564929672382"><ele>280.33333333333337</ele><time>2026-04-28T09:09:47.999Z</time></trkpt><trkpt lat="38.040816731945796" lon="12.60553128155772"><ele>281.0</ele><time>2026-04-28T09:09:48.999Z</time></trkpt><trkpt lat="38.040930441123926" lon="12.605404837915794"><ele>280.0</ele><time>2026-04-28T09:09:49.999Z</time></trkpt><trkpt lat="38.04105747343397" lon="12.605301957812085"><ele>279.0</ele><time>2026-04-28T09:09:50.999Z</time></trkpt><trkpt lat="38.04120009954973" lon="12.605196309269388"><ele>278.0</ele><time>2026-04-28T09:09:51.999Z</time></trkpt><trkpt lat="38.041332225579" lon="12.60509217523919"><ele>278.0</ele><time>2026-04-28T09:09:52.999Z</time></trkpt><trkpt lat="38.04145533542932" lon="12.604992564434824"><ele>278.0</ele><time>2026-04-28T09:09:53.999Z</time></trkpt><trkpt lat="38.04157620672251" lon="12.604895696670791"><ele>278.0</ele><time>2026-04-28T09:09:54.999Z</time></trkpt><trkpt lat="38.04168327276256" lon="12.604758585639392"><ele>278.0</ele><time>2026-04-28T09:09:55.999Z</time></trkpt><trkpt lat="38.04177143713866" lon="12.604615586063709"><ele>281.0</ele><time>2026-04-28T09:09:56.999Z</time></trkpt><trkpt lat="38.04187278649181" lon="12.604488738484257"><ele>284.0</ele><time>2026-04-28T09:09:57.999Z</time></trkpt><trkpt lat="38.04196893565333" lon="12.604377500378567"><ele>287.0</ele><time>2026-04-28T09:09:58.999Z</time></trkpt><trkpt lat="38.04206014738135" lon="12.60426673616571"><ele>290.0</ele><time>2026-04-28T09:09:59.999Z</time></trkpt><trkpt lat="38.04213652568618" lon="12.604157221486748"><ele>290.0</ele><time>2026-04-28T09:10:00.999Z</time></trkpt><trkpt lat="38.042198463027866" lon="12.60403268315624"><ele>290.0</ele><time>2026-04-28T09:10:01.999Z</time></trkpt><trkpt lat="38.042245438460924" lon="12.603880204451864"><ele>290.0</ele><time>2026-04-28T09:10:02.999Z</time></trkpt><trkpt lat="38.04227833211551" lon="12.603727604044893"><ele>290.0</ele><time>2026-04-28T09:10:03.999Z</time></trkpt><trkpt lat="38.04226425110155" lon="12.603569588815889"><ele>295.0</ele><time>2026-04-28T09:10:04.999Z</time></trkpt><trkpt lat="38.042240708930564" lon="12.60338709088259"><ele>300.0</ele><time>2026-04-28T09:10:05.999Z</time></trkpt><trkpt lat="38.042200361752606" lon="12.603159058157836"><ele>305.0</ele><time>2026-04-28T09:10:06.999Z</time></trkpt><trkpt lat="38.04216547134008" lon="12.602888147340629"><ele>305.6666666666667</ele><time>2026-04-28T09:10:07.999Z</time></trkpt><trkpt lat="38.04212503755232" lon="12.602591027863756"><ele>306.3333333333333</ele><time>2026-04-28T09:10:08.999Z</time></trkpt><trkpt lat="38.04207977242116" lon="12.602334203014758"><ele>307.0</ele><time>2026-04-28T09:10:09.999Z</time></trkpt><trkpt lat="38.04206448733542" lon="12.602110263576325"><ele>304.66666666666663</ele><time>2026-04-28T09:10:10.999Z</time></trkpt><trkpt lat="38.04207140593307" lon="12.601912312901936"><ele>302.3333333333333</ele><time>2026-04-28T09:10:11.999Z</time></trkpt><trkpt lat="38.04208074685245" lon="12.601727179191363"><ele>300.0</ele><time>2026-04-28T09:10:12.999Z</time></trkpt><trkpt lat="38.04209059232397" lon="12.601531373066207"><ele>300.0</ele><time>2026-04-28T09:10:13.999Z</time></trkpt><trkpt lat="38.04210469371653" lon="12.601332432338552"><ele>300.0</ele><time>2026-04-28T09:10:15Z</time></trkpt><trkpt lat="38.04215241570949" lon="12.601156843406235"><ele>300.0</ele><time>2026-04-28T09:10:16Z</time></trkpt><trkpt lat="38.04220890677514" lon="12.600965487050244"><ele>301.3333333333333</ele><time>2026-04-28T09:10:17Z</time></trkpt><trkpt lat="38.04227618289301" lon="12.600771947521364"><ele>302.66666666666663</ele><time>2026-04-28T09:10:18Z</time></trkpt><trkpt lat="38.04237998581985" lon="12.600581236880105"><ele>304.0</ele><time>2026-04-28T09:10:19Z</time></trkpt><trkpt lat="38.04249194658834" lon="12.600409845771363"><ele>303.59999999999997</ele><time>2026-04-28T09:10:20Z</time></trkpt><trkpt lat="38.04257890786818" lon="12.600286820937917"><ele>303.2</ele><time>2026-04-28T09:10:21Z</time></trkpt><trkpt lat="38.042637511286934" lon="12.600198418007796"><ele>302.79999999999995</ele><time>2026-04-28T09:10:22Z</time></trkpt><trkpt lat="38.04260859737655" lon="12.600046059689426"><ele>302.4</ele><time>2026-04-28T09:10:24Z</time></trkpt><trkpt lat="38.04252707963441" lon="12.599989588149032"><ele>302.0</ele><time>2026-04-28T09:10:25Z</time></trkpt><trkpt lat="38.04241351728364" lon="12.599998092994054"><ele>304.75</ele><time>2026-04-28T09:10:26Z</time></trkpt><trkpt lat="38.0422902756269" lon="12.600040566353155"><ele>307.5</ele><time>2026-04-28T09:10:27Z</time></trkpt><trkpt lat="38.042144322871785" lon="12.600082642862914"><ele>310.25</ele><time>2026-04-28T09:10:28Z</time></trkpt><trkpt lat="38.04198876555535" lon="12.600158135027815"><ele>313.0</ele><time>2026-04-28T09:10:29Z</time></trkpt><trkpt lat="38.04183445173584" lon="12.600294968547622"><ele>310.0</ele><time>2026-04-28T09:10:30Z</time></trkpt><trkpt lat="38.04170410587491" lon="12.60049048309802"><ele>307.0</ele><time>2026-04-28T09:10:31Z</time></trkpt><trkpt lat="38.04159935494311" lon="12.60063336160908"><ele>304.0</ele><time>2026-04-28T09:10:32Z</time></trkpt><trkpt lat="38.04151727133028" lon="12.600734860799175"><ele>308.79999999999995</ele><time>2026-04-28T09:10:33Z</time></trkpt><trkpt lat="38.04145375965819" lon="12.60082413529609"><ele>313.59999999999997</ele><time>2026-04-28T09:10:34Z</time></trkpt><trkpt lat="38.04139828914048" lon="12.600880628620947"><ele>318.4</ele><time>2026-04-28T09:10:35Z</time></trkpt><trkpt lat="38.04129048496277" lon="12.600793211368318"><ele>323.2</ele><time>2026-04-28T09:10:37Z</time></trkpt><trkpt lat="38.041268486555225" lon="12.600674527585463"><ele>328.0</ele><time>2026-04-28T09:10:38Z</time></trkpt><trkpt lat="38.04128175831744" lon="12.600555663213676"><ele>328.0</ele><time>2026-04-28T09:10:39Z</time></trkpt><trkpt lat="38.04138239853209" lon="12.600480660326406"><ele>328.0</ele><time>2026-04-28T09:10:40Z</time></trkpt><trkpt lat="38.041447606128514" lon="12.600332102667833"><ele>328.0</ele><time>2026-04-28T09:10:41Z</time></trkpt><trkpt lat="38.04150823248461" lon="12.600104804563953"><ele>328.0</ele><time>2026-04-28T09:10:42Z</time></trkpt><trkpt lat="38.041552565894754" lon="12.59989037205595"><ele>329.75</ele><time>2026-04-28T09:10:43Z</time></trkpt><trkpt lat="38.04159388970234" lon="12.599702681375849"><ele>331.5</ele><time>2026-04-28T09:10:44Z</time></trkpt><trkpt lat="38.04165436313593" lon="12.599575105135019"><ele>333.25</ele><time>2026-04-28T09:10:45Z</time></trkpt><trkpt lat="38.041753803347994" lon="12.599457764127314"><ele>335.0</ele><time>2026-04-28T09:10:46Z</time></trkpt><trkpt lat="38.04189895768148" lon="12.599350962393578"><ele>335.0</ele><time>2026-04-28T09:10:47Z</time></trkpt><trkpt lat="38.04209214607817" lon="12.599245954636121"><ele>335.0</ele><time>2026-04-28T09:10:48Z</time></trkpt><trkpt lat="38.042301486896655" lon="12.599152786512224"><ele>335.0</ele><time>2026-04-28T09:10:49Z</time></trkpt><trkpt lat="38.04246376232113" lon="12.599060236759728"><ele>335.0</ele><time>2026-04-28T09:10:50Z</time></trkpt><trkpt lat="38.04260255390912" lon="12.59893586076987"><ele>335.0</ele><time>2026-04-28T09:10:51Z</time></trkpt><trkpt lat="38.042722288809244" lon="12.59878169686321"><ele>335.0</ele><time>2026-04-28T09:10:52Z</time></trkpt><trkpt lat="38.04280384779085" lon="12.598605815622662"><ele>335.0</ele><time>2026-04-28T09:10:53Z</time></trkpt><trkpt lat="38.04285636694675" lon="12.598420853346237"><ele>335.0</ele><time>2026-04-28T09:10:54Z</time></trkpt><trkpt lat="38.042860094788864" lon="12.59825026880441"><ele>335.0</ele><time>2026-04-28T09:10:55Z</time></trkpt><trkpt lat="38.042888378303374" lon="12.598127289425918"><ele>335.0</ele><time>2026-04-28T09:10:56Z</time></trkpt><trkpt lat="38.042964908286436" lon="12.598051974120832"><ele>335.0</ele><time>2026-04-28T09:10:57Z</time></trkpt><trkpt lat="38.0430629225044" lon="12.5980311291396"><ele>335.0</ele><time>2026-04-28T09:10:58Z</time></trkpt><trkpt lat="38.043167140346135" lon="12.598072391979446"><ele>335.0</ele><time>2026-04-28T09:10:59Z</time></trkpt><trkpt lat="38.0433467556828" lon="12.598139370497396"><ele>335.0</ele><time>2026-04-28T09:11:00Z</time></trkpt><trkpt lat="38.04350218477589" lon="12.598205133486863"><ele>333.25</ele><time>2026-04-28T09:11:01Z</time></trkpt><trkpt lat="38.04362510003641" lon="12.598227445952972"><ele>331.5</ele><time>2026-04-28T09:11:02Z</time></trkpt><trkpt lat="38.043747106861396" lon="12.598177786923864"><ele>329.75</ele><time>2026-04-28T09:11:03Z</time></trkpt><trkpt lat="38.04388172514692" lon="12.59806467011245"><ele>328.0</ele><time>2026-04-28T09:11:04Z</time></trkpt><trkpt lat="38.04400020805047" lon="12.597927824823804"><ele>332.0</ele><time>2026-04-28T09:11:05Z</time></trkpt><trkpt lat="38.04407924224962" lon="12.597794920833593"><ele>336.0</ele><time>2026-04-28T09:11:06Z</time></trkpt><trkpt lat="38.04411384369216" lon="12.59765476039124"><ele>340.0</ele><time>2026-04-28T09:11:07Z</time></trkpt><trkpt lat="38.04411877703637" lon="12.597514178637283"><ele>344.0</ele><time>2026-04-28T09:11:08Z</time></trkpt><trkpt lat="38.044114492522176" lon="12.597413677920576"><ele>348.0</ele><time>2026-04-28T09:11:09Z</time></trkpt><trkpt lat="38.04412838858705" lon="12.597305437929895"><ele>349.79999999999995</ele><time>2026-04-28T09:11:11Z</time></trkpt><trkpt lat="38.04415697762571" lon="12.597200095209596"><ele>351.6</ele><time>2026-04-28T09:12:30Z</time></trkpt><trkpt lat="38.04419401695789" lon="12.597037246129558"><ele>353.4</ele><time>2026-04-28T09:12:32Z</time></trkpt><trkpt lat="38.04422475546153" lon="12.596937504267931"><ele>355.20000000000005</ele><time>2026-04-28T09:12:33Z</time></trkpt><trkpt lat="38.04431730328166" lon="12.596860582755259"><ele>357.0</ele><time>2026-04-28T09:12:34Z</time></trkpt><trkpt lat="38.044395564881974" lon="12.596746070805413"><ele>357.0</ele><time>2026-04-28T09:12:35Z</time></trkpt><trkpt lat="38.044489801075386" lon="12.596612473864488"><ele>357.0</ele><time>2026-04-28T09:12:36Z</time></trkpt><trkpt lat="38.04461387707281" lon="12.596421670546452"><ele>357.0</ele><time>2026-04-28T09:12:37Z</time></trkpt><trkpt lat="38.044746590719406" lon="12.596214689751351"><ele>358.0</ele><time>2026-04-28T09:12:38Z</time></trkpt><trkpt lat="38.04489764044259" lon="12.595986917033194"><ele>359.0</ele><time>2026-04-28T09:12:39Z</time></trkpt><trkpt lat="38.04502013543044" lon="12.595803130189664"><ele>360.0</ele><time>2026-04-28T09:12:40Z</time></trkpt><trkpt lat="38.045131080112455" lon="12.595664420770774"><ele>360.0</ele><time>2026-04-28T09:12:41Z</time></trkpt><trkpt lat="38.045238250890556" lon="12.595543077848026"><ele>360.0</ele><time>2026-04-28T09:12:42Z</time></trkpt><trkpt lat="38.04531196962036" lon="12.59543160606886"><ele>360.0</ele><time>2026-04-28T09:12:43Z</time></trkpt><trkpt lat="38.045373640727526" lon="12.595285503302645"><ele>360.0</ele><time>2026-04-28T09:12:44Z</time></trkpt><trkpt lat="38.04541487474764" lon="12.595093705352367"><ele>367.0</ele><time>2026-04-28T09:12:45Z</time></trkpt><trkpt lat="38.04542319092199" lon="12.594833751982627"><ele>374.0</ele><time>2026-04-28T09:12:46Z</time></trkpt><trkpt lat="38.045451808482305" lon="12.594588301022771"><ele>381.0</ele><time>2026-04-28T09:12:47Z</time></trkpt><trkpt lat="38.04550796807654" lon="12.594341136348046"><ele>389.5</ele><time>2026-04-28T09:12:48Z</time></trkpt><trkpt lat="38.04561798560204" lon="12.594062495137077"><ele>398.0</ele><time>2026-04-28T09:12:49Z</time></trkpt><trkpt lat="38.045740050893286" lon="12.59380487325912"><ele>391.3333333333333</ele><time>2026-04-28T09:12:50Z</time></trkpt><trkpt lat="38.045832069036436" lon="12.593602403126468"><ele>384.66666666666663</ele><time>2026-04-28T09:12:51Z</time></trkpt><trkpt lat="38.045920466957874" lon="12.593429830077742"><ele>378.0</ele><time>2026-04-28T09:12:52Z</time></trkpt><trkpt lat="38.04598655731133" lon="12.5932555282757"><ele>378.0</ele><time>2026-04-28T09:12:53Z</time></trkpt><trkpt lat="38.04602519704694" lon="12.593035787952541"><ele>378.0</ele><time>2026-04-28T09:12:54Z</time></trkpt><trkpt lat="38.04602611383659" lon="12.592773784501361"><ele>378.0</ele><time>2026-04-28T09:12:55Z</time></trkpt><trkpt lat="38.046017152489526" lon="12.592451476845763"><ele>386.5</ele><time>2026-04-28T09:12:56Z</time></trkpt><trkpt lat="38.04600556776801" lon="12.592117398373162"><ele>395.0</ele><time>2026-04-28T09:12:57Z</time></trkpt><trkpt lat="38.04599221701831" lon="12.591846293718824"><ele>396.25</ele><time>2026-04-28T09:12:58Z</time></trkpt><trkpt lat="38.04599242484821" lon="12.591634022337502"><ele>397.5</ele><time>2026-04-28T09:12:59Z</time></trkpt><trkpt lat="38.04601088808829" lon="12.591477165228776"><ele>398.75</ele><time>2026-04-28T09:13:00Z</time></trkpt><trkpt lat="38.046024061607135" lon="12.591333904263204"><ele>400.0</ele><time>2026-04-28T09:13:01Z</time></trkpt><trkpt lat="38.04601851401306" lon="12.591213710521892"><ele>401.25</ele><time>2026-04-28T09:13:02Z</time></trkpt><trkpt lat="38.0459434751874" lon="12.591077353181346"><ele>402.5</ele><time>2026-04-28T09:13:04Z</time></trkpt><trkpt lat="38.045841059369394" lon="12.591119091908398"><ele>403.75</ele><time>2026-04-28T09:13:05Z</time></trkpt><trkpt lat="38.04576828127181" lon="12.5912016884373"><ele>405.0</ele><time>2026-04-28T09:13:06Z</time></trkpt><trkpt lat="38.045756819833116" lon="12.591355492169756"><ele>403.33333333333337</ele><time>2026-04-28T09:13:07Z</time></trkpt><trkpt lat="38.04579282935812" lon="12.591541374890165"><ele>401.6666666666667</ele><time>2026-04-28T09:13:08Z</time></trkpt><trkpt lat="38.04580730989078" lon="12.59173014319706"><ele>400.0</ele><time>2026-04-28T09:13:09Z</time></trkpt><trkpt lat="38.04579146037356" lon="12.591940177548338"><ele>411.33333333333337</ele><time>2026-04-28T09:13:10Z</time></trkpt><trkpt lat="38.045771591183396" lon="12.592187064521973"><ele>422.66666666666663</ele><time>2026-04-28T09:13:11Z</time></trkpt><trkpt lat="38.04572459193414" lon="12.592462775039525"><ele>434.0</ele><time>2026-04-28T09:13:12Z</time></trkpt><trkpt lat="38.04568415190217" lon="12.592698279177164"><ele>429.5</ele><time>2026-04-28T09:13:13Z</time></trkpt><trkpt lat="38.04562304118482" lon="12.592867166674257"><ele>425.0</ele><time>2026-04-28T09:13:14Z</time></trkpt><trkpt lat="38.04555114356952" lon="12.593012855877369"><ele>420.5</ele><time>2026-04-28T09:13:15Z</time></trkpt><trkpt lat="38.04543602649526" lon="12.593154999651766"><ele>416.0</ele><time>2026-04-28T09:13:16Z</time></trkpt><trkpt lat="38.04528470800592" lon="12.59333494418437"><ele>416.0</ele><time>2026-04-28T09:13:17Z</time></trkpt><trkpt lat="38.04515667532287" lon="12.593498083422672"><ele>416.0</ele><time>2026-04-28T09:13:18Z</time></trkpt><trkpt lat="38.04505263089585" lon="12.593641043145144"><ele>416.0</ele><time>2026-04-28T09:13:19Z</time></trkpt><trkpt lat="38.04498849578173" lon="12.593791799435145"><ele>418.20000000000005</ele><time>2026-04-28T09:13:20Z</time></trkpt><trkpt lat="38.044934343842435" lon="12.593897977058093"><ele>420.40000000000003</ele><time>2026-04-28T09:13:21Z</time></trkpt><trkpt lat="38.04488300418829" lon="12.593970516272725"><ele>422.6</ele><time>2026-04-28T09:13:22Z</time></trkpt><trkpt lat="38.044801634045875" lon="12.593987441136015"><ele>424.8</ele><time>2026-04-28T09:13:23Z</time></trkpt><trkpt lat="38.04471689095727" lon="12.593935383934685"><ele>427.0</ele><time>2026-04-28T09:13:24Z</time></trkpt><trkpt lat="38.044666626162595" lon="12.593776932472917"><ele>424.25</ele><time>2026-04-28T09:13:25Z</time></trkpt><trkpt lat="38.04470922239414" lon="12.593629055953752"><ele>421.5</ele><time>2026-04-28T09:13:26Z</time></trkpt><trkpt lat="38.04480797108239" lon="12.593560010039447"><ele>418.75</ele><time>2026-04-28T09:13:27Z</time></trkpt><trkpt lat="38.04494684764583" lon="12.593510300549116"><ele>416.0</ele><time>2026-04-28T09:13:28Z</time></trkpt><trkpt lat="38.045061601629975" lon="12.593427029568742"><ele>416.0</ele><time>2026-04-28T09:13:29Z</time></trkpt><trkpt lat="38.04516146406615" lon="12.59331676835843"><ele>416.0</ele><time>2026-04-28T09:13:30Z</time></trkpt><trkpt lat="38.04525160360853" lon="12.593185495704061"><ele>416.0</ele><time>2026-04-28T09:13:31Z</time></trkpt><trkpt lat="38.04533676282525" lon="12.593012403264128"><ele>416.0</ele><time>2026-04-28T09:13:32Z</time></trkpt><trkpt lat="38.04541360615084" lon="12.592801734490719"><ele>422.0</ele><time>2026-04-28T09:13:33Z</time></trkpt><trkpt lat="38.04546388044785" lon="12.592553973692095"><ele>428.0</ele><time>2026-04-28T09:13:34Z</time></trkpt><trkpt lat="38.04548637676245" lon="12.592352554355735"><ele>434.0</ele><time>2026-04-28T09:13:35Z</time></trkpt><trkpt lat="38.04550706532997" lon="12.592207282128669"><ele>433.99999999999994</ele><time>2026-04-28T09:13:36Z</time></trkpt><trkpt lat="38.04550333714875" lon="12.592114982186587"><ele>434.0</ele><time>2026-04-28T09:13:37Z</time></trkpt><trkpt lat="38.04548140170363" lon="12.592037373007548"><ele>434.0</ele><time>2026-04-28T09:13:38Z</time></trkpt><trkpt lat="38.04538926942972" lon="12.592011555672388"><ele>434.0</ele><time>2026-04-28T09:13:39Z</time></trkpt><trkpt lat="38.04531283652171" lon="12.592026265104614"><ele>433.99999999999994</ele><time>2026-04-28T09:13:40Z</time></trkpt><trkpt lat="38.04524818973397" lon="12.592122484906373"><ele>434.0</ele><time>2026-04-28T09:13:41Z</time></trkpt><trkpt lat="38.04524161973983" lon="12.59226180015594"><ele>434.0</ele><time>2026-04-28T09:13:42Z</time></trkpt><trkpt lat="38.04528264239911" lon="12.592422148431138"><ele>434.0</ele><time>2026-04-28T09:13:43Z</time></trkpt><trkpt lat="38.04531107472267" lon="12.592549032526657"><ele>434.0</ele><time>2026-04-28T09:13:44Z</time></trkpt><trkpt lat="38.04528234212684" lon="12.592654639442278"><ele>434.0</ele><time>2026-04-28T09:13:45Z</time></trkpt><trkpt lat="38.04519084192895" lon="12.592717831349331"><ele>434.0</ele><time>2026-04-28T09:13:46Z</time></trkpt><trkpt lat="38.045074186275116" lon="12.592867098718715"><ele>436.66666666666663</ele><time>2026-04-28T09:13:46.999Z</time></trkpt><trkpt lat="38.044930924022935" lon="12.59299511064952"><ele>439.33333333333337</ele><time>2026-04-28T09:13:47.999Z</time></trkpt><trkpt lat="38.04480457339178" lon="12.593079482661821"><ele>442.0</ele><time>2026-04-28T09:13:48.999Z</time></trkpt><trkpt lat="38.04465637898544" lon="12.593143436792557"><ele>442.0</ele><time>2026-04-28T09:13:49.999Z</time></trkpt><trkpt lat="38.0444901956327" lon="12.593137655145256"><ele>442.0</ele><time>2026-04-28T09:13:50.999Z</time></trkpt><trkpt lat="38.04431376285174" lon="12.59312735663498"><ele>442.0</ele><time>2026-04-28T09:13:51.999Z</time></trkpt><trkpt lat="38.04415598064674" lon="12.593159060635445"><ele>453.33333333333337</ele><time>2026-04-28T09:13:52.999Z</time></trkpt><trkpt lat="38.04398312267757" lon="12.593263824266995"><ele>464.66666666666663</ele><time>2026-04-28T09:13:53.999Z</time></trkpt><trkpt lat="38.043825307257244" lon="12.593350270286972"><ele>476.0</ele><time>2026-04-28T09:13:54.999Z</time></trkpt><trkpt lat="38.04372493026426" lon="12.593437992398977"><ele>476.0</ele><time>2026-04-28T09:13:55.999Z</time></trkpt><trkpt lat="38.04365612228362" lon="12.59358561351186"><ele>476.0</ele><time>2026-04-28T09:13:56.999Z</time></trkpt><trkpt lat="38.043601253247594" lon="12.593842439258289"><ele>476.0</ele><time>2026-04-28T09:13:57.999Z</time></trkpt><trkpt lat="38.04356502746457" lon="12.594082536469989"><ele>471.75</ele><time>2026-04-28T09:13:58.999Z</time></trkpt><trkpt lat="38.04352852746424" lon="12.594264244484483"><ele>467.5</ele><time>2026-04-28T09:13:59.999Z</time></trkpt><trkpt lat="38.043521874480156" lon="12.59438700526288"><ele>463.25</ele><time>2026-04-28T09:14:00.999Z</time></trkpt><trkpt lat="38.043422641252924" lon="12.594469444758131"><ele>459.0</ele><time>2026-04-28T09:14:02.999Z</time></trkpt><trkpt lat="38.043350663876694" lon="12.594408526508428"><ele>459.0</ele><time>2026-04-28T09:14:03.999Z</time></trkpt><trkpt lat="38.04331380414103" lon="12.594281670512645"><ele>459.0</ele><time>2026-04-28T09:14:04.999Z</time></trkpt><trkpt lat="38.04339340237783" lon="12.594151099835488"><ele>459.0</ele><time>2026-04-28T09:14:05.999Z</time></trkpt><trkpt lat="38.0434620191006" lon="12.594008312251617"><ele>459.0</ele><time>2026-04-28T09:14:06.999Z</time></trkpt><trkpt lat="38.04353051891333" lon="12.593810065736005"><ele>464.66666666666663</ele><time>2026-04-28T09:14:07.999Z</time></trkpt><trkpt lat="38.043569842855995" lon="12.59355035858531"><ele>470.3333333333333</ele><time>2026-04-28T09:14:08.999Z</time></trkpt><trkpt lat="38.043584727204255" lon="12.593312758819218"><ele>476.0</ele><time>2026-04-28T09:14:09.999Z</time></trkpt><trkpt lat="38.04362922451745" lon="12.593132446874383"><ele>476.0</ele><time>2026-04-28T09:14:10.999Z</time></trkpt><trkpt lat="38.043686642410115" lon="12.593002573703117"><ele>476.0</ele><time>2026-04-28T09:14:11.999Z</time></trkpt><trkpt lat="38.043818340930734" lon="12.592887198511995"><ele>476.0</ele><time>2026-04-28T09:14:12.999Z</time></trkpt><trkpt lat="38.04399221437619" lon="12.592818052067583"><ele>474.5</ele><time>2026-04-28T09:14:13.999Z</time></trkpt><trkpt lat="38.04423048825444" lon="12.592728926731345"><ele>473.0</ele><time>2026-04-28T09:14:14.999Z</time></trkpt><trkpt lat="38.04441226440303" lon="12.592582792881808"><ele>473.0</ele><time>2026-04-28T09:14:15.999Z</time></trkpt><trkpt lat="38.04455559147564" lon="12.592395437386338"><ele>473.0</ele><time>2026-04-28T09:14:16.999Z</time></trkpt><trkpt lat="38.04467020447728" lon="12.59220725898795"><ele>473.0</ele><time>2026-04-28T09:14:17.999Z</time></trkpt><trkpt lat="38.04477259784449" lon="12.59206942362069"><ele>478.79999999999995</ele><time>2026-04-28T09:14:18.999Z</time></trkpt><trkpt lat="38.04484169196198" lon="12.59196767077943"><ele>484.59999999999997</ele><time>2026-04-28T09:14:19.999Z</time></trkpt><trkpt lat="38.0448114702285" lon="12.591811871839418"><ele>490.40000000000003</ele><time>2026-04-28T09:14:21.999Z</time></trkpt><trkpt lat="38.04471522387706" lon="12.591781564107242"><ele>496.20000000000005</ele><time>2026-04-28T09:14:22.999Z</time></trkpt><trkpt lat="38.04461598663926" lon="12.591846093927398"><ele>502.0</ele><time>2026-04-28T09:14:23.999Z</time></trkpt><trkpt lat="38.04454973170578" lon="12.59198623700333"><ele>492.33333333333337</ele><time>2026-04-28T09:14:24.999Z</time></trkpt><trkpt lat="38.044488876698786" lon="12.592163286217843"><ele>482.66666666666663</ele><time>2026-04-28T09:14:25.999Z</time></trkpt><trkpt lat="38.0443765857739" lon="12.592283710504267"><ele>473.0</ele><time>2026-04-28T09:14:27Z</time></trkpt><trkpt lat="38.04421997754009" lon="12.59233247263694"><ele>481.3333333333333</ele><time>2026-04-28T09:14:28Z</time></trkpt><trkpt lat="38.044031767548944" lon="12.5924076535417"><ele>489.66666666666663</ele><time>2026-04-28T09:14:29Z</time></trkpt><trkpt lat="38.04379485829051" lon="12.592512842985558"><ele>498.0</ele><time>2026-04-28T09:14:30Z</time></trkpt><trkpt lat="38.043556675766524" lon="12.592609070409491"><ele>498.0</ele><time>2026-04-28T09:14:31Z</time></trkpt><trkpt lat="38.04333228129023" lon="12.592799690521263"><ele>498.0</ele><time>2026-04-28T09:14:32Z</time></trkpt><trkpt lat="38.04311212031808" lon="12.593063503977298"><ele>500.5</ele><time>2026-04-28T09:14:33Z</time></trkpt><trkpt lat="38.04293863121187" lon="12.593329599694359"><ele>503.0</ele><time>2026-04-28T09:14:34Z</time></trkpt><trkpt lat="38.04277476658585" lon="12.593523632583352"><ele>497.0</ele><time>2026-04-28T09:14:35Z</time></trkpt><trkpt lat="38.04258418443181" lon="12.59367327853251"><ele>491.0</ele><time>2026-04-28T09:14:36Z</time></trkpt><trkpt lat="38.04244978311981" lon="12.593771450138844"><ele>485.0</ele><time>2026-04-28T09:14:37Z</time></trkpt><trkpt lat="38.042362177604566" lon="12.593804548370962"><ele>485.0</ele><time>2026-04-28T09:14:38Z</time></trkpt><trkpt lat="38.04223489971896" lon="12.59380561656479"><ele>485.0</ele><time>2026-04-28T09:14:39Z</time></trkpt><trkpt lat="38.04204004471093" lon="12.593817059274382"><ele>485.0</ele><time>2026-04-28T09:14:40Z</time></trkpt><trkpt lat="38.04182935401156" lon="12.593826132711866"><ele>485.0</ele><time>2026-04-28T09:14:41Z</time></trkpt><trkpt lat="38.04163634116238" lon="12.593839711582476"><ele>485.0</ele><time>2026-04-28T09:14:42Z</time></trkpt><trkpt lat="38.04146477657042" lon="12.593837682400917"><ele>485.0</ele><time>2026-04-28T09:14:43Z</time></trkpt><trkpt lat="38.04131892420704" lon="12.593823395695182"><ele>488.25</ele><time>2026-04-28T09:14:44Z</time></trkpt><trkpt lat="38.041180463199304" lon="12.59378881971055"><ele>491.5</ele><time>2026-04-28T09:14:45Z</time></trkpt><trkpt lat="38.04104339155572" lon="12.593745167299867"><ele>494.75</ele><time>2026-04-28T09:14:46Z</time></trkpt><trkpt lat="38.04092591392428" lon="12.59371800575864"><ele>498.0</ele><time>2026-04-28T09:14:47Z</time></trkpt><trkpt lat="38.04083914152145" lon="12.593702767421227"><ele>498.0</ele><time>2026-04-28T09:14:48Z</time></trkpt><trkpt lat="38.04077900118179" lon="12.593594087867096"><ele>497.99999999999994</ele><time>2026-04-28T09:14:50Z</time></trkpt><trkpt lat="38.04085986860036" lon="12.593521040418185"><ele>497.99999999999994</ele><time>2026-04-28T09:14:52Z</time></trkpt><trkpt lat="38.040930947225064" lon="12.593520167303401"><ele>498.0</ele><time>2026-04-28T09:14:53Z</time></trkpt><trkpt lat="38.04102035941605" lon="12.593594549084004"><ele>498.0</ele><time>2026-04-28T09:14:54Z</time></trkpt><trkpt lat="38.04113524005825" lon="12.593683660527248"><ele>498.0</ele><time>2026-04-28T09:14:55Z</time></trkpt><trkpt lat="38.04126879865066" lon="12.593715035134172"><ele>498.0</ele><time>2026-04-28T09:14:56Z</time></trkpt><trkpt lat="38.04140650597141" lon="12.593682703069181"><ele>498.0</ele><time>2026-04-28T09:14:57Z</time></trkpt><trkpt lat="38.041553615047796" lon="12.5936172952026"><ele>498.0</ele><time>2026-04-28T09:14:58Z</time></trkpt><trkpt lat="38.04171115090115" lon="12.593497727041864"><ele>505.66666666666663</ele><time>2026-04-28T09:14:59Z</time></trkpt><trkpt lat="38.0418620188326" lon="12.593373807033387"><ele>513.3333333333333</ele><time>2026-04-28T09:15:00Z</time></trkpt><trkpt lat="38.04198624774672" lon="12.593249427212031"><ele>521.0</ele><time>2026-04-28T09:15:01Z</time></trkpt><trkpt lat="38.042117273527346" lon="12.593127261795393"><ele>521.0</ele><time>2026-04-28T09:15:02Z</time></trkpt><trkpt lat="38.042257451235095" lon="12.59295193838876"><ele>521.0</ele><time>2026-04-28T09:15:03Z</time></trkpt><trkpt lat="38.04242268819059" lon="12.592739620150896"><ele>521.0</ele><time>2026-04-28T09:15:04Z</time></trkpt><trkpt lat="38.042611997867276" lon="12.592527240058846"><ele>529.5</ele><time>2026-04-28T09:15:05Z</time></trkpt><trkpt lat="38.04281275209526" lon="12.592246847101652"><ele>538.0</ele><time>2026-04-28T09:15:06Z</time></trkpt><trkpt lat="38.04296296697704" lon="12.592040739953857"><ele>536.0</ele><time>2026-04-28T09:15:07Z</time></trkpt><trkpt lat="38.04311973080439" lon="12.591898690369364"><ele>534.0</ele><time>2026-04-28T09:15:08Z</time></trkpt><trkpt lat="38.04331274822412" lon="12.591764103427847"><ele>532.0</ele><time>2026-04-28T09:15:09Z</time></trkpt><trkpt lat="38.04347283564298" lon="12.59159645255691"><ele>532.0</ele><time>2026-04-28T09:15:10Z</time></trkpt><trkpt lat="38.043638030484935" lon="12.591410876916882"><ele>532.0</ele><time>2026-04-28T09:15:11Z</time></trkpt><trkpt lat="38.04377325913023" lon="12.591218213400044"><ele>532.0</ele><time>2026-04-28T09:15:12Z</time></trkpt><trkpt lat="38.043880002626146" lon="12.59104294329687"><ele>539.25</ele><time>2026-04-28T09:15:13Z</time></trkpt><trkpt lat="38.04395804179424" lon="12.590870803809542"><ele>546.5</ele><time>2026-04-28T09:15:14Z</time></trkpt><trkpt lat="38.04401028678771" lon="12.590708364630096"><ele>553.75</ele><time>2026-04-28T09:15:15Z</time></trkpt><trkpt lat="38.044045307907766" lon="12.590564775220637"><ele>561.0</ele><time>2026-04-28T09:15:16Z</time></trkpt><trkpt lat="38.04406607337008" lon="12.590436661205551"><ele>565.75</ele><time>2026-04-28T09:15:17Z</time></trkpt><trkpt lat="38.04406685649523" lon="12.590288164372591"><ele>570.5</ele><time>2026-04-28T09:15:18Z</time></trkpt><trkpt lat="38.04404172214109" lon="12.590139576912177"><ele>575.25</ele><time>2026-04-28T09:15:19Z</time></trkpt><trkpt lat="38.04397793785695" lon="12.589956264521728"><ele>580.0</ele><time>2026-04-28T09:15:20Z</time></trkpt><trkpt lat="38.043930342827366" lon="12.5897157268271"><ele>581.5</ele><time>2026-04-28T09:15:21Z</time></trkpt><trkpt lat="38.04386777008387" lon="12.589436718618702"><ele>583.0</ele><time>2026-04-28T09:15:22Z</time></trkpt><trkpt lat="38.04379011072649" lon="12.589162199406106"><ele>583.0</ele><time>2026-04-28T09:15:23Z</time></trkpt><trkpt lat="38.04371118233313" lon="12.588934742987501"><ele>583.0</ele><time>2026-04-28T09:15:24Z</time></trkpt><trkpt lat="38.043656737635544" lon="12.58875011335039"><ele>583.0</ele><time>2026-04-28T09:15:25Z</time></trkpt><trkpt lat="38.04364664757091" lon="12.588592203637138"><ele>582.5</ele><time>2026-04-28T09:15:26Z</time></trkpt><trkpt lat="38.04363441188397" lon="12.588466111761138"><ele>582.0</ele><time>2026-04-28T09:15:27Z</time></trkpt><trkpt lat="38.043613125855174" lon="12.588383106531564"><ele>581.5</ele><time>2026-04-28T09:15:28Z</time></trkpt><trkpt lat="38.04360068517971" lon="12.588292709063268"><ele>581.0</ele><time>2026-04-28T09:15:30Z</time></trkpt><trkpt lat="38.04353201227116" lon="12.588234551171121"><ele>580.5</ele><time>2026-04-28T09:15:32Z</time></trkpt><trkpt lat="38.0434234352022" lon="12.588271702516911"><ele>580.0</ele><time>2026-04-28T09:15:34Z</time></trkpt><trkpt lat="38.04339673694615" lon="12.58835528719719"><ele>580.0</ele><time>2026-04-28T09:15:35Z</time></trkpt><trkpt lat="38.043431573766135" lon="12.58849100945131"><ele>580.0</ele><time>2026-04-28T09:15:36Z</time></trkpt><trkpt lat="38.043499859477706" lon="12.588651596194975"><ele>580.0</ele><time>2026-04-28T09:15:37Z</time></trkpt><trkpt lat="38.043529778893685" lon="12.588808913204911"><ele>580.0</ele><time>2026-04-28T09:15:38Z</time></trkpt><trkpt lat="38.04354773198742" lon="12.588968588570246"><ele>580.0</ele><time>2026-04-28T09:15:39Z</time></trkpt><trkpt lat="38.04355143443112" lon="12.589199281266934"><ele>580.0</ele><time>2026-04-28T09:15:40Z</time></trkpt><trkpt lat="38.04355774886192" lon="12.589598493879969"><ele>580.0</ele><time>2026-04-28T09:15:41Z</time></trkpt><trkpt lat="38.043568012631404" lon="12.589858296342634"><ele>580.0</ele><time>2026-04-28T09:15:42Z</time></trkpt><trkpt lat="38.04358939481291" lon="12.590062597152661"><ele>580.0</ele><time>2026-04-28T09:15:43Z</time></trkpt><trkpt lat="38.043550656589964" lon="12.590241252965889"><ele>575.25</ele><time>2026-04-28T09:15:44Z</time></trkpt><trkpt lat="38.043498987388354" lon="12.590411486083037"><ele>570.5</ele><time>2026-04-28T09:15:45Z</time></trkpt><trkpt lat="38.04341511129986" lon="12.590571930564227"><ele>565.75</ele><time>2026-04-28T09:15:46Z</time></trkpt><trkpt lat="38.04335855076099" lon="12.590718461026432"><ele>561.0</ele><time>2026-04-28T09:15:47Z</time></trkpt><trkpt lat="38.04331536528968" lon="12.59083892991148"><ele>561.0</ele><time>2026-04-28T09:15:48Z</time></trkpt><trkpt lat="38.04320693678756" lon="12.590908344355475"><ele>561.0</ele><time>2026-04-28T09:15:50Z</time></trkpt><trkpt lat="38.04314300917536" lon="12.590846147611968"><ele>561.0</ele><time>2026-04-28T09:15:51Z</time></trkpt><trkpt lat="38.04312452759625" lon="12.590703669582634"><ele>561.0</ele><time>2026-04-28T09:15:51.999Z</time></trkpt><trkpt lat="38.04318321198611" lon="12.590597127318775"><ele>561.0</ele><time>2026-04-28T09:15:52.999Z</time></trkpt><trkpt lat="38.04331620151563" lon="12.590541504039356"><ele>561.0</ele><time>2026-04-28T09:15:53.999Z</time></trkpt><trkpt lat="38.04341231396" lon="12.590424641652518"><ele>561.0</ele><time>2026-04-28T09:15:54.999Z</time></trkpt><trkpt lat="38.04345129742045" lon="12.59026379974467"><ele>561.0</ele><time>2026-04-28T09:15:55.999Z</time></trkpt><trkpt lat="38.04343374644351" lon="12.59005976868886"><ele>561.0</ele><time>2026-04-28T09:15:56.999Z</time></trkpt><trkpt lat="38.043393378715756" lon="12.589843140624788"><ele>570.5</ele><time>2026-04-28T09:15:57.999Z</time></trkpt><trkpt lat="38.043341609204674" lon="12.589566796931077"><ele>580.0</ele><time>2026-04-28T09:15:58.999Z</time></trkpt><trkpt lat="38.043267885725925" lon="12.589232730073896"><ele>609.5</ele><time>2026-04-28T09:15:59.999Z</time></trkpt><trkpt lat="38.04320712073758" lon="12.588839330925865"><ele>639.0</ele><time>2026-04-28T09:16:00.999Z</time></trkpt><trkpt lat="38.043113139394514" lon="12.58846577530905"><ele>639.0</ele><time>2026-04-28T09:16:01.999Z</time></trkpt><trkpt lat="38.043011849088195" lon="12.588164440178993"><ele>639.0</ele><time>2026-04-28T09:16:02.999Z</time></trkpt><trkpt lat="38.0429357825591" lon="12.587921676009001"><ele>637.0</ele><time>2026-04-28T09:16:03.999Z</time></trkpt><trkpt lat="38.042919587003816" lon="12.587703781391337"><ele>635.0</ele><time>2026-04-28T09:16:04.999Z</time></trkpt><trkpt lat="38.042941503819925" lon="12.587496174620023"><ele>633.0</ele><time>2026-04-28T09:16:05.999Z</time></trkpt><trkpt lat="38.043000721520684" lon="12.58723635973804"><ele>634.6666666666666</ele><time>2026-04-28T09:16:06.999Z</time></trkpt><trkpt lat="38.043003924547314" lon="12.58698221296183"><ele>636.3333333333333</ele><time>2026-04-28T09:16:07.999Z</time></trkpt><trkpt lat="38.04302220212541" lon="12.586780912948683"><ele>638.0</ele><time>2026-04-28T09:16:08.999Z</time></trkpt><trkpt lat="38.04304457034624" lon="12.586608604920556"><ele>638.0</ele><time>2026-04-28T09:16:09.999Z</time></trkpt><trkpt lat="38.04311514866486" lon="12.586452685284804"><ele>638.0</ele><time>2026-04-28T09:16:10.999Z</time></trkpt><trkpt lat="38.04322406227406" lon="12.586326790719204"><ele>638.0</ele><time>2026-04-28T09:16:11.999Z</time></trkpt><trkpt lat="38.0433583821388" lon="12.586181086833859"><ele>630.6666666666666</ele><time>2026-04-28T09:16:12.999Z</time></trkpt><trkpt lat="38.04348625445757" lon="12.585973443494753"><ele>623.3333333333334</ele><time>2026-04-28T09:16:13.999Z</time></trkpt><trkpt lat="38.043572486827244" lon="12.585754643793111"><ele>616.0</ele><time>2026-04-28T09:16:14.999Z</time></trkpt><trkpt lat="38.04364991715784" lon="12.585470415364322"><ele>619.3333333333334</ele><time>2026-04-28T09:16:15.999Z</time></trkpt><trkpt lat="38.043744390604196" lon="12.58520601715201"><ele>622.6666666666666</ele><time>2026-04-28T09:16:16.999Z</time></trkpt><trkpt lat="38.04381313578168" lon="12.585004111556918"><ele>626.0</ele><time>2026-04-28T09:16:17.999Z</time></trkpt><trkpt lat="38.04388214474649" lon="12.584850158399423"><ele>626.0</ele><time>2026-04-28T09:16:18.999Z</time></trkpt><trkpt lat="38.04393665178196" lon="12.584710708758733"><ele>626.0</ele><time>2026-04-28T09:16:19.999Z</time></trkpt><trkpt lat="38.0439495696042" lon="12.584631494740064"><ele>626.0</ele><time>2026-04-28T09:16:20.999Z</time></trkpt><trkpt lat="38.043909113154385" lon="12.58453951048753"><ele>626.0</ele><time>2026-04-28T09:16:21.999Z</time></trkpt><trkpt lat="38.04381582319391" lon="12.584480026071061"><ele>626.0</ele><time>2026-04-28T09:16:22.999Z</time></trkpt><trkpt lat="38.04366999639846" lon="12.584477475849136"><ele>624.6666666666666</ele><time>2026-04-28T09:16:23.999Z</time></trkpt><trkpt lat="38.04349250114688" lon="12.58449631112381"><ele>623.3333333333334</ele><time>2026-04-28T09:16:24.999Z</time></trkpt><trkpt lat="38.043325568863956" lon="12.584494045334266"><ele>622.0</ele><time>2026-04-28T09:16:25.999Z</time></trkpt><trkpt lat="38.04318866514052" lon="12.584402123595988"><ele>626.6666666666667</ele><time>2026-04-28T09:16:26.999Z</time></trkpt><trkpt lat="38.04308858475574" lon="12.584234283585547"><ele>631.3333333333334</ele><time>2026-04-28T09:16:27.999Z</time></trkpt><trkpt lat="38.04297272843432" lon="12.584034460421384"><ele>636.0</ele><time>2026-04-28T09:16:28.999Z</time></trkpt><trkpt lat="38.04284312639063" lon="12.583853638596374"><ele>636.0</ele><time>2026-04-28T09:16:29.999Z</time></trkpt><trkpt lat="38.04268568533644" lon="12.583745752041574"><ele>636.0</ele><time>2026-04-28T09:16:30.999Z</time></trkpt><trkpt lat="38.04255769029679" lon="12.5834804341735"><ele>636.0</ele><time>2026-04-28T09:16:31.999Z</time></trkpt><trkpt lat="38.042241027703284" lon="12.583614860956956"><ele>635.5</ele><time>2026-04-28T09:16:33Z</time></trkpt><trkpt lat="38.04200247079802" lon="12.583507170941141"><ele>635.0</ele><time>2026-04-28T09:16:34Z</time></trkpt><trkpt lat="38.04176910352214" lon="12.58331867740086"><ele>645.0</ele><time>2026-04-28T09:16:35Z</time></trkpt><trkpt lat="38.041517263468585" lon="12.583090015274822"><ele>655.0</ele><time>2026-04-28T09:16:36Z</time></trkpt><trkpt lat="38.04127837624034" lon="12.582890287705744"><ele>652.3333333333334</ele><time>2026-04-28T09:16:37Z</time></trkpt><trkpt lat="38.0410893598656" lon="12.58274663208233"><ele>649.6666666666666</ele><time>2026-04-28T09:16:38Z</time></trkpt><trkpt lat="38.040927697796654" lon="12.582651999208453"><ele>647.0</ele><time>2026-04-28T09:16:39Z</time></trkpt><trkpt lat="38.04078512740991" lon="12.582621991856843"><ele>649.5</ele><time>2026-04-28T09:16:40Z</time></trkpt><trkpt lat="38.04069293249156" lon="12.582513882673346"><ele>652.0</ele><time>2026-04-28T09:16:41Z</time></trkpt><trkpt lat="38.04061951299398" lon="12.582398369108182"><ele>654.5</ele><time>2026-04-28T09:16:42Z</time></trkpt><trkpt lat="38.04064436649913" lon="12.582216956074163"><ele>657.0</ele><time>2026-04-28T09:16:43Z</time></trkpt><trkpt lat="38.040625403223466" lon="12.582003120953077"><ele>657.0</ele><time>2026-04-28T09:16:44Z</time></trkpt><trkpt lat="38.04058480309061" lon="12.58185299425696"><ele>657.0</ele><time>2026-04-28T09:16:45Z</time></trkpt><trkpt lat="38.04048616207546" lon="12.581709212874992"><ele>657.0</ele><time>2026-04-28T09:16:46Z</time></trkpt><trkpt lat="38.04038094937323" lon="12.58156886391627"><ele>657.0</ele><time>2026-04-28T09:16:47Z</time></trkpt><trkpt lat="38.04031680653741" lon="12.58144871453997"><ele>657.0</ele><time>2026-04-28T09:16:48Z</time></trkpt><trkpt lat="38.040244550862454" lon="12.581380148619806"><ele>657.0</ele><time>2026-04-28T09:16:49Z</time></trkpt><trkpt lat="38.04016537329747" lon="12.581380464234474"><ele>657.0</ele><time>2026-04-28T09:16:50Z</time></trkpt><trkpt lat="38.04008131140149" lon="12.581492715513766"><ele>657.0</ele><time>2026-04-28T09:16:51Z</time></trkpt><trkpt lat="38.04002803804662" lon="12.581650675599958"><ele>657.0</ele><time>2026-04-28T09:16:52Z</time></trkpt><trkpt lat="38.040050676884306" lon="12.5818328798422"><ele>658.75</ele><time>2026-04-28T09:16:53Z</time></trkpt><trkpt lat="38.040049552854164" lon="12.582027176668442"><ele>660.5</ele><time>2026-04-28T09:16:54Z</time></trkpt><trkpt lat="38.040040560674754" lon="12.582206864036873"><ele>662.25</ele><time>2026-04-28T09:16:55Z</time></trkpt><trkpt lat="38.04002148336302" lon="12.582390415610483"><ele>664.0</ele><time>2026-04-28T09:16:56Z</time></trkpt><trkpt lat="38.03996801532504" lon="12.582617293799652"><ele>669.0</ele><time>2026-04-28T09:16:57Z</time></trkpt><trkpt lat="38.03983848064725" lon="12.582935264188974"><ele>674.0</ele><time>2026-04-28T09:16:58Z</time></trkpt><trkpt lat="38.039789175390965" lon="12.58311495077926"><ele>679.0</ele><time>2026-04-28T09:16:59Z</time></trkpt><trkpt lat="38.03977919178889" lon="12.583304525061239"><ele>679.0</ele><time>2026-04-28T09:17:00Z</time></trkpt><trkpt lat="38.03982132596837" lon="12.583420662171427"><ele>679.0</ele><time>2026-04-28T09:17:01Z</time></trkpt><trkpt lat="38.039884335439936" lon="12.583514072104075"><ele>679.0</ele><time>2026-04-28T09:17:02Z</time></trkpt><trkpt lat="38.03997411458433" lon="12.583723825515934"><ele>679.0</ele><time>2026-04-28T09:17:03Z</time></trkpt><trkpt lat="38.04005272884812" lon="12.583908375317218"><ele>681.0</ele><time>2026-04-28T09:17:04Z</time></trkpt><trkpt lat="38.04013256791976" lon="12.584094804836646"><ele>683.0</ele><time>2026-04-28T09:17:05Z</time></trkpt><trkpt lat="38.04021168798439" lon="12.584278224553433"><ele>685.0</ele><time>2026-04-28T09:17:06Z</time></trkpt><trkpt lat="38.04027514181976" lon="12.584430969375695"><ele>686.5</ele><time>2026-04-28T09:17:07Z</time></trkpt><trkpt lat="38.04030407775574" lon="12.58456253615264"><ele>688.0</ele><time>2026-04-28T09:17:08Z</time></trkpt><trkpt lat="38.04035394335492" lon="12.584634520681474"><ele>689.5</ele><time>2026-04-28T09:17:09Z</time></trkpt><trkpt lat="38.04035569641843" lon="12.584722898246739"><ele>691.0</ele><time>2026-04-28T09:17:10Z</time></trkpt><trkpt lat="38.0402556923607" lon="12.584745551846172"><ele>692.5</ele><time>2026-04-28T09:17:11Z</time></trkpt><trkpt lat="38.040187162387454" lon="12.584723955783936"><ele>694.0</ele><time>2026-04-28T09:17:12Z</time></trkpt><trkpt lat="38.04010929923318" lon="12.58453221440746"><ele>694.3333333333334</ele><time>2026-04-28T09:17:13Z</time></trkpt><trkpt lat="38.03987015854463" lon="12.584410312799477"><ele>694.6666666666666</ele><time>2026-04-28T09:17:14Z</time></trkpt><trkpt lat="38.03970137057165" lon="12.584324273387566"><ele>695.0</ele><time>2026-04-28T09:17:15Z</time></trkpt><trkpt lat="38.039540034222505" lon="12.584242032437698"><ele>695.0</ele><time>2026-04-28T09:17:16Z</time></trkpt><trkpt lat="38.03935322078829" lon="12.584150735375946"><ele>695.0</ele><time>2026-04-28T09:17:17Z</time></trkpt><trkpt lat="38.03918378368582" lon="12.584060125214693"><ele>695.0</ele><time>2026-04-28T09:17:18Z</time></trkpt><trkpt lat="38.0390110639876" lon="12.583973135918269"><ele>700.0</ele><time>2026-04-28T09:17:19Z</time></trkpt><trkpt lat="38.03883870676172" lon="12.58388552865608"><ele>705.0</ele><time>2026-04-28T09:17:20Z</time></trkpt><trkpt lat="38.038670653721" lon="12.583807103917948"><ele>710.0</ele><time>2026-04-28T09:17:21Z</time></trkpt><trkpt lat="38.038506750302126" lon="12.583725198291212"><ele>709.6666666666666</ele><time>2026-04-28T09:17:22Z</time></trkpt><trkpt lat="38.038348750295164" lon="12.583630207111119"><ele>709.3333333333334</ele><time>2026-04-28T09:17:23Z</time></trkpt><trkpt lat="38.03817843855438" lon="12.583540042439923"><ele>709.0</ele><time>2026-04-28T09:17:24Z</time></trkpt><trkpt lat="38.03801625656258" lon="12.583449489569523"><ele>709.0</ele><time>2026-04-28T09:17:25Z</time></trkpt><trkpt lat="38.03785141210838" lon="12.583363034420257"><ele>709.0</ele><time>2026-04-28T09:17:26Z</time></trkpt><trkpt lat="38.037686059346896" lon="12.583282147045995"><ele>709.0</ele><time>2026-04-28T09:17:27Z</time></trkpt><trkpt lat="38.03752919639183" lon="12.583214711654657"><ele>712.3333333333334</ele><time>2026-04-28T09:17:28Z</time></trkpt><trkpt lat="38.03739280079414" lon="12.583137888480548"><ele>715.6666666666666</ele><time>2026-04-28T09:17:29Z</time></trkpt><trkpt lat="38.037235142737536" lon="12.583072525262867"><ele>719.0</ele><time>2026-04-28T09:17:30Z</time></trkpt><trkpt lat="38.03708761311943" lon="12.582995078765062"><ele>719.0</ele><time>2026-04-28T09:17:31Z</time></trkpt><trkpt lat="38.03694213234251" lon="12.582925887814248"><ele>719.0</ele><time>2026-04-28T09:17:32Z</time></trkpt><trkpt lat="38.03679901847437" lon="12.582851891379844"><ele>719.0</ele><time>2026-04-28T09:17:33Z</time></trkpt><trkpt lat="38.03667365657842" lon="12.582780334322633"><ele>719.0</ele><time>2026-04-28T09:17:34Z</time></trkpt><trkpt lat="38.0365513150876" lon="12.582718788361744"><ele>715.8000000000001</ele><time>2026-04-28T09:17:35Z</time></trkpt><trkpt lat="38.03645263487778" lon="12.582671861633441"><ele>712.6</ele><time>2026-04-28T09:17:36Z</time></trkpt><trkpt lat="38.036373099675544" lon="12.582644755664013"><ele>709.4</ele><time>2026-04-28T09:17:37Z</time></trkpt><trkpt lat="38.036273336138365" lon="12.582678369565125"><ele>706.2</ele><time>2026-04-28T09:17:38Z</time></trkpt><trkpt lat="38.036206507989064" lon="12.582725239196126"><ele>703.0</ele><time>2026-04-28T09:17:39Z</time></trkpt><trkpt lat="38.03613989779791" lon="12.582794436458055"><ele>702.8333333333334</ele><time>2026-04-28T09:17:41Z</time></trkpt><trkpt lat="38.03605852072961" lon="12.582859764818014"><ele>702.6666666666667</ele><time>2026-04-28T09:17:44Z</time></trkpt><trkpt lat="38.03599041026058" lon="12.582902893127578"><ele>702.5</ele><time>2026-04-28T09:17:45Z</time></trkpt><trkpt lat="38.0359159164512" lon="12.5829730246086"><ele>702.3333333333334</ele><time>2026-04-28T09:17:46Z</time></trkpt><trkpt lat="38.03586438090605" lon="12.583043037163101"><ele>702.1666666666666</ele><time>2026-04-28T09:17:47Z</time></trkpt><trkpt lat="38.03583894966035" lon="12.583132612574115"><ele>702.0</ele><time>2026-04-28T09:17:48Z</time></trkpt><trkpt lat="38.035829240674204" lon="12.583223418576043"><ele>702.0</ele><time>2026-04-28T09:17:49Z</time></trkpt><trkpt lat="38.035839364166385" lon="12.583363982026336"><ele>702.0</ele><time>2026-04-28T09:17:51Z</time></trkpt><trkpt lat="38.03584066272628" lon="12.583476731812059"><ele>702.0</ele><time>2026-04-28T09:17:53Z</time></trkpt><trkpt lat="38.035830063073206" lon="12.583562238496048"><ele>702.0</ele><time>2026-04-28T09:17:55.999Z</time></trkpt><trkpt lat="38.03583061822922" lon="12.583473274885781"><ele>702.0</ele><time>2026-04-28T09:18:31.999Z</time></trkpt><trkpt lat="38.03584481451583" lon="12.583554448491803"><ele>702.0</ele><time>2026-04-28T09:19:58Z</time></trkpt><trkpt lat="38.0359072101534" lon="12.583523054122884"><ele>702.0</ele><time>2026-04-28T09:20:03.999Z</time></trkpt><trkpt lat="38.035959742001396" lon="12.58347639022577"><ele>702.0</ele><time>2026-04-28T09:20:09.999Z</time></trkpt><trkpt lat="38.03589233992716" lon="12.583487175041736"><ele>702.0</ele><time>2026-04-28T09:20:21.999Z</time></trkpt><trkpt lat="38.03582917934283" lon="12.583469126651272"><ele>702.0</ele><time>2026-04-28T09:20:54Z</time></trkpt><trkpt lat="38.03579568632913" lon="12.58354308001571"><ele>665.0</ele><time>2026-04-28T09:21:48Z</time></trkpt></trkseg></trk></gpx>